<?xml version="1.0" encoding="UTF-8" standalone="no" ?>
<gpx xmlns="http://www.topografix.com/GPX/1/1" xmlns:xsi="http://www.w3.org/2001/XMLSchema-instance" xsi:schemaLocation="http://www.topografix.com/GPX/1/1 http://www.topografix.com/GPX/1/1/gpx.xsd" version="1.1" creator="VisuGPX - https://www.visugpx.com">
  <metadata>
    <name>randonée de BAUNE 04/09/2011</name>
    <desc><![CDATA[sortie VTT de BAUNE]]></desc>
  </metadata>
  <trk>
    <name><![CDATA[2011-09-04 09:11]]></name>
    <desc><![CDATA[]]></desc>
    <trkseg>
      <trkpt lat="47.50269" lon="-0.31682">
        <ele>70</ele>
        <time>2011-09-04T07:12:11Z</time>
      </trkpt>
      <trkpt lat="47.50272" lon="-0.3171">
        <ele>85</ele>
        <time>2011-09-04T07:12:54Z</time>
      </trkpt>
      <trkpt lat="47.50275" lon="-0.31718">
        <ele>85</ele>
        <time>2011-09-04T07:12:58Z</time>
      </trkpt>
      <trkpt lat="47.5028" lon="-0.31716">
        <ele>82</ele>
        <time>2011-09-04T07:13:04Z</time>
      </trkpt>
      <trkpt lat="47.50282" lon="-0.3171">
        <ele>85</ele>
        <time>2011-09-04T07:13:06Z</time>
      </trkpt>
      <trkpt lat="47.50289" lon="-0.31704">
        <ele>84</ele>
        <time>2011-09-04T07:13:08Z</time>
      </trkpt>
      <trkpt lat="47.50294" lon="-0.31702">
        <ele>83</ele>
        <time>2011-09-04T07:13:10Z</time>
      </trkpt>
      <trkpt lat="47.50298" lon="-0.317">
        <ele>83</ele>
        <time>2011-09-04T07:13:12Z</time>
      </trkpt>
      <trkpt lat="47.50303" lon="-0.31698">
        <ele>81</ele>
        <time>2011-09-04T07:13:15Z</time>
      </trkpt>
      <trkpt lat="47.50308" lon="-0.31698">
        <ele>78</ele>
        <time>2011-09-04T07:13:20Z</time>
      </trkpt>
      <trkpt lat="47.5031" lon="-0.31707">
        <ele>74</ele>
        <time>2011-09-04T07:13:24Z</time>
      </trkpt>
      <trkpt lat="47.50313" lon="-0.31719">
        <ele>74</ele>
        <time>2011-09-04T07:13:26Z</time>
      </trkpt>
      <trkpt lat="47.50314" lon="-0.31732">
        <ele>74</ele>
        <time>2011-09-04T07:13:28Z</time>
      </trkpt>
      <trkpt lat="47.50315" lon="-0.31739">
        <ele>74</ele>
        <time>2011-09-04T07:13:29Z</time>
      </trkpt>
      <trkpt lat="47.50317" lon="-0.31752">
        <ele>74</ele>
        <time>2011-09-04T07:13:31Z</time>
      </trkpt>
      <trkpt lat="47.50317" lon="-0.31759">
        <ele>74</ele>
        <time>2011-09-04T07:13:32Z</time>
      </trkpt>
      <trkpt lat="47.50318" lon="-0.31766">
        <ele>74</ele>
        <time>2011-09-04T07:13:33Z</time>
      </trkpt>
      <trkpt lat="47.50319" lon="-0.31774">
        <ele>74</ele>
        <time>2011-09-04T07:13:34Z</time>
      </trkpt>
      <trkpt lat="47.50319" lon="-0.31781">
        <ele>73</ele>
        <time>2011-09-04T07:13:35Z</time>
      </trkpt>
      <trkpt lat="47.5032" lon="-0.31789">
        <ele>73</ele>
        <time>2011-09-04T07:13:36Z</time>
      </trkpt>
      <trkpt lat="47.5032" lon="-0.31796">
        <ele>73</ele>
        <time>2011-09-04T07:13:37Z</time>
      </trkpt>
      <trkpt lat="47.5032" lon="-0.31803">
        <ele>73</ele>
        <time>2011-09-04T07:13:38Z</time>
      </trkpt>
      <trkpt lat="47.5032" lon="-0.31811">
        <ele>73</ele>
        <time>2011-09-04T07:13:39Z</time>
      </trkpt>
      <trkpt lat="47.5032" lon="-0.31819">
        <ele>73</ele>
        <time>2011-09-04T07:13:40Z</time>
      </trkpt>
      <trkpt lat="47.5032" lon="-0.31826">
        <ele>73</ele>
        <time>2011-09-04T07:13:41Z</time>
      </trkpt>
      <trkpt lat="47.5032" lon="-0.31834">
        <ele>73</ele>
        <time>2011-09-04T07:13:42Z</time>
      </trkpt>
      <trkpt lat="47.5032" lon="-0.31841">
        <ele>73</ele>
        <time>2011-09-04T07:13:43Z</time>
      </trkpt>
      <trkpt lat="47.50319" lon="-0.31848">
        <ele>73</ele>
        <time>2011-09-04T07:13:44Z</time>
      </trkpt>
      <trkpt lat="47.50319" lon="-0.31856">
        <ele>73</ele>
        <time>2011-09-04T07:13:45Z</time>
      </trkpt>
      <trkpt lat="47.50319" lon="-0.31868">
        <ele>73</ele>
        <time>2011-09-04T07:13:47Z</time>
      </trkpt>
      <trkpt lat="47.50319" lon="-0.31875">
        <ele>73</ele>
        <time>2011-09-04T07:13:48Z</time>
      </trkpt>
      <trkpt lat="47.5032" lon="-0.31889">
        <ele>72</ele>
        <time>2011-09-04T07:13:50Z</time>
      </trkpt>
      <trkpt lat="47.5032" lon="-0.31897">
        <ele>72</ele>
        <time>2011-09-04T07:13:51Z</time>
      </trkpt>
      <trkpt lat="47.50319" lon="-0.31904">
        <ele>73</ele>
        <time>2011-09-04T07:13:52Z</time>
      </trkpt>
      <trkpt lat="47.50318" lon="-0.31912">
        <ele>73</ele>
        <time>2011-09-04T07:13:53Z</time>
      </trkpt>
      <trkpt lat="47.50318" lon="-0.3192">
        <ele>73</ele>
        <time>2011-09-04T07:13:54Z</time>
      </trkpt>
      <trkpt lat="47.50318" lon="-0.31928">
        <ele>73</ele>
        <time>2011-09-04T07:13:55Z</time>
      </trkpt>
      <trkpt lat="47.50318" lon="-0.31936">
        <ele>73</ele>
        <time>2011-09-04T07:13:56Z</time>
      </trkpt>
      <trkpt lat="47.50318" lon="-0.31944">
        <ele>73</ele>
        <time>2011-09-04T07:13:57Z</time>
      </trkpt>
      <trkpt lat="47.50318" lon="-0.31952">
        <ele>73</ele>
        <time>2011-09-04T07:13:58Z</time>
      </trkpt>
      <trkpt lat="47.50318" lon="-0.3196">
        <ele>73</ele>
        <time>2011-09-04T07:13:59Z</time>
      </trkpt>
      <trkpt lat="47.50318" lon="-0.31967">
        <ele>74</ele>
        <time>2011-09-04T07:14:00Z</time>
      </trkpt>
      <trkpt lat="47.50318" lon="-0.31975">
        <ele>74</ele>
        <time>2011-09-04T07:14:01Z</time>
      </trkpt>
      <trkpt lat="47.50318" lon="-0.31983">
        <ele>74</ele>
        <time>2011-09-04T07:14:02Z</time>
      </trkpt>
      <trkpt lat="47.50318" lon="-0.3199">
        <ele>74</ele>
        <time>2011-09-04T07:14:03Z</time>
      </trkpt>
      <trkpt lat="47.50318" lon="-0.31998">
        <ele>75</ele>
        <time>2011-09-04T07:14:04Z</time>
      </trkpt>
      <trkpt lat="47.50318" lon="-0.32006">
        <ele>74</ele>
        <time>2011-09-04T07:14:05Z</time>
      </trkpt>
      <trkpt lat="47.50319" lon="-0.32014">
        <ele>75</ele>
        <time>2011-09-04T07:14:06Z</time>
      </trkpt>
      <trkpt lat="47.50319" lon="-0.32021">
        <ele>75</ele>
        <time>2011-09-04T07:14:07Z</time>
      </trkpt>
      <trkpt lat="47.5032" lon="-0.32029">
        <ele>75</ele>
        <time>2011-09-04T07:14:08Z</time>
      </trkpt>
      <trkpt lat="47.50321" lon="-0.32043">
        <ele>76</ele>
        <time>2011-09-04T07:14:10Z</time>
      </trkpt>
      <trkpt lat="47.50322" lon="-0.3205">
        <ele>75</ele>
        <time>2011-09-04T07:14:11Z</time>
      </trkpt>
      <trkpt lat="47.50323" lon="-0.32058">
        <ele>75</ele>
        <time>2011-09-04T07:14:12Z</time>
      </trkpt>
      <trkpt lat="47.50323" lon="-0.32065">
        <ele>76</ele>
        <time>2011-09-04T07:14:13Z</time>
      </trkpt>
      <trkpt lat="47.50324" lon="-0.32073">
        <ele>76</ele>
        <time>2011-09-04T07:14:14Z</time>
      </trkpt>
      <trkpt lat="47.50325" lon="-0.32081">
        <ele>76</ele>
        <time>2011-09-04T07:14:15Z</time>
      </trkpt>
      <trkpt lat="47.50325" lon="-0.32088">
        <ele>76</ele>
        <time>2011-09-04T07:14:16Z</time>
      </trkpt>
      <trkpt lat="47.50326" lon="-0.32095">
        <ele>77</ele>
        <time>2011-09-04T07:14:17Z</time>
      </trkpt>
      <trkpt lat="47.50327" lon="-0.32102">
        <ele>77</ele>
        <time>2011-09-04T07:14:18Z</time>
      </trkpt>
      <trkpt lat="47.50327" lon="-0.3211">
        <ele>77</ele>
        <time>2011-09-04T07:14:19Z</time>
      </trkpt>
      <trkpt lat="47.50327" lon="-0.32117">
        <ele>78</ele>
        <time>2011-09-04T07:14:20Z</time>
      </trkpt>
      <trkpt lat="47.50325" lon="-0.32128">
        <ele>78</ele>
        <time>2011-09-04T07:14:22Z</time>
      </trkpt>
      <trkpt lat="47.50324" lon="-0.32134">
        <ele>78</ele>
        <time>2011-09-04T07:14:23Z</time>
      </trkpt>
      <trkpt lat="47.50322" lon="-0.32142">
        <ele>79</ele>
        <time>2011-09-04T07:14:24Z</time>
      </trkpt>
      <trkpt lat="47.5032" lon="-0.32148">
        <ele>79</ele>
        <time>2011-09-04T07:14:25Z</time>
      </trkpt>
      <trkpt lat="47.50318" lon="-0.32156">
        <ele>79</ele>
        <time>2011-09-04T07:14:26Z</time>
      </trkpt>
      <trkpt lat="47.50316" lon="-0.32164">
        <ele>80</ele>
        <time>2011-09-04T07:14:27Z</time>
      </trkpt>
      <trkpt lat="47.50315" lon="-0.32172">
        <ele>81</ele>
        <time>2011-09-04T07:14:28Z</time>
      </trkpt>
      <trkpt lat="47.50313" lon="-0.32178">
        <ele>81</ele>
        <time>2011-09-04T07:14:29Z</time>
      </trkpt>
      <trkpt lat="47.50312" lon="-0.32185">
        <ele>81</ele>
        <time>2011-09-04T07:14:30Z</time>
      </trkpt>
      <trkpt lat="47.5031" lon="-0.32199">
        <ele>83</ele>
        <time>2011-09-04T07:14:32Z</time>
      </trkpt>
      <trkpt lat="47.50309" lon="-0.32212">
        <ele>84</ele>
        <time>2011-09-04T07:14:34Z</time>
      </trkpt>
      <trkpt lat="47.50308" lon="-0.32224">
        <ele>84</ele>
        <time>2011-09-04T07:14:36Z</time>
      </trkpt>
      <trkpt lat="47.50309" lon="-0.32235">
        <ele>84</ele>
        <time>2011-09-04T07:14:38Z</time>
      </trkpt>
      <trkpt lat="47.5031" lon="-0.32244">
        <ele>86</ele>
        <time>2011-09-04T07:14:40Z</time>
      </trkpt>
      <trkpt lat="47.50309" lon="-0.32251">
        <ele>86</ele>
        <time>2011-09-04T07:14:43Z</time>
      </trkpt>
      <trkpt lat="47.50308" lon="-0.32242">
        <ele>87</ele>
        <time>2011-09-04T07:15:06Z</time>
      </trkpt>
      <trkpt lat="47.50307" lon="-0.3223">
        <ele>87</ele>
        <time>2011-09-04T07:15:08Z</time>
      </trkpt>
      <trkpt lat="47.50306" lon="-0.32223">
        <ele>88</ele>
        <time>2011-09-04T07:15:09Z</time>
      </trkpt>
      <trkpt lat="47.50306" lon="-0.32215">
        <ele>88</ele>
        <time>2011-09-04T07:15:10Z</time>
      </trkpt>
      <trkpt lat="47.50307" lon="-0.32205">
        <ele>87</ele>
        <time>2011-09-04T07:15:11Z</time>
      </trkpt>
      <trkpt lat="47.50308" lon="-0.32196">
        <ele>86</ele>
        <time>2011-09-04T07:15:12Z</time>
      </trkpt>
      <trkpt lat="47.5031" lon="-0.32186">
        <ele>85</ele>
        <time>2011-09-04T07:15:13Z</time>
      </trkpt>
      <trkpt lat="47.50312" lon="-0.32176">
        <ele>85</ele>
        <time>2011-09-04T07:15:14Z</time>
      </trkpt>
      <trkpt lat="47.50314" lon="-0.32167">
        <ele>84</ele>
        <time>2011-09-04T07:15:15Z</time>
      </trkpt>
      <trkpt lat="47.50316" lon="-0.32157">
        <ele>83</ele>
        <time>2011-09-04T07:15:16Z</time>
      </trkpt>
      <trkpt lat="47.50319" lon="-0.32147">
        <ele>83</ele>
        <time>2011-09-04T07:15:17Z</time>
      </trkpt>
      <trkpt lat="47.50321" lon="-0.32136">
        <ele>83</ele>
        <time>2011-09-04T07:15:18Z</time>
      </trkpt>
      <trkpt lat="47.50322" lon="-0.32124">
        <ele>82</ele>
        <time>2011-09-04T07:15:19Z</time>
      </trkpt>
      <trkpt lat="47.50323" lon="-0.32112">
        <ele>82</ele>
        <time>2011-09-04T07:15:20Z</time>
      </trkpt>
      <trkpt lat="47.50323" lon="-0.321">
        <ele>82</ele>
        <time>2011-09-04T07:15:21Z</time>
      </trkpt>
      <trkpt lat="47.50322" lon="-0.32088">
        <ele>82</ele>
        <time>2011-09-04T07:15:22Z</time>
      </trkpt>
      <trkpt lat="47.50322" lon="-0.32076">
        <ele>81</ele>
        <time>2011-09-04T07:15:23Z</time>
      </trkpt>
      <trkpt lat="47.50321" lon="-0.32065">
        <ele>81</ele>
        <time>2011-09-04T07:15:24Z</time>
      </trkpt>
      <trkpt lat="47.5032" lon="-0.32054">
        <ele>81</ele>
        <time>2011-09-04T07:15:25Z</time>
      </trkpt>
      <trkpt lat="47.50319" lon="-0.32042">
        <ele>81</ele>
        <time>2011-09-04T07:15:26Z</time>
      </trkpt>
      <trkpt lat="47.50318" lon="-0.32031">
        <ele>81</ele>
        <time>2011-09-04T07:15:27Z</time>
      </trkpt>
      <trkpt lat="47.50318" lon="-0.3202">
        <ele>81</ele>
        <time>2011-09-04T07:15:28Z</time>
      </trkpt>
      <trkpt lat="47.50317" lon="-0.32008">
        <ele>80</ele>
        <time>2011-09-04T07:15:29Z</time>
      </trkpt>
      <trkpt lat="47.50316" lon="-0.31997">
        <ele>80</ele>
        <time>2011-09-04T07:15:30Z</time>
      </trkpt>
      <trkpt lat="47.50316" lon="-0.31986">
        <ele>80</ele>
        <time>2011-09-04T07:15:31Z</time>
      </trkpt>
      <trkpt lat="47.50314" lon="-0.31975">
        <ele>80</ele>
        <time>2011-09-04T07:15:32Z</time>
      </trkpt>
      <trkpt lat="47.50313" lon="-0.31964">
        <ele>79</ele>
        <time>2011-09-04T07:15:33Z</time>
      </trkpt>
      <trkpt lat="47.50312" lon="-0.31955">
        <ele>79</ele>
        <time>2011-09-04T07:15:34Z</time>
      </trkpt>
      <trkpt lat="47.50311" lon="-0.31944">
        <ele>79</ele>
        <time>2011-09-04T07:15:35Z</time>
      </trkpt>
      <trkpt lat="47.5031" lon="-0.31935">
        <ele>79</ele>
        <time>2011-09-04T07:15:36Z</time>
      </trkpt>
      <trkpt lat="47.5031" lon="-0.31926">
        <ele>79</ele>
        <time>2011-09-04T07:15:37Z</time>
      </trkpt>
      <trkpt lat="47.5031" lon="-0.31916">
        <ele>79</ele>
        <time>2011-09-04T07:15:38Z</time>
      </trkpt>
      <trkpt lat="47.5031" lon="-0.31907">
        <ele>79</ele>
        <time>2011-09-04T07:15:39Z</time>
      </trkpt>
      <trkpt lat="47.5031" lon="-0.31898">
        <ele>79</ele>
        <time>2011-09-04T07:15:40Z</time>
      </trkpt>
      <trkpt lat="47.50311" lon="-0.3189">
        <ele>79</ele>
        <time>2011-09-04T07:15:41Z</time>
      </trkpt>
      <trkpt lat="47.50312" lon="-0.31882">
        <ele>79</ele>
        <time>2011-09-04T07:15:42Z</time>
      </trkpt>
      <trkpt lat="47.50313" lon="-0.31874">
        <ele>79</ele>
        <time>2011-09-04T07:15:43Z</time>
      </trkpt>
      <trkpt lat="47.50315" lon="-0.31866">
        <ele>78</ele>
        <time>2011-09-04T07:15:44Z</time>
      </trkpt>
      <trkpt lat="47.50317" lon="-0.31858">
        <ele>78</ele>
        <time>2011-09-04T07:15:45Z</time>
      </trkpt>
      <trkpt lat="47.50318" lon="-0.3185">
        <ele>78</ele>
        <time>2011-09-04T07:15:46Z</time>
      </trkpt>
      <trkpt lat="47.50319" lon="-0.31843">
        <ele>78</ele>
        <time>2011-09-04T07:15:47Z</time>
      </trkpt>
      <trkpt lat="47.50319" lon="-0.31835">
        <ele>78</ele>
        <time>2011-09-04T07:15:48Z</time>
      </trkpt>
      <trkpt lat="47.5032" lon="-0.31828">
        <ele>77</ele>
        <time>2011-09-04T07:15:49Z</time>
      </trkpt>
      <trkpt lat="47.5032" lon="-0.31821">
        <ele>77</ele>
        <time>2011-09-04T07:15:50Z</time>
      </trkpt>
      <trkpt lat="47.5032" lon="-0.31813">
        <ele>77</ele>
        <time>2011-09-04T07:15:51Z</time>
      </trkpt>
      <trkpt lat="47.5032" lon="-0.31806">
        <ele>77</ele>
        <time>2011-09-04T07:15:52Z</time>
      </trkpt>
      <trkpt lat="47.5032" lon="-0.31799">
        <ele>77</ele>
        <time>2011-09-04T07:15:53Z</time>
      </trkpt>
      <trkpt lat="47.5032" lon="-0.31786">
        <ele>77</ele>
        <time>2011-09-04T07:15:55Z</time>
      </trkpt>
      <trkpt lat="47.50319" lon="-0.31779">
        <ele>77</ele>
        <time>2011-09-04T07:15:56Z</time>
      </trkpt>
      <trkpt lat="47.50319" lon="-0.31771">
        <ele>77</ele>
        <time>2011-09-04T07:15:57Z</time>
      </trkpt>
      <trkpt lat="47.50318" lon="-0.31764">
        <ele>77</ele>
        <time>2011-09-04T07:15:58Z</time>
      </trkpt>
      <trkpt lat="47.50318" lon="-0.31756">
        <ele>77</ele>
        <time>2011-09-04T07:15:59Z</time>
      </trkpt>
      <trkpt lat="47.50318" lon="-0.31749">
        <ele>76</ele>
        <time>2011-09-04T07:16:00Z</time>
      </trkpt>
      <trkpt lat="47.50318" lon="-0.31742">
        <ele>76</ele>
        <time>2011-09-04T07:16:01Z</time>
      </trkpt>
      <trkpt lat="47.50317" lon="-0.3173">
        <ele>76</ele>
        <time>2011-09-04T07:16:03Z</time>
      </trkpt>
      <trkpt lat="47.50316" lon="-0.31719">
        <ele>76</ele>
        <time>2011-09-04T07:16:05Z</time>
      </trkpt>
      <trkpt lat="47.50314" lon="-0.3171">
        <ele>76</ele>
        <time>2011-09-04T07:16:07Z</time>
      </trkpt>
      <trkpt lat="47.50313" lon="-0.31701">
        <ele>76</ele>
        <time>2011-09-04T07:16:09Z</time>
      </trkpt>
      <trkpt lat="47.50312" lon="-0.31694">
        <ele>76</ele>
        <time>2011-09-04T07:16:11Z</time>
      </trkpt>
      <trkpt lat="47.50314" lon="-0.31686">
        <ele>77</ele>
        <time>2011-09-04T07:16:14Z</time>
      </trkpt>
      <trkpt lat="47.50314" lon="-0.31686">
        <ele>77</ele>
        <time>2011-09-04T07:16:14Z</time>
      </trkpt>
      <trkpt lat="47.50314" lon="-0.31686">
        <ele>77</ele>
        <time>2011-09-04T07:16:24Z</time>
      </trkpt>
      <trkpt lat="47.50309" lon="-0.31686">
        <ele>77</ele>
        <time>2011-09-04T07:16:38Z</time>
      </trkpt>
      <trkpt lat="47.50302" lon="-0.31685">
        <ele>77</ele>
        <time>2011-09-04T07:16:41Z</time>
      </trkpt>
      <trkpt lat="47.50297" lon="-0.31688">
        <ele>77</ele>
        <time>2011-09-04T07:16:43Z</time>
      </trkpt>
      <trkpt lat="47.5029" lon="-0.31691">
        <ele>77</ele>
        <time>2011-09-04T07:16:45Z</time>
      </trkpt>
      <trkpt lat="47.50283" lon="-0.31694">
        <ele>77</ele>
        <time>2011-09-04T07:16:47Z</time>
      </trkpt>
      <trkpt lat="47.50276" lon="-0.31696">
        <ele>77</ele>
        <time>2011-09-04T07:16:49Z</time>
      </trkpt>
      <trkpt lat="47.50269" lon="-0.31699">
        <ele>77</ele>
        <time>2011-09-04T07:16:51Z</time>
      </trkpt>
      <trkpt lat="47.50262" lon="-0.31703">
        <ele>78</ele>
        <time>2011-09-04T07:16:53Z</time>
      </trkpt>
      <trkpt lat="47.50254" lon="-0.31706">
        <ele>78</ele>
        <time>2011-09-04T07:16:55Z</time>
      </trkpt>
      <trkpt lat="47.50247" lon="-0.31708">
        <ele>79</ele>
        <time>2011-09-04T07:16:57Z</time>
      </trkpt>
      <trkpt lat="47.5024" lon="-0.3171">
        <ele>79</ele>
        <time>2011-09-04T07:16:59Z</time>
      </trkpt>
      <trkpt lat="47.50234" lon="-0.31712">
        <ele>79</ele>
        <time>2011-09-04T07:17:01Z</time>
      </trkpt>
      <trkpt lat="47.5023" lon="-0.31714">
        <ele>79</ele>
        <time>2011-09-04T07:17:03Z</time>
      </trkpt>
      <trkpt lat="47.50225" lon="-0.31717">
        <ele>79</ele>
        <time>2011-09-04T07:17:05Z</time>
      </trkpt>
      <trkpt lat="47.50219" lon="-0.3172">
        <ele>79</ele>
        <time>2011-09-04T07:17:08Z</time>
      </trkpt>
      <trkpt lat="47.50216" lon="-0.31726">
        <ele>79</ele>
        <time>2011-09-04T07:17:11Z</time>
      </trkpt>
      <trkpt lat="47.50219" lon="-0.31735">
        <ele>79</ele>
        <time>2011-09-04T07:17:14Z</time>
      </trkpt>
      <trkpt lat="47.50223" lon="-0.3174">
        <ele>79</ele>
        <time>2011-09-04T07:17:16Z</time>
      </trkpt>
      <trkpt lat="47.50226" lon="-0.31746">
        <ele>79</ele>
        <time>2011-09-04T07:17:18Z</time>
      </trkpt>
      <trkpt lat="47.5023" lon="-0.31752">
        <ele>79</ele>
        <time>2011-09-04T07:17:20Z</time>
      </trkpt>
      <trkpt lat="47.50232" lon="-0.31759">
        <ele>79</ele>
        <time>2011-09-04T07:17:22Z</time>
      </trkpt>
      <trkpt lat="47.50233" lon="-0.31767">
        <ele>80</ele>
        <time>2011-09-04T07:17:25Z</time>
      </trkpt>
      <trkpt lat="47.50232" lon="-0.31775">
        <ele>82</ele>
        <time>2011-09-04T07:17:38Z</time>
      </trkpt>
      <trkpt lat="47.50229" lon="-0.31784">
        <ele>82</ele>
        <time>2011-09-04T07:17:40Z</time>
      </trkpt>
      <trkpt lat="47.50226" lon="-0.3179">
        <ele>81</ele>
        <time>2011-09-04T07:17:42Z</time>
      </trkpt>
      <trkpt lat="47.50224" lon="-0.31798">
        <ele>82</ele>
        <time>2011-09-04T07:17:45Z</time>
      </trkpt>
      <trkpt lat="47.50222" lon="-0.31806">
        <ele>84</ele>
        <time>2011-09-04T07:17:48Z</time>
      </trkpt>
      <trkpt lat="47.50222" lon="-0.31813">
        <ele>85</ele>
        <time>2011-09-04T07:17:50Z</time>
      </trkpt>
      <trkpt lat="47.5022" lon="-0.31824">
        <ele>85</ele>
        <time>2011-09-04T07:17:54Z</time>
      </trkpt>
      <trkpt lat="47.50218" lon="-0.31832">
        <ele>85</ele>
        <time>2011-09-04T07:17:56Z</time>
      </trkpt>
      <trkpt lat="47.50217" lon="-0.31841">
        <ele>83</ele>
        <time>2011-09-04T07:17:58Z</time>
      </trkpt>
      <trkpt lat="47.5022" lon="-0.31848">
        <ele>83</ele>
        <time>2011-09-04T07:18:01Z</time>
      </trkpt>
      <trkpt lat="47.50225" lon="-0.3185">
        <ele>83</ele>
        <time>2011-09-04T07:18:03Z</time>
      </trkpt>
      <trkpt lat="47.50227" lon="-0.31858">
        <ele>83</ele>
        <time>2011-09-04T07:18:06Z</time>
      </trkpt>
      <trkpt lat="47.50227" lon="-0.31865">
        <ele>83</ele>
        <time>2011-09-04T07:18:08Z</time>
      </trkpt>
      <trkpt lat="47.50227" lon="-0.31874">
        <ele>83</ele>
        <time>2011-09-04T07:18:10Z</time>
      </trkpt>
      <trkpt lat="47.50226" lon="-0.31882">
        <ele>82</ele>
        <time>2011-09-04T07:18:12Z</time>
      </trkpt>
      <trkpt lat="47.50219" lon="-0.31887">
        <ele>83</ele>
        <time>2011-09-04T07:18:14Z</time>
      </trkpt>
      <trkpt lat="47.50215" lon="-0.3189">
        <ele>83</ele>
        <time>2011-09-04T07:18:15Z</time>
      </trkpt>
      <trkpt lat="47.50208" lon="-0.31898">
        <ele>83</ele>
        <time>2011-09-04T07:18:17Z</time>
      </trkpt>
      <trkpt lat="47.50199" lon="-0.31903">
        <ele>83</ele>
        <time>2011-09-04T07:18:19Z</time>
      </trkpt>
      <trkpt lat="47.5019" lon="-0.31905">
        <ele>83</ele>
        <time>2011-09-04T07:18:21Z</time>
      </trkpt>
      <trkpt lat="47.50185" lon="-0.31905">
        <ele>82</ele>
        <time>2011-09-04T07:18:22Z</time>
      </trkpt>
      <trkpt lat="47.5018" lon="-0.31905">
        <ele>82</ele>
        <time>2011-09-04T07:18:23Z</time>
      </trkpt>
      <trkpt lat="47.50171" lon="-0.31904">
        <ele>81</ele>
        <time>2011-09-04T07:18:25Z</time>
      </trkpt>
      <trkpt lat="47.50166" lon="-0.31904">
        <ele>81</ele>
        <time>2011-09-04T07:18:26Z</time>
      </trkpt>
      <trkpt lat="47.50157" lon="-0.31904">
        <ele>81</ele>
        <time>2011-09-04T07:18:28Z</time>
      </trkpt>
      <trkpt lat="47.50152" lon="-0.31903">
        <ele>81</ele>
        <time>2011-09-04T07:18:29Z</time>
      </trkpt>
      <trkpt lat="47.50147" lon="-0.31903">
        <ele>81</ele>
        <time>2011-09-04T07:18:30Z</time>
      </trkpt>
      <trkpt lat="47.50138" lon="-0.319">
        <ele>81</ele>
        <time>2011-09-04T07:18:32Z</time>
      </trkpt>
      <trkpt lat="47.50129" lon="-0.31896">
        <ele>81</ele>
        <time>2011-09-04T07:18:34Z</time>
      </trkpt>
      <trkpt lat="47.50125" lon="-0.31892">
        <ele>81</ele>
        <time>2011-09-04T07:18:35Z</time>
      </trkpt>
      <trkpt lat="47.50121" lon="-0.31889">
        <ele>81</ele>
        <time>2011-09-04T07:18:36Z</time>
      </trkpt>
      <trkpt lat="47.50115" lon="-0.31888">
        <ele>81</ele>
        <time>2011-09-04T07:18:37Z</time>
      </trkpt>
      <trkpt lat="47.50111" lon="-0.31887">
        <ele>80</ele>
        <time>2011-09-04T07:18:38Z</time>
      </trkpt>
      <trkpt lat="47.50105" lon="-0.31887">
        <ele>80</ele>
        <time>2011-09-04T07:18:39Z</time>
      </trkpt>
      <trkpt lat="47.501" lon="-0.31887">
        <ele>80</ele>
        <time>2011-09-04T07:18:40Z</time>
      </trkpt>
      <trkpt lat="47.50094" lon="-0.31887">
        <ele>80</ele>
        <time>2011-09-04T07:18:41Z</time>
      </trkpt>
      <trkpt lat="47.5009" lon="-0.31886">
        <ele>80</ele>
        <time>2011-09-04T07:18:42Z</time>
      </trkpt>
      <trkpt lat="47.50085" lon="-0.31886">
        <ele>80</ele>
        <time>2011-09-04T07:18:43Z</time>
      </trkpt>
      <trkpt lat="47.5008" lon="-0.31886">
        <ele>80</ele>
        <time>2011-09-04T07:18:44Z</time>
      </trkpt>
      <trkpt lat="47.50075" lon="-0.31885">
        <ele>80</ele>
        <time>2011-09-04T07:18:45Z</time>
      </trkpt>
      <trkpt lat="47.5007" lon="-0.31884">
        <ele>80</ele>
        <time>2011-09-04T07:18:46Z</time>
      </trkpt>
      <trkpt lat="47.50065" lon="-0.31883">
        <ele>81</ele>
        <time>2011-09-04T07:18:47Z</time>
      </trkpt>
      <trkpt lat="47.5006" lon="-0.31883">
        <ele>81</ele>
        <time>2011-09-04T07:18:48Z</time>
      </trkpt>
      <trkpt lat="47.50055" lon="-0.31882">
        <ele>81</ele>
        <time>2011-09-04T07:18:49Z</time>
      </trkpt>
      <trkpt lat="47.5005" lon="-0.31881">
        <ele>81</ele>
        <time>2011-09-04T07:18:50Z</time>
      </trkpt>
      <trkpt lat="47.50046" lon="-0.3188">
        <ele>81</ele>
        <time>2011-09-04T07:18:51Z</time>
      </trkpt>
      <trkpt lat="47.50041" lon="-0.3188">
        <ele>81</ele>
        <time>2011-09-04T07:18:52Z</time>
      </trkpt>
      <trkpt lat="47.50032" lon="-0.31879">
        <ele>81</ele>
        <time>2011-09-04T07:18:54Z</time>
      </trkpt>
      <trkpt lat="47.50027" lon="-0.31879">
        <ele>81</ele>
        <time>2011-09-04T07:18:55Z</time>
      </trkpt>
      <trkpt lat="47.50023" lon="-0.31878">
        <ele>81</ele>
        <time>2011-09-04T07:18:56Z</time>
      </trkpt>
      <trkpt lat="47.50017" lon="-0.31878">
        <ele>81</ele>
        <time>2011-09-04T07:18:57Z</time>
      </trkpt>
      <trkpt lat="47.50012" lon="-0.31878">
        <ele>81</ele>
        <time>2011-09-04T07:18:58Z</time>
      </trkpt>
      <trkpt lat="47.50008" lon="-0.31878">
        <ele>80</ele>
        <time>2011-09-04T07:18:59Z</time>
      </trkpt>
      <trkpt lat="47.50003" lon="-0.31878">
        <ele>81</ele>
        <time>2011-09-04T07:19:00Z</time>
      </trkpt>
      <trkpt lat="47.49998" lon="-0.31877">
        <ele>81</ele>
        <time>2011-09-04T07:19:01Z</time>
      </trkpt>
      <trkpt lat="47.49993" lon="-0.31876">
        <ele>81</ele>
        <time>2011-09-04T07:19:02Z</time>
      </trkpt>
      <trkpt lat="47.49988" lon="-0.31876">
        <ele>81</ele>
        <time>2011-09-04T07:19:03Z</time>
      </trkpt>
      <trkpt lat="47.49983" lon="-0.31875">
        <ele>81</ele>
        <time>2011-09-04T07:19:04Z</time>
      </trkpt>
      <trkpt lat="47.49979" lon="-0.31874">
        <ele>81</ele>
        <time>2011-09-04T07:19:05Z</time>
      </trkpt>
      <trkpt lat="47.49974" lon="-0.31874">
        <ele>81</ele>
        <time>2011-09-04T07:19:06Z</time>
      </trkpt>
      <trkpt lat="47.49969" lon="-0.31873">
        <ele>81</ele>
        <time>2011-09-04T07:19:07Z</time>
      </trkpt>
      <trkpt lat="47.4996" lon="-0.3187">
        <ele>80</ele>
        <time>2011-09-04T07:19:09Z</time>
      </trkpt>
      <trkpt lat="47.49952" lon="-0.31864">
        <ele>80</ele>
        <time>2011-09-04T07:19:11Z</time>
      </trkpt>
      <trkpt lat="47.49945" lon="-0.31859">
        <ele>80</ele>
        <time>2011-09-04T07:19:13Z</time>
      </trkpt>
      <trkpt lat="47.49937" lon="-0.3186">
        <ele>81</ele>
        <time>2011-09-04T07:19:15Z</time>
      </trkpt>
      <trkpt lat="47.49934" lon="-0.31866">
        <ele>82</ele>
        <time>2011-09-04T07:19:17Z</time>
      </trkpt>
      <trkpt lat="47.49934" lon="-0.31874">
        <ele>82</ele>
        <time>2011-09-04T07:19:18Z</time>
      </trkpt>
      <trkpt lat="47.49935" lon="-0.31881">
        <ele>82</ele>
        <time>2011-09-04T07:19:19Z</time>
      </trkpt>
      <trkpt lat="47.49935" lon="-0.31894">
        <ele>81</ele>
        <time>2011-09-04T07:19:21Z</time>
      </trkpt>
      <trkpt lat="47.49929" lon="-0.319">
        <ele>82</ele>
        <time>2011-09-04T07:19:23Z</time>
      </trkpt>
      <trkpt lat="47.49924" lon="-0.319">
        <ele>82</ele>
        <time>2011-09-04T07:19:24Z</time>
      </trkpt>
      <trkpt lat="47.49915" lon="-0.319">
        <ele>82</ele>
        <time>2011-09-04T07:19:26Z</time>
      </trkpt>
      <trkpt lat="47.4991" lon="-0.319">
        <ele>82</ele>
        <time>2011-09-04T07:19:27Z</time>
      </trkpt>
      <trkpt lat="47.49905" lon="-0.319">
        <ele>82</ele>
        <time>2011-09-04T07:19:28Z</time>
      </trkpt>
      <trkpt lat="47.499" lon="-0.31901">
        <ele>81</ele>
        <time>2011-09-04T07:19:29Z</time>
      </trkpt>
      <trkpt lat="47.49891" lon="-0.31898">
        <ele>82</ele>
        <time>2011-09-04T07:19:31Z</time>
      </trkpt>
      <trkpt lat="47.49885" lon="-0.31898">
        <ele>82</ele>
        <time>2011-09-04T07:19:32Z</time>
      </trkpt>
      <trkpt lat="47.4988" lon="-0.31898">
        <ele>82</ele>
        <time>2011-09-04T07:19:33Z</time>
      </trkpt>
      <trkpt lat="47.49874" lon="-0.31898">
        <ele>83</ele>
        <time>2011-09-04T07:19:34Z</time>
      </trkpt>
      <trkpt lat="47.49868" lon="-0.319">
        <ele>82</ele>
        <time>2011-09-04T07:19:35Z</time>
      </trkpt>
      <trkpt lat="47.49861" lon="-0.319">
        <ele>82</ele>
        <time>2011-09-04T07:19:36Z</time>
      </trkpt>
      <trkpt lat="47.49855" lon="-0.31901">
        <ele>81</ele>
        <time>2011-09-04T07:19:37Z</time>
      </trkpt>
      <trkpt lat="47.49848" lon="-0.31902">
        <ele>80</ele>
        <time>2011-09-04T07:19:38Z</time>
      </trkpt>
      <trkpt lat="47.49842" lon="-0.31903">
        <ele>80</ele>
        <time>2011-09-04T07:19:39Z</time>
      </trkpt>
      <trkpt lat="47.49836" lon="-0.31902">
        <ele>81</ele>
        <time>2011-09-04T07:19:40Z</time>
      </trkpt>
      <trkpt lat="47.4983" lon="-0.31903">
        <ele>81</ele>
        <time>2011-09-04T07:19:41Z</time>
      </trkpt>
      <trkpt lat="47.49825" lon="-0.31903">
        <ele>82</ele>
        <time>2011-09-04T07:19:42Z</time>
      </trkpt>
      <trkpt lat="47.4982" lon="-0.31904">
        <ele>81</ele>
        <time>2011-09-04T07:19:43Z</time>
      </trkpt>
      <trkpt lat="47.49811" lon="-0.31905">
        <ele>81</ele>
        <time>2011-09-04T07:19:45Z</time>
      </trkpt>
      <trkpt lat="47.49806" lon="-0.31906">
        <ele>81</ele>
        <time>2011-09-04T07:19:46Z</time>
      </trkpt>
      <trkpt lat="47.49802" lon="-0.31907">
        <ele>81</ele>
        <time>2011-09-04T07:19:47Z</time>
      </trkpt>
      <trkpt lat="47.49793" lon="-0.31908">
        <ele>81</ele>
        <time>2011-09-04T07:19:49Z</time>
      </trkpt>
      <trkpt lat="47.49788" lon="-0.31909">
        <ele>81</ele>
        <time>2011-09-04T07:19:50Z</time>
      </trkpt>
      <trkpt lat="47.49782" lon="-0.3191">
        <ele>81</ele>
        <time>2011-09-04T07:19:51Z</time>
      </trkpt>
      <trkpt lat="47.49777" lon="-0.31912">
        <ele>81</ele>
        <time>2011-09-04T07:19:52Z</time>
      </trkpt>
      <trkpt lat="47.49772" lon="-0.31914">
        <ele>81</ele>
        <time>2011-09-04T07:19:53Z</time>
      </trkpt>
      <trkpt lat="47.49761" lon="-0.31919">
        <ele>81</ele>
        <time>2011-09-04T07:19:55Z</time>
      </trkpt>
      <trkpt lat="47.49754" lon="-0.31919">
        <ele>80</ele>
        <time>2011-09-04T07:19:56Z</time>
      </trkpt>
      <trkpt lat="47.49747" lon="-0.31921">
        <ele>80</ele>
        <time>2011-09-04T07:19:57Z</time>
      </trkpt>
      <trkpt lat="47.49742" lon="-0.31923">
        <ele>80</ele>
        <time>2011-09-04T07:19:58Z</time>
      </trkpt>
      <trkpt lat="47.49736" lon="-0.31926">
        <ele>80</ele>
        <time>2011-09-04T07:19:59Z</time>
      </trkpt>
      <trkpt lat="47.49731" lon="-0.31928">
        <ele>80</ele>
        <time>2011-09-04T07:20:00Z</time>
      </trkpt>
      <trkpt lat="47.49726" lon="-0.3193">
        <ele>80</ele>
        <time>2011-09-04T07:20:01Z</time>
      </trkpt>
      <trkpt lat="47.49721" lon="-0.31932">
        <ele>80</ele>
        <time>2011-09-04T07:20:02Z</time>
      </trkpt>
      <trkpt lat="47.49716" lon="-0.31934">
        <ele>80</ele>
        <time>2011-09-04T07:20:03Z</time>
      </trkpt>
      <trkpt lat="47.49711" lon="-0.31936">
        <ele>79</ele>
        <time>2011-09-04T07:20:04Z</time>
      </trkpt>
      <trkpt lat="47.49705" lon="-0.31938">
        <ele>79</ele>
        <time>2011-09-04T07:20:05Z</time>
      </trkpt>
      <trkpt lat="47.49695" lon="-0.31941">
        <ele>80</ele>
        <time>2011-09-04T07:20:07Z</time>
      </trkpt>
      <trkpt lat="47.4969" lon="-0.31942">
        <ele>80</ele>
        <time>2011-09-04T07:20:08Z</time>
      </trkpt>
      <trkpt lat="47.49685" lon="-0.31944">
        <ele>80</ele>
        <time>2011-09-04T07:20:09Z</time>
      </trkpt>
      <trkpt lat="47.49679" lon="-0.31945">
        <ele>80</ele>
        <time>2011-09-04T07:20:10Z</time>
      </trkpt>
      <trkpt lat="47.49673" lon="-0.31945">
        <ele>80</ele>
        <time>2011-09-04T07:20:11Z</time>
      </trkpt>
      <trkpt lat="47.49668" lon="-0.31946">
        <ele>80</ele>
        <time>2011-09-04T07:20:12Z</time>
      </trkpt>
      <trkpt lat="47.4966" lon="-0.31946">
        <ele>80</ele>
        <time>2011-09-04T07:20:13Z</time>
      </trkpt>
      <trkpt lat="47.49654" lon="-0.31947">
        <ele>80</ele>
        <time>2011-09-04T07:20:14Z</time>
      </trkpt>
      <trkpt lat="47.49648" lon="-0.31948">
        <ele>79</ele>
        <time>2011-09-04T07:20:15Z</time>
      </trkpt>
      <trkpt lat="47.49642" lon="-0.31948">
        <ele>79</ele>
        <time>2011-09-04T07:20:16Z</time>
      </trkpt>
      <trkpt lat="47.49635" lon="-0.31948">
        <ele>79</ele>
        <time>2011-09-04T07:20:17Z</time>
      </trkpt>
      <trkpt lat="47.49628" lon="-0.31948">
        <ele>78</ele>
        <time>2011-09-04T07:20:18Z</time>
      </trkpt>
      <trkpt lat="47.49622" lon="-0.31948">
        <ele>78</ele>
        <time>2011-09-04T07:20:19Z</time>
      </trkpt>
      <trkpt lat="47.49615" lon="-0.31947">
        <ele>78</ele>
        <time>2011-09-04T07:20:20Z</time>
      </trkpt>
      <trkpt lat="47.4961" lon="-0.31946">
        <ele>78</ele>
        <time>2011-09-04T07:20:21Z</time>
      </trkpt>
      <trkpt lat="47.49604" lon="-0.31945">
        <ele>77</ele>
        <time>2011-09-04T07:20:22Z</time>
      </trkpt>
      <trkpt lat="47.49598" lon="-0.31944">
        <ele>77</ele>
        <time>2011-09-04T07:20:23Z</time>
      </trkpt>
      <trkpt lat="47.49592" lon="-0.31944">
        <ele>77</ele>
        <time>2011-09-04T07:20:24Z</time>
      </trkpt>
      <trkpt lat="47.49586" lon="-0.31943">
        <ele>77</ele>
        <time>2011-09-04T07:20:25Z</time>
      </trkpt>
      <trkpt lat="47.4958" lon="-0.31942">
        <ele>76</ele>
        <time>2011-09-04T07:20:26Z</time>
      </trkpt>
      <trkpt lat="47.49574" lon="-0.31941">
        <ele>76</ele>
        <time>2011-09-04T07:20:27Z</time>
      </trkpt>
      <trkpt lat="47.49569" lon="-0.3194">
        <ele>76</ele>
        <time>2011-09-04T07:20:28Z</time>
      </trkpt>
      <trkpt lat="47.49564" lon="-0.31939">
        <ele>77</ele>
        <time>2011-09-04T07:20:30Z</time>
      </trkpt>
      <trkpt lat="47.49557" lon="-0.31938">
        <ele>78</ele>
        <time>2011-09-04T07:20:32Z</time>
      </trkpt>
      <trkpt lat="47.49553" lon="-0.31941">
        <ele>78</ele>
        <time>2011-09-04T07:20:34Z</time>
      </trkpt>
      <trkpt lat="47.49547" lon="-0.31948">
        <ele>78</ele>
        <time>2011-09-04T07:20:36Z</time>
      </trkpt>
      <trkpt lat="47.4954" lon="-0.31955">
        <ele>78</ele>
        <time>2011-09-04T07:20:38Z</time>
      </trkpt>
      <trkpt lat="47.49536" lon="-0.31958">
        <ele>78</ele>
        <time>2011-09-04T07:20:39Z</time>
      </trkpt>
      <trkpt lat="47.49531" lon="-0.31962">
        <ele>77</ele>
        <time>2011-09-04T07:20:40Z</time>
      </trkpt>
      <trkpt lat="47.49526" lon="-0.31965">
        <ele>77</ele>
        <time>2011-09-04T07:20:41Z</time>
      </trkpt>
      <trkpt lat="47.49522" lon="-0.31969">
        <ele>78</ele>
        <time>2011-09-04T07:20:42Z</time>
      </trkpt>
      <trkpt lat="47.49518" lon="-0.31973">
        <ele>78</ele>
        <time>2011-09-04T07:20:43Z</time>
      </trkpt>
      <trkpt lat="47.49513" lon="-0.31977">
        <ele>78</ele>
        <time>2011-09-04T07:20:44Z</time>
      </trkpt>
      <trkpt lat="47.49508" lon="-0.3198">
        <ele>77</ele>
        <time>2011-09-04T07:20:45Z</time>
      </trkpt>
      <trkpt lat="47.49502" lon="-0.31984">
        <ele>77</ele>
        <time>2011-09-04T07:20:46Z</time>
      </trkpt>
      <trkpt lat="47.49497" lon="-0.31987">
        <ele>77</ele>
        <time>2011-09-04T07:20:47Z</time>
      </trkpt>
      <trkpt lat="47.49493" lon="-0.3199">
        <ele>77</ele>
        <time>2011-09-04T07:20:48Z</time>
      </trkpt>
      <trkpt lat="47.49488" lon="-0.31993">
        <ele>77</ele>
        <time>2011-09-04T07:20:49Z</time>
      </trkpt>
      <trkpt lat="47.49483" lon="-0.31996">
        <ele>77</ele>
        <time>2011-09-04T07:20:50Z</time>
      </trkpt>
      <trkpt lat="47.49479" lon="-0.31999">
        <ele>77</ele>
        <time>2011-09-04T07:20:51Z</time>
      </trkpt>
      <trkpt lat="47.49474" lon="-0.32004">
        <ele>77</ele>
        <time>2011-09-04T07:20:52Z</time>
      </trkpt>
      <trkpt lat="47.49471" lon="-0.32009">
        <ele>76</ele>
        <time>2011-09-04T07:20:53Z</time>
      </trkpt>
      <trkpt lat="47.49467" lon="-0.32014">
        <ele>76</ele>
        <time>2011-09-04T07:20:54Z</time>
      </trkpt>
      <trkpt lat="47.49462" lon="-0.32019">
        <ele>77</ele>
        <time>2011-09-04T07:20:55Z</time>
      </trkpt>
      <trkpt lat="47.49458" lon="-0.32024">
        <ele>77</ele>
        <time>2011-09-04T07:20:56Z</time>
      </trkpt>
      <trkpt lat="47.49453" lon="-0.32028">
        <ele>77</ele>
        <time>2011-09-04T07:20:57Z</time>
      </trkpt>
      <trkpt lat="47.49449" lon="-0.32032">
        <ele>76</ele>
        <time>2011-09-04T07:20:58Z</time>
      </trkpt>
      <trkpt lat="47.49444" lon="-0.32036">
        <ele>76</ele>
        <time>2011-09-04T07:20:59Z</time>
      </trkpt>
      <trkpt lat="47.49441" lon="-0.3204">
        <ele>77</ele>
        <time>2011-09-04T07:21:00Z</time>
      </trkpt>
      <trkpt lat="47.49436" lon="-0.32043">
        <ele>77</ele>
        <time>2011-09-04T07:21:01Z</time>
      </trkpt>
      <trkpt lat="47.49431" lon="-0.32045">
        <ele>77</ele>
        <time>2011-09-04T07:21:02Z</time>
      </trkpt>
      <trkpt lat="47.49427" lon="-0.32048">
        <ele>77</ele>
        <time>2011-09-04T07:21:03Z</time>
      </trkpt>
      <trkpt lat="47.49418" lon="-0.32051">
        <ele>77</ele>
        <time>2011-09-04T07:21:05Z</time>
      </trkpt>
      <trkpt lat="47.49413" lon="-0.32051">
        <ele>76</ele>
        <time>2011-09-04T07:21:06Z</time>
      </trkpt>
      <trkpt lat="47.49404" lon="-0.32049">
        <ele>76</ele>
        <time>2011-09-04T07:21:08Z</time>
      </trkpt>
      <trkpt lat="47.49398" lon="-0.32046">
        <ele>76</ele>
        <time>2011-09-04T07:21:09Z</time>
      </trkpt>
      <trkpt lat="47.49393" lon="-0.32044">
        <ele>75</ele>
        <time>2011-09-04T07:21:10Z</time>
      </trkpt>
      <trkpt lat="47.49388" lon="-0.32041">
        <ele>75</ele>
        <time>2011-09-04T07:21:11Z</time>
      </trkpt>
      <trkpt lat="47.49383" lon="-0.32037">
        <ele>75</ele>
        <time>2011-09-04T07:21:12Z</time>
      </trkpt>
      <trkpt lat="47.49378" lon="-0.32032">
        <ele>75</ele>
        <time>2011-09-04T07:21:13Z</time>
      </trkpt>
      <trkpt lat="47.49373" lon="-0.32028">
        <ele>75</ele>
        <time>2011-09-04T07:21:14Z</time>
      </trkpt>
      <trkpt lat="47.49369" lon="-0.32023">
        <ele>76</ele>
        <time>2011-09-04T07:21:15Z</time>
      </trkpt>
      <trkpt lat="47.49364" lon="-0.32018">
        <ele>75</ele>
        <time>2011-09-04T07:21:16Z</time>
      </trkpt>
      <trkpt lat="47.49358" lon="-0.32013">
        <ele>75</ele>
        <time>2011-09-04T07:21:17Z</time>
      </trkpt>
      <trkpt lat="47.49354" lon="-0.32008">
        <ele>75</ele>
        <time>2011-09-04T07:21:18Z</time>
      </trkpt>
      <trkpt lat="47.49348" lon="-0.32002">
        <ele>75</ele>
        <time>2011-09-04T07:21:19Z</time>
      </trkpt>
      <trkpt lat="47.49344" lon="-0.31998">
        <ele>75</ele>
        <time>2011-09-04T07:21:20Z</time>
      </trkpt>
      <trkpt lat="47.49339" lon="-0.31993">
        <ele>74</ele>
        <time>2011-09-04T07:21:21Z</time>
      </trkpt>
      <trkpt lat="47.49334" lon="-0.31988">
        <ele>75</ele>
        <time>2011-09-04T07:21:22Z</time>
      </trkpt>
      <trkpt lat="47.4933" lon="-0.31983">
        <ele>75</ele>
        <time>2011-09-04T07:21:23Z</time>
      </trkpt>
      <trkpt lat="47.49325" lon="-0.31978">
        <ele>74</ele>
        <time>2011-09-04T07:21:24Z</time>
      </trkpt>
      <trkpt lat="47.4932" lon="-0.31973">
        <ele>74</ele>
        <time>2011-09-04T07:21:25Z</time>
      </trkpt>
      <trkpt lat="47.49315" lon="-0.3197">
        <ele>75</ele>
        <time>2011-09-04T07:21:26Z</time>
      </trkpt>
      <trkpt lat="47.4931" lon="-0.31967">
        <ele>75</ele>
        <time>2011-09-04T07:21:27Z</time>
      </trkpt>
      <trkpt lat="47.49304" lon="-0.31966">
        <ele>75</ele>
        <time>2011-09-04T07:21:28Z</time>
      </trkpt>
      <trkpt lat="47.49299" lon="-0.31965">
        <ele>76</ele>
        <time>2011-09-04T07:21:29Z</time>
      </trkpt>
      <trkpt lat="47.49294" lon="-0.31965">
        <ele>76</ele>
        <time>2011-09-04T07:21:30Z</time>
      </trkpt>
      <trkpt lat="47.49288" lon="-0.31965">
        <ele>76</ele>
        <time>2011-09-04T07:21:31Z</time>
      </trkpt>
      <trkpt lat="47.49282" lon="-0.31966">
        <ele>76</ele>
        <time>2011-09-04T07:21:32Z</time>
      </trkpt>
      <trkpt lat="47.49277" lon="-0.31966">
        <ele>75</ele>
        <time>2011-09-04T07:21:33Z</time>
      </trkpt>
      <trkpt lat="47.49271" lon="-0.31966">
        <ele>76</ele>
        <time>2011-09-04T07:21:34Z</time>
      </trkpt>
      <trkpt lat="47.49266" lon="-0.31967">
        <ele>75</ele>
        <time>2011-09-04T07:21:35Z</time>
      </trkpt>
      <trkpt lat="47.4926" lon="-0.31968">
        <ele>76</ele>
        <time>2011-09-04T07:21:36Z</time>
      </trkpt>
      <trkpt lat="47.49255" lon="-0.31968">
        <ele>76</ele>
        <time>2011-09-04T07:21:37Z</time>
      </trkpt>
      <trkpt lat="47.4925" lon="-0.31968">
        <ele>76</ele>
        <time>2011-09-04T07:21:38Z</time>
      </trkpt>
      <trkpt lat="47.49245" lon="-0.31968">
        <ele>76</ele>
        <time>2011-09-04T07:21:39Z</time>
      </trkpt>
      <trkpt lat="47.49239" lon="-0.31968">
        <ele>76</ele>
        <time>2011-09-04T07:21:40Z</time>
      </trkpt>
      <trkpt lat="47.49234" lon="-0.31968">
        <ele>76</ele>
        <time>2011-09-04T07:21:41Z</time>
      </trkpt>
      <trkpt lat="47.49228" lon="-0.31968">
        <ele>77</ele>
        <time>2011-09-04T07:21:42Z</time>
      </trkpt>
      <trkpt lat="47.49223" lon="-0.31968">
        <ele>77</ele>
        <time>2011-09-04T07:21:43Z</time>
      </trkpt>
      <trkpt lat="47.49218" lon="-0.31968">
        <ele>77</ele>
        <time>2011-09-04T07:21:44Z</time>
      </trkpt>
      <trkpt lat="47.49213" lon="-0.31966">
        <ele>77</ele>
        <time>2011-09-04T07:21:45Z</time>
      </trkpt>
      <trkpt lat="47.49207" lon="-0.31965">
        <ele>77</ele>
        <time>2011-09-04T07:21:46Z</time>
      </trkpt>
      <trkpt lat="47.49202" lon="-0.31965">
        <ele>77</ele>
        <time>2011-09-04T07:21:47Z</time>
      </trkpt>
      <trkpt lat="47.49197" lon="-0.31964">
        <ele>78</ele>
        <time>2011-09-04T07:21:48Z</time>
      </trkpt>
      <trkpt lat="47.49192" lon="-0.31964">
        <ele>78</ele>
        <time>2011-09-04T07:21:49Z</time>
      </trkpt>
      <trkpt lat="47.49187" lon="-0.31963">
        <ele>78</ele>
        <time>2011-09-04T07:21:50Z</time>
      </trkpt>
      <trkpt lat="47.49182" lon="-0.31963">
        <ele>78</ele>
        <time>2011-09-04T07:21:51Z</time>
      </trkpt>
      <trkpt lat="47.49173" lon="-0.31961">
        <ele>78</ele>
        <time>2011-09-04T07:21:53Z</time>
      </trkpt>
      <trkpt lat="47.49169" lon="-0.3196">
        <ele>78</ele>
        <time>2011-09-04T07:21:54Z</time>
      </trkpt>
      <trkpt lat="47.49162" lon="-0.31956">
        <ele>79</ele>
        <time>2011-09-04T07:21:56Z</time>
      </trkpt>
      <trkpt lat="47.49153" lon="-0.31956">
        <ele>79</ele>
        <time>2011-09-04T07:21:58Z</time>
      </trkpt>
      <trkpt lat="47.49148" lon="-0.31955">
        <ele>79</ele>
        <time>2011-09-04T07:21:59Z</time>
      </trkpt>
      <trkpt lat="47.49143" lon="-0.31954">
        <ele>80</ele>
        <time>2011-09-04T07:22:00Z</time>
      </trkpt>
      <trkpt lat="47.49138" lon="-0.31954">
        <ele>80</ele>
        <time>2011-09-04T07:22:01Z</time>
      </trkpt>
      <trkpt lat="47.49132" lon="-0.31954">
        <ele>80</ele>
        <time>2011-09-04T07:22:02Z</time>
      </trkpt>
      <trkpt lat="47.49126" lon="-0.31954">
        <ele>80</ele>
        <time>2011-09-04T07:22:03Z</time>
      </trkpt>
      <trkpt lat="47.49121" lon="-0.31953">
        <ele>81</ele>
        <time>2011-09-04T07:22:04Z</time>
      </trkpt>
      <trkpt lat="47.49115" lon="-0.31952">
        <ele>81</ele>
        <time>2011-09-04T07:22:05Z</time>
      </trkpt>
      <trkpt lat="47.49109" lon="-0.31951">
        <ele>81</ele>
        <time>2011-09-04T07:22:06Z</time>
      </trkpt>
      <trkpt lat="47.49104" lon="-0.3195">
        <ele>80</ele>
        <time>2011-09-04T07:22:07Z</time>
      </trkpt>
      <trkpt lat="47.49099" lon="-0.3195">
        <ele>80</ele>
        <time>2011-09-04T07:22:08Z</time>
      </trkpt>
      <trkpt lat="47.49094" lon="-0.31949">
        <ele>80</ele>
        <time>2011-09-04T07:22:09Z</time>
      </trkpt>
      <trkpt lat="47.49089" lon="-0.31948">
        <ele>80</ele>
        <time>2011-09-04T07:22:10Z</time>
      </trkpt>
      <trkpt lat="47.49079" lon="-0.31947">
        <ele>80</ele>
        <time>2011-09-04T07:22:12Z</time>
      </trkpt>
      <trkpt lat="47.49073" lon="-0.31946">
        <ele>79</ele>
        <time>2011-09-04T07:22:13Z</time>
      </trkpt>
      <trkpt lat="47.49066" lon="-0.31944">
        <ele>79</ele>
        <time>2011-09-04T07:22:14Z</time>
      </trkpt>
      <trkpt lat="47.49061" lon="-0.31944">
        <ele>79</ele>
        <time>2011-09-04T07:22:15Z</time>
      </trkpt>
      <trkpt lat="47.49054" lon="-0.31942">
        <ele>79</ele>
        <time>2011-09-04T07:22:16Z</time>
      </trkpt>
      <trkpt lat="47.4905" lon="-0.31942">
        <ele>79</ele>
        <time>2011-09-04T07:22:17Z</time>
      </trkpt>
      <trkpt lat="47.49044" lon="-0.3194">
        <ele>79</ele>
        <time>2011-09-04T07:22:18Z</time>
      </trkpt>
      <trkpt lat="47.49038" lon="-0.31939">
        <ele>79</ele>
        <time>2011-09-04T07:22:19Z</time>
      </trkpt>
      <trkpt lat="47.49032" lon="-0.31938">
        <ele>79</ele>
        <time>2011-09-04T07:22:20Z</time>
      </trkpt>
      <trkpt lat="47.49027" lon="-0.31936">
        <ele>79</ele>
        <time>2011-09-04T07:22:21Z</time>
      </trkpt>
      <trkpt lat="47.49022" lon="-0.31935">
        <ele>79</ele>
        <time>2011-09-04T07:22:22Z</time>
      </trkpt>
      <trkpt lat="47.49016" lon="-0.31934">
        <ele>79</ele>
        <time>2011-09-04T07:22:23Z</time>
      </trkpt>
      <trkpt lat="47.49007" lon="-0.31932">
        <ele>79</ele>
        <time>2011-09-04T07:22:25Z</time>
      </trkpt>
      <trkpt lat="47.49001" lon="-0.31934">
        <ele>78</ele>
        <time>2011-09-04T07:22:27Z</time>
      </trkpt>
      <trkpt lat="47.48996" lon="-0.31943">
        <ele>78</ele>
        <time>2011-09-04T07:22:29Z</time>
      </trkpt>
      <trkpt lat="47.48993" lon="-0.31954">
        <ele>78</ele>
        <time>2011-09-04T07:22:31Z</time>
      </trkpt>
      <trkpt lat="47.4899" lon="-0.31965">
        <ele>79</ele>
        <time>2011-09-04T07:22:33Z</time>
      </trkpt>
      <trkpt lat="47.48987" lon="-0.31977">
        <ele>79</ele>
        <time>2011-09-04T07:22:35Z</time>
      </trkpt>
      <trkpt lat="47.48983" lon="-0.31987">
        <ele>80</ele>
        <time>2011-09-04T07:22:37Z</time>
      </trkpt>
      <trkpt lat="47.48979" lon="-0.31996">
        <ele>80</ele>
        <time>2011-09-04T07:22:39Z</time>
      </trkpt>
      <trkpt lat="47.48973" lon="-0.32005">
        <ele>81</ele>
        <time>2011-09-04T07:22:41Z</time>
      </trkpt>
      <trkpt lat="47.48968" lon="-0.32012">
        <ele>82</ele>
        <time>2011-09-04T07:22:43Z</time>
      </trkpt>
      <trkpt lat="47.48963" lon="-0.32019">
        <ele>82</ele>
        <time>2011-09-04T07:22:45Z</time>
      </trkpt>
      <trkpt lat="47.48957" lon="-0.32027">
        <ele>81</ele>
        <time>2011-09-04T07:22:47Z</time>
      </trkpt>
      <trkpt lat="47.48952" lon="-0.32035">
        <ele>82</ele>
        <time>2011-09-04T07:22:49Z</time>
      </trkpt>
      <trkpt lat="47.48948" lon="-0.32043">
        <ele>83</ele>
        <time>2011-09-04T07:22:51Z</time>
      </trkpt>
      <trkpt lat="47.48943" lon="-0.3205">
        <ele>84</ele>
        <time>2011-09-04T07:22:53Z</time>
      </trkpt>
      <trkpt lat="47.48938" lon="-0.32059">
        <ele>84</ele>
        <time>2011-09-04T07:22:55Z</time>
      </trkpt>
      <trkpt lat="47.48934" lon="-0.32067">
        <ele>85</ele>
        <time>2011-09-04T07:22:57Z</time>
      </trkpt>
      <trkpt lat="47.48929" lon="-0.32075">
        <ele>86</ele>
        <time>2011-09-04T07:22:59Z</time>
      </trkpt>
      <trkpt lat="47.48926" lon="-0.32082">
        <ele>86</ele>
        <time>2011-09-04T07:23:01Z</time>
      </trkpt>
      <trkpt lat="47.48922" lon="-0.3209">
        <ele>87</ele>
        <time>2011-09-04T07:23:03Z</time>
      </trkpt>
      <trkpt lat="47.48918" lon="-0.32097">
        <ele>88</ele>
        <time>2011-09-04T07:23:05Z</time>
      </trkpt>
      <trkpt lat="47.48914" lon="-0.32103">
        <ele>89</ele>
        <time>2011-09-04T07:23:07Z</time>
      </trkpt>
      <trkpt lat="47.48911" lon="-0.3211">
        <ele>89</ele>
        <time>2011-09-04T07:23:09Z</time>
      </trkpt>
      <trkpt lat="47.48908" lon="-0.32118">
        <ele>88</ele>
        <time>2011-09-04T07:23:11Z</time>
      </trkpt>
      <trkpt lat="47.48904" lon="-0.32126">
        <ele>87</ele>
        <time>2011-09-04T07:23:13Z</time>
      </trkpt>
      <trkpt lat="47.48901" lon="-0.32132">
        <ele>87</ele>
        <time>2011-09-04T07:23:15Z</time>
      </trkpt>
      <trkpt lat="47.48899" lon="-0.3214">
        <ele>88</ele>
        <time>2011-09-04T07:23:18Z</time>
      </trkpt>
      <trkpt lat="47.48898" lon="-0.32147">
        <ele>88</ele>
        <time>2011-09-04T07:23:20Z</time>
      </trkpt>
      <trkpt lat="47.48897" lon="-0.32154">
        <ele>88</ele>
        <time>2011-09-04T07:23:22Z</time>
      </trkpt>
      <trkpt lat="47.48896" lon="-0.32161">
        <ele>89</ele>
        <time>2011-09-04T07:23:24Z</time>
      </trkpt>
      <trkpt lat="47.48897" lon="-0.32171">
        <ele>89</ele>
        <time>2011-09-04T07:23:26Z</time>
      </trkpt>
      <trkpt lat="47.48896" lon="-0.32178">
        <ele>90</ele>
        <time>2011-09-04T07:23:28Z</time>
      </trkpt>
      <trkpt lat="47.48896" lon="-0.32186">
        <ele>91</ele>
        <time>2011-09-04T07:23:30Z</time>
      </trkpt>
      <trkpt lat="47.48897" lon="-0.32193">
        <ele>92</ele>
        <time>2011-09-04T07:23:32Z</time>
      </trkpt>
      <trkpt lat="47.48898" lon="-0.322">
        <ele>92</ele>
        <time>2011-09-04T07:23:34Z</time>
      </trkpt>
      <trkpt lat="47.489" lon="-0.32208">
        <ele>93</ele>
        <time>2011-09-04T07:23:37Z</time>
      </trkpt>
      <trkpt lat="47.48901" lon="-0.32217">
        <ele>93</ele>
        <time>2011-09-04T07:23:39Z</time>
      </trkpt>
      <trkpt lat="47.48902" lon="-0.32225">
        <ele>93</ele>
        <time>2011-09-04T07:23:41Z</time>
      </trkpt>
      <trkpt lat="47.48904" lon="-0.32233">
        <ele>94</ele>
        <time>2011-09-04T07:23:43Z</time>
      </trkpt>
      <trkpt lat="47.48905" lon="-0.32241">
        <ele>94</ele>
        <time>2011-09-04T07:23:45Z</time>
      </trkpt>
      <trkpt lat="47.48906" lon="-0.32248">
        <ele>95</ele>
        <time>2011-09-04T07:23:47Z</time>
      </trkpt>
      <trkpt lat="47.48907" lon="-0.32255">
        <ele>95</ele>
        <time>2011-09-04T07:23:49Z</time>
      </trkpt>
      <trkpt lat="47.48907" lon="-0.32263">
        <ele>96</ele>
        <time>2011-09-04T07:23:51Z</time>
      </trkpt>
      <trkpt lat="47.48908" lon="-0.3227">
        <ele>96</ele>
        <time>2011-09-04T07:23:53Z</time>
      </trkpt>
      <trkpt lat="47.48909" lon="-0.32277">
        <ele>97</ele>
        <time>2011-09-04T07:23:55Z</time>
      </trkpt>
      <trkpt lat="47.4891" lon="-0.32284">
        <ele>97</ele>
        <time>2011-09-04T07:23:57Z</time>
      </trkpt>
      <trkpt lat="47.48911" lon="-0.32292">
        <ele>98</ele>
        <time>2011-09-04T07:23:59Z</time>
      </trkpt>
      <trkpt lat="47.48912" lon="-0.32301">
        <ele>98</ele>
        <time>2011-09-04T07:24:02Z</time>
      </trkpt>
      <trkpt lat="47.48914" lon="-0.3231">
        <ele>98</ele>
        <time>2011-09-04T07:24:05Z</time>
      </trkpt>
      <trkpt lat="47.48915" lon="-0.32321">
        <ele>97</ele>
        <time>2011-09-04T07:24:08Z</time>
      </trkpt>
      <trkpt lat="47.48916" lon="-0.32329">
        <ele>97</ele>
        <time>2011-09-04T07:24:10Z</time>
      </trkpt>
      <trkpt lat="47.48915" lon="-0.32338">
        <ele>97</ele>
        <time>2011-09-04T07:24:12Z</time>
      </trkpt>
      <trkpt lat="47.48913" lon="-0.32347">
        <ele>98</ele>
        <time>2011-09-04T07:24:14Z</time>
      </trkpt>
      <trkpt lat="47.48913" lon="-0.32355">
        <ele>98</ele>
        <time>2011-09-04T07:24:16Z</time>
      </trkpt>
      <trkpt lat="47.4891" lon="-0.32361">
        <ele>99</ele>
        <time>2011-09-04T07:24:18Z</time>
      </trkpt>
      <trkpt lat="47.48908" lon="-0.32367">
        <ele>100</ele>
        <time>2011-09-04T07:24:20Z</time>
      </trkpt>
      <trkpt lat="47.48892" lon="-0.32421">
        <ele>100</ele>
        <time>2011-09-04T07:24:35Z</time>
      </trkpt>
      <trkpt lat="47.48887" lon="-0.32425">
        <ele>101</ele>
        <time>2011-09-04T07:24:36Z</time>
      </trkpt>
      <trkpt lat="47.48881" lon="-0.3243">
        <ele>105</ele>
        <time>2011-09-04T07:24:39Z</time>
      </trkpt>
      <trkpt lat="47.48877" lon="-0.32438">
        <ele>105</ele>
        <time>2011-09-04T07:24:41Z</time>
      </trkpt>
      <trkpt lat="47.48875" lon="-0.32446">
        <ele>107</ele>
        <time>2011-09-04T07:24:44Z</time>
      </trkpt>
      <trkpt lat="47.48872" lon="-0.32454">
        <ele>108</ele>
        <time>2011-09-04T07:24:47Z</time>
      </trkpt>
      <trkpt lat="47.48873" lon="-0.32462">
        <ele>108</ele>
        <time>2011-09-04T07:24:49Z</time>
      </trkpt>
      <trkpt lat="47.48872" lon="-0.32469">
        <ele>107</ele>
        <time>2011-09-04T07:24:51Z</time>
      </trkpt>
      <trkpt lat="47.4887" lon="-0.32477">
        <ele>109</ele>
        <time>2011-09-04T07:24:53Z</time>
      </trkpt>
      <trkpt lat="47.4887" lon="-0.32486">
        <ele>109</ele>
        <time>2011-09-04T07:24:55Z</time>
      </trkpt>
      <trkpt lat="47.48869" lon="-0.32493">
        <ele>109</ele>
        <time>2011-09-04T07:24:57Z</time>
      </trkpt>
      <trkpt lat="47.48869" lon="-0.32501">
        <ele>108</ele>
        <time>2011-09-04T07:24:59Z</time>
      </trkpt>
      <trkpt lat="47.48867" lon="-0.32508">
        <ele>107</ele>
        <time>2011-09-04T07:25:01Z</time>
      </trkpt>
      <trkpt lat="47.48867" lon="-0.32516">
        <ele>108</ele>
        <time>2011-09-04T07:25:03Z</time>
      </trkpt>
      <trkpt lat="47.48866" lon="-0.32525">
        <ele>106</ele>
        <time>2011-09-04T07:25:05Z</time>
      </trkpt>
      <trkpt lat="47.48866" lon="-0.32532">
        <ele>107</ele>
        <time>2011-09-04T07:25:07Z</time>
      </trkpt>
      <trkpt lat="47.48866" lon="-0.3254">
        <ele>107</ele>
        <time>2011-09-04T07:25:09Z</time>
      </trkpt>
      <trkpt lat="47.48866" lon="-0.32547">
        <ele>109</ele>
        <time>2011-09-04T07:25:11Z</time>
      </trkpt>
      <trkpt lat="47.48866" lon="-0.32555">
        <ele>109</ele>
        <time>2011-09-04T07:25:13Z</time>
      </trkpt>
      <trkpt lat="47.48865" lon="-0.32562">
        <ele>110</ele>
        <time>2011-09-04T07:25:15Z</time>
      </trkpt>
      <trkpt lat="47.48865" lon="-0.32571">
        <ele>110</ele>
        <time>2011-09-04T07:25:17Z</time>
      </trkpt>
      <trkpt lat="47.48865" lon="-0.32578">
        <ele>111</ele>
        <time>2011-09-04T07:25:19Z</time>
      </trkpt>
      <trkpt lat="47.48866" lon="-0.32586">
        <ele>110</ele>
        <time>2011-09-04T07:25:21Z</time>
      </trkpt>
      <trkpt lat="47.48866" lon="-0.32593">
        <ele>111</ele>
        <time>2011-09-04T07:25:23Z</time>
      </trkpt>
      <trkpt lat="47.48866" lon="-0.32601">
        <ele>111</ele>
        <time>2011-09-04T07:25:25Z</time>
      </trkpt>
      <trkpt lat="47.48866" lon="-0.32608">
        <ele>111</ele>
        <time>2011-09-04T07:25:27Z</time>
      </trkpt>
      <trkpt lat="47.48866" lon="-0.32616">
        <ele>111</ele>
        <time>2011-09-04T07:25:29Z</time>
      </trkpt>
      <trkpt lat="47.48865" lon="-0.32624">
        <ele>111</ele>
        <time>2011-09-04T07:25:31Z</time>
      </trkpt>
      <trkpt lat="47.48864" lon="-0.32632">
        <ele>112</ele>
        <time>2011-09-04T07:25:33Z</time>
      </trkpt>
      <trkpt lat="47.48862" lon="-0.32639">
        <ele>112</ele>
        <time>2011-09-04T07:25:35Z</time>
      </trkpt>
      <trkpt lat="47.4886" lon="-0.32647">
        <ele>112</ele>
        <time>2011-09-04T07:25:37Z</time>
      </trkpt>
      <trkpt lat="47.48858" lon="-0.32654">
        <ele>113</ele>
        <time>2011-09-04T07:25:39Z</time>
      </trkpt>
      <trkpt lat="47.48856" lon="-0.32662">
        <ele>113</ele>
        <time>2011-09-04T07:25:41Z</time>
      </trkpt>
      <trkpt lat="47.48857" lon="-0.32669">
        <ele>113</ele>
        <time>2011-09-04T07:25:43Z</time>
      </trkpt>
      <trkpt lat="47.48861" lon="-0.32675">
        <ele>112</ele>
        <time>2011-09-04T07:25:45Z</time>
      </trkpt>
      <trkpt lat="47.48865" lon="-0.3268">
        <ele>110</ele>
        <time>2011-09-04T07:25:48Z</time>
      </trkpt>
      <trkpt lat="47.4887" lon="-0.3268">
        <ele>110</ele>
        <time>2011-09-04T07:25:50Z</time>
      </trkpt>
      <trkpt lat="47.48875" lon="-0.32679">
        <ele>110</ele>
        <time>2011-09-04T07:25:52Z</time>
      </trkpt>
      <trkpt lat="47.48884" lon="-0.32677">
        <ele>110</ele>
        <time>2011-09-04T07:25:55Z</time>
      </trkpt>
      <trkpt lat="47.48891" lon="-0.32675">
        <ele>109</ele>
        <time>2011-09-04T07:25:57Z</time>
      </trkpt>
      <trkpt lat="47.48898" lon="-0.32671">
        <ele>109</ele>
        <time>2011-09-04T07:25:59Z</time>
      </trkpt>
      <trkpt lat="47.48902" lon="-0.32665">
        <ele>109</ele>
        <time>2011-09-04T07:26:02Z</time>
      </trkpt>
      <trkpt lat="47.4891" lon="-0.32663">
        <ele>110</ele>
        <time>2011-09-04T07:26:04Z</time>
      </trkpt>
      <trkpt lat="47.48918" lon="-0.32668">
        <ele>111</ele>
        <time>2011-09-04T07:26:06Z</time>
      </trkpt>
      <trkpt lat="47.48924" lon="-0.32673">
        <ele>110</ele>
        <time>2011-09-04T07:26:07Z</time>
      </trkpt>
      <trkpt lat="47.48933" lon="-0.32675">
        <ele>109</ele>
        <time>2011-09-04T07:26:09Z</time>
      </trkpt>
      <trkpt lat="47.48942" lon="-0.32678">
        <ele>109</ele>
        <time>2011-09-04T07:26:11Z</time>
      </trkpt>
      <trkpt lat="47.48949" lon="-0.32679">
        <ele>108</ele>
        <time>2011-09-04T07:26:13Z</time>
      </trkpt>
      <trkpt lat="47.48956" lon="-0.3268">
        <ele>109</ele>
        <time>2011-09-04T07:26:15Z</time>
      </trkpt>
      <trkpt lat="47.48963" lon="-0.32683">
        <ele>110</ele>
        <time>2011-09-04T07:26:17Z</time>
      </trkpt>
      <trkpt lat="47.48973" lon="-0.32684">
        <ele>110</ele>
        <time>2011-09-04T07:26:19Z</time>
      </trkpt>
      <trkpt lat="47.48979" lon="-0.32687">
        <ele>110</ele>
        <time>2011-09-04T07:26:20Z</time>
      </trkpt>
      <trkpt lat="47.48985" lon="-0.32691">
        <ele>111</ele>
        <time>2011-09-04T07:26:21Z</time>
      </trkpt>
      <trkpt lat="47.4899" lon="-0.32693">
        <ele>111</ele>
        <time>2011-09-04T07:26:22Z</time>
      </trkpt>
      <trkpt lat="47.48996" lon="-0.32696">
        <ele>112</ele>
        <time>2011-09-04T07:26:23Z</time>
      </trkpt>
      <trkpt lat="47.49002" lon="-0.32699">
        <ele>112</ele>
        <time>2011-09-04T07:26:24Z</time>
      </trkpt>
      <trkpt lat="47.49011" lon="-0.32699">
        <ele>112</ele>
        <time>2011-09-04T07:26:26Z</time>
      </trkpt>
      <trkpt lat="47.49021" lon="-0.327">
        <ele>112</ele>
        <time>2011-09-04T07:26:28Z</time>
      </trkpt>
      <trkpt lat="47.49026" lon="-0.327">
        <ele>112</ele>
        <time>2011-09-04T07:26:29Z</time>
      </trkpt>
      <trkpt lat="47.49034" lon="-0.32701">
        <ele>112</ele>
        <time>2011-09-04T07:26:30Z</time>
      </trkpt>
      <trkpt lat="47.49039" lon="-0.32699">
        <ele>112</ele>
        <time>2011-09-04T07:26:31Z</time>
      </trkpt>
      <trkpt lat="47.49045" lon="-0.32698">
        <ele>112</ele>
        <time>2011-09-04T07:26:32Z</time>
      </trkpt>
      <trkpt lat="47.49051" lon="-0.32697">
        <ele>112</ele>
        <time>2011-09-04T07:26:33Z</time>
      </trkpt>
      <trkpt lat="47.49057" lon="-0.32694">
        <ele>112</ele>
        <time>2011-09-04T07:26:34Z</time>
      </trkpt>
      <trkpt lat="47.49063" lon="-0.32691">
        <ele>112</ele>
        <time>2011-09-04T07:26:35Z</time>
      </trkpt>
      <trkpt lat="47.49069" lon="-0.32686">
        <ele>112</ele>
        <time>2011-09-04T07:26:36Z</time>
      </trkpt>
      <trkpt lat="47.49076" lon="-0.32684">
        <ele>112</ele>
        <time>2011-09-04T07:26:37Z</time>
      </trkpt>
      <trkpt lat="47.49083" lon="-0.32682">
        <ele>112</ele>
        <time>2011-09-04T07:26:38Z</time>
      </trkpt>
      <trkpt lat="47.49089" lon="-0.32679">
        <ele>113</ele>
        <time>2011-09-04T07:26:39Z</time>
      </trkpt>
      <trkpt lat="47.49096" lon="-0.32678">
        <ele>112</ele>
        <time>2011-09-04T07:26:40Z</time>
      </trkpt>
      <trkpt lat="47.49102" lon="-0.32674">
        <ele>112</ele>
        <time>2011-09-04T07:26:41Z</time>
      </trkpt>
      <trkpt lat="47.49108" lon="-0.32672">
        <ele>112</ele>
        <time>2011-09-04T07:26:42Z</time>
      </trkpt>
      <trkpt lat="47.49116" lon="-0.32669">
        <ele>111</ele>
        <time>2011-09-04T07:26:43Z</time>
      </trkpt>
      <trkpt lat="47.49122" lon="-0.32666">
        <ele>110</ele>
        <time>2011-09-04T07:26:44Z</time>
      </trkpt>
      <trkpt lat="47.49128" lon="-0.32663">
        <ele>111</ele>
        <time>2011-09-04T07:26:45Z</time>
      </trkpt>
      <trkpt lat="47.49135" lon="-0.32661">
        <ele>111</ele>
        <time>2011-09-04T07:26:46Z</time>
      </trkpt>
      <trkpt lat="47.49141" lon="-0.32658">
        <ele>111</ele>
        <time>2011-09-04T07:26:47Z</time>
      </trkpt>
      <trkpt lat="47.49147" lon="-0.32655">
        <ele>111</ele>
        <time>2011-09-04T07:26:48Z</time>
      </trkpt>
      <trkpt lat="47.49153" lon="-0.32652">
        <ele>110</ele>
        <time>2011-09-04T07:26:49Z</time>
      </trkpt>
      <trkpt lat="47.4916" lon="-0.32647">
        <ele>111</ele>
        <time>2011-09-04T07:26:50Z</time>
      </trkpt>
      <trkpt lat="47.49166" lon="-0.32644">
        <ele>110</ele>
        <time>2011-09-04T07:26:51Z</time>
      </trkpt>
      <trkpt lat="47.49172" lon="-0.32638">
        <ele>110</ele>
        <time>2011-09-04T07:26:52Z</time>
      </trkpt>
      <trkpt lat="47.49177" lon="-0.32633">
        <ele>108</ele>
        <time>2011-09-04T07:26:53Z</time>
      </trkpt>
      <trkpt lat="47.49185" lon="-0.32619">
        <ele>105</ele>
        <time>2011-09-04T07:26:55Z</time>
      </trkpt>
      <trkpt lat="47.49189" lon="-0.3261">
        <ele>104</ele>
        <time>2011-09-04T07:26:56Z</time>
      </trkpt>
      <trkpt lat="47.49192" lon="-0.32602">
        <ele>103</ele>
        <time>2011-09-04T07:26:57Z</time>
      </trkpt>
      <trkpt lat="47.49196" lon="-0.32594">
        <ele>103</ele>
        <time>2011-09-04T07:26:58Z</time>
      </trkpt>
      <trkpt lat="47.492" lon="-0.32587">
        <ele>102</ele>
        <time>2011-09-04T07:26:59Z</time>
      </trkpt>
      <trkpt lat="47.49205" lon="-0.32579">
        <ele>101</ele>
        <time>2011-09-04T07:27:00Z</time>
      </trkpt>
      <trkpt lat="47.49209" lon="-0.32571">
        <ele>101</ele>
        <time>2011-09-04T07:27:01Z</time>
      </trkpt>
      <trkpt lat="47.49214" lon="-0.32565">
        <ele>101</ele>
        <time>2011-09-04T07:27:02Z</time>
      </trkpt>
      <trkpt lat="47.49219" lon="-0.32559">
        <ele>100</ele>
        <time>2011-09-04T07:27:03Z</time>
      </trkpt>
      <trkpt lat="47.49224" lon="-0.32553">
        <ele>99</ele>
        <time>2011-09-04T07:27:04Z</time>
      </trkpt>
      <trkpt lat="47.49229" lon="-0.32547">
        <ele>98</ele>
        <time>2011-09-04T07:27:05Z</time>
      </trkpt>
      <trkpt lat="47.49233" lon="-0.32542">
        <ele>98</ele>
        <time>2011-09-04T07:27:06Z</time>
      </trkpt>
      <trkpt lat="47.49238" lon="-0.32536">
        <ele>97</ele>
        <time>2011-09-04T07:27:07Z</time>
      </trkpt>
      <trkpt lat="47.49244" lon="-0.32531">
        <ele>96</ele>
        <time>2011-09-04T07:27:08Z</time>
      </trkpt>
      <trkpt lat="47.49249" lon="-0.32527">
        <ele>96</ele>
        <time>2011-09-04T07:27:09Z</time>
      </trkpt>
      <trkpt lat="47.49255" lon="-0.32522">
        <ele>96</ele>
        <time>2011-09-04T07:27:10Z</time>
      </trkpt>
      <trkpt lat="47.49261" lon="-0.32518">
        <ele>96</ele>
        <time>2011-09-04T07:27:11Z</time>
      </trkpt>
      <trkpt lat="47.49266" lon="-0.32513">
        <ele>97</ele>
        <time>2011-09-04T07:27:12Z</time>
      </trkpt>
      <trkpt lat="47.49272" lon="-0.32508">
        <ele>97</ele>
        <time>2011-09-04T07:27:13Z</time>
      </trkpt>
      <trkpt lat="47.49279" lon="-0.32503">
        <ele>97</ele>
        <time>2011-09-04T07:27:14Z</time>
      </trkpt>
      <trkpt lat="47.49284" lon="-0.32498">
        <ele>96</ele>
        <time>2011-09-04T07:27:15Z</time>
      </trkpt>
      <trkpt lat="47.4929" lon="-0.32493">
        <ele>95</ele>
        <time>2011-09-04T07:27:16Z</time>
      </trkpt>
      <trkpt lat="47.49296" lon="-0.32488">
        <ele>95</ele>
        <time>2011-09-04T07:27:17Z</time>
      </trkpt>
      <trkpt lat="47.49301" lon="-0.32483">
        <ele>95</ele>
        <time>2011-09-04T07:27:18Z</time>
      </trkpt>
      <trkpt lat="47.49306" lon="-0.32478">
        <ele>95</ele>
        <time>2011-09-04T07:27:19Z</time>
      </trkpt>
      <trkpt lat="47.49312" lon="-0.32472">
        <ele>94</ele>
        <time>2011-09-04T07:27:20Z</time>
      </trkpt>
      <trkpt lat="47.49318" lon="-0.32467">
        <ele>94</ele>
        <time>2011-09-04T07:27:21Z</time>
      </trkpt>
      <trkpt lat="47.49324" lon="-0.32462">
        <ele>93</ele>
        <time>2011-09-04T07:27:22Z</time>
      </trkpt>
      <trkpt lat="47.4933" lon="-0.32458">
        <ele>93</ele>
        <time>2011-09-04T07:27:23Z</time>
      </trkpt>
      <trkpt lat="47.49335" lon="-0.32455">
        <ele>93</ele>
        <time>2011-09-04T07:27:24Z</time>
      </trkpt>
      <trkpt lat="47.49341" lon="-0.32451">
        <ele>93</ele>
        <time>2011-09-04T07:27:25Z</time>
      </trkpt>
      <trkpt lat="47.49347" lon="-0.32448">
        <ele>92</ele>
        <time>2011-09-04T07:27:26Z</time>
      </trkpt>
      <trkpt lat="47.49353" lon="-0.32444">
        <ele>92</ele>
        <time>2011-09-04T07:27:27Z</time>
      </trkpt>
      <trkpt lat="47.49358" lon="-0.32442">
        <ele>92</ele>
        <time>2011-09-04T07:27:28Z</time>
      </trkpt>
      <trkpt lat="47.49365" lon="-0.32439">
        <ele>92</ele>
        <time>2011-09-04T07:27:29Z</time>
      </trkpt>
      <trkpt lat="47.49371" lon="-0.32436">
        <ele>91</ele>
        <time>2011-09-04T07:27:30Z</time>
      </trkpt>
      <trkpt lat="47.49377" lon="-0.32434">
        <ele>91</ele>
        <time>2011-09-04T07:27:31Z</time>
      </trkpt>
      <trkpt lat="47.49383" lon="-0.32431">
        <ele>91</ele>
        <time>2011-09-04T07:27:32Z</time>
      </trkpt>
      <trkpt lat="47.4939" lon="-0.32428">
        <ele>91</ele>
        <time>2011-09-04T07:27:33Z</time>
      </trkpt>
      <trkpt lat="47.49396" lon="-0.32425">
        <ele>90</ele>
        <time>2011-09-04T07:27:34Z</time>
      </trkpt>
      <trkpt lat="47.49401" lon="-0.32421">
        <ele>90</ele>
        <time>2011-09-04T07:27:35Z</time>
      </trkpt>
      <trkpt lat="47.49408" lon="-0.32418">
        <ele>90</ele>
        <time>2011-09-04T07:27:36Z</time>
      </trkpt>
      <trkpt lat="47.49414" lon="-0.32415">
        <ele>90</ele>
        <time>2011-09-04T07:27:37Z</time>
      </trkpt>
      <trkpt lat="47.4942" lon="-0.32411">
        <ele>90</ele>
        <time>2011-09-04T07:27:38Z</time>
      </trkpt>
      <trkpt lat="47.49426" lon="-0.32408">
        <ele>89</ele>
        <time>2011-09-04T07:27:39Z</time>
      </trkpt>
      <trkpt lat="47.49432" lon="-0.32405">
        <ele>89</ele>
        <time>2011-09-04T07:27:40Z</time>
      </trkpt>
      <trkpt lat="47.49438" lon="-0.32402">
        <ele>89</ele>
        <time>2011-09-04T07:27:41Z</time>
      </trkpt>
      <trkpt lat="47.49445" lon="-0.32399">
        <ele>89</ele>
        <time>2011-09-04T07:27:42Z</time>
      </trkpt>
      <trkpt lat="47.49451" lon="-0.32396">
        <ele>89</ele>
        <time>2011-09-04T07:27:43Z</time>
      </trkpt>
      <trkpt lat="47.49457" lon="-0.32392">
        <ele>88</ele>
        <time>2011-09-04T07:27:44Z</time>
      </trkpt>
      <trkpt lat="47.49464" lon="-0.32389">
        <ele>88</ele>
        <time>2011-09-04T07:27:45Z</time>
      </trkpt>
      <trkpt lat="47.4947" lon="-0.32384">
        <ele>87</ele>
        <time>2011-09-04T07:27:46Z</time>
      </trkpt>
      <trkpt lat="47.49476" lon="-0.3238">
        <ele>87</ele>
        <time>2011-09-04T07:27:47Z</time>
      </trkpt>
      <trkpt lat="47.49482" lon="-0.32375">
        <ele>87</ele>
        <time>2011-09-04T07:27:48Z</time>
      </trkpt>
      <trkpt lat="47.49488" lon="-0.3237">
        <ele>86</ele>
        <time>2011-09-04T07:27:49Z</time>
      </trkpt>
      <trkpt lat="47.49494" lon="-0.32365">
        <ele>86</ele>
        <time>2011-09-04T07:27:50Z</time>
      </trkpt>
      <trkpt lat="47.495" lon="-0.3236">
        <ele>86</ele>
        <time>2011-09-04T07:27:51Z</time>
      </trkpt>
      <trkpt lat="47.49506" lon="-0.32355">
        <ele>86</ele>
        <time>2011-09-04T07:27:52Z</time>
      </trkpt>
      <trkpt lat="47.49513" lon="-0.32351">
        <ele>86</ele>
        <time>2011-09-04T07:27:53Z</time>
      </trkpt>
      <trkpt lat="47.49525" lon="-0.32344">
        <ele>85</ele>
        <time>2011-09-04T07:27:55Z</time>
      </trkpt>
      <trkpt lat="47.49532" lon="-0.32341">
        <ele>85</ele>
        <time>2011-09-04T07:27:56Z</time>
      </trkpt>
      <trkpt lat="47.49538" lon="-0.32339">
        <ele>85</ele>
        <time>2011-09-04T07:27:57Z</time>
      </trkpt>
      <trkpt lat="47.49545" lon="-0.32336">
        <ele>85</ele>
        <time>2011-09-04T07:27:58Z</time>
      </trkpt>
      <trkpt lat="47.4955" lon="-0.32333">
        <ele>85</ele>
        <time>2011-09-04T07:27:59Z</time>
      </trkpt>
      <trkpt lat="47.49555" lon="-0.32331">
        <ele>85</ele>
        <time>2011-09-04T07:28:00Z</time>
      </trkpt>
      <trkpt lat="47.49561" lon="-0.32333">
        <ele>84</ele>
        <time>2011-09-04T07:28:01Z</time>
      </trkpt>
      <trkpt lat="47.49567" lon="-0.32335">
        <ele>84</ele>
        <time>2011-09-04T07:28:02Z</time>
      </trkpt>
      <trkpt lat="47.49572" lon="-0.32339">
        <ele>84</ele>
        <time>2011-09-04T07:28:03Z</time>
      </trkpt>
      <trkpt lat="47.49575" lon="-0.32345">
        <ele>85</ele>
        <time>2011-09-04T07:28:04Z</time>
      </trkpt>
      <trkpt lat="47.49578" lon="-0.32351">
        <ele>85</ele>
        <time>2011-09-04T07:28:05Z</time>
      </trkpt>
      <trkpt lat="47.49581" lon="-0.32358">
        <ele>85</ele>
        <time>2011-09-04T07:28:06Z</time>
      </trkpt>
      <trkpt lat="47.49584" lon="-0.32365">
        <ele>85</ele>
        <time>2011-09-04T07:28:07Z</time>
      </trkpt>
      <trkpt lat="47.49587" lon="-0.32371">
        <ele>85</ele>
        <time>2011-09-04T07:28:08Z</time>
      </trkpt>
      <trkpt lat="47.4959" lon="-0.32378">
        <ele>85</ele>
        <time>2011-09-04T07:28:09Z</time>
      </trkpt>
      <trkpt lat="47.49592" lon="-0.32385">
        <ele>85</ele>
        <time>2011-09-04T07:28:10Z</time>
      </trkpt>
      <trkpt lat="47.49593" lon="-0.32392">
        <ele>85</ele>
        <time>2011-09-04T07:28:11Z</time>
      </trkpt>
      <trkpt lat="47.49594" lon="-0.32399">
        <ele>85</ele>
        <time>2011-09-04T07:28:12Z</time>
      </trkpt>
      <trkpt lat="47.49596" lon="-0.32407">
        <ele>86</ele>
        <time>2011-09-04T07:28:13Z</time>
      </trkpt>
      <trkpt lat="47.49597" lon="-0.32414">
        <ele>86</ele>
        <time>2011-09-04T07:28:14Z</time>
      </trkpt>
      <trkpt lat="47.49598" lon="-0.32422">
        <ele>86</ele>
        <time>2011-09-04T07:28:15Z</time>
      </trkpt>
      <trkpt lat="47.49599" lon="-0.3243">
        <ele>86</ele>
        <time>2011-09-04T07:28:16Z</time>
      </trkpt>
      <trkpt lat="47.49599" lon="-0.32438">
        <ele>86</ele>
        <time>2011-09-04T07:28:17Z</time>
      </trkpt>
      <trkpt lat="47.49599" lon="-0.32446">
        <ele>86</ele>
        <time>2011-09-04T07:28:18Z</time>
      </trkpt>
      <trkpt lat="47.49599" lon="-0.32453">
        <ele>86</ele>
        <time>2011-09-04T07:28:19Z</time>
      </trkpt>
      <trkpt lat="47.49598" lon="-0.3246">
        <ele>86</ele>
        <time>2011-09-04T07:28:20Z</time>
      </trkpt>
      <trkpt lat="47.49597" lon="-0.32468">
        <ele>87</ele>
        <time>2011-09-04T07:28:21Z</time>
      </trkpt>
      <trkpt lat="47.49596" lon="-0.32474">
        <ele>87</ele>
        <time>2011-09-04T07:28:22Z</time>
      </trkpt>
      <trkpt lat="47.49594" lon="-0.32482">
        <ele>87</ele>
        <time>2011-09-04T07:28:23Z</time>
      </trkpt>
      <trkpt lat="47.49593" lon="-0.32488">
        <ele>87</ele>
        <time>2011-09-04T07:28:24Z</time>
      </trkpt>
      <trkpt lat="47.4959" lon="-0.325">
        <ele>87</ele>
        <time>2011-09-04T07:28:26Z</time>
      </trkpt>
      <trkpt lat="47.49585" lon="-0.3251">
        <ele>88</ele>
        <time>2011-09-04T07:28:28Z</time>
      </trkpt>
      <trkpt lat="47.49581" lon="-0.32514">
        <ele>87</ele>
        <time>2011-09-04T07:28:29Z</time>
      </trkpt>
      <trkpt lat="47.49574" lon="-0.32519">
        <ele>87</ele>
        <time>2011-09-04T07:28:31Z</time>
      </trkpt>
      <trkpt lat="47.49565" lon="-0.32522">
        <ele>88</ele>
        <time>2011-09-04T07:28:33Z</time>
      </trkpt>
      <trkpt lat="47.49556" lon="-0.32524">
        <ele>88</ele>
        <time>2011-09-04T07:28:35Z</time>
      </trkpt>
      <trkpt lat="47.49548" lon="-0.32526">
        <ele>88</ele>
        <time>2011-09-04T07:28:37Z</time>
      </trkpt>
      <trkpt lat="47.49541" lon="-0.32529">
        <ele>88</ele>
        <time>2011-09-04T07:28:39Z</time>
      </trkpt>
      <trkpt lat="47.49534" lon="-0.32536">
        <ele>89</ele>
        <time>2011-09-04T07:28:41Z</time>
      </trkpt>
      <trkpt lat="47.49531" lon="-0.32546">
        <ele>89</ele>
        <time>2011-09-04T07:28:43Z</time>
      </trkpt>
      <trkpt lat="47.4953" lon="-0.32557">
        <ele>90</ele>
        <time>2011-09-04T07:28:45Z</time>
      </trkpt>
      <trkpt lat="47.49531" lon="-0.32568">
        <ele>90</ele>
        <time>2011-09-04T07:28:47Z</time>
      </trkpt>
      <trkpt lat="47.49532" lon="-0.3258">
        <ele>90</ele>
        <time>2011-09-04T07:28:49Z</time>
      </trkpt>
      <trkpt lat="47.49533" lon="-0.32593">
        <ele>90</ele>
        <time>2011-09-04T07:28:51Z</time>
      </trkpt>
      <trkpt lat="47.49533" lon="-0.32606">
        <ele>90</ele>
        <time>2011-09-04T07:28:53Z</time>
      </trkpt>
      <trkpt lat="47.49534" lon="-0.32619">
        <ele>90</ele>
        <time>2011-09-04T07:28:55Z</time>
      </trkpt>
      <trkpt lat="47.49535" lon="-0.32632">
        <ele>91</ele>
        <time>2011-09-04T07:28:57Z</time>
      </trkpt>
      <trkpt lat="47.49535" lon="-0.32646">
        <ele>91</ele>
        <time>2011-09-04T07:28:59Z</time>
      </trkpt>
      <trkpt lat="47.49536" lon="-0.32653">
        <ele>91</ele>
        <time>2011-09-04T07:29:00Z</time>
      </trkpt>
      <trkpt lat="47.49536" lon="-0.3266">
        <ele>91</ele>
        <time>2011-09-04T07:29:01Z</time>
      </trkpt>
      <trkpt lat="47.49536" lon="-0.32667">
        <ele>90</ele>
        <time>2011-09-04T07:29:02Z</time>
      </trkpt>
      <trkpt lat="47.49536" lon="-0.32675">
        <ele>90</ele>
        <time>2011-09-04T07:29:03Z</time>
      </trkpt>
      <trkpt lat="47.49537" lon="-0.32682">
        <ele>91</ele>
        <time>2011-09-04T07:29:04Z</time>
      </trkpt>
      <trkpt lat="47.49537" lon="-0.3269">
        <ele>90</ele>
        <time>2011-09-04T07:29:05Z</time>
      </trkpt>
      <trkpt lat="47.49537" lon="-0.32698">
        <ele>90</ele>
        <time>2011-09-04T07:29:06Z</time>
      </trkpt>
      <trkpt lat="47.49538" lon="-0.32705">
        <ele>90</ele>
        <time>2011-09-04T07:29:07Z</time>
      </trkpt>
      <trkpt lat="47.49538" lon="-0.32712">
        <ele>90</ele>
        <time>2011-09-04T07:29:08Z</time>
      </trkpt>
      <trkpt lat="47.49538" lon="-0.32719">
        <ele>90</ele>
        <time>2011-09-04T07:29:09Z</time>
      </trkpt>
      <trkpt lat="47.49538" lon="-0.32726">
        <ele>91</ele>
        <time>2011-09-04T07:29:10Z</time>
      </trkpt>
      <trkpt lat="47.49539" lon="-0.32733">
        <ele>91</ele>
        <time>2011-09-04T07:29:11Z</time>
      </trkpt>
      <trkpt lat="47.49539" lon="-0.3274">
        <ele>91</ele>
        <time>2011-09-04T07:29:12Z</time>
      </trkpt>
      <trkpt lat="47.4954" lon="-0.32753">
        <ele>91</ele>
        <time>2011-09-04T07:29:14Z</time>
      </trkpt>
      <trkpt lat="47.49541" lon="-0.3276">
        <ele>91</ele>
        <time>2011-09-04T07:29:15Z</time>
      </trkpt>
      <trkpt lat="47.49541" lon="-0.32767">
        <ele>91</ele>
        <time>2011-09-04T07:29:16Z</time>
      </trkpt>
      <trkpt lat="47.49542" lon="-0.32779">
        <ele>91</ele>
        <time>2011-09-04T07:29:18Z</time>
      </trkpt>
      <trkpt lat="47.49542" lon="-0.32792">
        <ele>91</ele>
        <time>2011-09-04T07:29:20Z</time>
      </trkpt>
      <trkpt lat="47.49542" lon="-0.32804">
        <ele>91</ele>
        <time>2011-09-04T07:29:22Z</time>
      </trkpt>
      <trkpt lat="47.49542" lon="-0.32817">
        <ele>90</ele>
        <time>2011-09-04T07:29:24Z</time>
      </trkpt>
      <trkpt lat="47.49542" lon="-0.3283">
        <ele>91</ele>
        <time>2011-09-04T07:29:26Z</time>
      </trkpt>
      <trkpt lat="47.4954" lon="-0.32842">
        <ele>91</ele>
        <time>2011-09-04T07:29:28Z</time>
      </trkpt>
      <trkpt lat="47.4954" lon="-0.32854">
        <ele>91</ele>
        <time>2011-09-04T07:29:30Z</time>
      </trkpt>
      <trkpt lat="47.49539" lon="-0.32866">
        <ele>91</ele>
        <time>2011-09-04T07:29:32Z</time>
      </trkpt>
      <trkpt lat="47.49539" lon="-0.32873">
        <ele>91</ele>
        <time>2011-09-04T07:29:33Z</time>
      </trkpt>
      <trkpt lat="47.49538" lon="-0.32885">
        <ele>91</ele>
        <time>2011-09-04T07:29:35Z</time>
      </trkpt>
      <trkpt lat="47.49537" lon="-0.32898">
        <ele>91</ele>
        <time>2011-09-04T07:29:37Z</time>
      </trkpt>
      <trkpt lat="47.49536" lon="-0.3291">
        <ele>90</ele>
        <time>2011-09-04T07:29:39Z</time>
      </trkpt>
      <trkpt lat="47.49536" lon="-0.32922">
        <ele>90</ele>
        <time>2011-09-04T07:29:41Z</time>
      </trkpt>
      <trkpt lat="47.49535" lon="-0.32934">
        <ele>90</ele>
        <time>2011-09-04T07:29:43Z</time>
      </trkpt>
      <trkpt lat="47.49535" lon="-0.32945">
        <ele>91</ele>
        <time>2011-09-04T07:29:45Z</time>
      </trkpt>
      <trkpt lat="47.49535" lon="-0.32956">
        <ele>91</ele>
        <time>2011-09-04T07:29:47Z</time>
      </trkpt>
      <trkpt lat="47.49535" lon="-0.32966">
        <ele>91</ele>
        <time>2011-09-04T07:29:49Z</time>
      </trkpt>
      <trkpt lat="47.49535" lon="-0.32977">
        <ele>92</ele>
        <time>2011-09-04T07:29:51Z</time>
      </trkpt>
      <trkpt lat="47.49535" lon="-0.32987">
        <ele>92</ele>
        <time>2011-09-04T07:29:53Z</time>
      </trkpt>
      <trkpt lat="47.49535" lon="-0.32998">
        <ele>92</ele>
        <time>2011-09-04T07:29:55Z</time>
      </trkpt>
      <trkpt lat="47.49535" lon="-0.33009">
        <ele>93</ele>
        <time>2011-09-04T07:29:57Z</time>
      </trkpt>
      <trkpt lat="47.49534" lon="-0.3302">
        <ele>93</ele>
        <time>2011-09-04T07:29:59Z</time>
      </trkpt>
      <trkpt lat="47.49534" lon="-0.33029">
        <ele>93</ele>
        <time>2011-09-04T07:30:01Z</time>
      </trkpt>
      <trkpt lat="47.49533" lon="-0.33038">
        <ele>93</ele>
        <time>2011-09-04T07:30:03Z</time>
      </trkpt>
      <trkpt lat="47.49532" lon="-0.33048">
        <ele>93</ele>
        <time>2011-09-04T07:30:05Z</time>
      </trkpt>
      <trkpt lat="47.49532" lon="-0.33058">
        <ele>93</ele>
        <time>2011-09-04T07:30:07Z</time>
      </trkpt>
      <trkpt lat="47.49532" lon="-0.33067">
        <ele>94</ele>
        <time>2011-09-04T07:30:09Z</time>
      </trkpt>
      <trkpt lat="47.49531" lon="-0.33077">
        <ele>94</ele>
        <time>2011-09-04T07:30:11Z</time>
      </trkpt>
      <trkpt lat="47.49531" lon="-0.33087">
        <ele>94</ele>
        <time>2011-09-04T07:30:13Z</time>
      </trkpt>
      <trkpt lat="47.4953" lon="-0.33097">
        <ele>94</ele>
        <time>2011-09-04T07:30:15Z</time>
      </trkpt>
      <trkpt lat="47.4953" lon="-0.33108">
        <ele>95</ele>
        <time>2011-09-04T07:30:17Z</time>
      </trkpt>
      <trkpt lat="47.49529" lon="-0.33118">
        <ele>95</ele>
        <time>2011-09-04T07:30:19Z</time>
      </trkpt>
      <trkpt lat="47.49528" lon="-0.33128">
        <ele>95</ele>
        <time>2011-09-04T07:30:21Z</time>
      </trkpt>
      <trkpt lat="47.49528" lon="-0.33139">
        <ele>94</ele>
        <time>2011-09-04T07:30:23Z</time>
      </trkpt>
      <trkpt lat="47.49527" lon="-0.33149">
        <ele>94</ele>
        <time>2011-09-04T07:30:25Z</time>
      </trkpt>
      <trkpt lat="47.49526" lon="-0.33161">
        <ele>94</ele>
        <time>2011-09-04T07:30:27Z</time>
      </trkpt>
      <trkpt lat="47.49526" lon="-0.33172">
        <ele>94</ele>
        <time>2011-09-04T07:30:29Z</time>
      </trkpt>
      <trkpt lat="47.49526" lon="-0.33184">
        <ele>94</ele>
        <time>2011-09-04T07:30:31Z</time>
      </trkpt>
      <trkpt lat="47.49525" lon="-0.33196">
        <ele>94</ele>
        <time>2011-09-04T07:30:33Z</time>
      </trkpt>
      <trkpt lat="47.49525" lon="-0.33208">
        <ele>94</ele>
        <time>2011-09-04T07:30:35Z</time>
      </trkpt>
      <trkpt lat="47.49525" lon="-0.3322">
        <ele>94</ele>
        <time>2011-09-04T07:30:37Z</time>
      </trkpt>
      <trkpt lat="47.49526" lon="-0.33231">
        <ele>94</ele>
        <time>2011-09-04T07:30:39Z</time>
      </trkpt>
      <trkpt lat="47.49525" lon="-0.33241">
        <ele>94</ele>
        <time>2011-09-04T07:30:41Z</time>
      </trkpt>
      <trkpt lat="47.49525" lon="-0.3325">
        <ele>94</ele>
        <time>2011-09-04T07:30:43Z</time>
      </trkpt>
      <trkpt lat="47.49526" lon="-0.33258">
        <ele>94</ele>
        <time>2011-09-04T07:30:45Z</time>
      </trkpt>
      <trkpt lat="47.49528" lon="-0.33268">
        <ele>94</ele>
        <time>2011-09-04T07:30:47Z</time>
      </trkpt>
      <trkpt lat="47.4953" lon="-0.33279">
        <ele>93</ele>
        <time>2011-09-04T07:30:49Z</time>
      </trkpt>
      <trkpt lat="47.49532" lon="-0.33292">
        <ele>93</ele>
        <time>2011-09-04T07:30:51Z</time>
      </trkpt>
      <trkpt lat="47.49533" lon="-0.33298">
        <ele>93</ele>
        <time>2011-09-04T07:30:52Z</time>
      </trkpt>
      <trkpt lat="47.49534" lon="-0.33304">
        <ele>92</ele>
        <time>2011-09-04T07:30:53Z</time>
      </trkpt>
      <trkpt lat="47.49535" lon="-0.33311">
        <ele>92</ele>
        <time>2011-09-04T07:30:54Z</time>
      </trkpt>
      <trkpt lat="47.49534" lon="-0.33319">
        <ele>92</ele>
        <time>2011-09-04T07:30:55Z</time>
      </trkpt>
      <trkpt lat="47.49533" lon="-0.33326">
        <ele>92</ele>
        <time>2011-09-04T07:30:56Z</time>
      </trkpt>
      <trkpt lat="47.49531" lon="-0.33339">
        <ele>92</ele>
        <time>2011-09-04T07:30:58Z</time>
      </trkpt>
      <trkpt lat="47.49529" lon="-0.33345">
        <ele>92</ele>
        <time>2011-09-04T07:30:59Z</time>
      </trkpt>
      <trkpt lat="47.49528" lon="-0.33352">
        <ele>92</ele>
        <time>2011-09-04T07:31:00Z</time>
      </trkpt>
      <trkpt lat="47.49526" lon="-0.33358">
        <ele>92</ele>
        <time>2011-09-04T07:31:01Z</time>
      </trkpt>
      <trkpt lat="47.49524" lon="-0.33364">
        <ele>92</ele>
        <time>2011-09-04T07:31:02Z</time>
      </trkpt>
      <trkpt lat="47.49521" lon="-0.33375">
        <ele>92</ele>
        <time>2011-09-04T07:31:04Z</time>
      </trkpt>
      <trkpt lat="47.4952" lon="-0.33383">
        <ele>93</ele>
        <time>2011-09-04T07:31:06Z</time>
      </trkpt>
      <trkpt lat="47.49519" lon="-0.33392">
        <ele>94</ele>
        <time>2011-09-04T07:31:08Z</time>
      </trkpt>
      <trkpt lat="47.49519" lon="-0.334">
        <ele>94</ele>
        <time>2011-09-04T07:31:10Z</time>
      </trkpt>
      <trkpt lat="47.49517" lon="-0.33409">
        <ele>95</ele>
        <time>2011-09-04T07:31:12Z</time>
      </trkpt>
      <trkpt lat="47.49515" lon="-0.33418">
        <ele>97</ele>
        <time>2011-09-04T07:31:14Z</time>
      </trkpt>
      <trkpt lat="47.49511" lon="-0.33426">
        <ele>100</ele>
        <time>2011-09-04T07:31:16Z</time>
      </trkpt>
      <trkpt lat="47.49508" lon="-0.33434">
        <ele>101</ele>
        <time>2011-09-04T07:31:18Z</time>
      </trkpt>
      <trkpt lat="47.49506" lon="-0.33442">
        <ele>102</ele>
        <time>2011-09-04T07:31:19Z</time>
      </trkpt>
      <trkpt lat="47.49505" lon="-0.33449">
        <ele>103</ele>
        <time>2011-09-04T07:31:20Z</time>
      </trkpt>
      <trkpt lat="47.49505" lon="-0.33456">
        <ele>103</ele>
        <time>2011-09-04T07:31:21Z</time>
      </trkpt>
      <trkpt lat="47.49505" lon="-0.33463">
        <ele>104</ele>
        <time>2011-09-04T07:31:22Z</time>
      </trkpt>
      <trkpt lat="47.49503" lon="-0.3347">
        <ele>105</ele>
        <time>2011-09-04T07:31:23Z</time>
      </trkpt>
      <trkpt lat="47.49503" lon="-0.33478">
        <ele>105</ele>
        <time>2011-09-04T07:31:24Z</time>
      </trkpt>
      <trkpt lat="47.49504" lon="-0.33485">
        <ele>106</ele>
        <time>2011-09-04T07:31:25Z</time>
      </trkpt>
      <trkpt lat="47.49502" lon="-0.33494">
        <ele>106</ele>
        <time>2011-09-04T07:31:27Z</time>
      </trkpt>
      <trkpt lat="47.49501" lon="-0.33503">
        <ele>107</ele>
        <time>2011-09-04T07:31:28Z</time>
      </trkpt>
      <trkpt lat="47.495" lon="-0.33511">
        <ele>107</ele>
        <time>2011-09-04T07:31:29Z</time>
      </trkpt>
      <trkpt lat="47.49498" lon="-0.33518">
        <ele>107</ele>
        <time>2011-09-04T07:31:30Z</time>
      </trkpt>
      <trkpt lat="47.49497" lon="-0.3353">
        <ele>109</ele>
        <time>2011-09-04T07:31:32Z</time>
      </trkpt>
      <trkpt lat="47.49496" lon="-0.33542">
        <ele>109</ele>
        <time>2011-09-04T07:31:34Z</time>
      </trkpt>
      <trkpt lat="47.49493" lon="-0.33548">
        <ele>111</ele>
        <time>2011-09-04T07:31:36Z</time>
      </trkpt>
      <trkpt lat="47.49489" lon="-0.33558">
        <ele>112</ele>
        <time>2011-09-04T07:31:39Z</time>
      </trkpt>
      <trkpt lat="47.49485" lon="-0.33564">
        <ele>109</ele>
        <time>2011-09-04T07:31:41Z</time>
      </trkpt>
      <trkpt lat="47.49484" lon="-0.33573">
        <ele>111</ele>
        <time>2011-09-04T07:31:45Z</time>
      </trkpt>
      <trkpt lat="47.4948" lon="-0.33575">
        <ele>109</ele>
        <time>2011-09-04T07:32:03Z</time>
      </trkpt>
      <trkpt lat="47.49478" lon="-0.33582">
        <ele>107</ele>
        <time>2011-09-04T07:32:09Z</time>
      </trkpt>
      <trkpt lat="47.49476" lon="-0.33589">
        <ele>108</ele>
        <time>2011-09-04T07:32:12Z</time>
      </trkpt>
      <trkpt lat="47.49478" lon="-0.33599">
        <ele>109</ele>
        <time>2011-09-04T07:32:14Z</time>
      </trkpt>
      <trkpt lat="47.49476" lon="-0.33608">
        <ele>110</ele>
        <time>2011-09-04T07:32:17Z</time>
      </trkpt>
      <trkpt lat="47.49472" lon="-0.33617">
        <ele>110</ele>
        <time>2011-09-04T07:32:19Z</time>
      </trkpt>
      <trkpt lat="47.4947" lon="-0.33624">
        <ele>110</ele>
        <time>2011-09-04T07:32:21Z</time>
      </trkpt>
      <trkpt lat="47.49468" lon="-0.33634">
        <ele>112</ele>
        <time>2011-09-04T07:32:23Z</time>
      </trkpt>
      <trkpt lat="47.49467" lon="-0.33641">
        <ele>111</ele>
        <time>2011-09-04T07:32:24Z</time>
      </trkpt>
      <trkpt lat="47.49465" lon="-0.33648">
        <ele>112</ele>
        <time>2011-09-04T07:32:25Z</time>
      </trkpt>
      <trkpt lat="47.49464" lon="-0.33654">
        <ele>112</ele>
        <time>2011-09-04T07:32:26Z</time>
      </trkpt>
      <trkpt lat="47.49464" lon="-0.33661">
        <ele>112</ele>
        <time>2011-09-04T07:32:27Z</time>
      </trkpt>
      <trkpt lat="47.49463" lon="-0.33672">
        <ele>113</ele>
        <time>2011-09-04T07:32:29Z</time>
      </trkpt>
      <trkpt lat="47.49462" lon="-0.33683">
        <ele>114</ele>
        <time>2011-09-04T07:32:31Z</time>
      </trkpt>
      <trkpt lat="47.49459" lon="-0.33693">
        <ele>112</ele>
        <time>2011-09-04T07:32:33Z</time>
      </trkpt>
      <trkpt lat="47.49455" lon="-0.33698">
        <ele>114</ele>
        <time>2011-09-04T07:32:35Z</time>
      </trkpt>
      <trkpt lat="47.49453" lon="-0.33706">
        <ele>115</ele>
        <time>2011-09-04T07:32:38Z</time>
      </trkpt>
      <trkpt lat="47.49451" lon="-0.33712">
        <ele>116</ele>
        <time>2011-09-04T07:32:40Z</time>
      </trkpt>
      <trkpt lat="47.49448" lon="-0.3372">
        <ele>116</ele>
        <time>2011-09-04T07:32:42Z</time>
      </trkpt>
      <trkpt lat="47.49446" lon="-0.33727">
        <ele>115</ele>
        <time>2011-09-04T07:32:44Z</time>
      </trkpt>
      <trkpt lat="47.49443" lon="-0.33732">
        <ele>116</ele>
        <time>2011-09-04T07:32:46Z</time>
      </trkpt>
      <trkpt lat="47.49439" lon="-0.33738">
        <ele>116</ele>
        <time>2011-09-04T07:32:48Z</time>
      </trkpt>
      <trkpt lat="47.49436" lon="-0.33744">
        <ele>118</ele>
        <time>2011-09-04T07:32:50Z</time>
      </trkpt>
      <trkpt lat="47.49432" lon="-0.33751">
        <ele>119</ele>
        <time>2011-09-04T07:32:52Z</time>
      </trkpt>
      <trkpt lat="47.49429" lon="-0.3376">
        <ele>118</ele>
        <time>2011-09-04T07:32:54Z</time>
      </trkpt>
      <trkpt lat="47.49425" lon="-0.3377">
        <ele>117</ele>
        <time>2011-09-04T07:32:56Z</time>
      </trkpt>
      <trkpt lat="47.49419" lon="-0.33779">
        <ele>116</ele>
        <time>2011-09-04T07:32:58Z</time>
      </trkpt>
      <trkpt lat="47.49416" lon="-0.33787">
        <ele>115</ele>
        <time>2011-09-04T07:32:59Z</time>
      </trkpt>
      <trkpt lat="47.49414" lon="-0.33793">
        <ele>114</ele>
        <time>2011-09-04T07:33:00Z</time>
      </trkpt>
      <trkpt lat="47.49411" lon="-0.338">
        <ele>114</ele>
        <time>2011-09-04T07:33:01Z</time>
      </trkpt>
      <trkpt lat="47.49408" lon="-0.33805">
        <ele>114</ele>
        <time>2011-09-04T07:33:02Z</time>
      </trkpt>
      <trkpt lat="47.49406" lon="-0.33813">
        <ele>113</ele>
        <time>2011-09-04T07:33:03Z</time>
      </trkpt>
      <trkpt lat="47.49403" lon="-0.33819">
        <ele>113</ele>
        <time>2011-09-04T07:33:04Z</time>
      </trkpt>
      <trkpt lat="47.49401" lon="-0.33826">
        <ele>112</ele>
        <time>2011-09-04T07:33:05Z</time>
      </trkpt>
      <trkpt lat="47.49398" lon="-0.33835">
        <ele>113</ele>
        <time>2011-09-04T07:33:07Z</time>
      </trkpt>
      <trkpt lat="47.49394" lon="-0.33844">
        <ele>113</ele>
        <time>2011-09-04T07:33:09Z</time>
      </trkpt>
      <trkpt lat="47.4939" lon="-0.33854">
        <ele>114</ele>
        <time>2011-09-04T07:33:11Z</time>
      </trkpt>
      <trkpt lat="47.49388" lon="-0.3386">
        <ele>114</ele>
        <time>2011-09-04T07:33:12Z</time>
      </trkpt>
      <trkpt lat="47.49385" lon="-0.33867">
        <ele>114</ele>
        <time>2011-09-04T07:33:14Z</time>
      </trkpt>
      <trkpt lat="47.49385" lon="-0.33875">
        <ele>112</ele>
        <time>2011-09-04T07:33:17Z</time>
      </trkpt>
      <trkpt lat="47.49383" lon="-0.3388">
        <ele>107</ele>
        <time>2011-09-04T07:33:20Z</time>
      </trkpt>
      <trkpt lat="47.49379" lon="-0.33885">
        <ele>105</ele>
        <time>2011-09-04T07:33:57Z</time>
      </trkpt>
      <trkpt lat="47.49376" lon="-0.33894">
        <ele>107</ele>
        <time>2011-09-04T07:34:01Z</time>
      </trkpt>
      <trkpt lat="47.49374" lon="-0.33902">
        <ele>107</ele>
        <time>2011-09-04T07:34:03Z</time>
      </trkpt>
      <trkpt lat="47.49371" lon="-0.33908">
        <ele>108</ele>
        <time>2011-09-04T07:34:05Z</time>
      </trkpt>
      <trkpt lat="47.49369" lon="-0.33916">
        <ele>109</ele>
        <time>2011-09-04T07:34:07Z</time>
      </trkpt>
      <trkpt lat="47.49368" lon="-0.33925">
        <ele>109</ele>
        <time>2011-09-04T07:34:09Z</time>
      </trkpt>
      <trkpt lat="47.49366" lon="-0.33937">
        <ele>110</ele>
        <time>2011-09-04T07:34:11Z</time>
      </trkpt>
      <trkpt lat="47.49366" lon="-0.33948">
        <ele>110</ele>
        <time>2011-09-04T07:34:13Z</time>
      </trkpt>
      <trkpt lat="47.49366" lon="-0.33961">
        <ele>110</ele>
        <time>2011-09-04T07:34:15Z</time>
      </trkpt>
      <trkpt lat="47.49366" lon="-0.3397">
        <ele>110</ele>
        <time>2011-09-04T07:34:16Z</time>
      </trkpt>
      <trkpt lat="47.49366" lon="-0.33979">
        <ele>109</ele>
        <time>2011-09-04T07:34:17Z</time>
      </trkpt>
      <trkpt lat="47.49364" lon="-0.33985">
        <ele>109</ele>
        <time>2011-09-04T07:34:18Z</time>
      </trkpt>
      <trkpt lat="47.49364" lon="-0.33992">
        <ele>110</ele>
        <time>2011-09-04T07:34:19Z</time>
      </trkpt>
      <trkpt lat="47.49362" lon="-0.34003">
        <ele>109</ele>
        <time>2011-09-04T07:34:21Z</time>
      </trkpt>
      <trkpt lat="47.49363" lon="-0.34012">
        <ele>109</ele>
        <time>2011-09-04T07:34:23Z</time>
      </trkpt>
      <trkpt lat="47.4936" lon="-0.34021">
        <ele>107</ele>
        <time>2011-09-04T07:34:25Z</time>
      </trkpt>
      <trkpt lat="47.49364" lon="-0.34026">
        <ele>106</ele>
        <time>2011-09-04T07:34:27Z</time>
      </trkpt>
      <trkpt lat="47.49369" lon="-0.34032">
        <ele>104</ele>
        <time>2011-09-04T07:34:29Z</time>
      </trkpt>
      <trkpt lat="47.49375" lon="-0.34038">
        <ele>101</ele>
        <time>2011-09-04T07:34:32Z</time>
      </trkpt>
      <trkpt lat="47.49382" lon="-0.34041">
        <ele>101</ele>
        <time>2011-09-04T07:34:34Z</time>
      </trkpt>
      <trkpt lat="47.49387" lon="-0.34042">
        <ele>101</ele>
        <time>2011-09-04T07:34:35Z</time>
      </trkpt>
      <trkpt lat="47.49394" lon="-0.34044">
        <ele>101</ele>
        <time>2011-09-04T07:34:37Z</time>
      </trkpt>
      <trkpt lat="47.494" lon="-0.34045">
        <ele>101</ele>
        <time>2011-09-04T07:34:39Z</time>
      </trkpt>
      <trkpt lat="47.49406" lon="-0.34044">
        <ele>100</ele>
        <time>2011-09-04T07:34:40Z</time>
      </trkpt>
      <trkpt lat="47.49414" lon="-0.34044">
        <ele>100</ele>
        <time>2011-09-04T07:34:42Z</time>
      </trkpt>
      <trkpt lat="47.49421" lon="-0.34042">
        <ele>100</ele>
        <time>2011-09-04T07:34:44Z</time>
      </trkpt>
      <trkpt lat="47.49426" lon="-0.34042">
        <ele>100</ele>
        <time>2011-09-04T07:34:45Z</time>
      </trkpt>
      <trkpt lat="47.49433" lon="-0.34042">
        <ele>99</ele>
        <time>2011-09-04T07:34:46Z</time>
      </trkpt>
      <trkpt lat="47.4944" lon="-0.34039">
        <ele>99</ele>
        <time>2011-09-04T07:34:47Z</time>
      </trkpt>
      <trkpt lat="47.49445" lon="-0.34039">
        <ele>98</ele>
        <time>2011-09-04T07:34:48Z</time>
      </trkpt>
      <trkpt lat="47.4945" lon="-0.34037">
        <ele>98</ele>
        <time>2011-09-04T07:34:49Z</time>
      </trkpt>
      <trkpt lat="47.49456" lon="-0.34038">
        <ele>98</ele>
        <time>2011-09-04T07:34:50Z</time>
      </trkpt>
      <trkpt lat="47.49461" lon="-0.34038">
        <ele>98</ele>
        <time>2011-09-04T07:34:51Z</time>
      </trkpt>
      <trkpt lat="47.49468" lon="-0.34035">
        <ele>99</ele>
        <time>2011-09-04T07:34:53Z</time>
      </trkpt>
      <trkpt lat="47.49474" lon="-0.34032">
        <ele>100</ele>
        <time>2011-09-04T07:34:54Z</time>
      </trkpt>
      <trkpt lat="47.49479" lon="-0.34029">
        <ele>100</ele>
        <time>2011-09-04T07:34:55Z</time>
      </trkpt>
      <trkpt lat="47.49486" lon="-0.34023">
        <ele>101</ele>
        <time>2011-09-04T07:34:57Z</time>
      </trkpt>
      <trkpt lat="47.4949" lon="-0.34021">
        <ele>101</ele>
        <time>2011-09-04T07:34:58Z</time>
      </trkpt>
      <trkpt lat="47.49497" lon="-0.34017">
        <ele>103</ele>
        <time>2011-09-04T07:35:00Z</time>
      </trkpt>
      <trkpt lat="47.49502" lon="-0.34013">
        <ele>103</ele>
        <time>2011-09-04T07:35:01Z</time>
      </trkpt>
      <trkpt lat="47.49506" lon="-0.3401">
        <ele>103</ele>
        <time>2011-09-04T07:35:02Z</time>
      </trkpt>
      <trkpt lat="47.49513" lon="-0.34003">
        <ele>103</ele>
        <time>2011-09-04T07:35:04Z</time>
      </trkpt>
      <trkpt lat="47.49517" lon="-0.34">
        <ele>103</ele>
        <time>2011-09-04T07:35:05Z</time>
      </trkpt>
      <trkpt lat="47.49522" lon="-0.33998">
        <ele>105</ele>
        <time>2011-09-04T07:35:07Z</time>
      </trkpt>
      <trkpt lat="47.4953" lon="-0.33997">
        <ele>105</ele>
        <time>2011-09-04T07:35:09Z</time>
      </trkpt>
      <trkpt lat="47.49534" lon="-0.33996">
        <ele>104</ele>
        <time>2011-09-04T07:35:10Z</time>
      </trkpt>
      <trkpt lat="47.49545" lon="-0.33998">
        <ele>104</ele>
        <time>2011-09-04T07:35:12Z</time>
      </trkpt>
      <trkpt lat="47.4955" lon="-0.33996">
        <ele>103</ele>
        <time>2011-09-04T07:35:13Z</time>
      </trkpt>
      <trkpt lat="47.49555" lon="-0.33995">
        <ele>104</ele>
        <time>2011-09-04T07:35:14Z</time>
      </trkpt>
      <trkpt lat="47.49564" lon="-0.33994">
        <ele>105</ele>
        <time>2011-09-04T07:35:16Z</time>
      </trkpt>
      <trkpt lat="47.49569" lon="-0.33994">
        <ele>104</ele>
        <time>2011-09-04T07:35:17Z</time>
      </trkpt>
      <trkpt lat="47.49575" lon="-0.33994">
        <ele>104</ele>
        <time>2011-09-04T07:35:18Z</time>
      </trkpt>
      <trkpt lat="47.49583" lon="-0.33993">
        <ele>104</ele>
        <time>2011-09-04T07:35:20Z</time>
      </trkpt>
      <trkpt lat="47.49588" lon="-0.33992">
        <ele>104</ele>
        <time>2011-09-04T07:35:21Z</time>
      </trkpt>
      <trkpt lat="47.49596" lon="-0.33986">
        <ele>104</ele>
        <time>2011-09-04T07:35:23Z</time>
      </trkpt>
      <trkpt lat="47.49604" lon="-0.33981">
        <ele>104</ele>
        <time>2011-09-04T07:35:25Z</time>
      </trkpt>
      <trkpt lat="47.4961" lon="-0.33978">
        <ele>105</ele>
        <time>2011-09-04T07:35:26Z</time>
      </trkpt>
      <trkpt lat="47.49614" lon="-0.33974">
        <ele>104</ele>
        <time>2011-09-04T07:35:27Z</time>
      </trkpt>
      <trkpt lat="47.49619" lon="-0.33971">
        <ele>104</ele>
        <time>2011-09-04T07:35:28Z</time>
      </trkpt>
      <trkpt lat="47.49625" lon="-0.33966">
        <ele>105</ele>
        <time>2011-09-04T07:35:31Z</time>
      </trkpt>
      <trkpt lat="47.49632" lon="-0.33963">
        <ele>107</ele>
        <time>2011-09-04T07:35:33Z</time>
      </trkpt>
      <trkpt lat="47.4964" lon="-0.33958">
        <ele>108</ele>
        <time>2011-09-04T07:35:35Z</time>
      </trkpt>
      <trkpt lat="47.49646" lon="-0.33956">
        <ele>108</ele>
        <time>2011-09-04T07:35:36Z</time>
      </trkpt>
      <trkpt lat="47.4965" lon="-0.33954">
        <ele>108</ele>
        <time>2011-09-04T07:35:37Z</time>
      </trkpt>
      <trkpt lat="47.49655" lon="-0.33951">
        <ele>108</ele>
        <time>2011-09-04T07:35:38Z</time>
      </trkpt>
      <trkpt lat="47.49662" lon="-0.33947">
        <ele>107</ele>
        <time>2011-09-04T07:35:39Z</time>
      </trkpt>
      <trkpt lat="47.4967" lon="-0.33942">
        <ele>105</ele>
        <time>2011-09-04T07:35:40Z</time>
      </trkpt>
      <trkpt lat="47.49677" lon="-0.33936">
        <ele>101</ele>
        <time>2011-09-04T07:35:41Z</time>
      </trkpt>
      <trkpt lat="47.49682" lon="-0.33934">
        <ele>99</ele>
        <time>2011-09-04T07:35:42Z</time>
      </trkpt>
      <trkpt lat="47.49687" lon="-0.33933">
        <ele>99</ele>
        <time>2011-09-04T07:35:43Z</time>
      </trkpt>
      <trkpt lat="47.49695" lon="-0.33931">
        <ele>97</ele>
        <time>2011-09-04T07:35:45Z</time>
      </trkpt>
      <trkpt lat="47.49704" lon="-0.3393">
        <ele>96</ele>
        <time>2011-09-04T07:35:47Z</time>
      </trkpt>
      <trkpt lat="47.49714" lon="-0.33929">
        <ele>94</ele>
        <time>2011-09-04T07:35:49Z</time>
      </trkpt>
      <trkpt lat="47.49722" lon="-0.33928">
        <ele>93</ele>
        <time>2011-09-04T07:35:51Z</time>
      </trkpt>
      <trkpt lat="47.4973" lon="-0.33927">
        <ele>92</ele>
        <time>2011-09-04T07:35:53Z</time>
      </trkpt>
      <trkpt lat="47.49739" lon="-0.33927">
        <ele>92</ele>
        <time>2011-09-04T07:35:55Z</time>
      </trkpt>
      <trkpt lat="47.49747" lon="-0.33926">
        <ele>92</ele>
        <time>2011-09-04T07:35:57Z</time>
      </trkpt>
      <trkpt lat="47.49756" lon="-0.33924">
        <ele>91</ele>
        <time>2011-09-04T07:35:59Z</time>
      </trkpt>
      <trkpt lat="47.49765" lon="-0.33924">
        <ele>90</ele>
        <time>2011-09-04T07:36:01Z</time>
      </trkpt>
      <trkpt lat="47.49774" lon="-0.33923">
        <ele>90</ele>
        <time>2011-09-04T07:36:03Z</time>
      </trkpt>
      <trkpt lat="47.49783" lon="-0.33922">
        <ele>89</ele>
        <time>2011-09-04T07:36:05Z</time>
      </trkpt>
      <trkpt lat="47.49788" lon="-0.33922">
        <ele>90</ele>
        <time>2011-09-04T07:36:06Z</time>
      </trkpt>
      <trkpt lat="47.49797" lon="-0.33922">
        <ele>89</ele>
        <time>2011-09-04T07:36:08Z</time>
      </trkpt>
      <trkpt lat="47.49802" lon="-0.33921">
        <ele>89</ele>
        <time>2011-09-04T07:36:09Z</time>
      </trkpt>
      <trkpt lat="47.49811" lon="-0.3392">
        <ele>88</ele>
        <time>2011-09-04T07:36:11Z</time>
      </trkpt>
      <trkpt lat="47.4982" lon="-0.3392">
        <ele>88</ele>
        <time>2011-09-04T07:36:13Z</time>
      </trkpt>
      <trkpt lat="47.49825" lon="-0.3392">
        <ele>88</ele>
        <time>2011-09-04T07:36:14Z</time>
      </trkpt>
      <trkpt lat="47.4983" lon="-0.3392">
        <ele>88</ele>
        <time>2011-09-04T07:36:15Z</time>
      </trkpt>
      <trkpt lat="47.49839" lon="-0.33919">
        <ele>88</ele>
        <time>2011-09-04T07:36:17Z</time>
      </trkpt>
      <trkpt lat="47.49847" lon="-0.33918">
        <ele>88</ele>
        <time>2011-09-04T07:36:19Z</time>
      </trkpt>
      <trkpt lat="47.49856" lon="-0.33916">
        <ele>88</ele>
        <time>2011-09-04T07:36:21Z</time>
      </trkpt>
      <trkpt lat="47.49864" lon="-0.33916">
        <ele>87</ele>
        <time>2011-09-04T07:36:23Z</time>
      </trkpt>
      <trkpt lat="47.49873" lon="-0.33915">
        <ele>87</ele>
        <time>2011-09-04T07:36:25Z</time>
      </trkpt>
      <trkpt lat="47.49881" lon="-0.33914">
        <ele>87</ele>
        <time>2011-09-04T07:36:27Z</time>
      </trkpt>
      <trkpt lat="47.4989" lon="-0.33914">
        <ele>87</ele>
        <time>2011-09-04T07:36:29Z</time>
      </trkpt>
      <trkpt lat="47.49898" lon="-0.33913">
        <ele>86</ele>
        <time>2011-09-04T07:36:31Z</time>
      </trkpt>
      <trkpt lat="47.49906" lon="-0.33913">
        <ele>86</ele>
        <time>2011-09-04T07:36:33Z</time>
      </trkpt>
      <trkpt lat="47.49913" lon="-0.33912">
        <ele>86</ele>
        <time>2011-09-04T07:36:35Z</time>
      </trkpt>
      <trkpt lat="47.49918" lon="-0.3391">
        <ele>86</ele>
        <time>2011-09-04T07:36:37Z</time>
      </trkpt>
      <trkpt lat="47.49924" lon="-0.33909">
        <ele>86</ele>
        <time>2011-09-04T07:36:40Z</time>
      </trkpt>
      <trkpt lat="47.49929" lon="-0.33905">
        <ele>85</ele>
        <time>2011-09-04T07:36:45Z</time>
      </trkpt>
      <trkpt lat="47.49929" lon="-0.33905">
        <ele>85</ele>
        <time>2011-09-04T07:36:45Z</time>
      </trkpt>
      <trkpt lat="47.49929" lon="-0.33905">
        <ele>80</ele>
        <time>2011-09-04T07:39:24Z</time>
      </trkpt>
      <trkpt lat="47.49924" lon="-0.33902">
        <ele>82</ele>
        <time>2011-09-04T07:42:26Z</time>
      </trkpt>
      <trkpt lat="47.49922" lon="-0.33893">
        <ele>82</ele>
        <time>2011-09-04T07:42:30Z</time>
      </trkpt>
      <trkpt lat="47.49919" lon="-0.33886">
        <ele>82</ele>
        <time>2011-09-04T07:42:33Z</time>
      </trkpt>
      <trkpt lat="47.49918" lon="-0.33876">
        <ele>83</ele>
        <time>2011-09-04T07:42:36Z</time>
      </trkpt>
      <trkpt lat="47.49917" lon="-0.33866">
        <ele>85</ele>
        <time>2011-09-04T07:42:39Z</time>
      </trkpt>
      <trkpt lat="47.49916" lon="-0.33859">
        <ele>85</ele>
        <time>2011-09-04T07:42:41Z</time>
      </trkpt>
      <trkpt lat="47.49915" lon="-0.33851">
        <ele>85</ele>
        <time>2011-09-04T07:42:43Z</time>
      </trkpt>
      <trkpt lat="47.49913" lon="-0.33841">
        <ele>85</ele>
        <time>2011-09-04T07:42:45Z</time>
      </trkpt>
      <trkpt lat="47.49909" lon="-0.33829">
        <ele>85</ele>
        <time>2011-09-04T07:42:47Z</time>
      </trkpt>
      <trkpt lat="47.49908" lon="-0.33823">
        <ele>85</ele>
        <time>2011-09-04T07:42:48Z</time>
      </trkpt>
      <trkpt lat="47.49906" lon="-0.33809">
        <ele>85</ele>
        <time>2011-09-04T07:42:50Z</time>
      </trkpt>
      <trkpt lat="47.49905" lon="-0.33802">
        <ele>85</ele>
        <time>2011-09-04T07:42:51Z</time>
      </trkpt>
      <trkpt lat="47.49904" lon="-0.33793">
        <ele>85</ele>
        <time>2011-09-04T07:42:52Z</time>
      </trkpt>
      <trkpt lat="47.49902" lon="-0.33784">
        <ele>85</ele>
        <time>2011-09-04T07:42:53Z</time>
      </trkpt>
      <trkpt lat="47.49901" lon="-0.33776">
        <ele>85</ele>
        <time>2011-09-04T07:42:54Z</time>
      </trkpt>
      <trkpt lat="47.499" lon="-0.33768">
        <ele>85</ele>
        <time>2011-09-04T07:42:55Z</time>
      </trkpt>
      <trkpt lat="47.49899" lon="-0.33759">
        <ele>85</ele>
        <time>2011-09-04T07:42:56Z</time>
      </trkpt>
      <trkpt lat="47.49898" lon="-0.33751">
        <ele>85</ele>
        <time>2011-09-04T07:42:57Z</time>
      </trkpt>
      <trkpt lat="47.49898" lon="-0.33742">
        <ele>85</ele>
        <time>2011-09-04T07:42:58Z</time>
      </trkpt>
      <trkpt lat="47.49899" lon="-0.33734">
        <ele>85</ele>
        <time>2011-09-04T07:42:59Z</time>
      </trkpt>
      <trkpt lat="47.49902" lon="-0.33726">
        <ele>85</ele>
        <time>2011-09-04T07:43:00Z</time>
      </trkpt>
      <trkpt lat="47.49905" lon="-0.3372">
        <ele>84</ele>
        <time>2011-09-04T07:43:01Z</time>
      </trkpt>
      <trkpt lat="47.49908" lon="-0.33713">
        <ele>84</ele>
        <time>2011-09-04T07:43:02Z</time>
      </trkpt>
      <trkpt lat="47.4991" lon="-0.33706">
        <ele>84</ele>
        <time>2011-09-04T07:43:03Z</time>
      </trkpt>
      <trkpt lat="47.4991" lon="-0.33698">
        <ele>85</ele>
        <time>2011-09-04T07:43:04Z</time>
      </trkpt>
      <trkpt lat="47.4991" lon="-0.3369">
        <ele>85</ele>
        <time>2011-09-04T07:43:05Z</time>
      </trkpt>
      <trkpt lat="47.49907" lon="-0.33682">
        <ele>85</ele>
        <time>2011-09-04T07:43:06Z</time>
      </trkpt>
      <trkpt lat="47.49904" lon="-0.33674">
        <ele>85</ele>
        <time>2011-09-04T07:43:07Z</time>
      </trkpt>
      <trkpt lat="47.499" lon="-0.33668">
        <ele>85</ele>
        <time>2011-09-04T07:43:08Z</time>
      </trkpt>
      <trkpt lat="47.49897" lon="-0.33659">
        <ele>85</ele>
        <time>2011-09-04T07:43:09Z</time>
      </trkpt>
      <trkpt lat="47.49894" lon="-0.33651">
        <ele>85</ele>
        <time>2011-09-04T07:43:10Z</time>
      </trkpt>
      <trkpt lat="47.49892" lon="-0.33642">
        <ele>85</ele>
        <time>2011-09-04T07:43:11Z</time>
      </trkpt>
      <trkpt lat="47.49889" lon="-0.33633">
        <ele>85</ele>
        <time>2011-09-04T07:43:12Z</time>
      </trkpt>
      <trkpt lat="47.49887" lon="-0.33624">
        <ele>85</ele>
        <time>2011-09-04T07:43:13Z</time>
      </trkpt>
      <trkpt lat="47.49885" lon="-0.33614">
        <ele>85</ele>
        <time>2011-09-04T07:43:14Z</time>
      </trkpt>
      <trkpt lat="47.49883" lon="-0.33605">
        <ele>85</ele>
        <time>2011-09-04T07:43:15Z</time>
      </trkpt>
      <trkpt lat="47.49882" lon="-0.33595">
        <ele>85</ele>
        <time>2011-09-04T07:43:16Z</time>
      </trkpt>
      <trkpt lat="47.4988" lon="-0.33586">
        <ele>85</ele>
        <time>2011-09-04T07:43:17Z</time>
      </trkpt>
      <trkpt lat="47.49879" lon="-0.33576">
        <ele>85</ele>
        <time>2011-09-04T07:43:18Z</time>
      </trkpt>
      <trkpt lat="47.49878" lon="-0.33566">
        <ele>85</ele>
        <time>2011-09-04T07:43:19Z</time>
      </trkpt>
      <trkpt lat="47.49877" lon="-0.33556">
        <ele>85</ele>
        <time>2011-09-04T07:43:20Z</time>
      </trkpt>
      <trkpt lat="47.49876" lon="-0.33547">
        <ele>85</ele>
        <time>2011-09-04T07:43:21Z</time>
      </trkpt>
      <trkpt lat="47.49874" lon="-0.33538">
        <ele>85</ele>
        <time>2011-09-04T07:43:22Z</time>
      </trkpt>
      <trkpt lat="47.49874" lon="-0.33528">
        <ele>84</ele>
        <time>2011-09-04T07:43:23Z</time>
      </trkpt>
      <trkpt lat="47.49872" lon="-0.3352">
        <ele>84</ele>
        <time>2011-09-04T07:43:24Z</time>
      </trkpt>
      <trkpt lat="47.49872" lon="-0.33512">
        <ele>84</ele>
        <time>2011-09-04T07:43:25Z</time>
      </trkpt>
      <trkpt lat="47.49873" lon="-0.33503">
        <ele>84</ele>
        <time>2011-09-04T07:43:26Z</time>
      </trkpt>
      <trkpt lat="47.49876" lon="-0.33493">
        <ele>85</ele>
        <time>2011-09-04T07:43:28Z</time>
      </trkpt>
      <trkpt lat="47.49884" lon="-0.33493">
        <ele>86</ele>
        <time>2011-09-04T07:43:30Z</time>
      </trkpt>
      <trkpt lat="47.49891" lon="-0.33494">
        <ele>85</ele>
        <time>2011-09-04T07:43:31Z</time>
      </trkpt>
      <trkpt lat="47.49897" lon="-0.33495">
        <ele>85</ele>
        <time>2011-09-04T07:43:32Z</time>
      </trkpt>
      <trkpt lat="47.49904" lon="-0.33495">
        <ele>85</ele>
        <time>2011-09-04T07:43:33Z</time>
      </trkpt>
      <trkpt lat="47.4991" lon="-0.33496">
        <ele>85</ele>
        <time>2011-09-04T07:43:34Z</time>
      </trkpt>
      <trkpt lat="47.49917" lon="-0.33495">
        <ele>85</ele>
        <time>2011-09-04T07:43:35Z</time>
      </trkpt>
      <trkpt lat="47.49923" lon="-0.33495">
        <ele>85</ele>
        <time>2011-09-04T07:43:36Z</time>
      </trkpt>
      <trkpt lat="47.4993" lon="-0.33495">
        <ele>85</ele>
        <time>2011-09-04T07:43:37Z</time>
      </trkpt>
      <trkpt lat="47.49936" lon="-0.33495">
        <ele>85</ele>
        <time>2011-09-04T07:43:38Z</time>
      </trkpt>
      <trkpt lat="47.49943" lon="-0.33494">
        <ele>85</ele>
        <time>2011-09-04T07:43:39Z</time>
      </trkpt>
      <trkpt lat="47.4995" lon="-0.33494">
        <ele>84</ele>
        <time>2011-09-04T07:43:40Z</time>
      </trkpt>
      <trkpt lat="47.49957" lon="-0.33493">
        <ele>84</ele>
        <time>2011-09-04T07:43:41Z</time>
      </trkpt>
      <trkpt lat="47.49964" lon="-0.33492">
        <ele>84</ele>
        <time>2011-09-04T07:43:42Z</time>
      </trkpt>
      <trkpt lat="47.49971" lon="-0.33491">
        <ele>84</ele>
        <time>2011-09-04T07:43:43Z</time>
      </trkpt>
      <trkpt lat="47.49977" lon="-0.3349">
        <ele>84</ele>
        <time>2011-09-04T07:43:44Z</time>
      </trkpt>
      <trkpt lat="47.49983" lon="-0.3349">
        <ele>84</ele>
        <time>2011-09-04T07:43:45Z</time>
      </trkpt>
      <trkpt lat="47.4999" lon="-0.33488">
        <ele>84</ele>
        <time>2011-09-04T07:43:46Z</time>
      </trkpt>
      <trkpt lat="47.49997" lon="-0.33487">
        <ele>84</ele>
        <time>2011-09-04T07:43:47Z</time>
      </trkpt>
      <trkpt lat="47.50003" lon="-0.33486">
        <ele>84</ele>
        <time>2011-09-04T07:43:48Z</time>
      </trkpt>
      <trkpt lat="47.5001" lon="-0.33482">
        <ele>84</ele>
        <time>2011-09-04T07:43:49Z</time>
      </trkpt>
      <trkpt lat="47.50016" lon="-0.33478">
        <ele>84</ele>
        <time>2011-09-04T07:43:50Z</time>
      </trkpt>
      <trkpt lat="47.50022" lon="-0.33473">
        <ele>84</ele>
        <time>2011-09-04T07:43:51Z</time>
      </trkpt>
      <trkpt lat="47.50027" lon="-0.33468">
        <ele>84</ele>
        <time>2011-09-04T07:43:52Z</time>
      </trkpt>
      <trkpt lat="47.50033" lon="-0.33463">
        <ele>84</ele>
        <time>2011-09-04T07:43:53Z</time>
      </trkpt>
      <trkpt lat="47.50039" lon="-0.33458">
        <ele>84</ele>
        <time>2011-09-04T07:43:54Z</time>
      </trkpt>
      <trkpt lat="47.50045" lon="-0.33452">
        <ele>83</ele>
        <time>2011-09-04T07:43:55Z</time>
      </trkpt>
      <trkpt lat="47.5005" lon="-0.33447">
        <ele>84</ele>
        <time>2011-09-04T07:43:56Z</time>
      </trkpt>
      <trkpt lat="47.50056" lon="-0.33442">
        <ele>84</ele>
        <time>2011-09-04T07:43:57Z</time>
      </trkpt>
      <trkpt lat="47.50062" lon="-0.33436">
        <ele>84</ele>
        <time>2011-09-04T07:43:58Z</time>
      </trkpt>
      <trkpt lat="47.50068" lon="-0.33431">
        <ele>84</ele>
        <time>2011-09-04T07:43:59Z</time>
      </trkpt>
      <trkpt lat="47.50073" lon="-0.33426">
        <ele>84</ele>
        <time>2011-09-04T07:44:00Z</time>
      </trkpt>
      <trkpt lat="47.50079" lon="-0.3342">
        <ele>84</ele>
        <time>2011-09-04T07:44:01Z</time>
      </trkpt>
      <trkpt lat="47.50084" lon="-0.33415">
        <ele>84</ele>
        <time>2011-09-04T07:44:02Z</time>
      </trkpt>
      <trkpt lat="47.5009" lon="-0.3341">
        <ele>83</ele>
        <time>2011-09-04T07:44:03Z</time>
      </trkpt>
      <trkpt lat="47.50096" lon="-0.33404">
        <ele>83</ele>
        <time>2011-09-04T07:44:04Z</time>
      </trkpt>
      <trkpt lat="47.50101" lon="-0.33399">
        <ele>83</ele>
        <time>2011-09-04T07:44:05Z</time>
      </trkpt>
      <trkpt lat="47.50106" lon="-0.33394">
        <ele>83</ele>
        <time>2011-09-04T07:44:06Z</time>
      </trkpt>
      <trkpt lat="47.50112" lon="-0.3339">
        <ele>83</ele>
        <time>2011-09-04T07:44:07Z</time>
      </trkpt>
      <trkpt lat="47.50116" lon="-0.33384">
        <ele>83</ele>
        <time>2011-09-04T07:44:08Z</time>
      </trkpt>
      <trkpt lat="47.50121" lon="-0.3338">
        <ele>83</ele>
        <time>2011-09-04T07:44:09Z</time>
      </trkpt>
      <trkpt lat="47.50126" lon="-0.33375">
        <ele>83</ele>
        <time>2011-09-04T07:44:10Z</time>
      </trkpt>
      <trkpt lat="47.5013" lon="-0.33372">
        <ele>83</ele>
        <time>2011-09-04T07:44:11Z</time>
      </trkpt>
      <trkpt lat="47.50136" lon="-0.33372">
        <ele>83</ele>
        <time>2011-09-04T07:44:12Z</time>
      </trkpt>
      <trkpt lat="47.50142" lon="-0.33372">
        <ele>83</ele>
        <time>2011-09-04T07:44:13Z</time>
      </trkpt>
      <trkpt lat="47.50147" lon="-0.33375">
        <ele>83</ele>
        <time>2011-09-04T07:44:14Z</time>
      </trkpt>
      <trkpt lat="47.50151" lon="-0.33382">
        <ele>84</ele>
        <time>2011-09-04T07:44:15Z</time>
      </trkpt>
      <trkpt lat="47.50155" lon="-0.33391">
        <ele>84</ele>
        <time>2011-09-04T07:44:16Z</time>
      </trkpt>
      <trkpt lat="47.50159" lon="-0.33399">
        <ele>84</ele>
        <time>2011-09-04T07:44:17Z</time>
      </trkpt>
      <trkpt lat="47.50164" lon="-0.33406">
        <ele>84</ele>
        <time>2011-09-04T07:44:18Z</time>
      </trkpt>
      <trkpt lat="47.50169" lon="-0.33414">
        <ele>84</ele>
        <time>2011-09-04T07:44:19Z</time>
      </trkpt>
      <trkpt lat="47.50174" lon="-0.33422">
        <ele>84</ele>
        <time>2011-09-04T07:44:20Z</time>
      </trkpt>
      <trkpt lat="47.50179" lon="-0.3343">
        <ele>84</ele>
        <time>2011-09-04T07:44:21Z</time>
      </trkpt>
      <trkpt lat="47.50184" lon="-0.33438">
        <ele>83</ele>
        <time>2011-09-04T07:44:22Z</time>
      </trkpt>
      <trkpt lat="47.5019" lon="-0.33446">
        <ele>83</ele>
        <time>2011-09-04T07:44:23Z</time>
      </trkpt>
      <trkpt lat="47.50195" lon="-0.33452">
        <ele>83</ele>
        <time>2011-09-04T07:44:24Z</time>
      </trkpt>
      <trkpt lat="47.50201" lon="-0.33459">
        <ele>83</ele>
        <time>2011-09-04T07:44:25Z</time>
      </trkpt>
      <trkpt lat="47.50207" lon="-0.33466">
        <ele>83</ele>
        <time>2011-09-04T07:44:26Z</time>
      </trkpt>
      <trkpt lat="47.50213" lon="-0.33473">
        <ele>83</ele>
        <time>2011-09-04T07:44:27Z</time>
      </trkpt>
      <trkpt lat="47.50218" lon="-0.3348">
        <ele>83</ele>
        <time>2011-09-04T07:44:28Z</time>
      </trkpt>
      <trkpt lat="47.50224" lon="-0.33487">
        <ele>83</ele>
        <time>2011-09-04T07:44:29Z</time>
      </trkpt>
      <trkpt lat="47.5023" lon="-0.33493">
        <ele>83</ele>
        <time>2011-09-04T07:44:30Z</time>
      </trkpt>
      <trkpt lat="47.50235" lon="-0.33501">
        <ele>83</ele>
        <time>2011-09-04T07:44:31Z</time>
      </trkpt>
      <trkpt lat="47.5024" lon="-0.33508">
        <ele>83</ele>
        <time>2011-09-04T07:44:32Z</time>
      </trkpt>
      <trkpt lat="47.50246" lon="-0.33516">
        <ele>83</ele>
        <time>2011-09-04T07:44:33Z</time>
      </trkpt>
      <trkpt lat="47.50251" lon="-0.33523">
        <ele>83</ele>
        <time>2011-09-04T07:44:34Z</time>
      </trkpt>
      <trkpt lat="47.50257" lon="-0.33529">
        <ele>83</ele>
        <time>2011-09-04T07:44:35Z</time>
      </trkpt>
      <trkpt lat="47.50264" lon="-0.33536">
        <ele>83</ele>
        <time>2011-09-04T07:44:36Z</time>
      </trkpt>
      <trkpt lat="47.5027" lon="-0.33541">
        <ele>83</ele>
        <time>2011-09-04T07:44:37Z</time>
      </trkpt>
      <trkpt lat="47.50276" lon="-0.33545">
        <ele>83</ele>
        <time>2011-09-04T07:44:38Z</time>
      </trkpt>
      <trkpt lat="47.50283" lon="-0.3355">
        <ele>83</ele>
        <time>2011-09-04T07:44:39Z</time>
      </trkpt>
      <trkpt lat="47.5029" lon="-0.33554">
        <ele>84</ele>
        <time>2011-09-04T07:44:40Z</time>
      </trkpt>
      <trkpt lat="47.50296" lon="-0.33559">
        <ele>83</ele>
        <time>2011-09-04T07:44:41Z</time>
      </trkpt>
      <trkpt lat="47.50303" lon="-0.33564">
        <ele>83</ele>
        <time>2011-09-04T07:44:42Z</time>
      </trkpt>
      <trkpt lat="47.50308" lon="-0.3357">
        <ele>83</ele>
        <time>2011-09-04T07:44:43Z</time>
      </trkpt>
      <trkpt lat="47.50315" lon="-0.33577">
        <ele>83</ele>
        <time>2011-09-04T07:44:44Z</time>
      </trkpt>
      <trkpt lat="47.50321" lon="-0.33584">
        <ele>83</ele>
        <time>2011-09-04T07:44:45Z</time>
      </trkpt>
      <trkpt lat="47.50326" lon="-0.33591">
        <ele>84</ele>
        <time>2011-09-04T07:44:46Z</time>
      </trkpt>
      <trkpt lat="47.50331" lon="-0.33599">
        <ele>83</ele>
        <time>2011-09-04T07:44:47Z</time>
      </trkpt>
      <trkpt lat="47.50336" lon="-0.33608">
        <ele>83</ele>
        <time>2011-09-04T07:44:48Z</time>
      </trkpt>
      <trkpt lat="47.5034" lon="-0.33617">
        <ele>83</ele>
        <time>2011-09-04T07:44:49Z</time>
      </trkpt>
      <trkpt lat="47.50342" lon="-0.33626">
        <ele>84</ele>
        <time>2011-09-04T07:44:50Z</time>
      </trkpt>
      <trkpt lat="47.50344" lon="-0.33636">
        <ele>84</ele>
        <time>2011-09-04T07:44:51Z</time>
      </trkpt>
      <trkpt lat="47.50346" lon="-0.33647">
        <ele>84</ele>
        <time>2011-09-04T07:44:52Z</time>
      </trkpt>
      <trkpt lat="47.50348" lon="-0.33657">
        <ele>84</ele>
        <time>2011-09-04T07:44:53Z</time>
      </trkpt>
      <trkpt lat="47.50351" lon="-0.33666">
        <ele>84</ele>
        <time>2011-09-04T07:44:54Z</time>
      </trkpt>
      <trkpt lat="47.50354" lon="-0.33676">
        <ele>84</ele>
        <time>2011-09-04T07:44:55Z</time>
      </trkpt>
      <trkpt lat="47.50357" lon="-0.33685">
        <ele>84</ele>
        <time>2011-09-04T07:44:56Z</time>
      </trkpt>
      <trkpt lat="47.50361" lon="-0.33695">
        <ele>84</ele>
        <time>2011-09-04T07:44:57Z</time>
      </trkpt>
      <trkpt lat="47.50364" lon="-0.33703">
        <ele>84</ele>
        <time>2011-09-04T07:44:58Z</time>
      </trkpt>
      <trkpt lat="47.50369" lon="-0.33711">
        <ele>84</ele>
        <time>2011-09-04T07:44:59Z</time>
      </trkpt>
      <trkpt lat="47.50374" lon="-0.33719">
        <ele>83</ele>
        <time>2011-09-04T07:45:00Z</time>
      </trkpt>
      <trkpt lat="47.5038" lon="-0.33726">
        <ele>84</ele>
        <time>2011-09-04T07:45:01Z</time>
      </trkpt>
      <trkpt lat="47.50386" lon="-0.33733">
        <ele>84</ele>
        <time>2011-09-04T07:45:02Z</time>
      </trkpt>
      <trkpt lat="47.50391" lon="-0.33739">
        <ele>84</ele>
        <time>2011-09-04T07:45:03Z</time>
      </trkpt>
      <trkpt lat="47.50397" lon="-0.33745">
        <ele>84</ele>
        <time>2011-09-04T07:45:04Z</time>
      </trkpt>
      <trkpt lat="47.50403" lon="-0.33752">
        <ele>84</ele>
        <time>2011-09-04T07:45:05Z</time>
      </trkpt>
      <trkpt lat="47.50409" lon="-0.33758">
        <ele>84</ele>
        <time>2011-09-04T07:45:06Z</time>
      </trkpt>
      <trkpt lat="47.50414" lon="-0.33765">
        <ele>84</ele>
        <time>2011-09-04T07:45:07Z</time>
      </trkpt>
      <trkpt lat="47.50419" lon="-0.33771">
        <ele>84</ele>
        <time>2011-09-04T07:45:08Z</time>
      </trkpt>
      <trkpt lat="47.50424" lon="-0.33778">
        <ele>84</ele>
        <time>2011-09-04T07:45:09Z</time>
      </trkpt>
      <trkpt lat="47.50429" lon="-0.33785">
        <ele>84</ele>
        <time>2011-09-04T07:45:10Z</time>
      </trkpt>
      <trkpt lat="47.50434" lon="-0.33792">
        <ele>84</ele>
        <time>2011-09-04T07:45:11Z</time>
      </trkpt>
      <trkpt lat="47.50438" lon="-0.338">
        <ele>84</ele>
        <time>2011-09-04T07:45:12Z</time>
      </trkpt>
      <trkpt lat="47.50442" lon="-0.33807">
        <ele>84</ele>
        <time>2011-09-04T07:45:13Z</time>
      </trkpt>
      <trkpt lat="47.50446" lon="-0.33815">
        <ele>84</ele>
        <time>2011-09-04T07:45:14Z</time>
      </trkpt>
      <trkpt lat="47.5045" lon="-0.33822">
        <ele>84</ele>
        <time>2011-09-04T07:45:15Z</time>
      </trkpt>
      <trkpt lat="47.50453" lon="-0.3383">
        <ele>85</ele>
        <time>2011-09-04T07:45:16Z</time>
      </trkpt>
      <trkpt lat="47.50457" lon="-0.33838">
        <ele>85</ele>
        <time>2011-09-04T07:45:17Z</time>
      </trkpt>
      <trkpt lat="47.50461" lon="-0.33846">
        <ele>85</ele>
        <time>2011-09-04T07:45:18Z</time>
      </trkpt>
      <trkpt lat="47.50464" lon="-0.33853">
        <ele>85</ele>
        <time>2011-09-04T07:45:19Z</time>
      </trkpt>
      <trkpt lat="47.50468" lon="-0.33861">
        <ele>85</ele>
        <time>2011-09-04T07:45:20Z</time>
      </trkpt>
      <trkpt lat="47.50471" lon="-0.33869">
        <ele>85</ele>
        <time>2011-09-04T07:45:21Z</time>
      </trkpt>
      <trkpt lat="47.50474" lon="-0.33876">
        <ele>85</ele>
        <time>2011-09-04T07:45:22Z</time>
      </trkpt>
      <trkpt lat="47.50479" lon="-0.33883">
        <ele>85</ele>
        <time>2011-09-04T07:45:23Z</time>
      </trkpt>
      <trkpt lat="47.50482" lon="-0.33888">
        <ele>85</ele>
        <time>2011-09-04T07:45:24Z</time>
      </trkpt>
      <trkpt lat="47.50487" lon="-0.33892">
        <ele>85</ele>
        <time>2011-09-04T07:45:25Z</time>
      </trkpt>
      <trkpt lat="47.50497" lon="-0.33891">
        <ele>85</ele>
        <time>2011-09-04T07:45:27Z</time>
      </trkpt>
      <trkpt lat="47.50505" lon="-0.33883">
        <ele>85</ele>
        <time>2011-09-04T07:45:28Z</time>
      </trkpt>
      <trkpt lat="47.50511" lon="-0.33879">
        <ele>85</ele>
        <time>2011-09-04T07:45:29Z</time>
      </trkpt>
      <trkpt lat="47.50517" lon="-0.33876">
        <ele>85</ele>
        <time>2011-09-04T07:45:30Z</time>
      </trkpt>
      <trkpt lat="47.50523" lon="-0.33872">
        <ele>85</ele>
        <time>2011-09-04T07:45:31Z</time>
      </trkpt>
      <trkpt lat="47.5053" lon="-0.33869">
        <ele>85</ele>
        <time>2011-09-04T07:45:32Z</time>
      </trkpt>
      <trkpt lat="47.50536" lon="-0.33867">
        <ele>85</ele>
        <time>2011-09-04T07:45:33Z</time>
      </trkpt>
      <trkpt lat="47.50542" lon="-0.33864">
        <ele>85</ele>
        <time>2011-09-04T07:45:34Z</time>
      </trkpt>
      <trkpt lat="47.50548" lon="-0.33861">
        <ele>85</ele>
        <time>2011-09-04T07:45:35Z</time>
      </trkpt>
      <trkpt lat="47.50555" lon="-0.33858">
        <ele>85</ele>
        <time>2011-09-04T07:45:36Z</time>
      </trkpt>
      <trkpt lat="47.50562" lon="-0.33856">
        <ele>85</ele>
        <time>2011-09-04T07:45:37Z</time>
      </trkpt>
      <trkpt lat="47.50568" lon="-0.33853">
        <ele>85</ele>
        <time>2011-09-04T07:45:38Z</time>
      </trkpt>
      <trkpt lat="47.50575" lon="-0.33851">
        <ele>85</ele>
        <time>2011-09-04T07:45:39Z</time>
      </trkpt>
      <trkpt lat="47.50581" lon="-0.33849">
        <ele>85</ele>
        <time>2011-09-04T07:45:40Z</time>
      </trkpt>
      <trkpt lat="47.50588" lon="-0.33847">
        <ele>84</ele>
        <time>2011-09-04T07:45:41Z</time>
      </trkpt>
      <trkpt lat="47.50594" lon="-0.33845">
        <ele>84</ele>
        <time>2011-09-04T07:45:42Z</time>
      </trkpt>
      <trkpt lat="47.50601" lon="-0.33843">
        <ele>85</ele>
        <time>2011-09-04T07:45:43Z</time>
      </trkpt>
      <trkpt lat="47.50607" lon="-0.33841">
        <ele>85</ele>
        <time>2011-09-04T07:45:44Z</time>
      </trkpt>
      <trkpt lat="47.50614" lon="-0.33842">
        <ele>85</ele>
        <time>2011-09-04T07:45:45Z</time>
      </trkpt>
      <trkpt lat="47.5062" lon="-0.33844">
        <ele>86</ele>
        <time>2011-09-04T07:45:46Z</time>
      </trkpt>
      <trkpt lat="47.50626" lon="-0.33847">
        <ele>85</ele>
        <time>2011-09-04T07:45:47Z</time>
      </trkpt>
      <trkpt lat="47.50631" lon="-0.3385">
        <ele>85</ele>
        <time>2011-09-04T07:45:48Z</time>
      </trkpt>
      <trkpt lat="47.50635" lon="-0.33855">
        <ele>86</ele>
        <time>2011-09-04T07:45:49Z</time>
      </trkpt>
      <trkpt lat="47.50636" lon="-0.33864">
        <ele>86</ele>
        <time>2011-09-04T07:45:50Z</time>
      </trkpt>
      <trkpt lat="47.50638" lon="-0.3387">
        <ele>86</ele>
        <time>2011-09-04T07:45:51Z</time>
      </trkpt>
      <trkpt lat="47.5064" lon="-0.33881">
        <ele>86</ele>
        <time>2011-09-04T07:45:52Z</time>
      </trkpt>
      <trkpt lat="47.50641" lon="-0.3389">
        <ele>86</ele>
        <time>2011-09-04T07:45:53Z</time>
      </trkpt>
      <trkpt lat="47.50641" lon="-0.33899">
        <ele>87</ele>
        <time>2011-09-04T07:45:54Z</time>
      </trkpt>
      <trkpt lat="47.50642" lon="-0.33909">
        <ele>87</ele>
        <time>2011-09-04T07:45:55Z</time>
      </trkpt>
      <trkpt lat="47.50643" lon="-0.33918">
        <ele>88</ele>
        <time>2011-09-04T07:45:56Z</time>
      </trkpt>
      <trkpt lat="47.50644" lon="-0.33927">
        <ele>88</ele>
        <time>2011-09-04T07:45:57Z</time>
      </trkpt>
      <trkpt lat="47.50645" lon="-0.33936">
        <ele>88</ele>
        <time>2011-09-04T07:45:58Z</time>
      </trkpt>
      <trkpt lat="47.50647" lon="-0.33946">
        <ele>88</ele>
        <time>2011-09-04T07:45:59Z</time>
      </trkpt>
      <trkpt lat="47.50649" lon="-0.33955">
        <ele>88</ele>
        <time>2011-09-04T07:46:00Z</time>
      </trkpt>
      <trkpt lat="47.5065" lon="-0.33964">
        <ele>89</ele>
        <time>2011-09-04T07:46:01Z</time>
      </trkpt>
      <trkpt lat="47.50652" lon="-0.33973">
        <ele>89</ele>
        <time>2011-09-04T07:46:02Z</time>
      </trkpt>
      <trkpt lat="47.50654" lon="-0.33981">
        <ele>89</ele>
        <time>2011-09-04T07:46:03Z</time>
      </trkpt>
      <trkpt lat="47.50656" lon="-0.3399">
        <ele>89</ele>
        <time>2011-09-04T07:46:04Z</time>
      </trkpt>
      <trkpt lat="47.50658" lon="-0.33999">
        <ele>89</ele>
        <time>2011-09-04T07:46:05Z</time>
      </trkpt>
      <trkpt lat="47.50659" lon="-0.34008">
        <ele>89</ele>
        <time>2011-09-04T07:46:06Z</time>
      </trkpt>
      <trkpt lat="47.50662" lon="-0.34016">
        <ele>89</ele>
        <time>2011-09-04T07:46:07Z</time>
      </trkpt>
      <trkpt lat="47.50664" lon="-0.34025">
        <ele>89</ele>
        <time>2011-09-04T07:46:08Z</time>
      </trkpt>
      <trkpt lat="47.50665" lon="-0.34033">
        <ele>89</ele>
        <time>2011-09-04T07:46:09Z</time>
      </trkpt>
      <trkpt lat="47.50667" lon="-0.34042">
        <ele>89</ele>
        <time>2011-09-04T07:46:10Z</time>
      </trkpt>
      <trkpt lat="47.5067" lon="-0.3405">
        <ele>89</ele>
        <time>2011-09-04T07:46:11Z</time>
      </trkpt>
      <trkpt lat="47.50671" lon="-0.34059">
        <ele>89</ele>
        <time>2011-09-04T07:46:12Z</time>
      </trkpt>
      <trkpt lat="47.50673" lon="-0.34068">
        <ele>90</ele>
        <time>2011-09-04T07:46:13Z</time>
      </trkpt>
      <trkpt lat="47.50675" lon="-0.34077">
        <ele>90</ele>
        <time>2011-09-04T07:46:14Z</time>
      </trkpt>
      <trkpt lat="47.50677" lon="-0.34086">
        <ele>90</ele>
        <time>2011-09-04T07:46:15Z</time>
      </trkpt>
      <trkpt lat="47.50679" lon="-0.34096">
        <ele>90</ele>
        <time>2011-09-04T07:46:16Z</time>
      </trkpt>
      <trkpt lat="47.50681" lon="-0.34105">
        <ele>90</ele>
        <time>2011-09-04T07:46:17Z</time>
      </trkpt>
      <trkpt lat="47.50684" lon="-0.34114">
        <ele>90</ele>
        <time>2011-09-04T07:46:18Z</time>
      </trkpt>
      <trkpt lat="47.50686" lon="-0.34124">
        <ele>90</ele>
        <time>2011-09-04T07:46:19Z</time>
      </trkpt>
      <trkpt lat="47.50687" lon="-0.34132">
        <ele>89</ele>
        <time>2011-09-04T07:46:20Z</time>
      </trkpt>
      <trkpt lat="47.50689" lon="-0.34142">
        <ele>89</ele>
        <time>2011-09-04T07:46:21Z</time>
      </trkpt>
      <trkpt lat="47.50692" lon="-0.3415">
        <ele>89</ele>
        <time>2011-09-04T07:46:22Z</time>
      </trkpt>
      <trkpt lat="47.50694" lon="-0.34159">
        <ele>89</ele>
        <time>2011-09-04T07:46:23Z</time>
      </trkpt>
      <trkpt lat="47.50696" lon="-0.34168">
        <ele>89</ele>
        <time>2011-09-04T07:46:24Z</time>
      </trkpt>
      <trkpt lat="47.50698" lon="-0.34176">
        <ele>89</ele>
        <time>2011-09-04T07:46:25Z</time>
      </trkpt>
      <trkpt lat="47.507" lon="-0.34185">
        <ele>89</ele>
        <time>2011-09-04T07:46:26Z</time>
      </trkpt>
      <trkpt lat="47.50702" lon="-0.34193">
        <ele>89</ele>
        <time>2011-09-04T07:46:27Z</time>
      </trkpt>
      <trkpt lat="47.50704" lon="-0.34202">
        <ele>90</ele>
        <time>2011-09-04T07:46:28Z</time>
      </trkpt>
      <trkpt lat="47.50707" lon="-0.3421">
        <ele>90</ele>
        <time>2011-09-04T07:46:29Z</time>
      </trkpt>
      <trkpt lat="47.50709" lon="-0.34218">
        <ele>90</ele>
        <time>2011-09-04T07:46:30Z</time>
      </trkpt>
      <trkpt lat="47.50711" lon="-0.34228">
        <ele>89</ele>
        <time>2011-09-04T07:46:31Z</time>
      </trkpt>
      <trkpt lat="47.50714" lon="-0.34236">
        <ele>89</ele>
        <time>2011-09-04T07:46:32Z</time>
      </trkpt>
      <trkpt lat="47.50716" lon="-0.34245">
        <ele>89</ele>
        <time>2011-09-04T07:46:33Z</time>
      </trkpt>
      <trkpt lat="47.50718" lon="-0.34254">
        <ele>89</ele>
        <time>2011-09-04T07:46:34Z</time>
      </trkpt>
      <trkpt lat="47.5072" lon="-0.34262">
        <ele>90</ele>
        <time>2011-09-04T07:46:35Z</time>
      </trkpt>
      <trkpt lat="47.50723" lon="-0.34271">
        <ele>90</ele>
        <time>2011-09-04T07:46:36Z</time>
      </trkpt>
      <trkpt lat="47.50725" lon="-0.3428">
        <ele>90</ele>
        <time>2011-09-04T07:46:37Z</time>
      </trkpt>
      <trkpt lat="47.50728" lon="-0.34288">
        <ele>90</ele>
        <time>2011-09-04T07:46:38Z</time>
      </trkpt>
      <trkpt lat="47.5073" lon="-0.34297">
        <ele>90</ele>
        <time>2011-09-04T07:46:39Z</time>
      </trkpt>
      <trkpt lat="47.50732" lon="-0.34305">
        <ele>91</ele>
        <time>2011-09-04T07:46:40Z</time>
      </trkpt>
      <trkpt lat="47.50734" lon="-0.34314">
        <ele>91</ele>
        <time>2011-09-04T07:46:41Z</time>
      </trkpt>
      <trkpt lat="47.50737" lon="-0.34324">
        <ele>90</ele>
        <time>2011-09-04T07:46:42Z</time>
      </trkpt>
      <trkpt lat="47.50739" lon="-0.34332">
        <ele>90</ele>
        <time>2011-09-04T07:46:43Z</time>
      </trkpt>
      <trkpt lat="47.50741" lon="-0.34342">
        <ele>90</ele>
        <time>2011-09-04T07:46:44Z</time>
      </trkpt>
      <trkpt lat="47.50744" lon="-0.3435">
        <ele>90</ele>
        <time>2011-09-04T07:46:45Z</time>
      </trkpt>
      <trkpt lat="47.50746" lon="-0.3436">
        <ele>89</ele>
        <time>2011-09-04T07:46:46Z</time>
      </trkpt>
      <trkpt lat="47.50748" lon="-0.34369">
        <ele>89</ele>
        <time>2011-09-04T07:46:47Z</time>
      </trkpt>
      <trkpt lat="47.5075" lon="-0.34377">
        <ele>89</ele>
        <time>2011-09-04T07:46:48Z</time>
      </trkpt>
      <trkpt lat="47.50753" lon="-0.34386">
        <ele>90</ele>
        <time>2011-09-04T07:46:49Z</time>
      </trkpt>
      <trkpt lat="47.50754" lon="-0.34394">
        <ele>90</ele>
        <time>2011-09-04T07:46:50Z</time>
      </trkpt>
      <trkpt lat="47.50756" lon="-0.34403">
        <ele>89</ele>
        <time>2011-09-04T07:46:51Z</time>
      </trkpt>
      <trkpt lat="47.50759" lon="-0.3441">
        <ele>90</ele>
        <time>2011-09-04T07:46:52Z</time>
      </trkpt>
      <trkpt lat="47.5076" lon="-0.34418">
        <ele>90</ele>
        <time>2011-09-04T07:46:53Z</time>
      </trkpt>
      <trkpt lat="47.50762" lon="-0.34426">
        <ele>89</ele>
        <time>2011-09-04T07:46:54Z</time>
      </trkpt>
      <trkpt lat="47.50765" lon="-0.34432">
        <ele>88</ele>
        <time>2011-09-04T07:46:55Z</time>
      </trkpt>
      <trkpt lat="47.50768" lon="-0.34437">
        <ele>88</ele>
        <time>2011-09-04T07:46:56Z</time>
      </trkpt>
      <trkpt lat="47.50772" lon="-0.34441">
        <ele>88</ele>
        <time>2011-09-04T07:46:57Z</time>
      </trkpt>
      <trkpt lat="47.50783" lon="-0.34437">
        <ele>88</ele>
        <time>2011-09-04T07:46:59Z</time>
      </trkpt>
      <trkpt lat="47.50789" lon="-0.34436">
        <ele>88</ele>
        <time>2011-09-04T07:47:00Z</time>
      </trkpt>
      <trkpt lat="47.50794" lon="-0.34434">
        <ele>88</ele>
        <time>2011-09-04T07:47:01Z</time>
      </trkpt>
      <trkpt lat="47.508" lon="-0.34432">
        <ele>88</ele>
        <time>2011-09-04T07:47:02Z</time>
      </trkpt>
      <trkpt lat="47.50805" lon="-0.34432">
        <ele>88</ele>
        <time>2011-09-04T07:47:03Z</time>
      </trkpt>
      <trkpt lat="47.50811" lon="-0.34431">
        <ele>88</ele>
        <time>2011-09-04T07:47:04Z</time>
      </trkpt>
      <trkpt lat="47.50817" lon="-0.34429">
        <ele>88</ele>
        <time>2011-09-04T07:47:05Z</time>
      </trkpt>
      <trkpt lat="47.50822" lon="-0.34429">
        <ele>88</ele>
        <time>2011-09-04T07:47:06Z</time>
      </trkpt>
      <trkpt lat="47.50828" lon="-0.34428">
        <ele>88</ele>
        <time>2011-09-04T07:47:07Z</time>
      </trkpt>
      <trkpt lat="47.50833" lon="-0.34427">
        <ele>88</ele>
        <time>2011-09-04T07:47:08Z</time>
      </trkpt>
      <trkpt lat="47.50838" lon="-0.34426">
        <ele>88</ele>
        <time>2011-09-04T07:47:09Z</time>
      </trkpt>
      <trkpt lat="47.50843" lon="-0.34425">
        <ele>88</ele>
        <time>2011-09-04T07:47:10Z</time>
      </trkpt>
      <trkpt lat="47.50848" lon="-0.34424">
        <ele>88</ele>
        <time>2011-09-04T07:47:11Z</time>
      </trkpt>
      <trkpt lat="47.50852" lon="-0.34421">
        <ele>88</ele>
        <time>2011-09-04T07:47:12Z</time>
      </trkpt>
      <trkpt lat="47.50858" lon="-0.34412">
        <ele>88</ele>
        <time>2011-09-04T07:47:14Z</time>
      </trkpt>
      <trkpt lat="47.50859" lon="-0.344">
        <ele>88</ele>
        <time>2011-09-04T07:47:16Z</time>
      </trkpt>
      <trkpt lat="47.5086" lon="-0.34388">
        <ele>88</ele>
        <time>2011-09-04T07:47:18Z</time>
      </trkpt>
      <trkpt lat="47.50859" lon="-0.34376">
        <ele>89</ele>
        <time>2011-09-04T07:47:20Z</time>
      </trkpt>
      <trkpt lat="47.50859" lon="-0.34364">
        <ele>89</ele>
        <time>2011-09-04T07:47:22Z</time>
      </trkpt>
      <trkpt lat="47.50858" lon="-0.34353">
        <ele>89</ele>
        <time>2011-09-04T07:47:24Z</time>
      </trkpt>
      <trkpt lat="47.50858" lon="-0.34342">
        <ele>89</ele>
        <time>2011-09-04T07:47:26Z</time>
      </trkpt>
      <trkpt lat="47.50858" lon="-0.3433">
        <ele>88</ele>
        <time>2011-09-04T07:47:28Z</time>
      </trkpt>
      <trkpt lat="47.50859" lon="-0.34317">
        <ele>88</ele>
        <time>2011-09-04T07:47:30Z</time>
      </trkpt>
      <trkpt lat="47.50859" lon="-0.34305">
        <ele>88</ele>
        <time>2011-09-04T07:47:32Z</time>
      </trkpt>
      <trkpt lat="47.50859" lon="-0.34292">
        <ele>88</ele>
        <time>2011-09-04T07:47:34Z</time>
      </trkpt>
      <trkpt lat="47.50859" lon="-0.34284">
        <ele>88</ele>
        <time>2011-09-04T07:47:35Z</time>
      </trkpt>
      <trkpt lat="47.50859" lon="-0.34278">
        <ele>88</ele>
        <time>2011-09-04T07:47:36Z</time>
      </trkpt>
      <trkpt lat="47.50859" lon="-0.3427">
        <ele>89</ele>
        <time>2011-09-04T07:47:37Z</time>
      </trkpt>
      <trkpt lat="47.50859" lon="-0.34264">
        <ele>89</ele>
        <time>2011-09-04T07:47:38Z</time>
      </trkpt>
      <trkpt lat="47.50859" lon="-0.34257">
        <ele>89</ele>
        <time>2011-09-04T07:47:39Z</time>
      </trkpt>
      <trkpt lat="47.50859" lon="-0.3425">
        <ele>89</ele>
        <time>2011-09-04T07:47:40Z</time>
      </trkpt>
      <trkpt lat="47.50859" lon="-0.34243">
        <ele>89</ele>
        <time>2011-09-04T07:47:41Z</time>
      </trkpt>
      <trkpt lat="47.50859" lon="-0.34235">
        <ele>89</ele>
        <time>2011-09-04T07:47:42Z</time>
      </trkpt>
      <trkpt lat="47.50859" lon="-0.34228">
        <ele>88</ele>
        <time>2011-09-04T07:47:43Z</time>
      </trkpt>
      <trkpt lat="47.50859" lon="-0.34221">
        <ele>89</ele>
        <time>2011-09-04T07:47:44Z</time>
      </trkpt>
      <trkpt lat="47.50859" lon="-0.34213">
        <ele>89</ele>
        <time>2011-09-04T07:47:45Z</time>
      </trkpt>
      <trkpt lat="47.50859" lon="-0.34205">
        <ele>89</ele>
        <time>2011-09-04T07:47:46Z</time>
      </trkpt>
      <trkpt lat="47.50859" lon="-0.34198">
        <ele>89</ele>
        <time>2011-09-04T07:47:47Z</time>
      </trkpt>
      <trkpt lat="47.50859" lon="-0.3419">
        <ele>89</ele>
        <time>2011-09-04T07:47:48Z</time>
      </trkpt>
      <trkpt lat="47.50859" lon="-0.34183">
        <ele>89</ele>
        <time>2011-09-04T07:47:49Z</time>
      </trkpt>
      <trkpt lat="47.50859" lon="-0.34174">
        <ele>89</ele>
        <time>2011-09-04T07:47:50Z</time>
      </trkpt>
      <trkpt lat="47.50859" lon="-0.34167">
        <ele>89</ele>
        <time>2011-09-04T07:47:51Z</time>
      </trkpt>
      <trkpt lat="47.5086" lon="-0.3416">
        <ele>89</ele>
        <time>2011-09-04T07:47:52Z</time>
      </trkpt>
      <trkpt lat="47.50861" lon="-0.34152">
        <ele>89</ele>
        <time>2011-09-04T07:47:53Z</time>
      </trkpt>
      <trkpt lat="47.50862" lon="-0.34145">
        <ele>89</ele>
        <time>2011-09-04T07:47:54Z</time>
      </trkpt>
      <trkpt lat="47.50864" lon="-0.34138">
        <ele>89</ele>
        <time>2011-09-04T07:47:55Z</time>
      </trkpt>
      <trkpt lat="47.50866" lon="-0.34132">
        <ele>89</ele>
        <time>2011-09-04T07:47:56Z</time>
      </trkpt>
      <trkpt lat="47.5087" lon="-0.34126">
        <ele>88</ele>
        <time>2011-09-04T07:47:57Z</time>
      </trkpt>
      <trkpt lat="47.50872" lon="-0.34119">
        <ele>88</ele>
        <time>2011-09-04T07:47:58Z</time>
      </trkpt>
      <trkpt lat="47.50874" lon="-0.34112">
        <ele>88</ele>
        <time>2011-09-04T07:47:59Z</time>
      </trkpt>
      <trkpt lat="47.50876" lon="-0.34105">
        <ele>89</ele>
        <time>2011-09-04T07:48:00Z</time>
      </trkpt>
      <trkpt lat="47.50876" lon="-0.34098">
        <ele>89</ele>
        <time>2011-09-04T07:48:01Z</time>
      </trkpt>
      <trkpt lat="47.50876" lon="-0.34091">
        <ele>89</ele>
        <time>2011-09-04T07:48:02Z</time>
      </trkpt>
      <trkpt lat="47.50876" lon="-0.34083">
        <ele>89</ele>
        <time>2011-09-04T07:48:03Z</time>
      </trkpt>
      <trkpt lat="47.50875" lon="-0.34076">
        <ele>89</ele>
        <time>2011-09-04T07:48:04Z</time>
      </trkpt>
      <trkpt lat="47.50875" lon="-0.34069">
        <ele>89</ele>
        <time>2011-09-04T07:48:05Z</time>
      </trkpt>
      <trkpt lat="47.50874" lon="-0.34056">
        <ele>90</ele>
        <time>2011-09-04T07:48:07Z</time>
      </trkpt>
      <trkpt lat="47.50873" lon="-0.34044">
        <ele>90</ele>
        <time>2011-09-04T07:48:09Z</time>
      </trkpt>
      <trkpt lat="47.50872" lon="-0.34032">
        <ele>91</ele>
        <time>2011-09-04T07:48:11Z</time>
      </trkpt>
      <trkpt lat="47.50871" lon="-0.3402">
        <ele>91</ele>
        <time>2011-09-04T07:48:13Z</time>
      </trkpt>
      <trkpt lat="47.5087" lon="-0.34007">
        <ele>91</ele>
        <time>2011-09-04T07:48:15Z</time>
      </trkpt>
      <trkpt lat="47.50869" lon="-0.33995">
        <ele>91</ele>
        <time>2011-09-04T07:48:17Z</time>
      </trkpt>
      <trkpt lat="47.50868" lon="-0.33982">
        <ele>92</ele>
        <time>2011-09-04T07:48:19Z</time>
      </trkpt>
      <trkpt lat="47.50868" lon="-0.3397">
        <ele>92</ele>
        <time>2011-09-04T07:48:21Z</time>
      </trkpt>
      <trkpt lat="47.50867" lon="-0.33957">
        <ele>92</ele>
        <time>2011-09-04T07:48:23Z</time>
      </trkpt>
      <trkpt lat="47.50866" lon="-0.33945">
        <ele>92</ele>
        <time>2011-09-04T07:48:25Z</time>
      </trkpt>
      <trkpt lat="47.50865" lon="-0.33932">
        <ele>92</ele>
        <time>2011-09-04T07:48:27Z</time>
      </trkpt>
      <trkpt lat="47.50865" lon="-0.33924">
        <ele>92</ele>
        <time>2011-09-04T07:48:28Z</time>
      </trkpt>
      <trkpt lat="47.50864" lon="-0.33918">
        <ele>92</ele>
        <time>2011-09-04T07:48:29Z</time>
      </trkpt>
      <trkpt lat="47.50864" lon="-0.33904">
        <ele>91</ele>
        <time>2011-09-04T07:48:31Z</time>
      </trkpt>
      <trkpt lat="47.50863" lon="-0.33891">
        <ele>91</ele>
        <time>2011-09-04T07:48:33Z</time>
      </trkpt>
      <trkpt lat="47.50862" lon="-0.3388">
        <ele>91</ele>
        <time>2011-09-04T07:48:35Z</time>
      </trkpt>
      <trkpt lat="47.5086" lon="-0.33866">
        <ele>91</ele>
        <time>2011-09-04T07:48:37Z</time>
      </trkpt>
      <trkpt lat="47.50858" lon="-0.33853">
        <ele>91</ele>
        <time>2011-09-04T07:48:39Z</time>
      </trkpt>
      <trkpt lat="47.50857" lon="-0.33846">
        <ele>91</ele>
        <time>2011-09-04T07:48:40Z</time>
      </trkpt>
      <trkpt lat="47.50856" lon="-0.33839">
        <ele>91</ele>
        <time>2011-09-04T07:48:41Z</time>
      </trkpt>
      <trkpt lat="47.50855" lon="-0.33832">
        <ele>91</ele>
        <time>2011-09-04T07:48:42Z</time>
      </trkpt>
      <trkpt lat="47.50853" lon="-0.33825">
        <ele>91</ele>
        <time>2011-09-04T07:48:43Z</time>
      </trkpt>
      <trkpt lat="47.50851" lon="-0.33818">
        <ele>91</ele>
        <time>2011-09-04T07:48:44Z</time>
      </trkpt>
      <trkpt lat="47.50849" lon="-0.33805">
        <ele>91</ele>
        <time>2011-09-04T07:48:46Z</time>
      </trkpt>
      <trkpt lat="47.50849" lon="-0.33798">
        <ele>91</ele>
        <time>2011-09-04T07:48:47Z</time>
      </trkpt>
      <trkpt lat="47.5085" lon="-0.33788">
        <ele>91</ele>
        <time>2011-09-04T07:48:49Z</time>
      </trkpt>
      <trkpt lat="47.50858" lon="-0.33789">
        <ele>92</ele>
        <time>2011-09-04T07:48:51Z</time>
      </trkpt>
      <trkpt lat="47.50866" lon="-0.33789">
        <ele>92</ele>
        <time>2011-09-04T07:48:53Z</time>
      </trkpt>
      <trkpt lat="47.50874" lon="-0.3379">
        <ele>92</ele>
        <time>2011-09-04T07:48:55Z</time>
      </trkpt>
      <trkpt lat="47.50883" lon="-0.33792">
        <ele>93</ele>
        <time>2011-09-04T07:48:57Z</time>
      </trkpt>
      <trkpt lat="47.50891" lon="-0.33793">
        <ele>93</ele>
        <time>2011-09-04T07:48:59Z</time>
      </trkpt>
      <trkpt lat="47.50899" lon="-0.33794">
        <ele>93</ele>
        <time>2011-09-04T07:49:01Z</time>
      </trkpt>
      <trkpt lat="47.50906" lon="-0.33794">
        <ele>94</ele>
        <time>2011-09-04T07:49:03Z</time>
      </trkpt>
      <trkpt lat="47.50913" lon="-0.33795">
        <ele>94</ele>
        <time>2011-09-04T07:49:05Z</time>
      </trkpt>
      <trkpt lat="47.5092" lon="-0.33795">
        <ele>95</ele>
        <time>2011-09-04T07:49:07Z</time>
      </trkpt>
      <trkpt lat="47.50927" lon="-0.33795">
        <ele>95</ele>
        <time>2011-09-04T07:49:09Z</time>
      </trkpt>
      <trkpt lat="47.50935" lon="-0.33794">
        <ele>95</ele>
        <time>2011-09-04T07:49:11Z</time>
      </trkpt>
      <trkpt lat="47.50942" lon="-0.33794">
        <ele>95</ele>
        <time>2011-09-04T07:49:13Z</time>
      </trkpt>
      <trkpt lat="47.50948" lon="-0.33793">
        <ele>95</ele>
        <time>2011-09-04T07:49:15Z</time>
      </trkpt>
      <trkpt lat="47.50954" lon="-0.33793">
        <ele>96</ele>
        <time>2011-09-04T07:49:17Z</time>
      </trkpt>
      <trkpt lat="47.50961" lon="-0.33792">
        <ele>96</ele>
        <time>2011-09-04T07:49:19Z</time>
      </trkpt>
      <trkpt lat="47.50967" lon="-0.33792">
        <ele>96</ele>
        <time>2011-09-04T07:49:21Z</time>
      </trkpt>
      <trkpt lat="47.50974" lon="-0.33792">
        <ele>96</ele>
        <time>2011-09-04T07:49:23Z</time>
      </trkpt>
      <trkpt lat="47.50981" lon="-0.33793">
        <ele>95</ele>
        <time>2011-09-04T07:49:25Z</time>
      </trkpt>
      <trkpt lat="47.50987" lon="-0.33795">
        <ele>95</ele>
        <time>2011-09-04T07:49:27Z</time>
      </trkpt>
      <trkpt lat="47.50994" lon="-0.33798">
        <ele>96</ele>
        <time>2011-09-04T07:49:29Z</time>
      </trkpt>
      <trkpt lat="47.50998" lon="-0.33802">
        <ele>96</ele>
        <time>2011-09-04T07:49:31Z</time>
      </trkpt>
      <trkpt lat="47.51003" lon="-0.33806">
        <ele>97</ele>
        <time>2011-09-04T07:49:33Z</time>
      </trkpt>
      <trkpt lat="47.51008" lon="-0.3381">
        <ele>97</ele>
        <time>2011-09-04T07:49:35Z</time>
      </trkpt>
      <trkpt lat="47.51012" lon="-0.33814">
        <ele>97</ele>
        <time>2011-09-04T07:49:37Z</time>
      </trkpt>
      <trkpt lat="47.51017" lon="-0.33817">
        <ele>97</ele>
        <time>2011-09-04T07:49:39Z</time>
      </trkpt>
      <trkpt lat="47.51022" lon="-0.3382">
        <ele>98</ele>
        <time>2011-09-04T07:49:41Z</time>
      </trkpt>
      <trkpt lat="47.51026" lon="-0.33822">
        <ele>98</ele>
        <time>2011-09-04T07:49:43Z</time>
      </trkpt>
      <trkpt lat="47.51031" lon="-0.33825">
        <ele>98</ele>
        <time>2011-09-04T07:49:46Z</time>
      </trkpt>
      <trkpt lat="47.51035" lon="-0.33826">
        <ele>98</ele>
        <time>2011-09-04T07:49:50Z</time>
      </trkpt>
      <trkpt lat="47.51041" lon="-0.33828">
        <ele>96</ele>
        <time>2011-09-04T07:49:52Z</time>
      </trkpt>
      <trkpt lat="47.51046" lon="-0.3383">
        <ele>95</ele>
        <time>2011-09-04T07:49:55Z</time>
      </trkpt>
      <trkpt lat="47.5105" lon="-0.33832">
        <ele>98</ele>
        <time>2011-09-04T07:50:05Z</time>
      </trkpt>
      <trkpt lat="47.51055" lon="-0.3383">
        <ele>100</ele>
        <time>2011-09-04T07:50:11Z</time>
      </trkpt>
      <trkpt lat="47.5106" lon="-0.3383">
        <ele>102</ele>
        <time>2011-09-04T07:50:15Z</time>
      </trkpt>
      <trkpt lat="47.51063" lon="-0.33837">
        <ele>106</ele>
        <time>2011-09-04T07:50:19Z</time>
      </trkpt>
      <trkpt lat="47.51069" lon="-0.3384">
        <ele>109</ele>
        <time>2011-09-04T07:50:24Z</time>
      </trkpt>
      <trkpt lat="47.51074" lon="-0.33841">
        <ele>111</ele>
        <time>2011-09-04T07:50:30Z</time>
      </trkpt>
      <trkpt lat="47.51078" lon="-0.33844">
        <ele>112</ele>
        <time>2011-09-04T07:50:32Z</time>
      </trkpt>
      <trkpt lat="47.51083" lon="-0.33847">
        <ele>113</ele>
        <time>2011-09-04T07:50:36Z</time>
      </trkpt>
      <trkpt lat="47.51087" lon="-0.33849">
        <ele>114</ele>
        <time>2011-09-04T07:50:39Z</time>
      </trkpt>
      <trkpt lat="47.51093" lon="-0.33853">
        <ele>113</ele>
        <time>2011-09-04T07:50:42Z</time>
      </trkpt>
      <trkpt lat="47.51098" lon="-0.33851">
        <ele>113</ele>
        <time>2011-09-04T07:50:45Z</time>
      </trkpt>
      <trkpt lat="47.51102" lon="-0.33849">
        <ele>113</ele>
        <time>2011-09-04T07:50:49Z</time>
      </trkpt>
      <trkpt lat="47.51107" lon="-0.33853">
        <ele>114</ele>
        <time>2011-09-04T07:50:55Z</time>
      </trkpt>
      <trkpt lat="47.51112" lon="-0.33855">
        <ele>114</ele>
        <time>2011-09-04T07:50:59Z</time>
      </trkpt>
      <trkpt lat="47.51116" lon="-0.33861">
        <ele>115</ele>
        <time>2011-09-04T07:51:06Z</time>
      </trkpt>
      <trkpt lat="47.51121" lon="-0.33863">
        <ele>115</ele>
        <time>2011-09-04T07:51:09Z</time>
      </trkpt>
      <trkpt lat="47.51126" lon="-0.33863">
        <ele>116</ele>
        <time>2011-09-04T07:51:12Z</time>
      </trkpt>
      <trkpt lat="47.51132" lon="-0.33864">
        <ele>116</ele>
        <time>2011-09-04T07:51:15Z</time>
      </trkpt>
      <trkpt lat="47.51138" lon="-0.33866">
        <ele>116</ele>
        <time>2011-09-04T07:51:18Z</time>
      </trkpt>
      <trkpt lat="47.51144" lon="-0.33868">
        <ele>117</ele>
        <time>2011-09-04T07:51:20Z</time>
      </trkpt>
      <trkpt lat="47.51151" lon="-0.3387">
        <ele>119</ele>
        <time>2011-09-04T07:51:23Z</time>
      </trkpt>
      <trkpt lat="47.51156" lon="-0.3387">
        <ele>120</ele>
        <time>2011-09-04T07:51:24Z</time>
      </trkpt>
      <trkpt lat="47.51164" lon="-0.3387">
        <ele>121</ele>
        <time>2011-09-04T07:51:26Z</time>
      </trkpt>
      <trkpt lat="47.5117" lon="-0.33869">
        <ele>121</ele>
        <time>2011-09-04T07:51:28Z</time>
      </trkpt>
      <trkpt lat="47.51177" lon="-0.33871">
        <ele>121</ele>
        <time>2011-09-04T07:51:30Z</time>
      </trkpt>
      <trkpt lat="47.51183" lon="-0.33874">
        <ele>122</ele>
        <time>2011-09-04T07:51:32Z</time>
      </trkpt>
      <trkpt lat="47.51188" lon="-0.33874">
        <ele>121</ele>
        <time>2011-09-04T07:51:33Z</time>
      </trkpt>
      <trkpt lat="47.51193" lon="-0.33874">
        <ele>119</ele>
        <time>2011-09-04T07:51:34Z</time>
      </trkpt>
      <trkpt lat="47.51201" lon="-0.33878">
        <ele>116</ele>
        <time>2011-09-04T07:51:36Z</time>
      </trkpt>
      <trkpt lat="47.51206" lon="-0.33881">
        <ele>116</ele>
        <time>2011-09-04T07:51:37Z</time>
      </trkpt>
      <trkpt lat="47.5121" lon="-0.33883">
        <ele>115</ele>
        <time>2011-09-04T07:51:38Z</time>
      </trkpt>
      <trkpt lat="47.51215" lon="-0.33885">
        <ele>116</ele>
        <time>2011-09-04T07:51:39Z</time>
      </trkpt>
      <trkpt lat="47.5122" lon="-0.33888">
        <ele>117</ele>
        <time>2011-09-04T07:51:40Z</time>
      </trkpt>
      <trkpt lat="47.51224" lon="-0.3389">
        <ele>117</ele>
        <time>2011-09-04T07:51:41Z</time>
      </trkpt>
      <trkpt lat="47.51231" lon="-0.33893">
        <ele>119</ele>
        <time>2011-09-04T07:51:43Z</time>
      </trkpt>
      <trkpt lat="47.51238" lon="-0.33897">
        <ele>119</ele>
        <time>2011-09-04T07:51:45Z</time>
      </trkpt>
      <trkpt lat="47.51242" lon="-0.339">
        <ele>118</ele>
        <time>2011-09-04T07:51:46Z</time>
      </trkpt>
      <trkpt lat="47.5125" lon="-0.33903">
        <ele>118</ele>
        <time>2011-09-04T07:51:48Z</time>
      </trkpt>
      <trkpt lat="47.51258" lon="-0.33905">
        <ele>118</ele>
        <time>2011-09-04T07:51:50Z</time>
      </trkpt>
      <trkpt lat="47.51262" lon="-0.33907">
        <ele>117</ele>
        <time>2011-09-04T07:51:51Z</time>
      </trkpt>
      <trkpt lat="47.51272" lon="-0.33911">
        <ele>117</ele>
        <time>2011-09-04T07:51:53Z</time>
      </trkpt>
      <trkpt lat="47.51276" lon="-0.33913">
        <ele>117</ele>
        <time>2011-09-04T07:51:54Z</time>
      </trkpt>
      <trkpt lat="47.51281" lon="-0.33916">
        <ele>117</ele>
        <time>2011-09-04T07:51:55Z</time>
      </trkpt>
      <trkpt lat="47.51285" lon="-0.3392">
        <ele>116</ele>
        <time>2011-09-04T07:51:56Z</time>
      </trkpt>
      <trkpt lat="47.51289" lon="-0.33924">
        <ele>116</ele>
        <time>2011-09-04T07:51:57Z</time>
      </trkpt>
      <trkpt lat="47.51296" lon="-0.33929">
        <ele>116</ele>
        <time>2011-09-04T07:51:59Z</time>
      </trkpt>
      <trkpt lat="47.51303" lon="-0.33934">
        <ele>117</ele>
        <time>2011-09-04T07:52:01Z</time>
      </trkpt>
      <trkpt lat="47.51309" lon="-0.33934">
        <ele>116</ele>
        <time>2011-09-04T07:52:02Z</time>
      </trkpt>
      <trkpt lat="47.51316" lon="-0.33936">
        <ele>116</ele>
        <time>2011-09-04T07:52:04Z</time>
      </trkpt>
      <trkpt lat="47.51324" lon="-0.33936">
        <ele>115</ele>
        <time>2011-09-04T07:52:06Z</time>
      </trkpt>
      <trkpt lat="47.51329" lon="-0.33939">
        <ele>116</ele>
        <time>2011-09-04T07:52:08Z</time>
      </trkpt>
      <trkpt lat="47.51336" lon="-0.33937">
        <ele>116</ele>
        <time>2011-09-04T07:52:10Z</time>
      </trkpt>
      <trkpt lat="47.51341" lon="-0.3394">
        <ele>116</ele>
        <time>2011-09-04T07:52:11Z</time>
      </trkpt>
      <trkpt lat="47.51349" lon="-0.33942">
        <ele>116</ele>
        <time>2011-09-04T07:52:13Z</time>
      </trkpt>
      <trkpt lat="47.51354" lon="-0.33943">
        <ele>116</ele>
        <time>2011-09-04T07:52:14Z</time>
      </trkpt>
      <trkpt lat="47.51359" lon="-0.33946">
        <ele>116</ele>
        <time>2011-09-04T07:52:15Z</time>
      </trkpt>
      <trkpt lat="47.51364" lon="-0.33949">
        <ele>115</ele>
        <time>2011-09-04T07:52:16Z</time>
      </trkpt>
      <trkpt lat="47.51369" lon="-0.33949">
        <ele>115</ele>
        <time>2011-09-04T07:52:17Z</time>
      </trkpt>
      <trkpt lat="47.51378" lon="-0.33951">
        <ele>115</ele>
        <time>2011-09-04T07:52:19Z</time>
      </trkpt>
      <trkpt lat="47.51384" lon="-0.33953">
        <ele>115</ele>
        <time>2011-09-04T07:52:21Z</time>
      </trkpt>
      <trkpt lat="47.51392" lon="-0.3396">
        <ele>116</ele>
        <time>2011-09-04T07:52:23Z</time>
      </trkpt>
      <trkpt lat="47.51397" lon="-0.33965">
        <ele>116</ele>
        <time>2011-09-04T07:52:24Z</time>
      </trkpt>
      <trkpt lat="47.51401" lon="-0.33968">
        <ele>117</ele>
        <time>2011-09-04T07:52:25Z</time>
      </trkpt>
      <trkpt lat="47.51406" lon="-0.33971">
        <ele>117</ele>
        <time>2011-09-04T07:52:26Z</time>
      </trkpt>
      <trkpt lat="47.5141" lon="-0.33974">
        <ele>117</ele>
        <time>2011-09-04T07:52:27Z</time>
      </trkpt>
      <trkpt lat="47.51415" lon="-0.33977">
        <ele>117</ele>
        <time>2011-09-04T07:52:28Z</time>
      </trkpt>
      <trkpt lat="47.5142" lon="-0.33979">
        <ele>117</ele>
        <time>2011-09-04T07:52:29Z</time>
      </trkpt>
      <trkpt lat="47.51423" lon="-0.33983">
        <ele>118</ele>
        <time>2011-09-04T07:52:30Z</time>
      </trkpt>
      <trkpt lat="47.51428" lon="-0.33986">
        <ele>117</ele>
        <time>2011-09-04T07:52:31Z</time>
      </trkpt>
      <trkpt lat="47.51433" lon="-0.33989">
        <ele>117</ele>
        <time>2011-09-04T07:52:32Z</time>
      </trkpt>
      <trkpt lat="47.51437" lon="-0.33993">
        <ele>116</ele>
        <time>2011-09-04T07:52:33Z</time>
      </trkpt>
      <trkpt lat="47.51446" lon="-0.33998">
        <ele>116</ele>
        <time>2011-09-04T07:52:35Z</time>
      </trkpt>
      <trkpt lat="47.51451" lon="-0.34">
        <ele>115</ele>
        <time>2011-09-04T07:52:36Z</time>
      </trkpt>
      <trkpt lat="47.51456" lon="-0.34005">
        <ele>114</ele>
        <time>2011-09-04T07:52:38Z</time>
      </trkpt>
      <trkpt lat="47.51461" lon="-0.34008">
        <ele>114</ele>
        <time>2011-09-04T07:52:40Z</time>
      </trkpt>
      <trkpt lat="47.51466" lon="-0.3401">
        <ele>115</ele>
        <time>2011-09-04T07:52:42Z</time>
      </trkpt>
      <trkpt lat="47.51465" lon="-0.34003">
        <ele>116</ele>
        <time>2011-09-04T07:52:58Z</time>
      </trkpt>
      <trkpt lat="47.51467" lon="-0.33998">
        <ele>117</ele>
        <time>2011-09-04T07:53:01Z</time>
      </trkpt>
      <trkpt lat="47.51469" lon="-0.3399">
        <ele>119</ele>
        <time>2011-09-04T07:53:05Z</time>
      </trkpt>
      <trkpt lat="47.51471" lon="-0.33985">
        <ele>120</ele>
        <time>2011-09-04T07:53:07Z</time>
      </trkpt>
      <trkpt lat="47.51473" lon="-0.33977">
        <ele>120</ele>
        <time>2011-09-04T07:53:09Z</time>
      </trkpt>
      <trkpt lat="47.51477" lon="-0.33967">
        <ele>120</ele>
        <time>2011-09-04T07:53:11Z</time>
      </trkpt>
      <trkpt lat="47.51482" lon="-0.33959">
        <ele>120</ele>
        <time>2011-09-04T07:53:13Z</time>
      </trkpt>
      <trkpt lat="47.51485" lon="-0.33949">
        <ele>120</ele>
        <time>2011-09-04T07:53:15Z</time>
      </trkpt>
      <trkpt lat="47.51486" lon="-0.33941">
        <ele>119</ele>
        <time>2011-09-04T07:53:16Z</time>
      </trkpt>
      <trkpt lat="47.51488" lon="-0.33934">
        <ele>119</ele>
        <time>2011-09-04T07:53:17Z</time>
      </trkpt>
      <trkpt lat="47.51492" lon="-0.33922">
        <ele>119</ele>
        <time>2011-09-04T07:53:19Z</time>
      </trkpt>
      <trkpt lat="47.51494" lon="-0.33915">
        <ele>119</ele>
        <time>2011-09-04T07:53:20Z</time>
      </trkpt>
      <trkpt lat="47.51496" lon="-0.33906">
        <ele>118</ele>
        <time>2011-09-04T07:53:21Z</time>
      </trkpt>
      <trkpt lat="47.51497" lon="-0.33899">
        <ele>117</ele>
        <time>2011-09-04T07:53:22Z</time>
      </trkpt>
      <trkpt lat="47.515" lon="-0.33888">
        <ele>117</ele>
        <time>2011-09-04T07:53:24Z</time>
      </trkpt>
      <trkpt lat="47.51503" lon="-0.33877">
        <ele>116</ele>
        <time>2011-09-04T07:53:26Z</time>
      </trkpt>
      <trkpt lat="47.51505" lon="-0.3387">
        <ele>115</ele>
        <time>2011-09-04T07:53:28Z</time>
      </trkpt>
      <trkpt lat="47.51505" lon="-0.33863">
        <ele>115</ele>
        <time>2011-09-04T07:53:30Z</time>
      </trkpt>
      <trkpt lat="47.51507" lon="-0.33856">
        <ele>115</ele>
        <time>2011-09-04T07:53:33Z</time>
      </trkpt>
      <trkpt lat="47.51507" lon="-0.33856">
        <ele>115</ele>
        <time>2011-09-04T07:53:33Z</time>
      </trkpt>
      <trkpt lat="47.51507" lon="-0.33856">
        <ele>113</ele>
        <time>2011-09-04T07:53:40Z</time>
      </trkpt>
      <trkpt lat="47.51503" lon="-0.33865">
        <ele>116</ele>
        <time>2011-09-04T07:54:52Z</time>
      </trkpt>
      <trkpt lat="47.515" lon="-0.33871">
        <ele>116</ele>
        <time>2011-09-04T07:54:54Z</time>
      </trkpt>
      <trkpt lat="47.515" lon="-0.33878">
        <ele>115</ele>
        <time>2011-09-04T07:54:58Z</time>
      </trkpt>
      <trkpt lat="47.51504" lon="-0.33871">
        <ele>111</ele>
        <time>2011-09-04T07:55:10Z</time>
      </trkpt>
      <trkpt lat="47.51506" lon="-0.33862">
        <ele>111</ele>
        <time>2011-09-04T07:55:12Z</time>
      </trkpt>
      <trkpt lat="47.51508" lon="-0.33855">
        <ele>111</ele>
        <time>2011-09-04T07:55:14Z</time>
      </trkpt>
      <trkpt lat="47.5151" lon="-0.33846">
        <ele>110</ele>
        <time>2011-09-04T07:55:16Z</time>
      </trkpt>
      <trkpt lat="47.51513" lon="-0.33837">
        <ele>109</ele>
        <time>2011-09-04T07:55:18Z</time>
      </trkpt>
      <trkpt lat="47.51516" lon="-0.33827">
        <ele>111</ele>
        <time>2011-09-04T07:55:20Z</time>
      </trkpt>
      <trkpt lat="47.51519" lon="-0.33818">
        <ele>112</ele>
        <time>2011-09-04T07:55:22Z</time>
      </trkpt>
      <trkpt lat="47.51522" lon="-0.33807">
        <ele>113</ele>
        <time>2011-09-04T07:55:24Z</time>
      </trkpt>
      <trkpt lat="47.51524" lon="-0.33798">
        <ele>113</ele>
        <time>2011-09-04T07:55:26Z</time>
      </trkpt>
      <trkpt lat="47.51527" lon="-0.33792">
        <ele>114</ele>
        <time>2011-09-04T07:55:27Z</time>
      </trkpt>
      <trkpt lat="47.5153" lon="-0.33782">
        <ele>115</ele>
        <time>2011-09-04T07:55:29Z</time>
      </trkpt>
      <trkpt lat="47.51532" lon="-0.33773">
        <ele>115</ele>
        <time>2011-09-04T07:55:31Z</time>
      </trkpt>
      <trkpt lat="47.51532" lon="-0.33765">
        <ele>116</ele>
        <time>2011-09-04T07:55:33Z</time>
      </trkpt>
      <trkpt lat="47.5153" lon="-0.33759">
        <ele>115</ele>
        <time>2011-09-04T07:55:43Z</time>
      </trkpt>
      <trkpt lat="47.5153" lon="-0.33759">
        <ele>115</ele>
        <time>2011-09-04T07:55:43Z</time>
      </trkpt>
      <trkpt lat="47.5153" lon="-0.33759">
        <ele>115</ele>
        <time>2011-09-04T07:55:44Z</time>
      </trkpt>
      <trkpt lat="47.51532" lon="-0.33749">
        <ele>114</ele>
        <time>2011-09-04T07:55:53Z</time>
      </trkpt>
      <trkpt lat="47.51534" lon="-0.33742">
        <ele>113</ele>
        <time>2011-09-04T07:55:55Z</time>
      </trkpt>
      <trkpt lat="47.51536" lon="-0.33734">
        <ele>113</ele>
        <time>2011-09-04T07:55:57Z</time>
      </trkpt>
      <trkpt lat="47.5154" lon="-0.33728">
        <ele>112</ele>
        <time>2011-09-04T07:55:59Z</time>
      </trkpt>
      <trkpt lat="47.51546" lon="-0.33724">
        <ele>112</ele>
        <time>2011-09-04T07:56:01Z</time>
      </trkpt>
      <trkpt lat="47.51552" lon="-0.33719">
        <ele>113</ele>
        <time>2011-09-04T07:56:03Z</time>
      </trkpt>
      <trkpt lat="47.51557" lon="-0.33712">
        <ele>113</ele>
        <time>2011-09-04T07:56:05Z</time>
      </trkpt>
      <trkpt lat="47.51562" lon="-0.337">
        <ele>112</ele>
        <time>2011-09-04T07:56:07Z</time>
      </trkpt>
      <trkpt lat="47.51565" lon="-0.33694">
        <ele>111</ele>
        <time>2011-09-04T07:56:08Z</time>
      </trkpt>
      <trkpt lat="47.51567" lon="-0.33685">
        <ele>111</ele>
        <time>2011-09-04T07:56:10Z</time>
      </trkpt>
      <trkpt lat="47.51566" lon="-0.33678">
        <ele>111</ele>
        <time>2011-09-04T07:56:12Z</time>
      </trkpt>
      <trkpt lat="47.51565" lon="-0.33671">
        <ele>111</ele>
        <time>2011-09-04T07:56:14Z</time>
      </trkpt>
      <trkpt lat="47.51563" lon="-0.33664">
        <ele>112</ele>
        <time>2011-09-04T07:56:16Z</time>
      </trkpt>
      <trkpt lat="47.51561" lon="-0.33657">
        <ele>113</ele>
        <time>2011-09-04T07:56:19Z</time>
      </trkpt>
      <trkpt lat="47.5156" lon="-0.33649">
        <ele>114</ele>
        <time>2011-09-04T07:56:22Z</time>
      </trkpt>
      <trkpt lat="47.51558" lon="-0.3364">
        <ele>115</ele>
        <time>2011-09-04T07:56:25Z</time>
      </trkpt>
      <trkpt lat="47.51554" lon="-0.33635">
        <ele>116</ele>
        <time>2011-09-04T07:56:28Z</time>
      </trkpt>
      <trkpt lat="47.51554" lon="-0.33627">
        <ele>116</ele>
        <time>2011-09-04T07:58:01Z</time>
      </trkpt>
      <trkpt lat="47.51557" lon="-0.3362">
        <ele>115</ele>
        <time>2011-09-04T07:58:04Z</time>
      </trkpt>
      <trkpt lat="47.51558" lon="-0.33613">
        <ele>117</ele>
        <time>2011-09-04T07:58:06Z</time>
      </trkpt>
      <trkpt lat="47.51563" lon="-0.33609">
        <ele>119</ele>
        <time>2011-09-04T07:58:09Z</time>
      </trkpt>
      <trkpt lat="47.51569" lon="-0.33604">
        <ele>118</ele>
        <time>2011-09-04T07:58:11Z</time>
      </trkpt>
      <trkpt lat="47.51574" lon="-0.33599">
        <ele>119</ele>
        <time>2011-09-04T07:58:13Z</time>
      </trkpt>
      <trkpt lat="47.5158" lon="-0.33598">
        <ele>120</ele>
        <time>2011-09-04T07:58:15Z</time>
      </trkpt>
      <trkpt lat="47.51585" lon="-0.33596">
        <ele>119</ele>
        <time>2011-09-04T07:58:18Z</time>
      </trkpt>
      <trkpt lat="47.51588" lon="-0.33591">
        <ele>120</ele>
        <time>2011-09-04T07:58:20Z</time>
      </trkpt>
      <trkpt lat="47.51593" lon="-0.33586">
        <ele>118</ele>
        <time>2011-09-04T07:58:22Z</time>
      </trkpt>
      <trkpt lat="47.51599" lon="-0.3358">
        <ele>117</ele>
        <time>2011-09-04T07:58:25Z</time>
      </trkpt>
      <trkpt lat="47.51601" lon="-0.33574">
        <ele>115</ele>
        <time>2011-09-04T07:58:27Z</time>
      </trkpt>
      <trkpt lat="47.51607" lon="-0.33567">
        <ele>114</ele>
        <time>2011-09-04T07:58:30Z</time>
      </trkpt>
      <trkpt lat="47.51611" lon="-0.33562">
        <ele>114</ele>
        <time>2011-09-04T07:58:33Z</time>
      </trkpt>
      <trkpt lat="47.51615" lon="-0.33558">
        <ele>113</ele>
        <time>2011-09-04T07:58:37Z</time>
      </trkpt>
      <trkpt lat="47.5162" lon="-0.33556">
        <ele>108</ele>
        <time>2011-09-04T07:58:51Z</time>
      </trkpt>
      <trkpt lat="47.51623" lon="-0.33551">
        <ele>105</ele>
        <time>2011-09-04T07:58:53Z</time>
      </trkpt>
      <trkpt lat="47.51623" lon="-0.33544">
        <ele>104</ele>
        <time>2011-09-04T07:59:03Z</time>
      </trkpt>
      <trkpt lat="47.51619" lon="-0.3355">
        <ele>107</ele>
        <time>2011-09-04T07:59:06Z</time>
      </trkpt>
      <trkpt lat="47.51615" lon="-0.33553">
        <ele>107</ele>
        <time>2011-09-04T07:59:08Z</time>
      </trkpt>
      <trkpt lat="47.5161" lon="-0.33558">
        <ele>108</ele>
        <time>2011-09-04T07:59:11Z</time>
      </trkpt>
      <trkpt lat="47.51606" lon="-0.33564">
        <ele>109</ele>
        <time>2011-09-04T07:59:14Z</time>
      </trkpt>
      <trkpt lat="47.51602" lon="-0.33567">
        <ele>110</ele>
        <time>2011-09-04T07:59:16Z</time>
      </trkpt>
      <trkpt lat="47.51596" lon="-0.33569">
        <ele>111</ele>
        <time>2011-09-04T07:59:20Z</time>
      </trkpt>
      <trkpt lat="47.51592" lon="-0.33569">
        <ele>111</ele>
        <time>2011-09-04T07:59:22Z</time>
      </trkpt>
      <trkpt lat="47.51586" lon="-0.33572">
        <ele>112</ele>
        <time>2011-09-04T07:59:25Z</time>
      </trkpt>
      <trkpt lat="47.51581" lon="-0.33574">
        <ele>113</ele>
        <time>2011-09-04T07:59:27Z</time>
      </trkpt>
      <trkpt lat="47.51576" lon="-0.33578">
        <ele>113</ele>
        <time>2011-09-04T07:59:29Z</time>
      </trkpt>
      <trkpt lat="47.51571" lon="-0.3358">
        <ele>114</ele>
        <time>2011-09-04T07:59:31Z</time>
      </trkpt>
      <trkpt lat="47.51564" lon="-0.33584">
        <ele>115</ele>
        <time>2011-09-04T07:59:33Z</time>
      </trkpt>
      <trkpt lat="47.51559" lon="-0.33586">
        <ele>115</ele>
        <time>2011-09-04T07:59:35Z</time>
      </trkpt>
      <trkpt lat="47.51554" lon="-0.33589">
        <ele>116</ele>
        <time>2011-09-04T07:59:37Z</time>
      </trkpt>
      <trkpt lat="47.51555" lon="-0.33596">
        <ele>118</ele>
        <time>2011-09-04T07:59:40Z</time>
      </trkpt>
      <trkpt lat="47.51554" lon="-0.33603">
        <ele>120</ele>
        <time>2011-09-04T07:59:42Z</time>
      </trkpt>
      <trkpt lat="47.51553" lon="-0.33612">
        <ele>120</ele>
        <time>2011-09-04T07:59:46Z</time>
      </trkpt>
      <trkpt lat="47.51554" lon="-0.3362">
        <ele>120</ele>
        <time>2011-09-04T07:59:49Z</time>
      </trkpt>
      <trkpt lat="47.51555" lon="-0.33631">
        <ele>121</ele>
        <time>2011-09-04T07:59:52Z</time>
      </trkpt>
      <trkpt lat="47.51558" lon="-0.33638">
        <ele>122</ele>
        <time>2011-09-04T07:59:54Z</time>
      </trkpt>
      <trkpt lat="47.5156" lon="-0.33644">
        <ele>122</ele>
        <time>2011-09-04T07:59:56Z</time>
      </trkpt>
      <trkpt lat="47.51561" lon="-0.33655">
        <ele>121</ele>
        <time>2011-09-04T07:59:59Z</time>
      </trkpt>
      <trkpt lat="47.51561" lon="-0.33663">
        <ele>122</ele>
        <time>2011-09-04T08:00:01Z</time>
      </trkpt>
      <trkpt lat="47.51558" lon="-0.3367">
        <ele>123</ele>
        <time>2011-09-04T08:00:03Z</time>
      </trkpt>
      <trkpt lat="47.51554" lon="-0.33678">
        <ele>123</ele>
        <time>2011-09-04T08:00:06Z</time>
      </trkpt>
      <trkpt lat="47.51552" lon="-0.33684">
        <ele>123</ele>
        <time>2011-09-04T08:00:09Z</time>
      </trkpt>
      <trkpt lat="47.5155" lon="-0.33691">
        <ele>123</ele>
        <time>2011-09-04T08:00:11Z</time>
      </trkpt>
      <trkpt lat="47.51548" lon="-0.33697">
        <ele>124</ele>
        <time>2011-09-04T08:00:14Z</time>
      </trkpt>
      <trkpt lat="47.51545" lon="-0.33702">
        <ele>124</ele>
        <time>2011-09-04T08:00:16Z</time>
      </trkpt>
      <trkpt lat="47.51541" lon="-0.33707">
        <ele>124</ele>
        <time>2011-09-04T08:00:18Z</time>
      </trkpt>
      <trkpt lat="47.51537" lon="-0.33711">
        <ele>126</ele>
        <time>2011-09-04T08:00:20Z</time>
      </trkpt>
      <trkpt lat="47.51534" lon="-0.33716">
        <ele>126</ele>
        <time>2011-09-04T08:00:22Z</time>
      </trkpt>
      <trkpt lat="47.5153" lon="-0.33721">
        <ele>125</ele>
        <time>2011-09-04T08:00:24Z</time>
      </trkpt>
      <trkpt lat="47.51528" lon="-0.33727">
        <ele>126</ele>
        <time>2011-09-04T08:00:26Z</time>
      </trkpt>
      <trkpt lat="47.51524" lon="-0.33732">
        <ele>126</ele>
        <time>2011-09-04T08:00:30Z</time>
      </trkpt>
      <trkpt lat="47.51518" lon="-0.33732">
        <ele>125</ele>
        <time>2011-09-04T08:00:33Z</time>
      </trkpt>
      <trkpt lat="47.51512" lon="-0.33731">
        <ele>123</ele>
        <time>2011-09-04T08:00:35Z</time>
      </trkpt>
      <trkpt lat="47.51505" lon="-0.33734">
        <ele>122</ele>
        <time>2011-09-04T08:00:37Z</time>
      </trkpt>
      <trkpt lat="47.51498" lon="-0.33732">
        <ele>119</ele>
        <time>2011-09-04T08:00:40Z</time>
      </trkpt>
      <trkpt lat="47.51492" lon="-0.33731">
        <ele>118</ele>
        <time>2011-09-04T08:00:42Z</time>
      </trkpt>
      <trkpt lat="47.51486" lon="-0.33731">
        <ele>117</ele>
        <time>2011-09-04T08:00:44Z</time>
      </trkpt>
      <trkpt lat="47.5148" lon="-0.33728">
        <ele>116</ele>
        <time>2011-09-04T08:00:47Z</time>
      </trkpt>
      <trkpt lat="47.51473" lon="-0.33726">
        <ele>117</ele>
        <time>2011-09-04T08:00:50Z</time>
      </trkpt>
      <trkpt lat="47.51468" lon="-0.33724">
        <ele>117</ele>
        <time>2011-09-04T08:00:52Z</time>
      </trkpt>
      <trkpt lat="47.51461" lon="-0.33722">
        <ele>117</ele>
        <time>2011-09-04T08:00:54Z</time>
      </trkpt>
      <trkpt lat="47.51456" lon="-0.3372">
        <ele>117</ele>
        <time>2011-09-04T08:00:56Z</time>
      </trkpt>
      <trkpt lat="47.51451" lon="-0.33719">
        <ele>117</ele>
        <time>2011-09-04T08:00:58Z</time>
      </trkpt>
      <trkpt lat="47.51446" lon="-0.33717">
        <ele>117</ele>
        <time>2011-09-04T08:01:00Z</time>
      </trkpt>
      <trkpt lat="47.51439" lon="-0.33714">
        <ele>117</ele>
        <time>2011-09-04T08:01:02Z</time>
      </trkpt>
      <trkpt lat="47.51434" lon="-0.33713">
        <ele>117</ele>
        <time>2011-09-04T08:01:04Z</time>
      </trkpt>
      <trkpt lat="47.5143" lon="-0.3371">
        <ele>118</ele>
        <time>2011-09-04T08:01:06Z</time>
      </trkpt>
      <trkpt lat="47.51425" lon="-0.33709">
        <ele>118</ele>
        <time>2011-09-04T08:01:08Z</time>
      </trkpt>
      <trkpt lat="47.51419" lon="-0.33707">
        <ele>117</ele>
        <time>2011-09-04T08:01:10Z</time>
      </trkpt>
      <trkpt lat="47.51414" lon="-0.33706">
        <ele>117</ele>
        <time>2011-09-04T08:01:12Z</time>
      </trkpt>
      <trkpt lat="47.51408" lon="-0.33704">
        <ele>117</ele>
        <time>2011-09-04T08:01:14Z</time>
      </trkpt>
      <trkpt lat="47.51401" lon="-0.33704">
        <ele>119</ele>
        <time>2011-09-04T08:01:17Z</time>
      </trkpt>
      <trkpt lat="47.51395" lon="-0.33702">
        <ele>119</ele>
        <time>2011-09-04T08:01:19Z</time>
      </trkpt>
      <trkpt lat="47.5139" lon="-0.33704">
        <ele>119</ele>
        <time>2011-09-04T08:01:22Z</time>
      </trkpt>
      <trkpt lat="47.51384" lon="-0.33702">
        <ele>119</ele>
        <time>2011-09-04T08:01:24Z</time>
      </trkpt>
      <trkpt lat="47.51377" lon="-0.33702">
        <ele>119</ele>
        <time>2011-09-04T08:01:26Z</time>
      </trkpt>
      <trkpt lat="47.51372" lon="-0.33701">
        <ele>118</ele>
        <time>2011-09-04T08:01:27Z</time>
      </trkpt>
      <trkpt lat="47.51368" lon="-0.33699">
        <ele>118</ele>
        <time>2011-09-04T08:01:28Z</time>
      </trkpt>
      <trkpt lat="47.51359" lon="-0.33694">
        <ele>118</ele>
        <time>2011-09-04T08:01:30Z</time>
      </trkpt>
      <trkpt lat="47.51355" lon="-0.33691">
        <ele>117</ele>
        <time>2011-09-04T08:01:31Z</time>
      </trkpt>
      <trkpt lat="47.5135" lon="-0.33688">
        <ele>117</ele>
        <time>2011-09-04T08:01:33Z</time>
      </trkpt>
      <trkpt lat="47.51345" lon="-0.33688">
        <ele>117</ele>
        <time>2011-09-04T08:01:35Z</time>
      </trkpt>
      <trkpt lat="47.51337" lon="-0.33685">
        <ele>117</ele>
        <time>2011-09-04T08:01:37Z</time>
      </trkpt>
      <trkpt lat="47.51332" lon="-0.33685">
        <ele>118</ele>
        <time>2011-09-04T08:01:39Z</time>
      </trkpt>
      <trkpt lat="47.51326" lon="-0.33683">
        <ele>118</ele>
        <time>2011-09-04T08:01:41Z</time>
      </trkpt>
      <trkpt lat="47.51319" lon="-0.3368">
        <ele>117</ele>
        <time>2011-09-04T08:01:43Z</time>
      </trkpt>
      <trkpt lat="47.51314" lon="-0.33677">
        <ele>118</ele>
        <time>2011-09-04T08:01:45Z</time>
      </trkpt>
      <trkpt lat="47.5131" lon="-0.33671">
        <ele>116</ele>
        <time>2011-09-04T08:01:47Z</time>
      </trkpt>
      <trkpt lat="47.51303" lon="-0.33667">
        <ele>117</ele>
        <time>2011-09-04T08:01:49Z</time>
      </trkpt>
      <trkpt lat="47.51296" lon="-0.33663">
        <ele>118</ele>
        <time>2011-09-04T08:01:51Z</time>
      </trkpt>
      <trkpt lat="47.51289" lon="-0.33661">
        <ele>118</ele>
        <time>2011-09-04T08:01:53Z</time>
      </trkpt>
      <trkpt lat="47.51283" lon="-0.33659">
        <ele>118</ele>
        <time>2011-09-04T08:01:55Z</time>
      </trkpt>
      <trkpt lat="47.51279" lon="-0.33656">
        <ele>118</ele>
        <time>2011-09-04T08:01:56Z</time>
      </trkpt>
      <trkpt lat="47.51275" lon="-0.33652">
        <ele>117</ele>
        <time>2011-09-04T08:01:57Z</time>
      </trkpt>
      <trkpt lat="47.51268" lon="-0.33645">
        <ele>115</ele>
        <time>2011-09-04T08:01:59Z</time>
      </trkpt>
      <trkpt lat="47.51262" lon="-0.33641">
        <ele>115</ele>
        <time>2011-09-04T08:02:01Z</time>
      </trkpt>
      <trkpt lat="47.51257" lon="-0.33637">
        <ele>114</ele>
        <time>2011-09-04T08:02:03Z</time>
      </trkpt>
      <trkpt lat="47.51252" lon="-0.33633">
        <ele>114</ele>
        <time>2011-09-04T08:02:05Z</time>
      </trkpt>
      <trkpt lat="47.51247" lon="-0.33627">
        <ele>113</ele>
        <time>2011-09-04T08:02:08Z</time>
      </trkpt>
      <trkpt lat="47.51248" lon="-0.33619">
        <ele>112</ele>
        <time>2011-09-04T08:02:37Z</time>
      </trkpt>
      <trkpt lat="47.51242" lon="-0.33614">
        <ele>117</ele>
        <time>2011-09-04T08:03:42Z</time>
      </trkpt>
      <trkpt lat="47.51244" lon="-0.33621">
        <ele>113</ele>
        <time>2011-09-04T08:04:07Z</time>
      </trkpt>
      <trkpt lat="47.51249" lon="-0.33622">
        <ele>112</ele>
        <time>2011-09-04T08:04:40Z</time>
      </trkpt>
      <trkpt lat="47.51249" lon="-0.33622">
        <ele>112</ele>
        <time>2011-09-04T08:04:40Z</time>
      </trkpt>
      <trkpt lat="47.51249" lon="-0.33622">
        <ele>112</ele>
        <time>2011-09-04T08:04:42Z</time>
      </trkpt>
      <trkpt lat="47.51244" lon="-0.33626">
        <ele>110</ele>
        <time>2011-09-04T08:04:48Z</time>
      </trkpt>
      <trkpt lat="47.51248" lon="-0.33628">
        <ele>110</ele>
        <time>2011-09-04T08:05:47Z</time>
      </trkpt>
      <trkpt lat="47.51248" lon="-0.33628">
        <ele>110</ele>
        <time>2011-09-04T08:05:47Z</time>
      </trkpt>
      <trkpt lat="47.51248" lon="-0.33628">
        <ele>110</ele>
        <time>2011-09-04T08:05:49Z</time>
      </trkpt>
      <trkpt lat="47.51253" lon="-0.33628">
        <ele>111</ele>
        <time>2011-09-04T08:05:57Z</time>
      </trkpt>
      <trkpt lat="47.51252" lon="-0.3362">
        <ele>112</ele>
        <time>2011-09-04T08:06:20Z</time>
      </trkpt>
      <trkpt lat="47.51245" lon="-0.33618">
        <ele>113</ele>
        <time>2011-09-04T08:06:22Z</time>
      </trkpt>
      <trkpt lat="47.5124" lon="-0.33618">
        <ele>113</ele>
        <time>2011-09-04T08:06:23Z</time>
      </trkpt>
      <trkpt lat="47.51233" lon="-0.33613">
        <ele>114</ele>
        <time>2011-09-04T08:06:25Z</time>
      </trkpt>
      <trkpt lat="47.51228" lon="-0.33611">
        <ele>113</ele>
        <time>2011-09-04T08:06:26Z</time>
      </trkpt>
      <trkpt lat="47.51224" lon="-0.33606">
        <ele>112</ele>
        <time>2011-09-04T08:06:27Z</time>
      </trkpt>
      <trkpt lat="47.51219" lon="-0.33603">
        <ele>111</ele>
        <time>2011-09-04T08:06:28Z</time>
      </trkpt>
      <trkpt lat="47.51215" lon="-0.336">
        <ele>112</ele>
        <time>2011-09-04T08:06:29Z</time>
      </trkpt>
      <trkpt lat="47.51207" lon="-0.33595">
        <ele>112</ele>
        <time>2011-09-04T08:06:31Z</time>
      </trkpt>
      <trkpt lat="47.51202" lon="-0.33586">
        <ele>111</ele>
        <time>2011-09-04T08:06:33Z</time>
      </trkpt>
      <trkpt lat="47.51196" lon="-0.33577">
        <ele>111</ele>
        <time>2011-09-04T08:06:35Z</time>
      </trkpt>
      <trkpt lat="47.51192" lon="-0.33567">
        <ele>111</ele>
        <time>2011-09-04T08:06:37Z</time>
      </trkpt>
      <trkpt lat="47.51189" lon="-0.33562">
        <ele>111</ele>
        <time>2011-09-04T08:06:38Z</time>
      </trkpt>
      <trkpt lat="47.51186" lon="-0.33557">
        <ele>111</ele>
        <time>2011-09-04T08:06:39Z</time>
      </trkpt>
      <trkpt lat="47.51182" lon="-0.3355">
        <ele>111</ele>
        <time>2011-09-04T08:06:40Z</time>
      </trkpt>
      <trkpt lat="47.51178" lon="-0.33544">
        <ele>112</ele>
        <time>2011-09-04T08:06:41Z</time>
      </trkpt>
      <trkpt lat="47.51175" lon="-0.33539">
        <ele>112</ele>
        <time>2011-09-04T08:06:42Z</time>
      </trkpt>
      <trkpt lat="47.51171" lon="-0.33532">
        <ele>112</ele>
        <time>2011-09-04T08:06:43Z</time>
      </trkpt>
      <trkpt lat="47.51167" lon="-0.33526">
        <ele>112</ele>
        <time>2011-09-04T08:06:44Z</time>
      </trkpt>
      <trkpt lat="47.51165" lon="-0.33518">
        <ele>113</ele>
        <time>2011-09-04T08:06:45Z</time>
      </trkpt>
      <trkpt lat="47.51161" lon="-0.3351">
        <ele>113</ele>
        <time>2011-09-04T08:06:46Z</time>
      </trkpt>
      <trkpt lat="47.51158" lon="-0.33502">
        <ele>112</ele>
        <time>2011-09-04T08:06:47Z</time>
      </trkpt>
      <trkpt lat="47.51155" lon="-0.33491">
        <ele>111</ele>
        <time>2011-09-04T08:06:48Z</time>
      </trkpt>
      <trkpt lat="47.5115" lon="-0.3348">
        <ele>110</ele>
        <time>2011-09-04T08:06:49Z</time>
      </trkpt>
      <trkpt lat="47.51144" lon="-0.33471">
        <ele>109</ele>
        <time>2011-09-04T08:06:50Z</time>
      </trkpt>
      <trkpt lat="47.51137" lon="-0.33463">
        <ele>108</ele>
        <time>2011-09-04T08:06:51Z</time>
      </trkpt>
      <trkpt lat="47.51131" lon="-0.33454">
        <ele>107</ele>
        <time>2011-09-04T08:06:52Z</time>
      </trkpt>
      <trkpt lat="47.51125" lon="-0.33443">
        <ele>107</ele>
        <time>2011-09-04T08:06:53Z</time>
      </trkpt>
      <trkpt lat="47.51119" lon="-0.33435">
        <ele>106</ele>
        <time>2011-09-04T08:06:54Z</time>
      </trkpt>
      <trkpt lat="47.51107" lon="-0.33418">
        <ele>105</ele>
        <time>2011-09-04T08:06:56Z</time>
      </trkpt>
      <trkpt lat="47.511" lon="-0.33409">
        <ele>104</ele>
        <time>2011-09-04T08:06:57Z</time>
      </trkpt>
      <trkpt lat="47.51094" lon="-0.33402">
        <ele>103</ele>
        <time>2011-09-04T08:06:58Z</time>
      </trkpt>
      <trkpt lat="47.51088" lon="-0.33394">
        <ele>102</ele>
        <time>2011-09-04T08:06:59Z</time>
      </trkpt>
      <trkpt lat="47.51083" lon="-0.33388">
        <ele>101</ele>
        <time>2011-09-04T08:07:00Z</time>
      </trkpt>
      <trkpt lat="47.51077" lon="-0.3338">
        <ele>101</ele>
        <time>2011-09-04T08:07:01Z</time>
      </trkpt>
      <trkpt lat="47.51072" lon="-0.33372">
        <ele>100</ele>
        <time>2011-09-04T08:07:02Z</time>
      </trkpt>
      <trkpt lat="47.51068" lon="-0.33364">
        <ele>100</ele>
        <time>2011-09-04T08:07:03Z</time>
      </trkpt>
      <trkpt lat="47.51064" lon="-0.33356">
        <ele>100</ele>
        <time>2011-09-04T08:07:04Z</time>
      </trkpt>
      <trkpt lat="47.51061" lon="-0.33347">
        <ele>99</ele>
        <time>2011-09-04T08:07:05Z</time>
      </trkpt>
      <trkpt lat="47.51058" lon="-0.33338">
        <ele>98</ele>
        <time>2011-09-04T08:07:06Z</time>
      </trkpt>
      <trkpt lat="47.51056" lon="-0.3333">
        <ele>98</ele>
        <time>2011-09-04T08:07:07Z</time>
      </trkpt>
      <trkpt lat="47.51054" lon="-0.3332">
        <ele>97</ele>
        <time>2011-09-04T08:07:08Z</time>
      </trkpt>
      <trkpt lat="47.51052" lon="-0.33311">
        <ele>97</ele>
        <time>2011-09-04T08:07:09Z</time>
      </trkpt>
      <trkpt lat="47.5105" lon="-0.33302">
        <ele>97</ele>
        <time>2011-09-04T08:07:10Z</time>
      </trkpt>
      <trkpt lat="47.51049" lon="-0.33293">
        <ele>96</ele>
        <time>2011-09-04T08:07:11Z</time>
      </trkpt>
      <trkpt lat="47.51047" lon="-0.33284">
        <ele>96</ele>
        <time>2011-09-04T08:07:12Z</time>
      </trkpt>
      <trkpt lat="47.51044" lon="-0.33275">
        <ele>95</ele>
        <time>2011-09-04T08:07:13Z</time>
      </trkpt>
      <trkpt lat="47.51041" lon="-0.33267">
        <ele>95</ele>
        <time>2011-09-04T08:07:14Z</time>
      </trkpt>
      <trkpt lat="47.51036" lon="-0.33261">
        <ele>95</ele>
        <time>2011-09-04T08:07:15Z</time>
      </trkpt>
      <trkpt lat="47.51031" lon="-0.33257">
        <ele>94</ele>
        <time>2011-09-04T08:07:16Z</time>
      </trkpt>
      <trkpt lat="47.51025" lon="-0.33252">
        <ele>94</ele>
        <time>2011-09-04T08:07:17Z</time>
      </trkpt>
      <trkpt lat="47.51019" lon="-0.33248">
        <ele>93</ele>
        <time>2011-09-04T08:07:18Z</time>
      </trkpt>
      <trkpt lat="47.51014" lon="-0.33244">
        <ele>93</ele>
        <time>2011-09-04T08:07:19Z</time>
      </trkpt>
      <trkpt lat="47.51009" lon="-0.3324">
        <ele>93</ele>
        <time>2011-09-04T08:07:20Z</time>
      </trkpt>
      <trkpt lat="47.51003" lon="-0.33236">
        <ele>92</ele>
        <time>2011-09-04T08:07:21Z</time>
      </trkpt>
      <trkpt lat="47.50998" lon="-0.33232">
        <ele>92</ele>
        <time>2011-09-04T08:07:22Z</time>
      </trkpt>
      <trkpt lat="47.50992" lon="-0.33228">
        <ele>91</ele>
        <time>2011-09-04T08:07:23Z</time>
      </trkpt>
      <trkpt lat="47.50988" lon="-0.33223">
        <ele>91</ele>
        <time>2011-09-04T08:07:24Z</time>
      </trkpt>
      <trkpt lat="47.50982" lon="-0.33219">
        <ele>90</ele>
        <time>2011-09-04T08:07:25Z</time>
      </trkpt>
      <trkpt lat="47.50978" lon="-0.33215">
        <ele>90</ele>
        <time>2011-09-04T08:07:26Z</time>
      </trkpt>
      <trkpt lat="47.50972" lon="-0.33211">
        <ele>90</ele>
        <time>2011-09-04T08:07:27Z</time>
      </trkpt>
      <trkpt lat="47.50967" lon="-0.33207">
        <ele>90</ele>
        <time>2011-09-04T08:07:28Z</time>
      </trkpt>
      <trkpt lat="47.50962" lon="-0.33202">
        <ele>89</ele>
        <time>2011-09-04T08:07:29Z</time>
      </trkpt>
      <trkpt lat="47.50956" lon="-0.33198">
        <ele>89</ele>
        <time>2011-09-04T08:07:30Z</time>
      </trkpt>
      <trkpt lat="47.50951" lon="-0.33193">
        <ele>89</ele>
        <time>2011-09-04T08:07:31Z</time>
      </trkpt>
      <trkpt lat="47.50946" lon="-0.33189">
        <ele>88</ele>
        <time>2011-09-04T08:07:32Z</time>
      </trkpt>
      <trkpt lat="47.50942" lon="-0.33185">
        <ele>88</ele>
        <time>2011-09-04T08:07:33Z</time>
      </trkpt>
      <trkpt lat="47.50937" lon="-0.33181">
        <ele>88</ele>
        <time>2011-09-04T08:07:34Z</time>
      </trkpt>
      <trkpt lat="47.50933" lon="-0.33177">
        <ele>88</ele>
        <time>2011-09-04T08:07:35Z</time>
      </trkpt>
      <trkpt lat="47.50929" lon="-0.33168">
        <ele>87</ele>
        <time>2011-09-04T08:07:37Z</time>
      </trkpt>
      <trkpt lat="47.50929" lon="-0.3316">
        <ele>87</ele>
        <time>2011-09-04T08:07:39Z</time>
      </trkpt>
      <trkpt lat="47.50932" lon="-0.33155">
        <ele>87</ele>
        <time>2011-09-04T08:07:42Z</time>
      </trkpt>
      <trkpt lat="47.50932" lon="-0.33155">
        <ele>87</ele>
        <time>2011-09-04T08:07:42Z</time>
      </trkpt>
      <trkpt lat="47.50932" lon="-0.33155">
        <ele>87</ele>
        <time>2011-09-04T08:07:56Z</time>
      </trkpt>
      <trkpt lat="47.50928" lon="-0.33158">
        <ele>87</ele>
        <time>2011-09-04T08:08:02Z</time>
      </trkpt>
      <trkpt lat="47.50925" lon="-0.33164">
        <ele>88</ele>
        <time>2011-09-04T08:08:04Z</time>
      </trkpt>
      <trkpt lat="47.50921" lon="-0.3317">
        <ele>88</ele>
        <time>2011-09-04T08:08:06Z</time>
      </trkpt>
      <trkpt lat="47.50917" lon="-0.33177">
        <ele>88</ele>
        <time>2011-09-04T08:08:08Z</time>
      </trkpt>
      <trkpt lat="47.50912" lon="-0.33182">
        <ele>88</ele>
        <time>2011-09-04T08:08:11Z</time>
      </trkpt>
      <trkpt lat="47.50908" lon="-0.33188">
        <ele>91</ele>
        <time>2011-09-04T08:08:25Z</time>
      </trkpt>
      <trkpt lat="47.50903" lon="-0.33192">
        <ele>91</ele>
        <time>2011-09-04T08:08:27Z</time>
      </trkpt>
      <trkpt lat="47.50896" lon="-0.33201">
        <ele>91</ele>
        <time>2011-09-04T08:08:29Z</time>
      </trkpt>
      <trkpt lat="47.50892" lon="-0.33208">
        <ele>91</ele>
        <time>2011-09-04T08:08:31Z</time>
      </trkpt>
      <trkpt lat="47.50889" lon="-0.33216">
        <ele>91</ele>
        <time>2011-09-04T08:08:33Z</time>
      </trkpt>
      <trkpt lat="47.50886" lon="-0.33221">
        <ele>91</ele>
        <time>2011-09-04T08:08:34Z</time>
      </trkpt>
      <trkpt lat="47.50881" lon="-0.3323">
        <ele>91</ele>
        <time>2011-09-04T08:08:36Z</time>
      </trkpt>
      <trkpt lat="47.50879" lon="-0.33236">
        <ele>91</ele>
        <time>2011-09-04T08:08:37Z</time>
      </trkpt>
      <trkpt lat="47.50876" lon="-0.33243">
        <ele>90</ele>
        <time>2011-09-04T08:08:38Z</time>
      </trkpt>
      <trkpt lat="47.50873" lon="-0.33252">
        <ele>89</ele>
        <time>2011-09-04T08:08:40Z</time>
      </trkpt>
      <trkpt lat="47.50871" lon="-0.33258">
        <ele>89</ele>
        <time>2011-09-04T08:08:41Z</time>
      </trkpt>
      <trkpt lat="47.50868" lon="-0.3327">
        <ele>89</ele>
        <time>2011-09-04T08:08:43Z</time>
      </trkpt>
      <trkpt lat="47.50865" lon="-0.33275">
        <ele>90</ele>
        <time>2011-09-04T08:08:44Z</time>
      </trkpt>
      <trkpt lat="47.50863" lon="-0.33281">
        <ele>89</ele>
        <time>2011-09-04T08:08:45Z</time>
      </trkpt>
      <trkpt lat="47.5086" lon="-0.33287">
        <ele>90</ele>
        <time>2011-09-04T08:08:46Z</time>
      </trkpt>
      <trkpt lat="47.50856" lon="-0.33298">
        <ele>91</ele>
        <time>2011-09-04T08:08:48Z</time>
      </trkpt>
      <trkpt lat="47.50853" lon="-0.33305">
        <ele>91</ele>
        <time>2011-09-04T08:08:49Z</time>
      </trkpt>
      <trkpt lat="47.5085" lon="-0.33311">
        <ele>91</ele>
        <time>2011-09-04T08:08:50Z</time>
      </trkpt>
      <trkpt lat="47.50848" lon="-0.33317">
        <ele>91</ele>
        <time>2011-09-04T08:08:51Z</time>
      </trkpt>
      <trkpt lat="47.50845" lon="-0.33324">
        <ele>91</ele>
        <time>2011-09-04T08:08:52Z</time>
      </trkpt>
      <trkpt lat="47.50842" lon="-0.33332">
        <ele>91</ele>
        <time>2011-09-04T08:08:53Z</time>
      </trkpt>
      <trkpt lat="47.5084" lon="-0.33338">
        <ele>91</ele>
        <time>2011-09-04T08:08:54Z</time>
      </trkpt>
      <trkpt lat="47.50835" lon="-0.33354">
        <ele>91</ele>
        <time>2011-09-04T08:08:56Z</time>
      </trkpt>
      <trkpt lat="47.50832" lon="-0.33361">
        <ele>91</ele>
        <time>2011-09-04T08:08:57Z</time>
      </trkpt>
      <trkpt lat="47.50829" lon="-0.33366">
        <ele>91</ele>
        <time>2011-09-04T08:08:58Z</time>
      </trkpt>
      <trkpt lat="47.50826" lon="-0.33372">
        <ele>91</ele>
        <time>2011-09-04T08:08:59Z</time>
      </trkpt>
      <trkpt lat="47.50823" lon="-0.33378">
        <ele>91</ele>
        <time>2011-09-04T08:09:00Z</time>
      </trkpt>
      <trkpt lat="47.50819" lon="-0.33386">
        <ele>91</ele>
        <time>2011-09-04T08:09:01Z</time>
      </trkpt>
      <trkpt lat="47.50816" lon="-0.33394">
        <ele>92</ele>
        <time>2011-09-04T08:09:02Z</time>
      </trkpt>
      <trkpt lat="47.50813" lon="-0.33402">
        <ele>92</ele>
        <time>2011-09-04T08:09:03Z</time>
      </trkpt>
      <trkpt lat="47.50808" lon="-0.33408">
        <ele>92</ele>
        <time>2011-09-04T08:09:04Z</time>
      </trkpt>
      <trkpt lat="47.50805" lon="-0.33415">
        <ele>91</ele>
        <time>2011-09-04T08:09:05Z</time>
      </trkpt>
      <trkpt lat="47.50801" lon="-0.33421">
        <ele>91</ele>
        <time>2011-09-04T08:09:06Z</time>
      </trkpt>
      <trkpt lat="47.50796" lon="-0.33428">
        <ele>91</ele>
        <time>2011-09-04T08:09:07Z</time>
      </trkpt>
      <trkpt lat="47.50792" lon="-0.33434">
        <ele>91</ele>
        <time>2011-09-04T08:09:08Z</time>
      </trkpt>
      <trkpt lat="47.50788" lon="-0.3344">
        <ele>90</ele>
        <time>2011-09-04T08:09:09Z</time>
      </trkpt>
      <trkpt lat="47.50784" lon="-0.33447">
        <ele>90</ele>
        <time>2011-09-04T08:09:10Z</time>
      </trkpt>
      <trkpt lat="47.5078" lon="-0.33454">
        <ele>89</ele>
        <time>2011-09-04T08:09:11Z</time>
      </trkpt>
      <trkpt lat="47.50776" lon="-0.3346">
        <ele>89</ele>
        <time>2011-09-04T08:09:12Z</time>
      </trkpt>
      <trkpt lat="47.50774" lon="-0.33468">
        <ele>89</ele>
        <time>2011-09-04T08:09:13Z</time>
      </trkpt>
      <trkpt lat="47.50771" lon="-0.33474">
        <ele>89</ele>
        <time>2011-09-04T08:09:14Z</time>
      </trkpt>
      <trkpt lat="47.50769" lon="-0.33482">
        <ele>89</ele>
        <time>2011-09-04T08:09:15Z</time>
      </trkpt>
      <trkpt lat="47.50767" lon="-0.3349">
        <ele>89</ele>
        <time>2011-09-04T08:09:16Z</time>
      </trkpt>
      <trkpt lat="47.50764" lon="-0.33498">
        <ele>89</ele>
        <time>2011-09-04T08:09:17Z</time>
      </trkpt>
      <trkpt lat="47.50763" lon="-0.33506">
        <ele>89</ele>
        <time>2011-09-04T08:09:18Z</time>
      </trkpt>
      <trkpt lat="47.50761" lon="-0.33515">
        <ele>88</ele>
        <time>2011-09-04T08:09:19Z</time>
      </trkpt>
      <trkpt lat="47.50759" lon="-0.33523">
        <ele>88</ele>
        <time>2011-09-04T08:09:20Z</time>
      </trkpt>
      <trkpt lat="47.50757" lon="-0.3353">
        <ele>88</ele>
        <time>2011-09-04T08:09:21Z</time>
      </trkpt>
      <trkpt lat="47.50754" lon="-0.33538">
        <ele>88</ele>
        <time>2011-09-04T08:09:22Z</time>
      </trkpt>
      <trkpt lat="47.50753" lon="-0.33546">
        <ele>88</ele>
        <time>2011-09-04T08:09:23Z</time>
      </trkpt>
      <trkpt lat="47.50751" lon="-0.33554">
        <ele>88</ele>
        <time>2011-09-04T08:09:24Z</time>
      </trkpt>
      <trkpt lat="47.50748" lon="-0.33561">
        <ele>88</ele>
        <time>2011-09-04T08:09:25Z</time>
      </trkpt>
      <trkpt lat="47.50746" lon="-0.33568">
        <ele>89</ele>
        <time>2011-09-04T08:09:26Z</time>
      </trkpt>
      <trkpt lat="47.50744" lon="-0.33578">
        <ele>88</ele>
        <time>2011-09-04T08:09:27Z</time>
      </trkpt>
      <trkpt lat="47.50744" lon="-0.33586">
        <ele>89</ele>
        <time>2011-09-04T08:09:28Z</time>
      </trkpt>
      <trkpt lat="47.50743" lon="-0.33596">
        <ele>89</ele>
        <time>2011-09-04T08:09:29Z</time>
      </trkpt>
      <trkpt lat="47.50743" lon="-0.33605">
        <ele>88</ele>
        <time>2011-09-04T08:09:30Z</time>
      </trkpt>
      <trkpt lat="47.50743" lon="-0.33613">
        <ele>89</ele>
        <time>2011-09-04T08:09:31Z</time>
      </trkpt>
      <trkpt lat="47.5075" lon="-0.33615">
        <ele>88</ele>
        <time>2011-09-04T08:09:32Z</time>
      </trkpt>
      <trkpt lat="47.50755" lon="-0.33617">
        <ele>89</ele>
        <time>2011-09-04T08:09:33Z</time>
      </trkpt>
      <trkpt lat="47.5076" lon="-0.33619">
        <ele>89</ele>
        <time>2011-09-04T08:09:34Z</time>
      </trkpt>
      <trkpt lat="47.50767" lon="-0.33623">
        <ele>89</ele>
        <time>2011-09-04T08:09:36Z</time>
      </trkpt>
      <trkpt lat="47.50774" lon="-0.33627">
        <ele>90</ele>
        <time>2011-09-04T08:09:38Z</time>
      </trkpt>
      <trkpt lat="47.5078" lon="-0.33631">
        <ele>90</ele>
        <time>2011-09-04T08:09:40Z</time>
      </trkpt>
      <trkpt lat="47.50786" lon="-0.33635">
        <ele>91</ele>
        <time>2011-09-04T08:09:42Z</time>
      </trkpt>
      <trkpt lat="47.50792" lon="-0.33641">
        <ele>91</ele>
        <time>2011-09-04T08:09:44Z</time>
      </trkpt>
      <trkpt lat="47.50799" lon="-0.33646">
        <ele>92</ele>
        <time>2011-09-04T08:09:46Z</time>
      </trkpt>
      <trkpt lat="47.50805" lon="-0.33652">
        <ele>93</ele>
        <time>2011-09-04T08:09:48Z</time>
      </trkpt>
      <trkpt lat="47.50811" lon="-0.3366">
        <ele>93</ele>
        <time>2011-09-04T08:09:50Z</time>
      </trkpt>
      <trkpt lat="47.50818" lon="-0.33668">
        <ele>94</ele>
        <time>2011-09-04T08:09:52Z</time>
      </trkpt>
      <trkpt lat="47.50823" lon="-0.33677">
        <ele>94</ele>
        <time>2011-09-04T08:09:54Z</time>
      </trkpt>
      <trkpt lat="47.50828" lon="-0.33687">
        <ele>95</ele>
        <time>2011-09-04T08:09:56Z</time>
      </trkpt>
      <trkpt lat="47.50832" lon="-0.33698">
        <ele>95</ele>
        <time>2011-09-04T08:09:58Z</time>
      </trkpt>
      <trkpt lat="47.50836" lon="-0.33708">
        <ele>95</ele>
        <time>2011-09-04T08:10:00Z</time>
      </trkpt>
      <trkpt lat="47.5084" lon="-0.3372">
        <ele>95</ele>
        <time>2011-09-04T08:10:02Z</time>
      </trkpt>
      <trkpt lat="47.50841" lon="-0.33727">
        <ele>95</ele>
        <time>2011-09-04T08:10:03Z</time>
      </trkpt>
      <trkpt lat="47.50842" lon="-0.33733">
        <ele>95</ele>
        <time>2011-09-04T08:10:04Z</time>
      </trkpt>
      <trkpt lat="47.50843" lon="-0.3374">
        <ele>95</ele>
        <time>2011-09-04T08:10:05Z</time>
      </trkpt>
      <trkpt lat="47.50844" lon="-0.33746">
        <ele>95</ele>
        <time>2011-09-04T08:10:06Z</time>
      </trkpt>
      <trkpt lat="47.50845" lon="-0.33753">
        <ele>95</ele>
        <time>2011-09-04T08:10:07Z</time>
      </trkpt>
      <trkpt lat="47.50846" lon="-0.33759">
        <ele>95</ele>
        <time>2011-09-04T08:10:08Z</time>
      </trkpt>
      <trkpt lat="47.50848" lon="-0.33772">
        <ele>95</ele>
        <time>2011-09-04T08:10:10Z</time>
      </trkpt>
      <trkpt lat="47.50849" lon="-0.33779">
        <ele>95</ele>
        <time>2011-09-04T08:10:11Z</time>
      </trkpt>
      <trkpt lat="47.50852" lon="-0.33788">
        <ele>96</ele>
        <time>2011-09-04T08:10:13Z</time>
      </trkpt>
      <trkpt lat="47.50856" lon="-0.33795">
        <ele>95</ele>
        <time>2011-09-04T08:10:15Z</time>
      </trkpt>
      <trkpt lat="47.50865" lon="-0.33797">
        <ele>95</ele>
        <time>2011-09-04T08:10:17Z</time>
      </trkpt>
      <trkpt lat="47.5087" lon="-0.33796">
        <ele>95</ele>
        <time>2011-09-04T08:10:18Z</time>
      </trkpt>
      <trkpt lat="47.50878" lon="-0.33798">
        <ele>94</ele>
        <time>2011-09-04T08:10:20Z</time>
      </trkpt>
      <trkpt lat="47.50887" lon="-0.33799">
        <ele>95</ele>
        <time>2011-09-04T08:10:22Z</time>
      </trkpt>
      <trkpt lat="47.50893" lon="-0.33798">
        <ele>95</ele>
        <time>2011-09-04T08:10:23Z</time>
      </trkpt>
      <trkpt lat="47.509" lon="-0.33798">
        <ele>95</ele>
        <time>2011-09-04T08:10:25Z</time>
      </trkpt>
      <trkpt lat="47.50905" lon="-0.33798">
        <ele>96</ele>
        <time>2011-09-04T08:10:26Z</time>
      </trkpt>
      <trkpt lat="47.50912" lon="-0.33797">
        <ele>98</ele>
        <time>2011-09-04T08:10:28Z</time>
      </trkpt>
      <trkpt lat="47.5092" lon="-0.33797">
        <ele>98</ele>
        <time>2011-09-04T08:10:30Z</time>
      </trkpt>
      <trkpt lat="47.50927" lon="-0.33797">
        <ele>98</ele>
        <time>2011-09-04T08:10:32Z</time>
      </trkpt>
      <trkpt lat="47.50934" lon="-0.33796">
        <ele>99</ele>
        <time>2011-09-04T08:10:34Z</time>
      </trkpt>
      <trkpt lat="47.50942" lon="-0.33795">
        <ele>99</ele>
        <time>2011-09-04T08:10:36Z</time>
      </trkpt>
      <trkpt lat="47.50948" lon="-0.33794">
        <ele>99</ele>
        <time>2011-09-04T08:10:38Z</time>
      </trkpt>
      <trkpt lat="47.50956" lon="-0.33793">
        <ele>99</ele>
        <time>2011-09-04T08:10:40Z</time>
      </trkpt>
      <trkpt lat="47.50964" lon="-0.33793">
        <ele>99</ele>
        <time>2011-09-04T08:10:42Z</time>
      </trkpt>
      <trkpt lat="47.5097" lon="-0.33793">
        <ele>99</ele>
        <time>2011-09-04T08:10:44Z</time>
      </trkpt>
      <trkpt lat="47.50978" lon="-0.33794">
        <ele>100</ele>
        <time>2011-09-04T08:10:46Z</time>
      </trkpt>
      <trkpt lat="47.50984" lon="-0.33796">
        <ele>100</ele>
        <time>2011-09-04T08:10:48Z</time>
      </trkpt>
      <trkpt lat="47.50991" lon="-0.338">
        <ele>100</ele>
        <time>2011-09-04T08:10:50Z</time>
      </trkpt>
      <trkpt lat="47.50997" lon="-0.33804">
        <ele>100</ele>
        <time>2011-09-04T08:10:52Z</time>
      </trkpt>
      <trkpt lat="47.51003" lon="-0.33809">
        <ele>101</ele>
        <time>2011-09-04T08:10:54Z</time>
      </trkpt>
      <trkpt lat="47.51009" lon="-0.33813">
        <ele>101</ele>
        <time>2011-09-04T08:10:56Z</time>
      </trkpt>
      <trkpt lat="47.51013" lon="-0.33817">
        <ele>101</ele>
        <time>2011-09-04T08:10:58Z</time>
      </trkpt>
      <trkpt lat="47.51019" lon="-0.33821">
        <ele>102</ele>
        <time>2011-09-04T08:11:00Z</time>
      </trkpt>
      <trkpt lat="47.51024" lon="-0.33823">
        <ele>102</ele>
        <time>2011-09-04T08:11:02Z</time>
      </trkpt>
      <trkpt lat="47.5103" lon="-0.33825">
        <ele>102</ele>
        <time>2011-09-04T08:11:05Z</time>
      </trkpt>
      <trkpt lat="47.51034" lon="-0.33829">
        <ele>102</ele>
        <time>2011-09-04T08:11:08Z</time>
      </trkpt>
      <trkpt lat="47.5104" lon="-0.33832">
        <ele>103</ele>
        <time>2011-09-04T08:11:11Z</time>
      </trkpt>
      <trkpt lat="47.51044" lon="-0.33835">
        <ele>104</ele>
        <time>2011-09-04T08:11:14Z</time>
      </trkpt>
      <trkpt lat="47.51048" lon="-0.3384">
        <ele>105</ele>
        <time>2011-09-04T08:11:20Z</time>
      </trkpt>
      <trkpt lat="47.51053" lon="-0.33842">
        <ele>106</ele>
        <time>2011-09-04T08:11:26Z</time>
      </trkpt>
      <trkpt lat="47.51057" lon="-0.33844">
        <ele>110</ele>
        <time>2011-09-04T08:11:31Z</time>
      </trkpt>
      <trkpt lat="47.51061" lon="-0.33849">
        <ele>112</ele>
        <time>2011-09-04T08:11:35Z</time>
      </trkpt>
      <trkpt lat="47.51066" lon="-0.3385">
        <ele>113</ele>
        <time>2011-09-04T08:11:38Z</time>
      </trkpt>
      <trkpt lat="47.51071" lon="-0.33852">
        <ele>113</ele>
        <time>2011-09-04T08:11:42Z</time>
      </trkpt>
      <trkpt lat="47.51077" lon="-0.33851">
        <ele>115</ele>
        <time>2011-09-04T08:11:45Z</time>
      </trkpt>
      <trkpt lat="47.51083" lon="-0.33854">
        <ele>116</ele>
        <time>2011-09-04T08:11:50Z</time>
      </trkpt>
      <trkpt lat="47.51088" lon="-0.33856">
        <ele>116</ele>
        <time>2011-09-04T08:11:54Z</time>
      </trkpt>
      <trkpt lat="47.51092" lon="-0.33858">
        <ele>117</ele>
        <time>2011-09-04T08:11:57Z</time>
      </trkpt>
      <trkpt lat="47.51097" lon="-0.33859">
        <ele>117</ele>
        <time>2011-09-04T08:12:01Z</time>
      </trkpt>
      <trkpt lat="47.51102" lon="-0.33861">
        <ele>118</ele>
        <time>2011-09-04T08:12:06Z</time>
      </trkpt>
      <trkpt lat="47.51107" lon="-0.33864">
        <ele>118</ele>
        <time>2011-09-04T08:12:10Z</time>
      </trkpt>
      <trkpt lat="47.51112" lon="-0.33864">
        <ele>118</ele>
        <time>2011-09-04T08:12:17Z</time>
      </trkpt>
      <trkpt lat="47.51118" lon="-0.33866">
        <ele>118</ele>
        <time>2011-09-04T08:12:20Z</time>
      </trkpt>
      <trkpt lat="47.51123" lon="-0.33867">
        <ele>118</ele>
        <time>2011-09-04T08:12:22Z</time>
      </trkpt>
      <trkpt lat="47.51129" lon="-0.33869">
        <ele>118</ele>
        <time>2011-09-04T08:12:24Z</time>
      </trkpt>
      <trkpt lat="47.51134" lon="-0.33869">
        <ele>119</ele>
        <time>2011-09-04T08:12:26Z</time>
      </trkpt>
      <trkpt lat="47.51141" lon="-0.33872">
        <ele>119</ele>
        <time>2011-09-04T08:12:29Z</time>
      </trkpt>
      <trkpt lat="47.51148" lon="-0.33873">
        <ele>120</ele>
        <time>2011-09-04T08:12:31Z</time>
      </trkpt>
      <trkpt lat="47.51153" lon="-0.33875">
        <ele>121</ele>
        <time>2011-09-04T08:12:33Z</time>
      </trkpt>
      <trkpt lat="47.5116" lon="-0.33877">
        <ele>122</ele>
        <time>2011-09-04T08:12:35Z</time>
      </trkpt>
      <trkpt lat="47.51167" lon="-0.33878">
        <ele>123</ele>
        <time>2011-09-04T08:12:37Z</time>
      </trkpt>
      <trkpt lat="47.51174" lon="-0.33878">
        <ele>124</ele>
        <time>2011-09-04T08:12:39Z</time>
      </trkpt>
      <trkpt lat="47.51181" lon="-0.33881">
        <ele>124</ele>
        <time>2011-09-04T08:12:41Z</time>
      </trkpt>
      <trkpt lat="47.5119" lon="-0.33881">
        <ele>124</ele>
        <time>2011-09-04T08:12:43Z</time>
      </trkpt>
      <trkpt lat="47.51199" lon="-0.33884">
        <ele>123</ele>
        <time>2011-09-04T08:12:45Z</time>
      </trkpt>
      <trkpt lat="47.51204" lon="-0.33885">
        <ele>122</ele>
        <time>2011-09-04T08:12:46Z</time>
      </trkpt>
      <trkpt lat="47.51212" lon="-0.33889">
        <ele>122</ele>
        <time>2011-09-04T08:12:48Z</time>
      </trkpt>
      <trkpt lat="47.51217" lon="-0.33891">
        <ele>122</ele>
        <time>2011-09-04T08:12:49Z</time>
      </trkpt>
      <trkpt lat="47.51222" lon="-0.33893">
        <ele>122</ele>
        <time>2011-09-04T08:12:50Z</time>
      </trkpt>
      <trkpt lat="47.51226" lon="-0.33896">
        <ele>121</ele>
        <time>2011-09-04T08:12:51Z</time>
      </trkpt>
      <trkpt lat="47.51234" lon="-0.339">
        <ele>121</ele>
        <time>2011-09-04T08:12:53Z</time>
      </trkpt>
      <trkpt lat="47.51246" lon="-0.33905">
        <ele>120</ele>
        <time>2011-09-04T08:12:56Z</time>
      </trkpt>
      <trkpt lat="47.51254" lon="-0.33907">
        <ele>123</ele>
        <time>2011-09-04T08:12:58Z</time>
      </trkpt>
      <trkpt lat="47.51259" lon="-0.33907">
        <ele>122</ele>
        <time>2011-09-04T08:12:59Z</time>
      </trkpt>
      <trkpt lat="47.51263" lon="-0.33908">
        <ele>122</ele>
        <time>2011-09-04T08:13:00Z</time>
      </trkpt>
      <trkpt lat="47.51269" lon="-0.33909">
        <ele>122</ele>
        <time>2011-09-04T08:13:01Z</time>
      </trkpt>
      <trkpt lat="47.51276" lon="-0.33912">
        <ele>122</ele>
        <time>2011-09-04T08:13:03Z</time>
      </trkpt>
      <trkpt lat="47.5128" lon="-0.33915">
        <ele>122</ele>
        <time>2011-09-04T08:13:04Z</time>
      </trkpt>
      <trkpt lat="47.51285" lon="-0.33918">
        <ele>123</ele>
        <time>2011-09-04T08:13:05Z</time>
      </trkpt>
      <trkpt lat="47.51289" lon="-0.3392">
        <ele>122</ele>
        <time>2011-09-04T08:13:06Z</time>
      </trkpt>
      <trkpt lat="47.51296" lon="-0.33924">
        <ele>122</ele>
        <time>2011-09-04T08:13:08Z</time>
      </trkpt>
      <trkpt lat="47.51304" lon="-0.3393">
        <ele>122</ele>
        <time>2011-09-04T08:13:10Z</time>
      </trkpt>
      <trkpt lat="47.51311" lon="-0.33934">
        <ele>122</ele>
        <time>2011-09-04T08:13:12Z</time>
      </trkpt>
      <trkpt lat="47.51316" lon="-0.33936">
        <ele>122</ele>
        <time>2011-09-04T08:13:13Z</time>
      </trkpt>
      <trkpt lat="47.51323" lon="-0.33939">
        <ele>121</ele>
        <time>2011-09-04T08:13:15Z</time>
      </trkpt>
      <trkpt lat="47.51331" lon="-0.33941">
        <ele>120</ele>
        <time>2011-09-04T08:13:17Z</time>
      </trkpt>
      <trkpt lat="47.51336" lon="-0.33942">
        <ele>120</ele>
        <time>2011-09-04T08:13:18Z</time>
      </trkpt>
      <trkpt lat="47.51342" lon="-0.33943">
        <ele>119</ele>
        <time>2011-09-04T08:13:19Z</time>
      </trkpt>
      <trkpt lat="47.51352" lon="-0.33946">
        <ele>118</ele>
        <time>2011-09-04T08:13:21Z</time>
      </trkpt>
      <trkpt lat="47.51357" lon="-0.33946">
        <ele>118</ele>
        <time>2011-09-04T08:13:22Z</time>
      </trkpt>
      <trkpt lat="47.51362" lon="-0.33948">
        <ele>117</ele>
        <time>2011-09-04T08:13:23Z</time>
      </trkpt>
      <trkpt lat="47.51368" lon="-0.33951">
        <ele>116</ele>
        <time>2011-09-04T08:13:24Z</time>
      </trkpt>
      <trkpt lat="47.51372" lon="-0.33954">
        <ele>116</ele>
        <time>2011-09-04T08:13:25Z</time>
      </trkpt>
      <trkpt lat="47.51376" lon="-0.33956">
        <ele>117</ele>
        <time>2011-09-04T08:13:26Z</time>
      </trkpt>
      <trkpt lat="47.5138" lon="-0.33957">
        <ele>117</ele>
        <time>2011-09-04T08:13:27Z</time>
      </trkpt>
      <trkpt lat="47.51388" lon="-0.3396">
        <ele>118</ele>
        <time>2011-09-04T08:13:29Z</time>
      </trkpt>
      <trkpt lat="47.51393" lon="-0.3396">
        <ele>118</ele>
        <time>2011-09-04T08:13:30Z</time>
      </trkpt>
      <trkpt lat="47.51399" lon="-0.33962">
        <ele>118</ele>
        <time>2011-09-04T08:13:31Z</time>
      </trkpt>
      <trkpt lat="47.51404" lon="-0.33966">
        <ele>118</ele>
        <time>2011-09-04T08:13:32Z</time>
      </trkpt>
      <trkpt lat="47.51409" lon="-0.3397">
        <ele>118</ele>
        <time>2011-09-04T08:13:33Z</time>
      </trkpt>
      <trkpt lat="47.51414" lon="-0.33974">
        <ele>118</ele>
        <time>2011-09-04T08:13:34Z</time>
      </trkpt>
      <trkpt lat="47.5142" lon="-0.33979">
        <ele>118</ele>
        <time>2011-09-04T08:13:35Z</time>
      </trkpt>
      <trkpt lat="47.51424" lon="-0.33983">
        <ele>118</ele>
        <time>2011-09-04T08:13:36Z</time>
      </trkpt>
      <trkpt lat="47.51429" lon="-0.33987">
        <ele>118</ele>
        <time>2011-09-04T08:13:37Z</time>
      </trkpt>
      <trkpt lat="47.51432" lon="-0.33991">
        <ele>118</ele>
        <time>2011-09-04T08:13:38Z</time>
      </trkpt>
      <trkpt lat="47.51438" lon="-0.33994">
        <ele>117</ele>
        <time>2011-09-04T08:13:39Z</time>
      </trkpt>
      <trkpt lat="47.51442" lon="-0.33998">
        <ele>118</ele>
        <time>2011-09-04T08:13:40Z</time>
      </trkpt>
      <trkpt lat="47.51446" lon="-0.34">
        <ele>118</ele>
        <time>2011-09-04T08:13:41Z</time>
      </trkpt>
      <trkpt lat="47.51451" lon="-0.34003">
        <ele>117</ele>
        <time>2011-09-04T08:13:42Z</time>
      </trkpt>
      <trkpt lat="47.51455" lon="-0.34006">
        <ele>117</ele>
        <time>2011-09-04T08:13:43Z</time>
      </trkpt>
      <trkpt lat="47.5146" lon="-0.34008">
        <ele>117</ele>
        <time>2011-09-04T08:13:44Z</time>
      </trkpt>
      <trkpt lat="47.51465" lon="-0.3401">
        <ele>117</ele>
        <time>2011-09-04T08:13:45Z</time>
      </trkpt>
      <trkpt lat="47.51469" lon="-0.34014">
        <ele>118</ele>
        <time>2011-09-04T08:13:46Z</time>
      </trkpt>
      <trkpt lat="47.51473" lon="-0.34016">
        <ele>118</ele>
        <time>2011-09-04T08:13:47Z</time>
      </trkpt>
      <trkpt lat="47.51478" lon="-0.34018">
        <ele>118</ele>
        <time>2011-09-04T08:13:48Z</time>
      </trkpt>
      <trkpt lat="47.51482" lon="-0.34022">
        <ele>117</ele>
        <time>2011-09-04T08:13:49Z</time>
      </trkpt>
      <trkpt lat="47.51487" lon="-0.34025">
        <ele>115</ele>
        <time>2011-09-04T08:13:50Z</time>
      </trkpt>
      <trkpt lat="47.51492" lon="-0.34028">
        <ele>115</ele>
        <time>2011-09-04T08:13:51Z</time>
      </trkpt>
      <trkpt lat="47.51497" lon="-0.34032">
        <ele>114</ele>
        <time>2011-09-04T08:13:52Z</time>
      </trkpt>
      <trkpt lat="47.51506" lon="-0.34038">
        <ele>114</ele>
        <time>2011-09-04T08:13:54Z</time>
      </trkpt>
      <trkpt lat="47.5151" lon="-0.34042">
        <ele>114</ele>
        <time>2011-09-04T08:13:55Z</time>
      </trkpt>
      <trkpt lat="47.51514" lon="-0.34046">
        <ele>114</ele>
        <time>2011-09-04T08:13:56Z</time>
      </trkpt>
      <trkpt lat="47.51519" lon="-0.34049">
        <ele>114</ele>
        <time>2011-09-04T08:13:57Z</time>
      </trkpt>
      <trkpt lat="47.51525" lon="-0.34054">
        <ele>114</ele>
        <time>2011-09-04T08:13:59Z</time>
      </trkpt>
      <trkpt lat="47.51529" lon="-0.34058">
        <ele>114</ele>
        <time>2011-09-04T08:14:00Z</time>
      </trkpt>
      <trkpt lat="47.51536" lon="-0.34064">
        <ele>114</ele>
        <time>2011-09-04T08:14:02Z</time>
      </trkpt>
      <trkpt lat="47.51543" lon="-0.34073">
        <ele>115</ele>
        <time>2011-09-04T08:14:04Z</time>
      </trkpt>
      <trkpt lat="47.51547" lon="-0.34079">
        <ele>115</ele>
        <time>2011-09-04T08:14:05Z</time>
      </trkpt>
      <trkpt lat="47.51552" lon="-0.34084">
        <ele>115</ele>
        <time>2011-09-04T08:14:06Z</time>
      </trkpt>
      <trkpt lat="47.51555" lon="-0.3409">
        <ele>115</ele>
        <time>2011-09-04T08:14:07Z</time>
      </trkpt>
      <trkpt lat="47.51559" lon="-0.34096">
        <ele>114</ele>
        <time>2011-09-04T08:14:08Z</time>
      </trkpt>
      <trkpt lat="47.51563" lon="-0.34102">
        <ele>115</ele>
        <time>2011-09-04T08:14:09Z</time>
      </trkpt>
      <trkpt lat="47.51569" lon="-0.34105">
        <ele>115</ele>
        <time>2011-09-04T08:14:10Z</time>
      </trkpt>
      <trkpt lat="47.51574" lon="-0.3411">
        <ele>115</ele>
        <time>2011-09-04T08:14:11Z</time>
      </trkpt>
      <trkpt lat="47.51578" lon="-0.34113">
        <ele>115</ele>
        <time>2011-09-04T08:14:12Z</time>
      </trkpt>
      <trkpt lat="47.51583" lon="-0.34116">
        <ele>114</ele>
        <time>2011-09-04T08:14:13Z</time>
      </trkpt>
      <trkpt lat="47.51588" lon="-0.34118">
        <ele>115</ele>
        <time>2011-09-04T08:14:14Z</time>
      </trkpt>
      <trkpt lat="47.51593" lon="-0.34121">
        <ele>115</ele>
        <time>2011-09-04T08:14:15Z</time>
      </trkpt>
      <trkpt lat="47.51598" lon="-0.34122">
        <ele>115</ele>
        <time>2011-09-04T08:14:16Z</time>
      </trkpt>
      <trkpt lat="47.51603" lon="-0.34126">
        <ele>115</ele>
        <time>2011-09-04T08:14:17Z</time>
      </trkpt>
      <trkpt lat="47.51609" lon="-0.34126">
        <ele>114</ele>
        <time>2011-09-04T08:14:18Z</time>
      </trkpt>
      <trkpt lat="47.51615" lon="-0.3413">
        <ele>113</ele>
        <time>2011-09-04T08:14:19Z</time>
      </trkpt>
      <trkpt lat="47.51622" lon="-0.3413">
        <ele>112</ele>
        <time>2011-09-04T08:14:20Z</time>
      </trkpt>
      <trkpt lat="47.51627" lon="-0.34132">
        <ele>111</ele>
        <time>2011-09-04T08:14:21Z</time>
      </trkpt>
      <trkpt lat="47.51632" lon="-0.34133">
        <ele>112</ele>
        <time>2011-09-04T08:14:22Z</time>
      </trkpt>
      <trkpt lat="47.51636" lon="-0.34137">
        <ele>111</ele>
        <time>2011-09-04T08:14:23Z</time>
      </trkpt>
      <trkpt lat="47.51641" lon="-0.34138">
        <ele>111</ele>
        <time>2011-09-04T08:14:24Z</time>
      </trkpt>
      <trkpt lat="47.51646" lon="-0.34141">
        <ele>111</ele>
        <time>2011-09-04T08:14:25Z</time>
      </trkpt>
      <trkpt lat="47.5165" lon="-0.34144">
        <ele>111</ele>
        <time>2011-09-04T08:14:26Z</time>
      </trkpt>
      <trkpt lat="47.5166" lon="-0.34148">
        <ele>112</ele>
        <time>2011-09-04T08:14:28Z</time>
      </trkpt>
      <trkpt lat="47.51665" lon="-0.3415">
        <ele>112</ele>
        <time>2011-09-04T08:14:29Z</time>
      </trkpt>
      <trkpt lat="47.51669" lon="-0.34151">
        <ele>112</ele>
        <time>2011-09-04T08:14:30Z</time>
      </trkpt>
      <trkpt lat="47.51674" lon="-0.34155">
        <ele>112</ele>
        <time>2011-09-04T08:14:31Z</time>
      </trkpt>
      <trkpt lat="47.51679" lon="-0.34157">
        <ele>112</ele>
        <time>2011-09-04T08:14:32Z</time>
      </trkpt>
      <trkpt lat="47.51683" lon="-0.34159">
        <ele>112</ele>
        <time>2011-09-04T08:14:33Z</time>
      </trkpt>
      <trkpt lat="47.51692" lon="-0.34162">
        <ele>112</ele>
        <time>2011-09-04T08:14:35Z</time>
      </trkpt>
      <trkpt lat="47.51697" lon="-0.34164">
        <ele>112</ele>
        <time>2011-09-04T08:14:36Z</time>
      </trkpt>
      <trkpt lat="47.51703" lon="-0.34165">
        <ele>111</ele>
        <time>2011-09-04T08:14:37Z</time>
      </trkpt>
      <trkpt lat="47.51708" lon="-0.34167">
        <ele>112</ele>
        <time>2011-09-04T08:14:38Z</time>
      </trkpt>
      <trkpt lat="47.51713" lon="-0.3417">
        <ele>112</ele>
        <time>2011-09-04T08:14:39Z</time>
      </trkpt>
      <trkpt lat="47.5172" lon="-0.34176">
        <ele>112</ele>
        <time>2011-09-04T08:14:41Z</time>
      </trkpt>
      <trkpt lat="47.51727" lon="-0.34182">
        <ele>112</ele>
        <time>2011-09-04T08:14:43Z</time>
      </trkpt>
      <trkpt lat="47.5173" lon="-0.34187">
        <ele>113</ele>
        <time>2011-09-04T08:14:44Z</time>
      </trkpt>
      <trkpt lat="47.51733" lon="-0.34193">
        <ele>113</ele>
        <time>2011-09-04T08:14:45Z</time>
      </trkpt>
      <trkpt lat="47.51738" lon="-0.342">
        <ele>113</ele>
        <time>2011-09-04T08:14:46Z</time>
      </trkpt>
      <trkpt lat="47.5174" lon="-0.34206">
        <ele>113</ele>
        <time>2011-09-04T08:14:47Z</time>
      </trkpt>
      <trkpt lat="47.51743" lon="-0.34212">
        <ele>114</ele>
        <time>2011-09-04T08:14:48Z</time>
      </trkpt>
      <trkpt lat="47.51747" lon="-0.34225">
        <ele>114</ele>
        <time>2011-09-04T08:14:50Z</time>
      </trkpt>
      <trkpt lat="47.51749" lon="-0.34232">
        <ele>114</ele>
        <time>2011-09-04T08:14:51Z</time>
      </trkpt>
      <trkpt lat="47.51752" lon="-0.34238">
        <ele>114</ele>
        <time>2011-09-04T08:14:52Z</time>
      </trkpt>
      <trkpt lat="47.51755" lon="-0.34244">
        <ele>115</ele>
        <time>2011-09-04T08:14:53Z</time>
      </trkpt>
      <trkpt lat="47.51757" lon="-0.34258">
        <ele>115</ele>
        <time>2011-09-04T08:14:55Z</time>
      </trkpt>
      <trkpt lat="47.51759" lon="-0.34264">
        <ele>115</ele>
        <time>2011-09-04T08:14:56Z</time>
      </trkpt>
      <trkpt lat="47.51763" lon="-0.34273">
        <ele>114</ele>
        <time>2011-09-04T08:14:58Z</time>
      </trkpt>
      <trkpt lat="47.51766" lon="-0.34279">
        <ele>114</ele>
        <time>2011-09-04T08:14:59Z</time>
      </trkpt>
      <trkpt lat="47.51769" lon="-0.3429">
        <ele>115</ele>
        <time>2011-09-04T08:15:01Z</time>
      </trkpt>
      <trkpt lat="47.5177" lon="-0.34297">
        <ele>115</ele>
        <time>2011-09-04T08:15:02Z</time>
      </trkpt>
      <trkpt lat="47.51772" lon="-0.3431">
        <ele>117</ele>
        <time>2011-09-04T08:15:04Z</time>
      </trkpt>
      <trkpt lat="47.51774" lon="-0.34317">
        <ele>117</ele>
        <time>2011-09-04T08:15:05Z</time>
      </trkpt>
      <trkpt lat="47.51777" lon="-0.34326">
        <ele>118</ele>
        <time>2011-09-04T08:15:07Z</time>
      </trkpt>
      <trkpt lat="47.51779" lon="-0.34337">
        <ele>119</ele>
        <time>2011-09-04T08:15:09Z</time>
      </trkpt>
      <trkpt lat="47.51781" lon="-0.34344">
        <ele>120</ele>
        <time>2011-09-04T08:15:10Z</time>
      </trkpt>
      <trkpt lat="47.51784" lon="-0.34356">
        <ele>122</ele>
        <time>2011-09-04T08:15:12Z</time>
      </trkpt>
      <trkpt lat="47.51787" lon="-0.34368">
        <ele>124</ele>
        <time>2011-09-04T08:15:14Z</time>
      </trkpt>
      <trkpt lat="47.51789" lon="-0.34377">
        <ele>124</ele>
        <time>2011-09-04T08:15:16Z</time>
      </trkpt>
      <trkpt lat="47.5179" lon="-0.34384">
        <ele>124</ele>
        <time>2011-09-04T08:15:17Z</time>
      </trkpt>
      <trkpt lat="47.51791" lon="-0.34391">
        <ele>124</ele>
        <time>2011-09-04T08:15:18Z</time>
      </trkpt>
      <trkpt lat="47.51793" lon="-0.344">
        <ele>123</ele>
        <time>2011-09-04T08:15:20Z</time>
      </trkpt>
      <trkpt lat="47.51796" lon="-0.34409">
        <ele>124</ele>
        <time>2011-09-04T08:15:22Z</time>
      </trkpt>
      <trkpt lat="47.51799" lon="-0.34419">
        <ele>124</ele>
        <time>2011-09-04T08:15:24Z</time>
      </trkpt>
      <trkpt lat="47.51801" lon="-0.34429">
        <ele>124</ele>
        <time>2011-09-04T08:15:26Z</time>
      </trkpt>
      <trkpt lat="47.51805" lon="-0.34437">
        <ele>126</ele>
        <time>2011-09-04T08:15:28Z</time>
      </trkpt>
      <trkpt lat="47.51808" lon="-0.34448">
        <ele>127</ele>
        <time>2011-09-04T08:15:30Z</time>
      </trkpt>
      <trkpt lat="47.5181" lon="-0.34457">
        <ele>127</ele>
        <time>2011-09-04T08:15:31Z</time>
      </trkpt>
      <trkpt lat="47.51812" lon="-0.34468">
        <ele>127</ele>
        <time>2011-09-04T08:15:33Z</time>
      </trkpt>
      <trkpt lat="47.51813" lon="-0.34476">
        <ele>127</ele>
        <time>2011-09-04T08:15:34Z</time>
      </trkpt>
      <trkpt lat="47.51814" lon="-0.34485">
        <ele>128</ele>
        <time>2011-09-04T08:15:35Z</time>
      </trkpt>
      <trkpt lat="47.51816" lon="-0.34491">
        <ele>129</ele>
        <time>2011-09-04T08:15:36Z</time>
      </trkpt>
      <trkpt lat="47.51818" lon="-0.34497">
        <ele>130</ele>
        <time>2011-09-04T08:15:37Z</time>
      </trkpt>
      <trkpt lat="47.51819" lon="-0.34504">
        <ele>130</ele>
        <time>2011-09-04T08:15:38Z</time>
      </trkpt>
      <trkpt lat="47.5182" lon="-0.34511">
        <ele>131</ele>
        <time>2011-09-04T08:15:39Z</time>
      </trkpt>
      <trkpt lat="47.51822" lon="-0.34518">
        <ele>131</ele>
        <time>2011-09-04T08:15:40Z</time>
      </trkpt>
      <trkpt lat="47.51824" lon="-0.34524">
        <ele>132</ele>
        <time>2011-09-04T08:15:41Z</time>
      </trkpt>
      <trkpt lat="47.51827" lon="-0.34532">
        <ele>132</ele>
        <time>2011-09-04T08:15:42Z</time>
      </trkpt>
      <trkpt lat="47.51829" lon="-0.34539">
        <ele>131</ele>
        <time>2011-09-04T08:15:43Z</time>
      </trkpt>
      <trkpt lat="47.5183" lon="-0.34546">
        <ele>131</ele>
        <time>2011-09-04T08:15:44Z</time>
      </trkpt>
      <trkpt lat="47.51833" lon="-0.34552">
        <ele>130</ele>
        <time>2011-09-04T08:15:45Z</time>
      </trkpt>
      <trkpt lat="47.51838" lon="-0.34561">
        <ele>127</ele>
        <time>2011-09-04T08:15:47Z</time>
      </trkpt>
      <trkpt lat="47.51843" lon="-0.34572">
        <ele>127</ele>
        <time>2011-09-04T08:15:49Z</time>
      </trkpt>
      <trkpt lat="47.51848" lon="-0.34582">
        <ele>125</ele>
        <time>2011-09-04T08:15:51Z</time>
      </trkpt>
      <trkpt lat="47.51852" lon="-0.34593">
        <ele>123</ele>
        <time>2011-09-04T08:15:53Z</time>
      </trkpt>
      <trkpt lat="47.51855" lon="-0.346">
        <ele>122</ele>
        <time>2011-09-04T08:15:54Z</time>
      </trkpt>
      <trkpt lat="47.51859" lon="-0.3461">
        <ele>118</ele>
        <time>2011-09-04T08:15:56Z</time>
      </trkpt>
      <trkpt lat="47.51864" lon="-0.34619">
        <ele>117</ele>
        <time>2011-09-04T08:15:58Z</time>
      </trkpt>
      <trkpt lat="47.51868" lon="-0.34627">
        <ele>115</ele>
        <time>2011-09-04T08:16:00Z</time>
      </trkpt>
      <trkpt lat="47.51872" lon="-0.34634">
        <ele>115</ele>
        <time>2011-09-04T08:16:02Z</time>
      </trkpt>
      <trkpt lat="47.51876" lon="-0.34641">
        <ele>114</ele>
        <time>2011-09-04T08:16:04Z</time>
      </trkpt>
      <trkpt lat="47.51876" lon="-0.34651">
        <ele>114</ele>
        <time>2011-09-04T08:16:07Z</time>
      </trkpt>
      <trkpt lat="47.51876" lon="-0.34658">
        <ele>114</ele>
        <time>2011-09-04T08:16:09Z</time>
      </trkpt>
      <trkpt lat="47.51869" lon="-0.34661">
        <ele>115</ele>
        <time>2011-09-04T08:16:12Z</time>
      </trkpt>
      <trkpt lat="47.51861" lon="-0.34666">
        <ele>117</ele>
        <time>2011-09-04T08:16:14Z</time>
      </trkpt>
      <trkpt lat="47.51856" lon="-0.34669">
        <ele>117</ele>
        <time>2011-09-04T08:16:15Z</time>
      </trkpt>
      <trkpt lat="47.51852" lon="-0.34673">
        <ele>117</ele>
        <time>2011-09-04T08:16:16Z</time>
      </trkpt>
      <trkpt lat="47.51848" lon="-0.34678">
        <ele>117</ele>
        <time>2011-09-04T08:16:17Z</time>
      </trkpt>
      <trkpt lat="47.51843" lon="-0.34682">
        <ele>117</ele>
        <time>2011-09-04T08:16:18Z</time>
      </trkpt>
      <trkpt lat="47.51839" lon="-0.34686">
        <ele>117</ele>
        <time>2011-09-04T08:16:19Z</time>
      </trkpt>
      <trkpt lat="47.51835" lon="-0.34692">
        <ele>117</ele>
        <time>2011-09-04T08:16:20Z</time>
      </trkpt>
      <trkpt lat="47.51831" lon="-0.34695">
        <ele>117</ele>
        <time>2011-09-04T08:16:21Z</time>
      </trkpt>
      <trkpt lat="47.51827" lon="-0.34701">
        <ele>117</ele>
        <time>2011-09-04T08:16:22Z</time>
      </trkpt>
      <trkpt lat="47.51823" lon="-0.34706">
        <ele>117</ele>
        <time>2011-09-04T08:16:23Z</time>
      </trkpt>
      <trkpt lat="47.51819" lon="-0.34713">
        <ele>117</ele>
        <time>2011-09-04T08:16:24Z</time>
      </trkpt>
      <trkpt lat="47.51815" lon="-0.34717">
        <ele>117</ele>
        <time>2011-09-04T08:16:25Z</time>
      </trkpt>
      <trkpt lat="47.51812" lon="-0.34723">
        <ele>117</ele>
        <time>2011-09-04T08:16:26Z</time>
      </trkpt>
      <trkpt lat="47.51807" lon="-0.34729">
        <ele>116</ele>
        <time>2011-09-04T08:16:27Z</time>
      </trkpt>
      <trkpt lat="47.51804" lon="-0.34735">
        <ele>116</ele>
        <time>2011-09-04T08:16:28Z</time>
      </trkpt>
      <trkpt lat="47.51799" lon="-0.34741">
        <ele>116</ele>
        <time>2011-09-04T08:16:29Z</time>
      </trkpt>
      <trkpt lat="47.51797" lon="-0.34749">
        <ele>116</ele>
        <time>2011-09-04T08:16:30Z</time>
      </trkpt>
      <trkpt lat="47.51794" lon="-0.34757">
        <ele>115</ele>
        <time>2011-09-04T08:16:31Z</time>
      </trkpt>
      <trkpt lat="47.51789" lon="-0.34762">
        <ele>115</ele>
        <time>2011-09-04T08:16:32Z</time>
      </trkpt>
      <trkpt lat="47.51785" lon="-0.34769">
        <ele>115</ele>
        <time>2011-09-04T08:16:33Z</time>
      </trkpt>
      <trkpt lat="47.51782" lon="-0.34775">
        <ele>115</ele>
        <time>2011-09-04T08:16:34Z</time>
      </trkpt>
      <trkpt lat="47.51777" lon="-0.3478">
        <ele>115</ele>
        <time>2011-09-04T08:16:35Z</time>
      </trkpt>
      <trkpt lat="47.51774" lon="-0.34787">
        <ele>115</ele>
        <time>2011-09-04T08:16:36Z</time>
      </trkpt>
      <trkpt lat="47.5177" lon="-0.34795">
        <ele>115</ele>
        <time>2011-09-04T08:16:37Z</time>
      </trkpt>
      <trkpt lat="47.51767" lon="-0.34802">
        <ele>115</ele>
        <time>2011-09-04T08:16:38Z</time>
      </trkpt>
      <trkpt lat="47.51762" lon="-0.34807">
        <ele>116</ele>
        <time>2011-09-04T08:16:39Z</time>
      </trkpt>
      <trkpt lat="47.51758" lon="-0.34812">
        <ele>115</ele>
        <time>2011-09-04T08:16:40Z</time>
      </trkpt>
      <trkpt lat="47.51754" lon="-0.34819">
        <ele>115</ele>
        <time>2011-09-04T08:16:41Z</time>
      </trkpt>
      <trkpt lat="47.51749" lon="-0.34825">
        <ele>115</ele>
        <time>2011-09-04T08:16:42Z</time>
      </trkpt>
      <trkpt lat="47.51745" lon="-0.34831">
        <ele>116</ele>
        <time>2011-09-04T08:16:43Z</time>
      </trkpt>
      <trkpt lat="47.51741" lon="-0.34836">
        <ele>116</ele>
        <time>2011-09-04T08:16:44Z</time>
      </trkpt>
      <trkpt lat="47.51736" lon="-0.3484">
        <ele>117</ele>
        <time>2011-09-04T08:16:45Z</time>
      </trkpt>
      <trkpt lat="47.51729" lon="-0.34848">
        <ele>119</ele>
        <time>2011-09-04T08:16:47Z</time>
      </trkpt>
      <trkpt lat="47.51724" lon="-0.34851">
        <ele>119</ele>
        <time>2011-09-04T08:16:48Z</time>
      </trkpt>
      <trkpt lat="47.5172" lon="-0.34858">
        <ele>119</ele>
        <time>2011-09-04T08:16:49Z</time>
      </trkpt>
      <trkpt lat="47.51717" lon="-0.34866">
        <ele>119</ele>
        <time>2011-09-04T08:16:50Z</time>
      </trkpt>
      <trkpt lat="47.51712" lon="-0.34874">
        <ele>119</ele>
        <time>2011-09-04T08:16:51Z</time>
      </trkpt>
      <trkpt lat="47.51709" lon="-0.34879">
        <ele>119</ele>
        <time>2011-09-04T08:16:52Z</time>
      </trkpt>
      <trkpt lat="47.51705" lon="-0.34884">
        <ele>119</ele>
        <time>2011-09-04T08:16:53Z</time>
      </trkpt>
      <trkpt lat="47.51701" lon="-0.3489">
        <ele>120</ele>
        <time>2011-09-04T08:16:54Z</time>
      </trkpt>
      <trkpt lat="47.51697" lon="-0.34896">
        <ele>120</ele>
        <time>2011-09-04T08:16:55Z</time>
      </trkpt>
      <trkpt lat="47.51692" lon="-0.34901">
        <ele>120</ele>
        <time>2011-09-04T08:16:56Z</time>
      </trkpt>
      <trkpt lat="47.51689" lon="-0.34907">
        <ele>120</ele>
        <time>2011-09-04T08:16:57Z</time>
      </trkpt>
      <trkpt lat="47.51686" lon="-0.34915">
        <ele>120</ele>
        <time>2011-09-04T08:16:58Z</time>
      </trkpt>
      <trkpt lat="47.51682" lon="-0.34921">
        <ele>121</ele>
        <time>2011-09-04T08:16:59Z</time>
      </trkpt>
      <trkpt lat="47.51678" lon="-0.34928">
        <ele>120</ele>
        <time>2011-09-04T08:17:00Z</time>
      </trkpt>
      <trkpt lat="47.51675" lon="-0.34933">
        <ele>120</ele>
        <time>2011-09-04T08:17:01Z</time>
      </trkpt>
      <trkpt lat="47.51672" lon="-0.34938">
        <ele>120</ele>
        <time>2011-09-04T08:17:02Z</time>
      </trkpt>
      <trkpt lat="47.51668" lon="-0.34944">
        <ele>120</ele>
        <time>2011-09-04T08:17:03Z</time>
      </trkpt>
      <trkpt lat="47.51664" lon="-0.34949">
        <ele>120</ele>
        <time>2011-09-04T08:17:04Z</time>
      </trkpt>
      <trkpt lat="47.5166" lon="-0.34952">
        <ele>120</ele>
        <time>2011-09-04T08:17:05Z</time>
      </trkpt>
      <trkpt lat="47.51656" lon="-0.34957">
        <ele>121</ele>
        <time>2011-09-04T08:17:06Z</time>
      </trkpt>
      <trkpt lat="47.51653" lon="-0.34962">
        <ele>120</ele>
        <time>2011-09-04T08:17:07Z</time>
      </trkpt>
      <trkpt lat="47.51651" lon="-0.34971">
        <ele>120</ele>
        <time>2011-09-04T08:17:09Z</time>
      </trkpt>
      <trkpt lat="47.51652" lon="-0.3498">
        <ele>121</ele>
        <time>2011-09-04T08:17:12Z</time>
      </trkpt>
      <trkpt lat="47.51654" lon="-0.34988">
        <ele>123</ele>
        <time>2011-09-04T08:17:14Z</time>
      </trkpt>
      <trkpt lat="47.51657" lon="-0.34995">
        <ele>125</ele>
        <time>2011-09-04T08:17:16Z</time>
      </trkpt>
      <trkpt lat="47.5166" lon="-0.35001">
        <ele>125</ele>
        <time>2011-09-04T08:17:18Z</time>
      </trkpt>
      <trkpt lat="47.51664" lon="-0.35009">
        <ele>125</ele>
        <time>2011-09-04T08:17:20Z</time>
      </trkpt>
      <trkpt lat="47.51667" lon="-0.35015">
        <ele>124</ele>
        <time>2011-09-04T08:17:21Z</time>
      </trkpt>
      <trkpt lat="47.5167" lon="-0.3502">
        <ele>123</ele>
        <time>2011-09-04T08:17:22Z</time>
      </trkpt>
      <trkpt lat="47.51673" lon="-0.35025">
        <ele>123</ele>
        <time>2011-09-04T08:17:24Z</time>
      </trkpt>
      <trkpt lat="47.51678" lon="-0.35034">
        <ele>122</ele>
        <time>2011-09-04T08:17:27Z</time>
      </trkpt>
      <trkpt lat="47.51682" lon="-0.35043">
        <ele>123</ele>
        <time>2011-09-04T08:17:29Z</time>
      </trkpt>
      <trkpt lat="47.51686" lon="-0.3505">
        <ele>124</ele>
        <time>2011-09-04T08:17:31Z</time>
      </trkpt>
      <trkpt lat="47.51689" lon="-0.35058">
        <ele>125</ele>
        <time>2011-09-04T08:17:33Z</time>
      </trkpt>
      <trkpt lat="47.51689" lon="-0.35065">
        <ele>125</ele>
        <time>2011-09-04T08:17:37Z</time>
      </trkpt>
      <trkpt lat="47.51688" lon="-0.35074">
        <ele>122</ele>
        <time>2011-09-04T08:17:54Z</time>
      </trkpt>
      <trkpt lat="47.51684" lon="-0.35082">
        <ele>121</ele>
        <time>2011-09-04T08:17:57Z</time>
      </trkpt>
      <trkpt lat="47.5168" lon="-0.35088">
        <ele>122</ele>
        <time>2011-09-04T08:17:59Z</time>
      </trkpt>
      <trkpt lat="47.51675" lon="-0.35091">
        <ele>122</ele>
        <time>2011-09-04T08:18:01Z</time>
      </trkpt>
      <trkpt lat="47.5167" lon="-0.35099">
        <ele>122</ele>
        <time>2011-09-04T08:18:03Z</time>
      </trkpt>
      <trkpt lat="47.51666" lon="-0.35104">
        <ele>122</ele>
        <time>2011-09-04T08:18:05Z</time>
      </trkpt>
      <trkpt lat="47.51663" lon="-0.35113">
        <ele>121</ele>
        <time>2011-09-04T08:18:07Z</time>
      </trkpt>
      <trkpt lat="47.5166" lon="-0.35119">
        <ele>121</ele>
        <time>2011-09-04T08:18:09Z</time>
      </trkpt>
      <trkpt lat="47.51656" lon="-0.35124">
        <ele>120</ele>
        <time>2011-09-04T08:18:11Z</time>
      </trkpt>
      <trkpt lat="47.51652" lon="-0.3513">
        <ele>118</ele>
        <time>2011-09-04T08:18:13Z</time>
      </trkpt>
      <trkpt lat="47.51647" lon="-0.35136">
        <ele>119</ele>
        <time>2011-09-04T08:18:16Z</time>
      </trkpt>
      <trkpt lat="47.51643" lon="-0.35141">
        <ele>120</ele>
        <time>2011-09-04T08:18:18Z</time>
      </trkpt>
      <trkpt lat="47.5164" lon="-0.35148">
        <ele>121</ele>
        <time>2011-09-04T08:18:21Z</time>
      </trkpt>
      <trkpt lat="47.51638" lon="-0.35156">
        <ele>122</ele>
        <time>2011-09-04T08:18:23Z</time>
      </trkpt>
      <trkpt lat="47.51634" lon="-0.35163">
        <ele>123</ele>
        <time>2011-09-04T08:18:26Z</time>
      </trkpt>
      <trkpt lat="47.51631" lon="-0.35168">
        <ele>123</ele>
        <time>2011-09-04T08:18:28Z</time>
      </trkpt>
      <trkpt lat="47.51628" lon="-0.35176">
        <ele>124</ele>
        <time>2011-09-04T08:18:30Z</time>
      </trkpt>
      <trkpt lat="47.51626" lon="-0.35184">
        <ele>126</ele>
        <time>2011-09-04T08:18:32Z</time>
      </trkpt>
      <trkpt lat="47.51624" lon="-0.35193">
        <ele>127</ele>
        <time>2011-09-04T08:18:35Z</time>
      </trkpt>
      <trkpt lat="47.51623" lon="-0.35202">
        <ele>127</ele>
        <time>2011-09-04T08:18:37Z</time>
      </trkpt>
      <trkpt lat="47.51623" lon="-0.35212">
        <ele>127</ele>
        <time>2011-09-04T08:18:40Z</time>
      </trkpt>
      <trkpt lat="47.51621" lon="-0.35218">
        <ele>127</ele>
        <time>2011-09-04T08:18:42Z</time>
      </trkpt>
      <trkpt lat="47.51621" lon="-0.35229">
        <ele>127</ele>
        <time>2011-09-04T08:18:45Z</time>
      </trkpt>
      <trkpt lat="47.51619" lon="-0.35237">
        <ele>128</ele>
        <time>2011-09-04T08:18:47Z</time>
      </trkpt>
      <trkpt lat="47.51617" lon="-0.35244">
        <ele>129</ele>
        <time>2011-09-04T08:18:49Z</time>
      </trkpt>
      <trkpt lat="47.51615" lon="-0.35251">
        <ele>131</ele>
        <time>2011-09-04T08:18:51Z</time>
      </trkpt>
      <trkpt lat="47.5161" lon="-0.35259">
        <ele>133</ele>
        <time>2011-09-04T08:18:53Z</time>
      </trkpt>
      <trkpt lat="47.51608" lon="-0.3527">
        <ele>132</ele>
        <time>2011-09-04T08:18:55Z</time>
      </trkpt>
      <trkpt lat="47.51607" lon="-0.35281">
        <ele>131</ele>
        <time>2011-09-04T08:18:57Z</time>
      </trkpt>
      <trkpt lat="47.51603" lon="-0.35287">
        <ele>130</ele>
        <time>2011-09-04T08:19:00Z</time>
      </trkpt>
      <trkpt lat="47.516" lon="-0.35292">
        <ele>129</ele>
        <time>2011-09-04T08:19:04Z</time>
      </trkpt>
      <trkpt lat="47.51604" lon="-0.35298">
        <ele>129</ele>
        <time>2011-09-04T08:19:13Z</time>
      </trkpt>
      <trkpt lat="47.51602" lon="-0.35305">
        <ele>124</ele>
        <time>2011-09-04T08:19:25Z</time>
      </trkpt>
      <trkpt lat="47.51598" lon="-0.35307">
        <ele>123</ele>
        <time>2011-09-04T08:19:28Z</time>
      </trkpt>
      <trkpt lat="47.51593" lon="-0.35314">
        <ele>123</ele>
        <time>2011-09-04T08:19:31Z</time>
      </trkpt>
      <trkpt lat="47.51588" lon="-0.35319">
        <ele>124</ele>
        <time>2011-09-04T08:19:33Z</time>
      </trkpt>
      <trkpt lat="47.51584" lon="-0.35324">
        <ele>124</ele>
        <time>2011-09-04T08:19:35Z</time>
      </trkpt>
      <trkpt lat="47.5158" lon="-0.3533">
        <ele>124</ele>
        <time>2011-09-04T08:19:37Z</time>
      </trkpt>
      <trkpt lat="47.51576" lon="-0.35333">
        <ele>126</ele>
        <time>2011-09-04T08:19:39Z</time>
      </trkpt>
      <trkpt lat="47.51572" lon="-0.35339">
        <ele>126</ele>
        <time>2011-09-04T08:19:41Z</time>
      </trkpt>
      <trkpt lat="47.51568" lon="-0.35344">
        <ele>125</ele>
        <time>2011-09-04T08:19:43Z</time>
      </trkpt>
      <trkpt lat="47.51563" lon="-0.35351">
        <ele>124</ele>
        <time>2011-09-04T08:19:45Z</time>
      </trkpt>
      <trkpt lat="47.51559" lon="-0.35358">
        <ele>123</ele>
        <time>2011-09-04T08:19:47Z</time>
      </trkpt>
      <trkpt lat="47.51554" lon="-0.35365">
        <ele>122</ele>
        <time>2011-09-04T08:19:49Z</time>
      </trkpt>
      <trkpt lat="47.5155" lon="-0.35372">
        <ele>122</ele>
        <time>2011-09-04T08:19:51Z</time>
      </trkpt>
      <trkpt lat="47.51547" lon="-0.35379">
        <ele>123</ele>
        <time>2011-09-04T08:19:53Z</time>
      </trkpt>
      <trkpt lat="47.51542" lon="-0.3539">
        <ele>125</ele>
        <time>2011-09-04T08:19:56Z</time>
      </trkpt>
      <trkpt lat="47.51538" lon="-0.35396">
        <ele>125</ele>
        <time>2011-09-04T08:19:58Z</time>
      </trkpt>
      <trkpt lat="47.51533" lon="-0.35401">
        <ele>125</ele>
        <time>2011-09-04T08:20:00Z</time>
      </trkpt>
      <trkpt lat="47.5153" lon="-0.35405">
        <ele>125</ele>
        <time>2011-09-04T08:20:01Z</time>
      </trkpt>
      <trkpt lat="47.51524" lon="-0.35407">
        <ele>124</ele>
        <time>2011-09-04T08:20:03Z</time>
      </trkpt>
      <trkpt lat="47.51521" lon="-0.35415">
        <ele>122</ele>
        <time>2011-09-04T08:20:06Z</time>
      </trkpt>
      <trkpt lat="47.51518" lon="-0.3542">
        <ele>120</ele>
        <time>2011-09-04T08:20:11Z</time>
      </trkpt>
      <trkpt lat="47.5152" lon="-0.35427">
        <ele>118</ele>
        <time>2011-09-04T08:20:34Z</time>
      </trkpt>
      <trkpt lat="47.5152" lon="-0.35427">
        <ele>118</ele>
        <time>2011-09-04T08:20:34Z</time>
      </trkpt>
      <trkpt lat="47.5152" lon="-0.35427">
        <ele>118</ele>
        <time>2011-09-04T08:20:35Z</time>
      </trkpt>
      <trkpt lat="47.51516" lon="-0.3543">
        <ele>118</ele>
        <time>2011-09-04T08:20:54Z</time>
      </trkpt>
      <trkpt lat="47.51511" lon="-0.35433">
        <ele>119</ele>
        <time>2011-09-04T08:20:57Z</time>
      </trkpt>
      <trkpt lat="47.51506" lon="-0.35438">
        <ele>119</ele>
        <time>2011-09-04T08:21:00Z</time>
      </trkpt>
      <trkpt lat="47.51502" lon="-0.35445">
        <ele>121</ele>
        <time>2011-09-04T08:21:03Z</time>
      </trkpt>
      <trkpt lat="47.51496" lon="-0.35449">
        <ele>122</ele>
        <time>2011-09-04T08:21:06Z</time>
      </trkpt>
      <trkpt lat="47.51491" lon="-0.35457">
        <ele>120</ele>
        <time>2011-09-04T08:21:09Z</time>
      </trkpt>
      <trkpt lat="47.51486" lon="-0.35462">
        <ele>122</ele>
        <time>2011-09-04T08:21:11Z</time>
      </trkpt>
      <trkpt lat="47.5148" lon="-0.3547">
        <ele>122</ele>
        <time>2011-09-04T08:21:13Z</time>
      </trkpt>
      <trkpt lat="47.51475" lon="-0.35475">
        <ele>121</ele>
        <time>2011-09-04T08:21:15Z</time>
      </trkpt>
      <trkpt lat="47.5147" lon="-0.35483">
        <ele>122</ele>
        <time>2011-09-04T08:21:17Z</time>
      </trkpt>
      <trkpt lat="47.51466" lon="-0.35489">
        <ele>122</ele>
        <time>2011-09-04T08:21:19Z</time>
      </trkpt>
      <trkpt lat="47.51462" lon="-0.35494">
        <ele>122</ele>
        <time>2011-09-04T08:21:21Z</time>
      </trkpt>
      <trkpt lat="47.51459" lon="-0.35499">
        <ele>123</ele>
        <time>2011-09-04T08:21:23Z</time>
      </trkpt>
      <trkpt lat="47.51454" lon="-0.35505">
        <ele>123</ele>
        <time>2011-09-04T08:21:25Z</time>
      </trkpt>
      <trkpt lat="47.5145" lon="-0.35511">
        <ele>123</ele>
        <time>2011-09-04T08:21:27Z</time>
      </trkpt>
      <trkpt lat="47.51446" lon="-0.35518">
        <ele>123</ele>
        <time>2011-09-04T08:21:29Z</time>
      </trkpt>
      <trkpt lat="47.51441" lon="-0.35524">
        <ele>122</ele>
        <time>2011-09-04T08:21:31Z</time>
      </trkpt>
      <trkpt lat="47.51438" lon="-0.35531">
        <ele>121</ele>
        <time>2011-09-04T08:21:33Z</time>
      </trkpt>
      <trkpt lat="47.51437" lon="-0.3554">
        <ele>120</ele>
        <time>2011-09-04T08:21:35Z</time>
      </trkpt>
      <trkpt lat="47.51436" lon="-0.35548">
        <ele>120</ele>
        <time>2011-09-04T08:21:38Z</time>
      </trkpt>
      <trkpt lat="47.51433" lon="-0.35555">
        <ele>120</ele>
        <time>2011-09-04T08:21:40Z</time>
      </trkpt>
      <trkpt lat="47.5143" lon="-0.35562">
        <ele>120</ele>
        <time>2011-09-04T08:21:42Z</time>
      </trkpt>
      <trkpt lat="47.51426" lon="-0.35567">
        <ele>120</ele>
        <time>2011-09-04T08:21:44Z</time>
      </trkpt>
      <trkpt lat="47.51421" lon="-0.35572">
        <ele>119</ele>
        <time>2011-09-04T08:21:46Z</time>
      </trkpt>
      <trkpt lat="47.51416" lon="-0.35582">
        <ele>117</ele>
        <time>2011-09-04T08:21:48Z</time>
      </trkpt>
      <trkpt lat="47.5141" lon="-0.35586">
        <ele>117</ele>
        <time>2011-09-04T08:21:50Z</time>
      </trkpt>
      <trkpt lat="47.51406" lon="-0.35592">
        <ele>117</ele>
        <time>2011-09-04T08:21:52Z</time>
      </trkpt>
      <trkpt lat="47.51401" lon="-0.35599">
        <ele>116</ele>
        <time>2011-09-04T08:21:54Z</time>
      </trkpt>
      <trkpt lat="47.51396" lon="-0.35606">
        <ele>115</ele>
        <time>2011-09-04T08:21:56Z</time>
      </trkpt>
      <trkpt lat="47.51393" lon="-0.35615">
        <ele>115</ele>
        <time>2011-09-04T08:21:58Z</time>
      </trkpt>
      <trkpt lat="47.5139" lon="-0.35624">
        <ele>114</ele>
        <time>2011-09-04T08:22:00Z</time>
      </trkpt>
      <trkpt lat="47.51384" lon="-0.35629">
        <ele>114</ele>
        <time>2011-09-04T08:22:03Z</time>
      </trkpt>
      <trkpt lat="47.5138" lon="-0.35635">
        <ele>113</ele>
        <time>2011-09-04T08:22:05Z</time>
      </trkpt>
      <trkpt lat="47.51377" lon="-0.35641">
        <ele>114</ele>
        <time>2011-09-04T08:22:08Z</time>
      </trkpt>
      <trkpt lat="47.51372" lon="-0.35646">
        <ele>114</ele>
        <time>2011-09-04T08:22:10Z</time>
      </trkpt>
      <trkpt lat="47.51368" lon="-0.35652">
        <ele>116</ele>
        <time>2011-09-04T08:22:12Z</time>
      </trkpt>
      <trkpt lat="47.51365" lon="-0.35657">
        <ele>115</ele>
        <time>2011-09-04T08:22:14Z</time>
      </trkpt>
      <trkpt lat="47.51359" lon="-0.35664">
        <ele>116</ele>
        <time>2011-09-04T08:22:16Z</time>
      </trkpt>
      <trkpt lat="47.51354" lon="-0.35671">
        <ele>118</ele>
        <time>2011-09-04T08:22:18Z</time>
      </trkpt>
      <trkpt lat="47.51349" lon="-0.35677">
        <ele>118</ele>
        <time>2011-09-04T08:22:20Z</time>
      </trkpt>
      <trkpt lat="47.51346" lon="-0.35684">
        <ele>118</ele>
        <time>2011-09-04T08:22:22Z</time>
      </trkpt>
      <trkpt lat="47.51341" lon="-0.35692">
        <ele>118</ele>
        <time>2011-09-04T08:22:24Z</time>
      </trkpt>
      <trkpt lat="47.51334" lon="-0.35698">
        <ele>117</ele>
        <time>2011-09-04T08:22:26Z</time>
      </trkpt>
      <trkpt lat="47.5133" lon="-0.35703">
        <ele>116</ele>
        <time>2011-09-04T08:22:27Z</time>
      </trkpt>
      <trkpt lat="47.51324" lon="-0.3571">
        <ele>116</ele>
        <time>2011-09-04T08:22:29Z</time>
      </trkpt>
      <trkpt lat="47.51318" lon="-0.35717">
        <ele>116</ele>
        <time>2011-09-04T08:22:31Z</time>
      </trkpt>
      <trkpt lat="47.51314" lon="-0.35722">
        <ele>115</ele>
        <time>2011-09-04T08:22:32Z</time>
      </trkpt>
      <trkpt lat="47.51307" lon="-0.3573">
        <ele>116</ele>
        <time>2011-09-04T08:22:34Z</time>
      </trkpt>
      <trkpt lat="47.513" lon="-0.35735">
        <ele>116</ele>
        <time>2011-09-04T08:22:36Z</time>
      </trkpt>
      <trkpt lat="47.51293" lon="-0.35742">
        <ele>117</ele>
        <time>2011-09-04T08:22:38Z</time>
      </trkpt>
      <trkpt lat="47.51286" lon="-0.35748">
        <ele>116</ele>
        <time>2011-09-04T08:22:40Z</time>
      </trkpt>
      <trkpt lat="47.51282" lon="-0.35754">
        <ele>116</ele>
        <time>2011-09-04T08:22:41Z</time>
      </trkpt>
      <trkpt lat="47.51277" lon="-0.35759">
        <ele>115</ele>
        <time>2011-09-04T08:22:42Z</time>
      </trkpt>
      <trkpt lat="47.51274" lon="-0.35764">
        <ele>115</ele>
        <time>2011-09-04T08:22:43Z</time>
      </trkpt>
      <trkpt lat="47.5127" lon="-0.35771">
        <ele>115</ele>
        <time>2011-09-04T08:22:44Z</time>
      </trkpt>
      <trkpt lat="47.51267" lon="-0.35776">
        <ele>115</ele>
        <time>2011-09-04T08:22:45Z</time>
      </trkpt>
      <trkpt lat="47.51264" lon="-0.35782">
        <ele>115</ele>
        <time>2011-09-04T08:22:46Z</time>
      </trkpt>
      <trkpt lat="47.5126" lon="-0.35788">
        <ele>116</ele>
        <time>2011-09-04T08:22:47Z</time>
      </trkpt>
      <trkpt lat="47.51256" lon="-0.35795">
        <ele>116</ele>
        <time>2011-09-04T08:22:48Z</time>
      </trkpt>
      <trkpt lat="47.51253" lon="-0.35801">
        <ele>115</ele>
        <time>2011-09-04T08:22:49Z</time>
      </trkpt>
      <trkpt lat="47.51248" lon="-0.35805">
        <ele>114</ele>
        <time>2011-09-04T08:22:50Z</time>
      </trkpt>
      <trkpt lat="47.51245" lon="-0.35811">
        <ele>114</ele>
        <time>2011-09-04T08:22:51Z</time>
      </trkpt>
      <trkpt lat="47.5124" lon="-0.35821">
        <ele>115</ele>
        <time>2011-09-04T08:22:53Z</time>
      </trkpt>
      <trkpt lat="47.51233" lon="-0.35829">
        <ele>115</ele>
        <time>2011-09-04T08:22:55Z</time>
      </trkpt>
      <trkpt lat="47.51229" lon="-0.35835">
        <ele>115</ele>
        <time>2011-09-04T08:22:56Z</time>
      </trkpt>
      <trkpt lat="47.51224" lon="-0.35838">
        <ele>113</ele>
        <time>2011-09-04T08:22:57Z</time>
      </trkpt>
      <trkpt lat="47.51217" lon="-0.35846">
        <ele>112</ele>
        <time>2011-09-04T08:22:59Z</time>
      </trkpt>
      <trkpt lat="47.51215" lon="-0.35852">
        <ele>112</ele>
        <time>2011-09-04T08:23:00Z</time>
      </trkpt>
      <trkpt lat="47.5121" lon="-0.3586">
        <ele>112</ele>
        <time>2011-09-04T08:23:02Z</time>
      </trkpt>
      <trkpt lat="47.51206" lon="-0.35868">
        <ele>113</ele>
        <time>2011-09-04T08:23:04Z</time>
      </trkpt>
      <trkpt lat="47.51202" lon="-0.35872">
        <ele>112</ele>
        <time>2011-09-04T08:23:05Z</time>
      </trkpt>
      <trkpt lat="47.51197" lon="-0.35877">
        <ele>111</ele>
        <time>2011-09-04T08:23:06Z</time>
      </trkpt>
      <trkpt lat="47.51191" lon="-0.35883">
        <ele>109</ele>
        <time>2011-09-04T08:23:08Z</time>
      </trkpt>
      <trkpt lat="47.51185" lon="-0.3589">
        <ele>109</ele>
        <time>2011-09-04T08:23:10Z</time>
      </trkpt>
      <trkpt lat="47.5118" lon="-0.35899">
        <ele>108</ele>
        <time>2011-09-04T08:23:12Z</time>
      </trkpt>
      <trkpt lat="47.51174" lon="-0.35906">
        <ele>108</ele>
        <time>2011-09-04T08:23:14Z</time>
      </trkpt>
      <trkpt lat="47.51167" lon="-0.35913">
        <ele>108</ele>
        <time>2011-09-04T08:23:16Z</time>
      </trkpt>
      <trkpt lat="47.5116" lon="-0.35918">
        <ele>107</ele>
        <time>2011-09-04T08:23:18Z</time>
      </trkpt>
      <trkpt lat="47.51156" lon="-0.35927">
        <ele>106</ele>
        <time>2011-09-04T08:23:20Z</time>
      </trkpt>
      <trkpt lat="47.51149" lon="-0.35934">
        <ele>107</ele>
        <time>2011-09-04T08:23:22Z</time>
      </trkpt>
      <trkpt lat="47.51144" lon="-0.3594">
        <ele>107</ele>
        <time>2011-09-04T08:23:24Z</time>
      </trkpt>
      <trkpt lat="47.5114" lon="-0.35945">
        <ele>107</ele>
        <time>2011-09-04T08:23:26Z</time>
      </trkpt>
      <trkpt lat="47.51136" lon="-0.3595">
        <ele>107</ele>
        <time>2011-09-04T08:23:28Z</time>
      </trkpt>
      <trkpt lat="47.51132" lon="-0.35956">
        <ele>107</ele>
        <time>2011-09-04T08:23:30Z</time>
      </trkpt>
      <trkpt lat="47.51127" lon="-0.35962">
        <ele>107</ele>
        <time>2011-09-04T08:23:32Z</time>
      </trkpt>
      <trkpt lat="47.5112" lon="-0.35969">
        <ele>107</ele>
        <time>2011-09-04T08:23:34Z</time>
      </trkpt>
      <trkpt lat="47.51114" lon="-0.35976">
        <ele>108</ele>
        <time>2011-09-04T08:23:36Z</time>
      </trkpt>
      <trkpt lat="47.51109" lon="-0.35984">
        <ele>108</ele>
        <time>2011-09-04T08:23:38Z</time>
      </trkpt>
      <trkpt lat="47.51105" lon="-0.35993">
        <ele>108</ele>
        <time>2011-09-04T08:23:40Z</time>
      </trkpt>
      <trkpt lat="47.51101" lon="-0.36002">
        <ele>108</ele>
        <time>2011-09-04T08:23:42Z</time>
      </trkpt>
      <trkpt lat="47.51097" lon="-0.3601">
        <ele>107</ele>
        <time>2011-09-04T08:23:44Z</time>
      </trkpt>
      <trkpt lat="47.51093" lon="-0.36019">
        <ele>108</ele>
        <time>2011-09-04T08:23:46Z</time>
      </trkpt>
      <trkpt lat="47.5109" lon="-0.36027">
        <ele>108</ele>
        <time>2011-09-04T08:23:48Z</time>
      </trkpt>
      <trkpt lat="47.51085" lon="-0.36034">
        <ele>108</ele>
        <time>2011-09-04T08:23:50Z</time>
      </trkpt>
      <trkpt lat="47.5108" lon="-0.36041">
        <ele>108</ele>
        <time>2011-09-04T08:23:52Z</time>
      </trkpt>
      <trkpt lat="47.51075" lon="-0.36049">
        <ele>108</ele>
        <time>2011-09-04T08:23:54Z</time>
      </trkpt>
      <trkpt lat="47.5107" lon="-0.36055">
        <ele>108</ele>
        <time>2011-09-04T08:23:56Z</time>
      </trkpt>
      <trkpt lat="47.51065" lon="-0.36061">
        <ele>109</ele>
        <time>2011-09-04T08:23:58Z</time>
      </trkpt>
      <trkpt lat="47.51062" lon="-0.36066">
        <ele>110</ele>
        <time>2011-09-04T08:24:00Z</time>
      </trkpt>
      <trkpt lat="47.51057" lon="-0.3607">
        <ele>112</ele>
        <time>2011-09-04T08:24:02Z</time>
      </trkpt>
      <trkpt lat="47.51053" lon="-0.36074">
        <ele>113</ele>
        <time>2011-09-04T08:24:04Z</time>
      </trkpt>
      <trkpt lat="47.51048" lon="-0.36077">
        <ele>115</ele>
        <time>2011-09-04T08:24:06Z</time>
      </trkpt>
      <trkpt lat="47.51042" lon="-0.36081">
        <ele>115</ele>
        <time>2011-09-04T08:24:08Z</time>
      </trkpt>
      <trkpt lat="47.51035" lon="-0.36087">
        <ele>116</ele>
        <time>2011-09-04T08:24:10Z</time>
      </trkpt>
      <trkpt lat="47.5103" lon="-0.36092">
        <ele>117</ele>
        <time>2011-09-04T08:24:12Z</time>
      </trkpt>
      <trkpt lat="47.51025" lon="-0.36098">
        <ele>117</ele>
        <time>2011-09-04T08:24:14Z</time>
      </trkpt>
      <trkpt lat="47.51018" lon="-0.36104">
        <ele>117</ele>
        <time>2011-09-04T08:24:16Z</time>
      </trkpt>
      <trkpt lat="47.51013" lon="-0.36112">
        <ele>115</ele>
        <time>2011-09-04T08:24:18Z</time>
      </trkpt>
      <trkpt lat="47.51007" lon="-0.36118">
        <ele>114</ele>
        <time>2011-09-04T08:24:20Z</time>
      </trkpt>
      <trkpt lat="47.51001" lon="-0.36124">
        <ele>114</ele>
        <time>2011-09-04T08:24:22Z</time>
      </trkpt>
      <trkpt lat="47.50995" lon="-0.36129">
        <ele>113</ele>
        <time>2011-09-04T08:24:24Z</time>
      </trkpt>
      <trkpt lat="47.50989" lon="-0.36135">
        <ele>113</ele>
        <time>2011-09-04T08:24:26Z</time>
      </trkpt>
      <trkpt lat="47.50982" lon="-0.36141">
        <ele>113</ele>
        <time>2011-09-04T08:24:28Z</time>
      </trkpt>
      <trkpt lat="47.50975" lon="-0.36144">
        <ele>113</ele>
        <time>2011-09-04T08:24:30Z</time>
      </trkpt>
      <trkpt lat="47.50967" lon="-0.36146">
        <ele>113</ele>
        <time>2011-09-04T08:24:32Z</time>
      </trkpt>
      <trkpt lat="47.5096" lon="-0.3615">
        <ele>113</ele>
        <time>2011-09-04T08:24:34Z</time>
      </trkpt>
      <trkpt lat="47.50951" lon="-0.36152">
        <ele>114</ele>
        <time>2011-09-04T08:24:36Z</time>
      </trkpt>
      <trkpt lat="47.50943" lon="-0.36156">
        <ele>114</ele>
        <time>2011-09-04T08:24:38Z</time>
      </trkpt>
      <trkpt lat="47.50935" lon="-0.3616">
        <ele>115</ele>
        <time>2011-09-04T08:24:40Z</time>
      </trkpt>
      <trkpt lat="47.5093" lon="-0.36164">
        <ele>116</ele>
        <time>2011-09-04T08:24:41Z</time>
      </trkpt>
      <trkpt lat="47.50926" lon="-0.36166">
        <ele>116</ele>
        <time>2011-09-04T08:24:42Z</time>
      </trkpt>
      <trkpt lat="47.50921" lon="-0.36167">
        <ele>116</ele>
        <time>2011-09-04T08:24:43Z</time>
      </trkpt>
      <trkpt lat="47.50913" lon="-0.36171">
        <ele>116</ele>
        <time>2011-09-04T08:24:45Z</time>
      </trkpt>
      <trkpt lat="47.50909" lon="-0.36173">
        <ele>116</ele>
        <time>2011-09-04T08:24:46Z</time>
      </trkpt>
      <trkpt lat="47.50899" lon="-0.36176">
        <ele>117</ele>
        <time>2011-09-04T08:24:48Z</time>
      </trkpt>
      <trkpt lat="47.50894" lon="-0.36178">
        <ele>116</ele>
        <time>2011-09-04T08:24:49Z</time>
      </trkpt>
      <trkpt lat="47.5089" lon="-0.36179">
        <ele>116</ele>
        <time>2011-09-04T08:24:50Z</time>
      </trkpt>
      <trkpt lat="47.50885" lon="-0.3618">
        <ele>116</ele>
        <time>2011-09-04T08:24:51Z</time>
      </trkpt>
      <trkpt lat="47.5088" lon="-0.36184">
        <ele>115</ele>
        <time>2011-09-04T08:24:52Z</time>
      </trkpt>
      <trkpt lat="47.50873" lon="-0.36189">
        <ele>113</ele>
        <time>2011-09-04T08:24:54Z</time>
      </trkpt>
      <trkpt lat="47.50869" lon="-0.36194">
        <ele>111</ele>
        <time>2011-09-04T08:24:55Z</time>
      </trkpt>
      <trkpt lat="47.5086" lon="-0.36197">
        <ele>111</ele>
        <time>2011-09-04T08:24:57Z</time>
      </trkpt>
      <trkpt lat="47.50855" lon="-0.36198">
        <ele>111</ele>
        <time>2011-09-04T08:24:58Z</time>
      </trkpt>
      <trkpt lat="47.50847" lon="-0.36202">
        <ele>110</ele>
        <time>2011-09-04T08:25:00Z</time>
      </trkpt>
      <trkpt lat="47.50842" lon="-0.36204">
        <ele>110</ele>
        <time>2011-09-04T08:25:01Z</time>
      </trkpt>
      <trkpt lat="47.50838" lon="-0.36206">
        <ele>110</ele>
        <time>2011-09-04T08:25:02Z</time>
      </trkpt>
      <trkpt lat="47.50832" lon="-0.36206">
        <ele>109</ele>
        <time>2011-09-04T08:25:03Z</time>
      </trkpt>
      <trkpt lat="47.50827" lon="-0.36207">
        <ele>109</ele>
        <time>2011-09-04T08:25:04Z</time>
      </trkpt>
      <trkpt lat="47.50821" lon="-0.36207">
        <ele>109</ele>
        <time>2011-09-04T08:25:05Z</time>
      </trkpt>
      <trkpt lat="47.50816" lon="-0.36208">
        <ele>109</ele>
        <time>2011-09-04T08:25:06Z</time>
      </trkpt>
      <trkpt lat="47.50811" lon="-0.36207">
        <ele>109</ele>
        <time>2011-09-04T08:25:07Z</time>
      </trkpt>
      <trkpt lat="47.50806" lon="-0.36206">
        <ele>109</ele>
        <time>2011-09-04T08:25:08Z</time>
      </trkpt>
      <trkpt lat="47.50801" lon="-0.36204">
        <ele>109</ele>
        <time>2011-09-04T08:25:09Z</time>
      </trkpt>
      <trkpt lat="47.50796" lon="-0.36202">
        <ele>109</ele>
        <time>2011-09-04T08:25:10Z</time>
      </trkpt>
      <trkpt lat="47.50788" lon="-0.36204">
        <ele>110</ele>
        <time>2011-09-04T08:25:12Z</time>
      </trkpt>
      <trkpt lat="47.50783" lon="-0.36206">
        <ele>111</ele>
        <time>2011-09-04T08:25:13Z</time>
      </trkpt>
      <trkpt lat="47.50778" lon="-0.36206">
        <ele>111</ele>
        <time>2011-09-04T08:25:14Z</time>
      </trkpt>
      <trkpt lat="47.50772" lon="-0.36207">
        <ele>111</ele>
        <time>2011-09-04T08:25:15Z</time>
      </trkpt>
      <trkpt lat="47.50762" lon="-0.36208">
        <ele>110</ele>
        <time>2011-09-04T08:25:17Z</time>
      </trkpt>
      <trkpt lat="47.50756" lon="-0.36208">
        <ele>110</ele>
        <time>2011-09-04T08:25:18Z</time>
      </trkpt>
      <trkpt lat="47.50752" lon="-0.36208">
        <ele>110</ele>
        <time>2011-09-04T08:25:19Z</time>
      </trkpt>
      <trkpt lat="47.50744" lon="-0.36209">
        <ele>110</ele>
        <time>2011-09-04T08:25:20Z</time>
      </trkpt>
      <trkpt lat="47.50738" lon="-0.36212">
        <ele>110</ele>
        <time>2011-09-04T08:25:21Z</time>
      </trkpt>
      <trkpt lat="47.50733" lon="-0.36214">
        <ele>110</ele>
        <time>2011-09-04T08:25:22Z</time>
      </trkpt>
      <trkpt lat="47.50727" lon="-0.36215">
        <ele>109</ele>
        <time>2011-09-04T08:25:23Z</time>
      </trkpt>
      <trkpt lat="47.50721" lon="-0.36217">
        <ele>109</ele>
        <time>2011-09-04T08:25:24Z</time>
      </trkpt>
      <trkpt lat="47.50715" lon="-0.36218">
        <ele>109</ele>
        <time>2011-09-04T08:25:25Z</time>
      </trkpt>
      <trkpt lat="47.5071" lon="-0.3622">
        <ele>108</ele>
        <time>2011-09-04T08:25:26Z</time>
      </trkpt>
      <trkpt lat="47.50705" lon="-0.36221">
        <ele>107</ele>
        <time>2011-09-04T08:25:27Z</time>
      </trkpt>
      <trkpt lat="47.50699" lon="-0.36222">
        <ele>107</ele>
        <time>2011-09-04T08:25:28Z</time>
      </trkpt>
      <trkpt lat="47.50694" lon="-0.36223">
        <ele>107</ele>
        <time>2011-09-04T08:25:29Z</time>
      </trkpt>
      <trkpt lat="47.50689" lon="-0.36224">
        <ele>107</ele>
        <time>2011-09-04T08:25:30Z</time>
      </trkpt>
      <trkpt lat="47.5068" lon="-0.36226">
        <ele>106</ele>
        <time>2011-09-04T08:25:32Z</time>
      </trkpt>
      <trkpt lat="47.50672" lon="-0.36226">
        <ele>107</ele>
        <time>2011-09-04T08:25:34Z</time>
      </trkpt>
      <trkpt lat="47.50664" lon="-0.36229">
        <ele>106</ele>
        <time>2011-09-04T08:25:36Z</time>
      </trkpt>
      <trkpt lat="47.50657" lon="-0.3623">
        <ele>106</ele>
        <time>2011-09-04T08:25:38Z</time>
      </trkpt>
      <trkpt lat="47.5065" lon="-0.36233">
        <ele>104</ele>
        <time>2011-09-04T08:25:40Z</time>
      </trkpt>
      <trkpt lat="47.50645" lon="-0.36233">
        <ele>104</ele>
        <time>2011-09-04T08:25:42Z</time>
      </trkpt>
      <trkpt lat="47.50641" lon="-0.36231">
        <ele>103</ele>
        <time>2011-09-04T08:25:44Z</time>
      </trkpt>
      <trkpt lat="47.50638" lon="-0.36223">
        <ele>104</ele>
        <time>2011-09-04T08:25:46Z</time>
      </trkpt>
      <trkpt lat="47.50634" lon="-0.36212">
        <ele>103</ele>
        <time>2011-09-04T08:25:48Z</time>
      </trkpt>
      <trkpt lat="47.50632" lon="-0.36199">
        <ele>103</ele>
        <time>2011-09-04T08:25:50Z</time>
      </trkpt>
      <trkpt lat="47.5063" lon="-0.36192">
        <ele>104</ele>
        <time>2011-09-04T08:25:51Z</time>
      </trkpt>
      <trkpt lat="47.50629" lon="-0.36185">
        <ele>104</ele>
        <time>2011-09-04T08:25:52Z</time>
      </trkpt>
      <trkpt lat="47.50629" lon="-0.36178">
        <ele>104</ele>
        <time>2011-09-04T08:25:53Z</time>
      </trkpt>
      <trkpt lat="47.50627" lon="-0.36171">
        <ele>103</ele>
        <time>2011-09-04T08:25:54Z</time>
      </trkpt>
      <trkpt lat="47.50626" lon="-0.36165">
        <ele>103</ele>
        <time>2011-09-04T08:25:55Z</time>
      </trkpt>
      <trkpt lat="47.50623" lon="-0.36152">
        <ele>103</ele>
        <time>2011-09-04T08:25:57Z</time>
      </trkpt>
      <trkpt lat="47.50622" lon="-0.36145">
        <ele>103</ele>
        <time>2011-09-04T08:25:58Z</time>
      </trkpt>
      <trkpt lat="47.50621" lon="-0.36138">
        <ele>102</ele>
        <time>2011-09-04T08:25:59Z</time>
      </trkpt>
      <trkpt lat="47.5062" lon="-0.3613">
        <ele>102</ele>
        <time>2011-09-04T08:26:00Z</time>
      </trkpt>
      <trkpt lat="47.50619" lon="-0.36123">
        <ele>102</ele>
        <time>2011-09-04T08:26:01Z</time>
      </trkpt>
      <trkpt lat="47.50617" lon="-0.36115">
        <ele>102</ele>
        <time>2011-09-04T08:26:02Z</time>
      </trkpt>
      <trkpt lat="47.50616" lon="-0.36107">
        <ele>103</ele>
        <time>2011-09-04T08:26:03Z</time>
      </trkpt>
      <trkpt lat="47.50614" lon="-0.36099">
        <ele>103</ele>
        <time>2011-09-04T08:26:04Z</time>
      </trkpt>
      <trkpt lat="47.50613" lon="-0.36091">
        <ele>102</ele>
        <time>2011-09-04T08:26:05Z</time>
      </trkpt>
      <trkpt lat="47.50612" lon="-0.36082">
        <ele>103</ele>
        <time>2011-09-04T08:26:06Z</time>
      </trkpt>
      <trkpt lat="47.5061" lon="-0.36074">
        <ele>102</ele>
        <time>2011-09-04T08:26:07Z</time>
      </trkpt>
      <trkpt lat="47.5061" lon="-0.36066">
        <ele>102</ele>
        <time>2011-09-04T08:26:08Z</time>
      </trkpt>
      <trkpt lat="47.50609" lon="-0.36057">
        <ele>102</ele>
        <time>2011-09-04T08:26:09Z</time>
      </trkpt>
      <trkpt lat="47.50608" lon="-0.36048">
        <ele>102</ele>
        <time>2011-09-04T08:26:10Z</time>
      </trkpt>
      <trkpt lat="47.50608" lon="-0.36039">
        <ele>102</ele>
        <time>2011-09-04T08:26:11Z</time>
      </trkpt>
      <trkpt lat="47.50607" lon="-0.36031">
        <ele>102</ele>
        <time>2011-09-04T08:26:12Z</time>
      </trkpt>
      <trkpt lat="47.50607" lon="-0.36022">
        <ele>102</ele>
        <time>2011-09-04T08:26:13Z</time>
      </trkpt>
      <trkpt lat="47.50607" lon="-0.36013">
        <ele>102</ele>
        <time>2011-09-04T08:26:14Z</time>
      </trkpt>
      <trkpt lat="47.50607" lon="-0.36003">
        <ele>102</ele>
        <time>2011-09-04T08:26:15Z</time>
      </trkpt>
      <trkpt lat="47.50607" lon="-0.35994">
        <ele>101</ele>
        <time>2011-09-04T08:26:16Z</time>
      </trkpt>
      <trkpt lat="47.50607" lon="-0.35984">
        <ele>101</ele>
        <time>2011-09-04T08:26:17Z</time>
      </trkpt>
      <trkpt lat="47.50607" lon="-0.35974">
        <ele>101</ele>
        <time>2011-09-04T08:26:18Z</time>
      </trkpt>
      <trkpt lat="47.50608" lon="-0.35964">
        <ele>101</ele>
        <time>2011-09-04T08:26:19Z</time>
      </trkpt>
      <trkpt lat="47.50608" lon="-0.35953">
        <ele>100</ele>
        <time>2011-09-04T08:26:20Z</time>
      </trkpt>
      <trkpt lat="47.50609" lon="-0.35943">
        <ele>100</ele>
        <time>2011-09-04T08:26:21Z</time>
      </trkpt>
      <trkpt lat="47.5061" lon="-0.35932">
        <ele>100</ele>
        <time>2011-09-04T08:26:22Z</time>
      </trkpt>
      <trkpt lat="47.5061" lon="-0.35922">
        <ele>100</ele>
        <time>2011-09-04T08:26:23Z</time>
      </trkpt>
      <trkpt lat="47.5061" lon="-0.35912">
        <ele>100</ele>
        <time>2011-09-04T08:26:24Z</time>
      </trkpt>
      <trkpt lat="47.5061" lon="-0.35901">
        <ele>100</ele>
        <time>2011-09-04T08:26:25Z</time>
      </trkpt>
      <trkpt lat="47.50609" lon="-0.35891">
        <ele>100</ele>
        <time>2011-09-04T08:26:26Z</time>
      </trkpt>
      <trkpt lat="47.50608" lon="-0.3588">
        <ele>100</ele>
        <time>2011-09-04T08:26:27Z</time>
      </trkpt>
      <trkpt lat="47.50607" lon="-0.35869">
        <ele>100</ele>
        <time>2011-09-04T08:26:28Z</time>
      </trkpt>
      <trkpt lat="47.50605" lon="-0.35858">
        <ele>100</ele>
        <time>2011-09-04T08:26:29Z</time>
      </trkpt>
      <trkpt lat="47.50604" lon="-0.35848">
        <ele>100</ele>
        <time>2011-09-04T08:26:30Z</time>
      </trkpt>
      <trkpt lat="47.50602" lon="-0.35838">
        <ele>100</ele>
        <time>2011-09-04T08:26:31Z</time>
      </trkpt>
      <trkpt lat="47.506" lon="-0.35827">
        <ele>99</ele>
        <time>2011-09-04T08:26:32Z</time>
      </trkpt>
      <trkpt lat="47.50598" lon="-0.35817">
        <ele>99</ele>
        <time>2011-09-04T08:26:33Z</time>
      </trkpt>
      <trkpt lat="47.50597" lon="-0.35806">
        <ele>99</ele>
        <time>2011-09-04T08:26:34Z</time>
      </trkpt>
      <trkpt lat="47.50595" lon="-0.35796">
        <ele>98</ele>
        <time>2011-09-04T08:26:35Z</time>
      </trkpt>
      <trkpt lat="47.50593" lon="-0.35785">
        <ele>98</ele>
        <time>2011-09-04T08:26:36Z</time>
      </trkpt>
      <trkpt lat="47.50592" lon="-0.35775">
        <ele>98</ele>
        <time>2011-09-04T08:26:37Z</time>
      </trkpt>
      <trkpt lat="47.5059" lon="-0.35766">
        <ele>98</ele>
        <time>2011-09-04T08:26:38Z</time>
      </trkpt>
      <trkpt lat="47.50588" lon="-0.35755">
        <ele>99</ele>
        <time>2011-09-04T08:26:39Z</time>
      </trkpt>
      <trkpt lat="47.50584" lon="-0.35747">
        <ele>99</ele>
        <time>2011-09-04T08:26:40Z</time>
      </trkpt>
      <trkpt lat="47.5058" lon="-0.35739">
        <ele>99</ele>
        <time>2011-09-04T08:26:41Z</time>
      </trkpt>
      <trkpt lat="47.50576" lon="-0.35731">
        <ele>99</ele>
        <time>2011-09-04T08:26:42Z</time>
      </trkpt>
      <trkpt lat="47.50571" lon="-0.35726">
        <ele>99</ele>
        <time>2011-09-04T08:26:43Z</time>
      </trkpt>
      <trkpt lat="47.50566" lon="-0.35719">
        <ele>100</ele>
        <time>2011-09-04T08:26:44Z</time>
      </trkpt>
      <trkpt lat="47.50561" lon="-0.35713">
        <ele>100</ele>
        <time>2011-09-04T08:26:45Z</time>
      </trkpt>
      <trkpt lat="47.50556" lon="-0.35707">
        <ele>99</ele>
        <time>2011-09-04T08:26:46Z</time>
      </trkpt>
      <trkpt lat="47.50551" lon="-0.35704">
        <ele>99</ele>
        <time>2011-09-04T08:26:47Z</time>
      </trkpt>
      <trkpt lat="47.50546" lon="-0.357">
        <ele>99</ele>
        <time>2011-09-04T08:26:48Z</time>
      </trkpt>
      <trkpt lat="47.50539" lon="-0.35695">
        <ele>99</ele>
        <time>2011-09-04T08:26:49Z</time>
      </trkpt>
      <trkpt lat="47.50533" lon="-0.35693">
        <ele>99</ele>
        <time>2011-09-04T08:26:50Z</time>
      </trkpt>
      <trkpt lat="47.50528" lon="-0.35688">
        <ele>99</ele>
        <time>2011-09-04T08:26:51Z</time>
      </trkpt>
      <trkpt lat="47.50524" lon="-0.35685">
        <ele>99</ele>
        <time>2011-09-04T08:26:52Z</time>
      </trkpt>
      <trkpt lat="47.50518" lon="-0.3568">
        <ele>99</ele>
        <time>2011-09-04T08:26:53Z</time>
      </trkpt>
      <trkpt lat="47.50513" lon="-0.35676">
        <ele>99</ele>
        <time>2011-09-04T08:26:54Z</time>
      </trkpt>
      <trkpt lat="47.50508" lon="-0.35671">
        <ele>99</ele>
        <time>2011-09-04T08:26:55Z</time>
      </trkpt>
      <trkpt lat="47.50503" lon="-0.35666">
        <ele>99</ele>
        <time>2011-09-04T08:26:56Z</time>
      </trkpt>
      <trkpt lat="47.50499" lon="-0.3566">
        <ele>99</ele>
        <time>2011-09-04T08:26:57Z</time>
      </trkpt>
      <trkpt lat="47.50496" lon="-0.35653">
        <ele>99</ele>
        <time>2011-09-04T08:26:58Z</time>
      </trkpt>
      <trkpt lat="47.50492" lon="-0.35645">
        <ele>99</ele>
        <time>2011-09-04T08:26:59Z</time>
      </trkpt>
      <trkpt lat="47.50489" lon="-0.35638">
        <ele>100</ele>
        <time>2011-09-04T08:27:00Z</time>
      </trkpt>
      <trkpt lat="47.50485" lon="-0.3563">
        <ele>100</ele>
        <time>2011-09-04T08:27:01Z</time>
      </trkpt>
      <trkpt lat="47.50483" lon="-0.35623">
        <ele>100</ele>
        <time>2011-09-04T08:27:02Z</time>
      </trkpt>
      <trkpt lat="47.50481" lon="-0.35615">
        <ele>100</ele>
        <time>2011-09-04T08:27:03Z</time>
      </trkpt>
      <trkpt lat="47.50478" lon="-0.35608">
        <ele>100</ele>
        <time>2011-09-04T08:27:04Z</time>
      </trkpt>
      <trkpt lat="47.50476" lon="-0.356">
        <ele>100</ele>
        <time>2011-09-04T08:27:05Z</time>
      </trkpt>
      <trkpt lat="47.50473" lon="-0.35593">
        <ele>100</ele>
        <time>2011-09-04T08:27:06Z</time>
      </trkpt>
      <trkpt lat="47.50471" lon="-0.35584">
        <ele>100</ele>
        <time>2011-09-04T08:27:07Z</time>
      </trkpt>
      <trkpt lat="47.50468" lon="-0.35576">
        <ele>100</ele>
        <time>2011-09-04T08:27:08Z</time>
      </trkpt>
      <trkpt lat="47.50467" lon="-0.35568">
        <ele>100</ele>
        <time>2011-09-04T08:27:09Z</time>
      </trkpt>
      <trkpt lat="47.50465" lon="-0.3556">
        <ele>99</ele>
        <time>2011-09-04T08:27:10Z</time>
      </trkpt>
      <trkpt lat="47.50462" lon="-0.35551">
        <ele>99</ele>
        <time>2011-09-04T08:27:11Z</time>
      </trkpt>
      <trkpt lat="47.50461" lon="-0.35542">
        <ele>99</ele>
        <time>2011-09-04T08:27:12Z</time>
      </trkpt>
      <trkpt lat="47.5046" lon="-0.35534">
        <ele>99</ele>
        <time>2011-09-04T08:27:13Z</time>
      </trkpt>
      <trkpt lat="47.50458" lon="-0.35525">
        <ele>99</ele>
        <time>2011-09-04T08:27:14Z</time>
      </trkpt>
      <trkpt lat="47.50457" lon="-0.35516">
        <ele>99</ele>
        <time>2011-09-04T08:27:15Z</time>
      </trkpt>
      <trkpt lat="47.50456" lon="-0.35508">
        <ele>99</ele>
        <time>2011-09-04T08:27:16Z</time>
      </trkpt>
      <trkpt lat="47.50454" lon="-0.35498">
        <ele>99</ele>
        <time>2011-09-04T08:27:17Z</time>
      </trkpt>
      <trkpt lat="47.50452" lon="-0.3549">
        <ele>99</ele>
        <time>2011-09-04T08:27:18Z</time>
      </trkpt>
      <trkpt lat="47.50451" lon="-0.35482">
        <ele>99</ele>
        <time>2011-09-04T08:27:19Z</time>
      </trkpt>
      <trkpt lat="47.5045" lon="-0.35473">
        <ele>99</ele>
        <time>2011-09-04T08:27:20Z</time>
      </trkpt>
      <trkpt lat="47.50448" lon="-0.35464">
        <ele>99</ele>
        <time>2011-09-04T08:27:21Z</time>
      </trkpt>
      <trkpt lat="47.50448" lon="-0.35456">
        <ele>99</ele>
        <time>2011-09-04T08:27:22Z</time>
      </trkpt>
      <trkpt lat="47.50446" lon="-0.35447">
        <ele>99</ele>
        <time>2011-09-04T08:27:23Z</time>
      </trkpt>
      <trkpt lat="47.50445" lon="-0.35438">
        <ele>99</ele>
        <time>2011-09-04T08:27:24Z</time>
      </trkpt>
      <trkpt lat="47.50444" lon="-0.3543">
        <ele>99</ele>
        <time>2011-09-04T08:27:25Z</time>
      </trkpt>
      <trkpt lat="47.50442" lon="-0.35422">
        <ele>99</ele>
        <time>2011-09-04T08:27:26Z</time>
      </trkpt>
      <trkpt lat="47.5044" lon="-0.35414">
        <ele>99</ele>
        <time>2011-09-04T08:27:27Z</time>
      </trkpt>
      <trkpt lat="47.50439" lon="-0.35405">
        <ele>98</ele>
        <time>2011-09-04T08:27:28Z</time>
      </trkpt>
      <trkpt lat="47.50437" lon="-0.35396">
        <ele>98</ele>
        <time>2011-09-04T08:27:29Z</time>
      </trkpt>
      <trkpt lat="47.50435" lon="-0.35387">
        <ele>98</ele>
        <time>2011-09-04T08:27:30Z</time>
      </trkpt>
      <trkpt lat="47.50432" lon="-0.35378">
        <ele>97</ele>
        <time>2011-09-04T08:27:31Z</time>
      </trkpt>
      <trkpt lat="47.5043" lon="-0.35369">
        <ele>97</ele>
        <time>2011-09-04T08:27:32Z</time>
      </trkpt>
      <trkpt lat="47.50426" lon="-0.35361">
        <ele>96</ele>
        <time>2011-09-04T08:27:33Z</time>
      </trkpt>
      <trkpt lat="47.50423" lon="-0.35353">
        <ele>96</ele>
        <time>2011-09-04T08:27:34Z</time>
      </trkpt>
      <trkpt lat="47.5042" lon="-0.35346">
        <ele>97</ele>
        <time>2011-09-04T08:27:35Z</time>
      </trkpt>
      <trkpt lat="47.50416" lon="-0.35338">
        <ele>96</ele>
        <time>2011-09-04T08:27:36Z</time>
      </trkpt>
      <trkpt lat="47.50412" lon="-0.35332">
        <ele>96</ele>
        <time>2011-09-04T08:27:37Z</time>
      </trkpt>
      <trkpt lat="47.50408" lon="-0.35325">
        <ele>96</ele>
        <time>2011-09-04T08:27:38Z</time>
      </trkpt>
      <trkpt lat="47.50404" lon="-0.35318">
        <ele>96</ele>
        <time>2011-09-04T08:27:39Z</time>
      </trkpt>
      <trkpt lat="47.504" lon="-0.35312">
        <ele>96</ele>
        <time>2011-09-04T08:27:40Z</time>
      </trkpt>
      <trkpt lat="47.50396" lon="-0.35304">
        <ele>96</ele>
        <time>2011-09-04T08:27:41Z</time>
      </trkpt>
      <trkpt lat="47.50393" lon="-0.35297">
        <ele>96</ele>
        <time>2011-09-04T08:27:42Z</time>
      </trkpt>
      <trkpt lat="47.50389" lon="-0.35291">
        <ele>96</ele>
        <time>2011-09-04T08:27:43Z</time>
      </trkpt>
      <trkpt lat="47.50385" lon="-0.35283">
        <ele>96</ele>
        <time>2011-09-04T08:27:44Z</time>
      </trkpt>
      <trkpt lat="47.50382" lon="-0.35275">
        <ele>95</ele>
        <time>2011-09-04T08:27:45Z</time>
      </trkpt>
      <trkpt lat="47.50378" lon="-0.35269">
        <ele>95</ele>
        <time>2011-09-04T08:27:46Z</time>
      </trkpt>
      <trkpt lat="47.50374" lon="-0.35262">
        <ele>95</ele>
        <time>2011-09-04T08:27:47Z</time>
      </trkpt>
      <trkpt lat="47.50372" lon="-0.35256">
        <ele>95</ele>
        <time>2011-09-04T08:27:48Z</time>
      </trkpt>
      <trkpt lat="47.50369" lon="-0.3525">
        <ele>95</ele>
        <time>2011-09-04T08:27:49Z</time>
      </trkpt>
      <trkpt lat="47.50364" lon="-0.3524">
        <ele>95</ele>
        <time>2011-09-04T08:27:51Z</time>
      </trkpt>
      <trkpt lat="47.5036" lon="-0.3523">
        <ele>95</ele>
        <time>2011-09-04T08:27:53Z</time>
      </trkpt>
      <trkpt lat="47.50352" lon="-0.35214">
        <ele>95</ele>
        <time>2011-09-04T08:27:56Z</time>
      </trkpt>
      <trkpt lat="47.5035" lon="-0.35208">
        <ele>95</ele>
        <time>2011-09-04T08:27:57Z</time>
      </trkpt>
      <trkpt lat="47.50344" lon="-0.35197">
        <ele>95</ele>
        <time>2011-09-04T08:27:59Z</time>
      </trkpt>
      <trkpt lat="47.50339" lon="-0.35192">
        <ele>95</ele>
        <time>2011-09-04T08:28:00Z</time>
      </trkpt>
      <trkpt lat="47.50334" lon="-0.35188">
        <ele>94</ele>
        <time>2011-09-04T08:28:01Z</time>
      </trkpt>
      <trkpt lat="47.50328" lon="-0.35184">
        <ele>94</ele>
        <time>2011-09-04T08:28:03Z</time>
      </trkpt>
      <trkpt lat="47.5032" lon="-0.35184">
        <ele>95</ele>
        <time>2011-09-04T08:28:05Z</time>
      </trkpt>
      <trkpt lat="47.50312" lon="-0.35183">
        <ele>95</ele>
        <time>2011-09-04T08:28:07Z</time>
      </trkpt>
      <trkpt lat="47.50303" lon="-0.35186">
        <ele>95</ele>
        <time>2011-09-04T08:28:09Z</time>
      </trkpt>
      <trkpt lat="47.50298" lon="-0.35186">
        <ele>97</ele>
        <time>2011-09-04T08:28:10Z</time>
      </trkpt>
      <trkpt lat="47.5029" lon="-0.35189">
        <ele>98</ele>
        <time>2011-09-04T08:28:12Z</time>
      </trkpt>
      <trkpt lat="47.50281" lon="-0.35191">
        <ele>98</ele>
        <time>2011-09-04T08:28:14Z</time>
      </trkpt>
      <trkpt lat="47.50272" lon="-0.35193">
        <ele>98</ele>
        <time>2011-09-04T08:28:16Z</time>
      </trkpt>
      <trkpt lat="47.50264" lon="-0.35195">
        <ele>99</ele>
        <time>2011-09-04T08:28:18Z</time>
      </trkpt>
      <trkpt lat="47.50255" lon="-0.35197">
        <ele>100</ele>
        <time>2011-09-04T08:28:20Z</time>
      </trkpt>
      <trkpt lat="47.50246" lon="-0.352">
        <ele>100</ele>
        <time>2011-09-04T08:28:22Z</time>
      </trkpt>
      <trkpt lat="47.50238" lon="-0.35203">
        <ele>100</ele>
        <time>2011-09-04T08:28:24Z</time>
      </trkpt>
      <trkpt lat="47.5023" lon="-0.35204">
        <ele>100</ele>
        <time>2011-09-04T08:28:26Z</time>
      </trkpt>
      <trkpt lat="47.5022" lon="-0.35205">
        <ele>100</ele>
        <time>2011-09-04T08:28:28Z</time>
      </trkpt>
      <trkpt lat="47.50213" lon="-0.35208">
        <ele>101</ele>
        <time>2011-09-04T08:28:30Z</time>
      </trkpt>
      <trkpt lat="47.50206" lon="-0.3521">
        <ele>101</ele>
        <time>2011-09-04T08:28:32Z</time>
      </trkpt>
      <trkpt lat="47.50198" lon="-0.35212">
        <ele>102</ele>
        <time>2011-09-04T08:28:34Z</time>
      </trkpt>
      <trkpt lat="47.50189" lon="-0.35215">
        <ele>103</ele>
        <time>2011-09-04T08:28:36Z</time>
      </trkpt>
      <trkpt lat="47.50182" lon="-0.35218">
        <ele>103</ele>
        <time>2011-09-04T08:28:38Z</time>
      </trkpt>
      <trkpt lat="47.50174" lon="-0.35221">
        <ele>104</ele>
        <time>2011-09-04T08:28:40Z</time>
      </trkpt>
      <trkpt lat="47.50166" lon="-0.35223">
        <ele>104</ele>
        <time>2011-09-04T08:28:42Z</time>
      </trkpt>
      <trkpt lat="47.50159" lon="-0.35225">
        <ele>104</ele>
        <time>2011-09-04T08:28:44Z</time>
      </trkpt>
      <trkpt lat="47.50151" lon="-0.35227">
        <ele>104</ele>
        <time>2011-09-04T08:28:46Z</time>
      </trkpt>
      <trkpt lat="47.50144" lon="-0.3523">
        <ele>105</ele>
        <time>2011-09-04T08:28:48Z</time>
      </trkpt>
      <trkpt lat="47.50136" lon="-0.35231">
        <ele>105</ele>
        <time>2011-09-04T08:28:50Z</time>
      </trkpt>
      <trkpt lat="47.50129" lon="-0.35233">
        <ele>105</ele>
        <time>2011-09-04T08:28:52Z</time>
      </trkpt>
      <trkpt lat="47.50123" lon="-0.35236">
        <ele>105</ele>
        <time>2011-09-04T08:28:54Z</time>
      </trkpt>
      <trkpt lat="47.50117" lon="-0.35239">
        <ele>105</ele>
        <time>2011-09-04T08:28:56Z</time>
      </trkpt>
      <trkpt lat="47.50113" lon="-0.35245">
        <ele>106</ele>
        <time>2011-09-04T08:28:58Z</time>
      </trkpt>
      <trkpt lat="47.5011" lon="-0.3525">
        <ele>106</ele>
        <time>2011-09-04T08:29:00Z</time>
      </trkpt>
      <trkpt lat="47.50105" lon="-0.35255">
        <ele>107</ele>
        <time>2011-09-04T08:29:02Z</time>
      </trkpt>
      <trkpt lat="47.501" lon="-0.35258">
        <ele>107</ele>
        <time>2011-09-04T08:29:04Z</time>
      </trkpt>
      <trkpt lat="47.50095" lon="-0.35261">
        <ele>108</ele>
        <time>2011-09-04T08:29:06Z</time>
      </trkpt>
      <trkpt lat="47.5009" lon="-0.35262">
        <ele>109</ele>
        <time>2011-09-04T08:29:08Z</time>
      </trkpt>
      <trkpt lat="47.50082" lon="-0.35266">
        <ele>111</ele>
        <time>2011-09-04T08:29:10Z</time>
      </trkpt>
      <trkpt lat="47.50076" lon="-0.35271">
        <ele>111</ele>
        <time>2011-09-04T08:29:12Z</time>
      </trkpt>
      <trkpt lat="47.49979" lon="-0.35366">
        <ele>113</ele>
        <time>2011-09-04T08:29:39Z</time>
      </trkpt>
      <trkpt lat="47.49974" lon="-0.35357">
        <ele>105</ele>
        <time>2011-09-04T08:29:40Z</time>
      </trkpt>
      <trkpt lat="47.4996" lon="-0.3535">
        <ele>106</ele>
        <time>2011-09-04T08:29:42Z</time>
      </trkpt>
      <trkpt lat="47.49954" lon="-0.35349">
        <ele>110</ele>
        <time>2011-09-04T08:29:43Z</time>
      </trkpt>
      <trkpt lat="47.49949" lon="-0.35347">
        <ele>114</ele>
        <time>2011-09-04T08:29:44Z</time>
      </trkpt>
      <trkpt lat="47.49944" lon="-0.35348">
        <ele>118</ele>
        <time>2011-09-04T08:29:46Z</time>
      </trkpt>
      <trkpt lat="47.49937" lon="-0.35353">
        <ele>122</ele>
        <time>2011-09-04T08:29:49Z</time>
      </trkpt>
      <trkpt lat="47.49929" lon="-0.35354">
        <ele>125</ele>
        <time>2011-09-04T08:29:51Z</time>
      </trkpt>
      <trkpt lat="47.49923" lon="-0.35354">
        <ele>126</ele>
        <time>2011-09-04T08:29:52Z</time>
      </trkpt>
      <trkpt lat="47.49918" lon="-0.35352">
        <ele>127</ele>
        <time>2011-09-04T08:29:53Z</time>
      </trkpt>
      <trkpt lat="47.49905" lon="-0.35351">
        <ele>129</ele>
        <time>2011-09-04T08:29:56Z</time>
      </trkpt>
      <trkpt lat="47.49897" lon="-0.35352">
        <ele>128</ele>
        <time>2011-09-04T08:29:58Z</time>
      </trkpt>
      <trkpt lat="47.49892" lon="-0.35354">
        <ele>130</ele>
        <time>2011-09-04T08:30:01Z</time>
      </trkpt>
      <trkpt lat="47.49884" lon="-0.35355">
        <ele>130</ele>
        <time>2011-09-04T08:30:03Z</time>
      </trkpt>
      <trkpt lat="47.49877" lon="-0.35357">
        <ele>129</ele>
        <time>2011-09-04T08:30:05Z</time>
      </trkpt>
      <trkpt lat="47.4987" lon="-0.35358">
        <ele>128</ele>
        <time>2011-09-04T08:30:07Z</time>
      </trkpt>
      <trkpt lat="47.49864" lon="-0.3536">
        <ele>126</ele>
        <time>2011-09-04T08:30:09Z</time>
      </trkpt>
      <trkpt lat="47.49857" lon="-0.35361">
        <ele>126</ele>
        <time>2011-09-04T08:30:11Z</time>
      </trkpt>
      <trkpt lat="47.4985" lon="-0.35362">
        <ele>127</ele>
        <time>2011-09-04T08:30:13Z</time>
      </trkpt>
      <trkpt lat="47.49844" lon="-0.35363">
        <ele>126</ele>
        <time>2011-09-04T08:30:15Z</time>
      </trkpt>
      <trkpt lat="47.49838" lon="-0.35362">
        <ele>126</ele>
        <time>2011-09-04T08:30:17Z</time>
      </trkpt>
      <trkpt lat="47.49833" lon="-0.3536">
        <ele>125</ele>
        <time>2011-09-04T08:30:19Z</time>
      </trkpt>
      <trkpt lat="47.49827" lon="-0.3536">
        <ele>125</ele>
        <time>2011-09-04T08:30:21Z</time>
      </trkpt>
      <trkpt lat="47.4982" lon="-0.35359">
        <ele>125</ele>
        <time>2011-09-04T08:30:23Z</time>
      </trkpt>
      <trkpt lat="47.49814" lon="-0.35358">
        <ele>126</ele>
        <time>2011-09-04T08:30:25Z</time>
      </trkpt>
      <trkpt lat="47.49807" lon="-0.35359">
        <ele>127</ele>
        <time>2011-09-04T08:30:27Z</time>
      </trkpt>
      <trkpt lat="47.49799" lon="-0.35359">
        <ele>127</ele>
        <time>2011-09-04T08:30:30Z</time>
      </trkpt>
      <trkpt lat="47.49794" lon="-0.3536">
        <ele>127</ele>
        <time>2011-09-04T08:30:31Z</time>
      </trkpt>
      <trkpt lat="47.49786" lon="-0.35361">
        <ele>127</ele>
        <time>2011-09-04T08:30:33Z</time>
      </trkpt>
      <trkpt lat="47.4978" lon="-0.35358">
        <ele>127</ele>
        <time>2011-09-04T08:30:35Z</time>
      </trkpt>
      <trkpt lat="47.49773" lon="-0.35356">
        <ele>127</ele>
        <time>2011-09-04T08:30:37Z</time>
      </trkpt>
      <trkpt lat="47.49765" lon="-0.35355">
        <ele>126</ele>
        <time>2011-09-04T08:30:39Z</time>
      </trkpt>
      <trkpt lat="47.49758" lon="-0.35354">
        <ele>126</ele>
        <time>2011-09-04T08:30:41Z</time>
      </trkpt>
      <trkpt lat="47.4975" lon="-0.35349">
        <ele>125</ele>
        <time>2011-09-04T08:30:43Z</time>
      </trkpt>
      <trkpt lat="47.49745" lon="-0.35347">
        <ele>125</ele>
        <time>2011-09-04T08:30:44Z</time>
      </trkpt>
      <trkpt lat="47.49741" lon="-0.35343">
        <ele>125</ele>
        <time>2011-09-04T08:30:45Z</time>
      </trkpt>
      <trkpt lat="47.49736" lon="-0.35341">
        <ele>124</ele>
        <time>2011-09-04T08:30:46Z</time>
      </trkpt>
      <trkpt lat="47.49731" lon="-0.35339">
        <ele>124</ele>
        <time>2011-09-04T08:30:47Z</time>
      </trkpt>
      <trkpt lat="47.49726" lon="-0.35335">
        <ele>124</ele>
        <time>2011-09-04T08:30:48Z</time>
      </trkpt>
      <trkpt lat="47.49721" lon="-0.35331">
        <ele>123</ele>
        <time>2011-09-04T08:30:49Z</time>
      </trkpt>
      <trkpt lat="47.49716" lon="-0.35327">
        <ele>123</ele>
        <time>2011-09-04T08:30:50Z</time>
      </trkpt>
      <trkpt lat="47.49709" lon="-0.3532">
        <ele>123</ele>
        <time>2011-09-04T08:30:51Z</time>
      </trkpt>
      <trkpt lat="47.49703" lon="-0.35315">
        <ele>122</ele>
        <time>2011-09-04T08:30:52Z</time>
      </trkpt>
      <trkpt lat="47.49696" lon="-0.35308">
        <ele>121</ele>
        <time>2011-09-04T08:30:53Z</time>
      </trkpt>
      <trkpt lat="47.4969" lon="-0.35303">
        <ele>121</ele>
        <time>2011-09-04T08:30:54Z</time>
      </trkpt>
      <trkpt lat="47.49683" lon="-0.35298">
        <ele>121</ele>
        <time>2011-09-04T08:30:55Z</time>
      </trkpt>
      <trkpt lat="47.49677" lon="-0.35294">
        <ele>121</ele>
        <time>2011-09-04T08:30:56Z</time>
      </trkpt>
      <trkpt lat="47.49671" lon="-0.35289">
        <ele>120</ele>
        <time>2011-09-04T08:30:57Z</time>
      </trkpt>
      <trkpt lat="47.49664" lon="-0.35283">
        <ele>120</ele>
        <time>2011-09-04T08:30:58Z</time>
      </trkpt>
      <trkpt lat="47.49657" lon="-0.35278">
        <ele>120</ele>
        <time>2011-09-04T08:30:59Z</time>
      </trkpt>
      <trkpt lat="47.49651" lon="-0.35271">
        <ele>120</ele>
        <time>2011-09-04T08:31:00Z</time>
      </trkpt>
      <trkpt lat="47.49644" lon="-0.35265">
        <ele>119</ele>
        <time>2011-09-04T08:31:01Z</time>
      </trkpt>
      <trkpt lat="47.49637" lon="-0.35257">
        <ele>119</ele>
        <time>2011-09-04T08:31:02Z</time>
      </trkpt>
      <trkpt lat="47.49631" lon="-0.35249">
        <ele>119</ele>
        <time>2011-09-04T08:31:03Z</time>
      </trkpt>
      <trkpt lat="47.49626" lon="-0.35242">
        <ele>119</ele>
        <time>2011-09-04T08:31:04Z</time>
      </trkpt>
      <trkpt lat="47.4962" lon="-0.35235">
        <ele>119</ele>
        <time>2011-09-04T08:31:05Z</time>
      </trkpt>
      <trkpt lat="47.49614" lon="-0.35229">
        <ele>119</ele>
        <time>2011-09-04T08:31:06Z</time>
      </trkpt>
      <trkpt lat="47.4961" lon="-0.35223">
        <ele>119</ele>
        <time>2011-09-04T08:31:07Z</time>
      </trkpt>
      <trkpt lat="47.49604" lon="-0.35216">
        <ele>119</ele>
        <time>2011-09-04T08:31:08Z</time>
      </trkpt>
      <trkpt lat="47.49598" lon="-0.35212">
        <ele>119</ele>
        <time>2011-09-04T08:31:09Z</time>
      </trkpt>
      <trkpt lat="47.4959" lon="-0.35208">
        <ele>119</ele>
        <time>2011-09-04T08:31:10Z</time>
      </trkpt>
      <trkpt lat="47.49581" lon="-0.35204">
        <ele>119</ele>
        <time>2011-09-04T08:31:11Z</time>
      </trkpt>
      <trkpt lat="47.49572" lon="-0.35201">
        <ele>119</ele>
        <time>2011-09-04T08:31:12Z</time>
      </trkpt>
      <trkpt lat="47.49562" lon="-0.352">
        <ele>119</ele>
        <time>2011-09-04T08:31:13Z</time>
      </trkpt>
      <trkpt lat="47.49552" lon="-0.35199">
        <ele>118</ele>
        <time>2011-09-04T08:31:14Z</time>
      </trkpt>
      <trkpt lat="47.49543" lon="-0.35199">
        <ele>117</ele>
        <time>2011-09-04T08:31:15Z</time>
      </trkpt>
      <trkpt lat="47.49534" lon="-0.352">
        <ele>116</ele>
        <time>2011-09-04T08:31:16Z</time>
      </trkpt>
      <trkpt lat="47.49525" lon="-0.35201">
        <ele>116</ele>
        <time>2011-09-04T08:31:17Z</time>
      </trkpt>
      <trkpt lat="47.49516" lon="-0.35202">
        <ele>116</ele>
        <time>2011-09-04T08:31:18Z</time>
      </trkpt>
      <trkpt lat="47.49506" lon="-0.35205">
        <ele>116</ele>
        <time>2011-09-04T08:31:19Z</time>
      </trkpt>
      <trkpt lat="47.49497" lon="-0.35207">
        <ele>116</ele>
        <time>2011-09-04T08:31:20Z</time>
      </trkpt>
      <trkpt lat="47.4949" lon="-0.35209">
        <ele>116</ele>
        <time>2011-09-04T08:31:21Z</time>
      </trkpt>
      <trkpt lat="47.49481" lon="-0.35212">
        <ele>117</ele>
        <time>2011-09-04T08:31:22Z</time>
      </trkpt>
      <trkpt lat="47.49474" lon="-0.35213">
        <ele>117</ele>
        <time>2011-09-04T08:31:23Z</time>
      </trkpt>
      <trkpt lat="47.49467" lon="-0.35214">
        <ele>117</ele>
        <time>2011-09-04T08:31:24Z</time>
      </trkpt>
      <trkpt lat="47.4946" lon="-0.35215">
        <ele>116</ele>
        <time>2011-09-04T08:31:25Z</time>
      </trkpt>
      <trkpt lat="47.4945" lon="-0.35216">
        <ele>117</ele>
        <time>2011-09-04T08:31:27Z</time>
      </trkpt>
      <trkpt lat="47.49444" lon="-0.35218">
        <ele>118</ele>
        <time>2011-09-04T08:31:28Z</time>
      </trkpt>
      <trkpt lat="47.4944" lon="-0.3522">
        <ele>119</ele>
        <time>2011-09-04T08:31:29Z</time>
      </trkpt>
      <trkpt lat="47.49435" lon="-0.35223">
        <ele>118</ele>
        <time>2011-09-04T08:31:30Z</time>
      </trkpt>
      <trkpt lat="47.49429" lon="-0.35226">
        <ele>119</ele>
        <time>2011-09-04T08:31:32Z</time>
      </trkpt>
      <trkpt lat="47.49422" lon="-0.35229">
        <ele>120</ele>
        <time>2011-09-04T08:31:34Z</time>
      </trkpt>
      <trkpt lat="47.49416" lon="-0.35232">
        <ele>119</ele>
        <time>2011-09-04T08:31:36Z</time>
      </trkpt>
      <trkpt lat="47.49408" lon="-0.35233">
        <ele>120</ele>
        <time>2011-09-04T08:31:38Z</time>
      </trkpt>
      <trkpt lat="47.49399" lon="-0.35237">
        <ele>121</ele>
        <time>2011-09-04T08:31:40Z</time>
      </trkpt>
      <trkpt lat="47.49392" lon="-0.3524">
        <ele>122</ele>
        <time>2011-09-04T08:31:42Z</time>
      </trkpt>
      <trkpt lat="47.49382" lon="-0.35244">
        <ele>122</ele>
        <time>2011-09-04T08:31:44Z</time>
      </trkpt>
      <trkpt lat="47.49374" lon="-0.35245">
        <ele>122</ele>
        <time>2011-09-04T08:31:45Z</time>
      </trkpt>
      <trkpt lat="47.49368" lon="-0.35243">
        <ele>122</ele>
        <time>2011-09-04T08:31:46Z</time>
      </trkpt>
      <trkpt lat="47.49362" lon="-0.3524">
        <ele>122</ele>
        <time>2011-09-04T08:31:47Z</time>
      </trkpt>
      <trkpt lat="47.49357" lon="-0.35237">
        <ele>121</ele>
        <time>2011-09-04T08:31:48Z</time>
      </trkpt>
      <trkpt lat="47.49353" lon="-0.35232">
        <ele>121</ele>
        <time>2011-09-04T08:31:50Z</time>
      </trkpt>
      <trkpt lat="47.49347" lon="-0.35228">
        <ele>121</ele>
        <time>2011-09-04T08:31:52Z</time>
      </trkpt>
      <trkpt lat="47.4934" lon="-0.35217">
        <ele>120</ele>
        <time>2011-09-04T08:31:54Z</time>
      </trkpt>
      <trkpt lat="47.49335" lon="-0.35212">
        <ele>120</ele>
        <time>2011-09-04T08:31:55Z</time>
      </trkpt>
      <trkpt lat="47.4933" lon="-0.35209">
        <ele>119</ele>
        <time>2011-09-04T08:31:56Z</time>
      </trkpt>
      <trkpt lat="47.49324" lon="-0.35203">
        <ele>119</ele>
        <time>2011-09-04T08:31:57Z</time>
      </trkpt>
      <trkpt lat="47.49319" lon="-0.352">
        <ele>118</ele>
        <time>2011-09-04T08:31:58Z</time>
      </trkpt>
      <trkpt lat="47.49314" lon="-0.35198">
        <ele>118</ele>
        <time>2011-09-04T08:31:59Z</time>
      </trkpt>
      <trkpt lat="47.4931" lon="-0.35193">
        <ele>118</ele>
        <time>2011-09-04T08:32:00Z</time>
      </trkpt>
      <trkpt lat="47.49304" lon="-0.3519">
        <ele>118</ele>
        <time>2011-09-04T08:32:01Z</time>
      </trkpt>
      <trkpt lat="47.49298" lon="-0.35187">
        <ele>118</ele>
        <time>2011-09-04T08:32:02Z</time>
      </trkpt>
      <trkpt lat="47.49292" lon="-0.35182">
        <ele>118</ele>
        <time>2011-09-04T08:32:03Z</time>
      </trkpt>
      <trkpt lat="47.49287" lon="-0.35179">
        <ele>118</ele>
        <time>2011-09-04T08:32:04Z</time>
      </trkpt>
      <trkpt lat="47.49281" lon="-0.35178">
        <ele>118</ele>
        <time>2011-09-04T08:32:05Z</time>
      </trkpt>
      <trkpt lat="47.49275" lon="-0.35178">
        <ele>118</ele>
        <time>2011-09-04T08:32:06Z</time>
      </trkpt>
      <trkpt lat="47.49266" lon="-0.35177">
        <ele>116</ele>
        <time>2011-09-04T08:32:08Z</time>
      </trkpt>
      <trkpt lat="47.49259" lon="-0.35175">
        <ele>115</ele>
        <time>2011-09-04T08:32:10Z</time>
      </trkpt>
      <trkpt lat="47.49264" lon="-0.3518">
        <ele>114</ele>
        <time>2011-09-04T08:32:16Z</time>
      </trkpt>
      <trkpt lat="47.49269" lon="-0.35181">
        <ele>114</ele>
        <time>2011-09-04T08:32:18Z</time>
      </trkpt>
      <trkpt lat="47.49275" lon="-0.35179">
        <ele>114</ele>
        <time>2011-09-04T08:32:21Z</time>
      </trkpt>
      <trkpt lat="47.49278" lon="-0.35172">
        <ele>115</ele>
        <time>2011-09-04T08:32:24Z</time>
      </trkpt>
      <trkpt lat="47.49281" lon="-0.35164">
        <ele>115</ele>
        <time>2011-09-04T08:32:26Z</time>
      </trkpt>
      <trkpt lat="47.49284" lon="-0.35153">
        <ele>117</ele>
        <time>2011-09-04T08:32:28Z</time>
      </trkpt>
      <trkpt lat="47.49287" lon="-0.35141">
        <ele>118</ele>
        <time>2011-09-04T08:32:30Z</time>
      </trkpt>
      <trkpt lat="47.49288" lon="-0.35134">
        <ele>119</ele>
        <time>2011-09-04T08:32:31Z</time>
      </trkpt>
      <trkpt lat="47.4929" lon="-0.35126">
        <ele>119</ele>
        <time>2011-09-04T08:32:32Z</time>
      </trkpt>
      <trkpt lat="47.49291" lon="-0.35118">
        <ele>119</ele>
        <time>2011-09-04T08:32:33Z</time>
      </trkpt>
      <trkpt lat="47.49292" lon="-0.35109">
        <ele>118</ele>
        <time>2011-09-04T08:32:34Z</time>
      </trkpt>
      <trkpt lat="47.49294" lon="-0.351">
        <ele>117</ele>
        <time>2011-09-04T08:32:35Z</time>
      </trkpt>
      <trkpt lat="47.49295" lon="-0.35089">
        <ele>116</ele>
        <time>2011-09-04T08:32:36Z</time>
      </trkpt>
      <trkpt lat="47.49297" lon="-0.3508">
        <ele>115</ele>
        <time>2011-09-04T08:32:37Z</time>
      </trkpt>
      <trkpt lat="47.493" lon="-0.3507">
        <ele>113</ele>
        <time>2011-09-04T08:32:38Z</time>
      </trkpt>
      <trkpt lat="47.49302" lon="-0.35061">
        <ele>112</ele>
        <time>2011-09-04T08:32:39Z</time>
      </trkpt>
      <trkpt lat="47.49304" lon="-0.35053">
        <ele>112</ele>
        <time>2011-09-04T08:32:40Z</time>
      </trkpt>
      <trkpt lat="47.49306" lon="-0.35045">
        <ele>110</ele>
        <time>2011-09-04T08:32:41Z</time>
      </trkpt>
      <trkpt lat="47.49309" lon="-0.35038">
        <ele>110</ele>
        <time>2011-09-04T08:32:42Z</time>
      </trkpt>
      <trkpt lat="47.49311" lon="-0.35032">
        <ele>108</ele>
        <time>2011-09-04T08:32:43Z</time>
      </trkpt>
      <trkpt lat="47.49313" lon="-0.35025">
        <ele>108</ele>
        <time>2011-09-04T08:32:44Z</time>
      </trkpt>
      <trkpt lat="47.49314" lon="-0.35018">
        <ele>108</ele>
        <time>2011-09-04T08:32:45Z</time>
      </trkpt>
      <trkpt lat="47.49314" lon="-0.35011">
        <ele>108</ele>
        <time>2011-09-04T08:32:46Z</time>
      </trkpt>
      <trkpt lat="47.49316" lon="-0.35003">
        <ele>108</ele>
        <time>2011-09-04T08:32:47Z</time>
      </trkpt>
      <trkpt lat="47.49316" lon="-0.34995">
        <ele>107</ele>
        <time>2011-09-04T08:32:48Z</time>
      </trkpt>
      <trkpt lat="47.49316" lon="-0.34988">
        <ele>107</ele>
        <time>2011-09-04T08:32:49Z</time>
      </trkpt>
      <trkpt lat="47.49316" lon="-0.34981">
        <ele>107</ele>
        <time>2011-09-04T08:32:50Z</time>
      </trkpt>
      <trkpt lat="47.49316" lon="-0.34974">
        <ele>106</ele>
        <time>2011-09-04T08:32:51Z</time>
      </trkpt>
      <trkpt lat="47.49311" lon="-0.34967">
        <ele>106</ele>
        <time>2011-09-04T08:32:54Z</time>
      </trkpt>
      <trkpt lat="47.49316" lon="-0.34963">
        <ele>106</ele>
        <time>2011-09-04T08:33:07Z</time>
      </trkpt>
      <trkpt lat="47.49319" lon="-0.34957">
        <ele>105</ele>
        <time>2011-09-04T08:33:10Z</time>
      </trkpt>
      <trkpt lat="47.49322" lon="-0.3495">
        <ele>105</ele>
        <time>2011-09-04T08:33:12Z</time>
      </trkpt>
      <trkpt lat="47.49324" lon="-0.34939">
        <ele>103</ele>
        <time>2011-09-04T08:33:14Z</time>
      </trkpt>
      <trkpt lat="47.49326" lon="-0.34928">
        <ele>102</ele>
        <time>2011-09-04T08:33:16Z</time>
      </trkpt>
      <trkpt lat="47.49329" lon="-0.34918">
        <ele>102</ele>
        <time>2011-09-04T08:33:18Z</time>
      </trkpt>
      <trkpt lat="47.4933" lon="-0.34904">
        <ele>102</ele>
        <time>2011-09-04T08:33:20Z</time>
      </trkpt>
      <trkpt lat="47.49332" lon="-0.34895">
        <ele>102</ele>
        <time>2011-09-04T08:33:22Z</time>
      </trkpt>
      <trkpt lat="47.49335" lon="-0.34885">
        <ele>102</ele>
        <time>2011-09-04T08:33:24Z</time>
      </trkpt>
      <trkpt lat="47.49339" lon="-0.34874">
        <ele>102</ele>
        <time>2011-09-04T08:33:26Z</time>
      </trkpt>
      <trkpt lat="47.49343" lon="-0.34863">
        <ele>103</ele>
        <time>2011-09-04T08:33:28Z</time>
      </trkpt>
      <trkpt lat="47.49346" lon="-0.34852">
        <ele>102</ele>
        <time>2011-09-04T08:33:30Z</time>
      </trkpt>
      <trkpt lat="47.49349" lon="-0.34845">
        <ele>101</ele>
        <time>2011-09-04T08:33:31Z</time>
      </trkpt>
      <trkpt lat="47.49352" lon="-0.34839">
        <ele>101</ele>
        <time>2011-09-04T08:33:32Z</time>
      </trkpt>
      <trkpt lat="47.49355" lon="-0.34828">
        <ele>101</ele>
        <time>2011-09-04T08:33:34Z</time>
      </trkpt>
      <trkpt lat="47.49358" lon="-0.34822">
        <ele>101</ele>
        <time>2011-09-04T08:33:35Z</time>
      </trkpt>
      <trkpt lat="47.49363" lon="-0.34811">
        <ele>101</ele>
        <time>2011-09-04T08:33:37Z</time>
      </trkpt>
      <trkpt lat="47.49365" lon="-0.34803">
        <ele>102</ele>
        <time>2011-09-04T08:33:39Z</time>
      </trkpt>
      <trkpt lat="47.49369" lon="-0.34794">
        <ele>103</ele>
        <time>2011-09-04T08:33:41Z</time>
      </trkpt>
      <trkpt lat="47.49374" lon="-0.34783">
        <ele>103</ele>
        <time>2011-09-04T08:33:43Z</time>
      </trkpt>
      <trkpt lat="47.49378" lon="-0.34773">
        <ele>103</ele>
        <time>2011-09-04T08:33:45Z</time>
      </trkpt>
      <trkpt lat="47.49376" lon="-0.34766">
        <ele>103</ele>
        <time>2011-09-04T08:33:46Z</time>
      </trkpt>
      <trkpt lat="47.49375" lon="-0.34755">
        <ele>102</ele>
        <time>2011-09-04T08:33:48Z</time>
      </trkpt>
      <trkpt lat="47.49374" lon="-0.3474">
        <ele>101</ele>
        <time>2011-09-04T08:33:50Z</time>
      </trkpt>
      <trkpt lat="47.49371" lon="-0.34725">
        <ele>101</ele>
        <time>2011-09-04T08:33:52Z</time>
      </trkpt>
      <trkpt lat="47.4937" lon="-0.34714">
        <ele>100</ele>
        <time>2011-09-04T08:33:54Z</time>
      </trkpt>
      <trkpt lat="47.4937" lon="-0.34703">
        <ele>99</ele>
        <time>2011-09-04T08:33:56Z</time>
      </trkpt>
      <trkpt lat="47.49371" lon="-0.34694">
        <ele>98</ele>
        <time>2011-09-04T08:33:58Z</time>
      </trkpt>
      <trkpt lat="47.49373" lon="-0.34684">
        <ele>98</ele>
        <time>2011-09-04T08:34:00Z</time>
      </trkpt>
      <trkpt lat="47.49374" lon="-0.34674">
        <ele>99</ele>
        <time>2011-09-04T08:34:02Z</time>
      </trkpt>
      <trkpt lat="47.49374" lon="-0.34663">
        <ele>100</ele>
        <time>2011-09-04T08:34:04Z</time>
      </trkpt>
      <trkpt lat="47.49374" lon="-0.34652">
        <ele>101</ele>
        <time>2011-09-04T08:34:06Z</time>
      </trkpt>
      <trkpt lat="47.49374" lon="-0.34646">
        <ele>100</ele>
        <time>2011-09-04T08:34:07Z</time>
      </trkpt>
      <trkpt lat="47.49373" lon="-0.34638">
        <ele>100</ele>
        <time>2011-09-04T08:34:08Z</time>
      </trkpt>
      <trkpt lat="47.49373" lon="-0.34632">
        <ele>99</ele>
        <time>2011-09-04T08:34:09Z</time>
      </trkpt>
      <trkpt lat="47.49378" lon="-0.34624">
        <ele>99</ele>
        <time>2011-09-04T08:34:10Z</time>
      </trkpt>
      <trkpt lat="47.49379" lon="-0.34616">
        <ele>100</ele>
        <time>2011-09-04T08:34:11Z</time>
      </trkpt>
      <trkpt lat="47.4938" lon="-0.34609">
        <ele>101</ele>
        <time>2011-09-04T08:34:12Z</time>
      </trkpt>
      <trkpt lat="47.49383" lon="-0.34598">
        <ele>101</ele>
        <time>2011-09-04T08:34:14Z</time>
      </trkpt>
      <trkpt lat="47.49384" lon="-0.34589">
        <ele>101</ele>
        <time>2011-09-04T08:34:16Z</time>
      </trkpt>
      <trkpt lat="47.49384" lon="-0.34582">
        <ele>102</ele>
        <time>2011-09-04T08:34:18Z</time>
      </trkpt>
      <trkpt lat="47.49383" lon="-0.3457">
        <ele>102</ele>
        <time>2011-09-04T08:34:20Z</time>
      </trkpt>
      <trkpt lat="47.49383" lon="-0.3456">
        <ele>103</ele>
        <time>2011-09-04T08:34:22Z</time>
      </trkpt>
      <trkpt lat="47.4938" lon="-0.34549">
        <ele>103</ele>
        <time>2011-09-04T08:34:24Z</time>
      </trkpt>
      <trkpt lat="47.4938" lon="-0.34537">
        <ele>104</ele>
        <time>2011-09-04T08:34:26Z</time>
      </trkpt>
      <trkpt lat="47.49379" lon="-0.3453">
        <ele>103</ele>
        <time>2011-09-04T08:34:27Z</time>
      </trkpt>
      <trkpt lat="47.49378" lon="-0.34522">
        <ele>103</ele>
        <time>2011-09-04T08:34:28Z</time>
      </trkpt>
      <trkpt lat="47.49376" lon="-0.34511">
        <ele>104</ele>
        <time>2011-09-04T08:34:30Z</time>
      </trkpt>
      <trkpt lat="47.49376" lon="-0.34503">
        <ele>104</ele>
        <time>2011-09-04T08:34:31Z</time>
      </trkpt>
      <trkpt lat="47.49375" lon="-0.34496">
        <ele>104</ele>
        <time>2011-09-04T08:34:32Z</time>
      </trkpt>
      <trkpt lat="47.49374" lon="-0.34489">
        <ele>105</ele>
        <time>2011-09-04T08:34:33Z</time>
      </trkpt>
      <trkpt lat="47.49371" lon="-0.34476">
        <ele>107</ele>
        <time>2011-09-04T08:34:35Z</time>
      </trkpt>
      <trkpt lat="47.4937" lon="-0.3447">
        <ele>107</ele>
        <time>2011-09-04T08:34:36Z</time>
      </trkpt>
      <trkpt lat="47.49369" lon="-0.34459">
        <ele>108</ele>
        <time>2011-09-04T08:34:38Z</time>
      </trkpt>
      <trkpt lat="47.49368" lon="-0.34445">
        <ele>108</ele>
        <time>2011-09-04T08:34:40Z</time>
      </trkpt>
      <trkpt lat="47.49365" lon="-0.34433">
        <ele>108</ele>
        <time>2011-09-04T08:34:42Z</time>
      </trkpt>
      <trkpt lat="47.49363" lon="-0.34421">
        <ele>108</ele>
        <time>2011-09-04T08:34:44Z</time>
      </trkpt>
      <trkpt lat="47.49362" lon="-0.34412">
        <ele>107</ele>
        <time>2011-09-04T08:34:45Z</time>
      </trkpt>
      <trkpt lat="47.49358" lon="-0.34399">
        <ele>107</ele>
        <time>2011-09-04T08:34:47Z</time>
      </trkpt>
      <trkpt lat="47.49355" lon="-0.34393">
        <ele>107</ele>
        <time>2011-09-04T08:34:48Z</time>
      </trkpt>
      <trkpt lat="47.49352" lon="-0.34385">
        <ele>107</ele>
        <time>2011-09-04T08:34:49Z</time>
      </trkpt>
      <trkpt lat="47.4935" lon="-0.34379">
        <ele>107</ele>
        <time>2011-09-04T08:34:50Z</time>
      </trkpt>
      <trkpt lat="47.49349" lon="-0.34371">
        <ele>109</ele>
        <time>2011-09-04T08:34:51Z</time>
      </trkpt>
      <trkpt lat="47.49347" lon="-0.34364">
        <ele>109</ele>
        <time>2011-09-04T08:34:52Z</time>
      </trkpt>
      <trkpt lat="47.49346" lon="-0.34357">
        <ele>109</ele>
        <time>2011-09-04T08:34:53Z</time>
      </trkpt>
      <trkpt lat="47.49346" lon="-0.34348">
        <ele>109</ele>
        <time>2011-09-04T08:34:54Z</time>
      </trkpt>
      <trkpt lat="47.49346" lon="-0.34326">
        <ele>110</ele>
        <time>2011-09-04T08:34:57Z</time>
      </trkpt>
      <trkpt lat="47.49346" lon="-0.34318">
        <ele>110</ele>
        <time>2011-09-04T08:34:58Z</time>
      </trkpt>
      <trkpt lat="47.49344" lon="-0.34311">
        <ele>110</ele>
        <time>2011-09-04T08:34:59Z</time>
      </trkpt>
      <trkpt lat="47.49343" lon="-0.34303">
        <ele>111</ele>
        <time>2011-09-04T08:35:00Z</time>
      </trkpt>
      <trkpt lat="47.49338" lon="-0.34294">
        <ele>109</ele>
        <time>2011-09-04T08:35:01Z</time>
      </trkpt>
      <trkpt lat="47.49337" lon="-0.34284">
        <ele>109</ele>
        <time>2011-09-04T08:35:02Z</time>
      </trkpt>
      <trkpt lat="47.49336" lon="-0.34277">
        <ele>109</ele>
        <time>2011-09-04T08:35:03Z</time>
      </trkpt>
      <trkpt lat="47.49336" lon="-0.3427">
        <ele>109</ele>
        <time>2011-09-04T08:35:04Z</time>
      </trkpt>
      <trkpt lat="47.49337" lon="-0.34261">
        <ele>109</ele>
        <time>2011-09-04T08:35:05Z</time>
      </trkpt>
      <trkpt lat="47.49336" lon="-0.34254">
        <ele>109</ele>
        <time>2011-09-04T08:35:06Z</time>
      </trkpt>
      <trkpt lat="47.49335" lon="-0.34248">
        <ele>108</ele>
        <time>2011-09-04T08:35:07Z</time>
      </trkpt>
      <trkpt lat="47.49334" lon="-0.34241">
        <ele>108</ele>
        <time>2011-09-04T08:35:08Z</time>
      </trkpt>
      <trkpt lat="47.49332" lon="-0.34233">
        <ele>107</ele>
        <time>2011-09-04T08:35:09Z</time>
      </trkpt>
      <trkpt lat="47.49331" lon="-0.34226">
        <ele>107</ele>
        <time>2011-09-04T08:35:10Z</time>
      </trkpt>
      <trkpt lat="47.49329" lon="-0.3422">
        <ele>106</ele>
        <time>2011-09-04T08:35:11Z</time>
      </trkpt>
      <trkpt lat="47.49327" lon="-0.34208">
        <ele>104</ele>
        <time>2011-09-04T08:35:13Z</time>
      </trkpt>
      <trkpt lat="47.49327" lon="-0.34197">
        <ele>104</ele>
        <time>2011-09-04T08:35:15Z</time>
      </trkpt>
      <trkpt lat="47.49327" lon="-0.34188">
        <ele>104</ele>
        <time>2011-09-04T08:35:17Z</time>
      </trkpt>
      <trkpt lat="47.49326" lon="-0.34178">
        <ele>104</ele>
        <time>2011-09-04T08:35:19Z</time>
      </trkpt>
      <trkpt lat="47.49326" lon="-0.34168">
        <ele>102</ele>
        <time>2011-09-04T08:35:22Z</time>
      </trkpt>
      <trkpt lat="47.49328" lon="-0.3416">
        <ele>103</ele>
        <time>2011-09-04T08:35:24Z</time>
      </trkpt>
      <trkpt lat="47.49328" lon="-0.3415">
        <ele>103</ele>
        <time>2011-09-04T08:35:26Z</time>
      </trkpt>
      <trkpt lat="47.4933" lon="-0.3414">
        <ele>104</ele>
        <time>2011-09-04T08:35:28Z</time>
      </trkpt>
      <trkpt lat="47.49331" lon="-0.34131">
        <ele>104</ele>
        <time>2011-09-04T08:35:30Z</time>
      </trkpt>
      <trkpt lat="47.49332" lon="-0.34123">
        <ele>104</ele>
        <time>2011-09-04T08:35:32Z</time>
      </trkpt>
      <trkpt lat="47.49332" lon="-0.34116">
        <ele>103</ele>
        <time>2011-09-04T08:35:33Z</time>
      </trkpt>
      <trkpt lat="47.49335" lon="-0.34108">
        <ele>101</ele>
        <time>2011-09-04T08:35:34Z</time>
      </trkpt>
      <trkpt lat="47.49337" lon="-0.34098">
        <ele>99</ele>
        <time>2011-09-04T08:35:36Z</time>
      </trkpt>
      <trkpt lat="47.49338" lon="-0.34089">
        <ele>98</ele>
        <time>2011-09-04T08:35:38Z</time>
      </trkpt>
      <trkpt lat="47.4934" lon="-0.34083">
        <ele>98</ele>
        <time>2011-09-04T08:35:39Z</time>
      </trkpt>
      <trkpt lat="47.49343" lon="-0.34075">
        <ele>98</ele>
        <time>2011-09-04T08:35:41Z</time>
      </trkpt>
      <trkpt lat="47.49345" lon="-0.34067">
        <ele>100</ele>
        <time>2011-09-04T08:35:43Z</time>
      </trkpt>
      <trkpt lat="47.4935" lon="-0.34058">
        <ele>101</ele>
        <time>2011-09-04T08:35:45Z</time>
      </trkpt>
      <trkpt lat="47.49352" lon="-0.34049">
        <ele>101</ele>
        <time>2011-09-04T08:35:47Z</time>
      </trkpt>
      <trkpt lat="47.49354" lon="-0.3404">
        <ele>103</ele>
        <time>2011-09-04T08:35:49Z</time>
      </trkpt>
      <trkpt lat="47.49356" lon="-0.34034">
        <ele>103</ele>
        <time>2011-09-04T08:35:51Z</time>
      </trkpt>
      <trkpt lat="47.49358" lon="-0.34028">
        <ele>104</ele>
        <time>2011-09-04T08:35:53Z</time>
      </trkpt>
      <trkpt lat="47.49358" lon="-0.3402">
        <ele>105</ele>
        <time>2011-09-04T08:35:55Z</time>
      </trkpt>
      <trkpt lat="47.4936" lon="-0.3401">
        <ele>105</ele>
        <time>2011-09-04T08:35:57Z</time>
      </trkpt>
      <trkpt lat="47.49362" lon="-0.34001">
        <ele>104</ele>
        <time>2011-09-04T08:35:59Z</time>
      </trkpt>
      <trkpt lat="47.49363" lon="-0.33993">
        <ele>103</ele>
        <time>2011-09-04T08:36:01Z</time>
      </trkpt>
      <trkpt lat="47.49363" lon="-0.33983">
        <ele>103</ele>
        <time>2011-09-04T08:36:03Z</time>
      </trkpt>
      <trkpt lat="47.49363" lon="-0.33973">
        <ele>102</ele>
        <time>2011-09-04T08:36:05Z</time>
      </trkpt>
      <trkpt lat="47.49364" lon="-0.33965">
        <ele>103</ele>
        <time>2011-09-04T08:36:07Z</time>
      </trkpt>
      <trkpt lat="47.49366" lon="-0.33954">
        <ele>102</ele>
        <time>2011-09-04T08:36:09Z</time>
      </trkpt>
      <trkpt lat="47.49367" lon="-0.33944">
        <ele>102</ele>
        <time>2011-09-04T08:36:11Z</time>
      </trkpt>
      <trkpt lat="47.49369" lon="-0.33935">
        <ele>102</ele>
        <time>2011-09-04T08:36:13Z</time>
      </trkpt>
      <trkpt lat="47.49371" lon="-0.33921">
        <ele>100</ele>
        <time>2011-09-04T08:36:15Z</time>
      </trkpt>
      <trkpt lat="47.49371" lon="-0.33913">
        <ele>99</ele>
        <time>2011-09-04T08:36:16Z</time>
      </trkpt>
      <trkpt lat="47.49373" lon="-0.33906">
        <ele>97</ele>
        <time>2011-09-04T08:36:17Z</time>
      </trkpt>
      <trkpt lat="47.49376" lon="-0.33899">
        <ele>93</ele>
        <time>2011-09-04T08:36:18Z</time>
      </trkpt>
      <trkpt lat="47.49379" lon="-0.33889">
        <ele>92</ele>
        <time>2011-09-04T08:36:20Z</time>
      </trkpt>
      <trkpt lat="47.49383" lon="-0.3388">
        <ele>92</ele>
        <time>2011-09-04T08:36:22Z</time>
      </trkpt>
      <trkpt lat="47.49386" lon="-0.33872">
        <ele>91</ele>
        <time>2011-09-04T08:36:24Z</time>
      </trkpt>
      <trkpt lat="47.49388" lon="-0.33864">
        <ele>93</ele>
        <time>2011-09-04T08:36:26Z</time>
      </trkpt>
      <trkpt lat="47.49391" lon="-0.33855">
        <ele>93</ele>
        <time>2011-09-04T08:36:28Z</time>
      </trkpt>
      <trkpt lat="47.49392" lon="-0.33848">
        <ele>92</ele>
        <time>2011-09-04T08:36:30Z</time>
      </trkpt>
      <trkpt lat="47.49394" lon="-0.33839">
        <ele>93</ele>
        <time>2011-09-04T08:36:32Z</time>
      </trkpt>
      <trkpt lat="47.49397" lon="-0.33832">
        <ele>94</ele>
        <time>2011-09-04T08:36:34Z</time>
      </trkpt>
      <trkpt lat="47.49399" lon="-0.33824">
        <ele>94</ele>
        <time>2011-09-04T08:36:36Z</time>
      </trkpt>
      <trkpt lat="47.49402" lon="-0.33816">
        <ele>94</ele>
        <time>2011-09-04T08:36:38Z</time>
      </trkpt>
      <trkpt lat="47.49406" lon="-0.3381">
        <ele>95</ele>
        <time>2011-09-04T08:36:40Z</time>
      </trkpt>
      <trkpt lat="47.49409" lon="-0.33803">
        <ele>95</ele>
        <time>2011-09-04T08:36:42Z</time>
      </trkpt>
      <trkpt lat="47.49413" lon="-0.33796">
        <ele>95</ele>
        <time>2011-09-04T08:36:44Z</time>
      </trkpt>
      <trkpt lat="47.49418" lon="-0.33787">
        <ele>95</ele>
        <time>2011-09-04T08:36:46Z</time>
      </trkpt>
      <trkpt lat="47.49421" lon="-0.33782">
        <ele>96</ele>
        <time>2011-09-04T08:36:48Z</time>
      </trkpt>
      <trkpt lat="47.49424" lon="-0.3377">
        <ele>96</ele>
        <time>2011-09-04T08:36:50Z</time>
      </trkpt>
      <trkpt lat="47.49428" lon="-0.33765">
        <ele>96</ele>
        <time>2011-09-04T08:36:51Z</time>
      </trkpt>
      <trkpt lat="47.49432" lon="-0.33757">
        <ele>94</ele>
        <time>2011-09-04T08:36:53Z</time>
      </trkpt>
      <trkpt lat="47.49437" lon="-0.33751">
        <ele>94</ele>
        <time>2011-09-04T08:36:55Z</time>
      </trkpt>
      <trkpt lat="47.49442" lon="-0.33743">
        <ele>93</ele>
        <time>2011-09-04T08:36:57Z</time>
      </trkpt>
      <trkpt lat="47.49446" lon="-0.33738">
        <ele>93</ele>
        <time>2011-09-04T08:36:59Z</time>
      </trkpt>
      <trkpt lat="47.49449" lon="-0.3373">
        <ele>93</ele>
        <time>2011-09-04T08:37:01Z</time>
      </trkpt>
      <trkpt lat="47.49451" lon="-0.33725">
        <ele>93</ele>
        <time>2011-09-04T08:37:03Z</time>
      </trkpt>
      <trkpt lat="47.49454" lon="-0.33719">
        <ele>94</ele>
        <time>2011-09-04T08:37:05Z</time>
      </trkpt>
      <trkpt lat="47.49456" lon="-0.33711">
        <ele>95</ele>
        <time>2011-09-04T08:37:07Z</time>
      </trkpt>
      <trkpt lat="47.49458" lon="-0.33701">
        <ele>95</ele>
        <time>2011-09-04T08:37:10Z</time>
      </trkpt>
      <trkpt lat="47.4946" lon="-0.33693">
        <ele>96</ele>
        <time>2011-09-04T08:37:12Z</time>
      </trkpt>
      <trkpt lat="47.49463" lon="-0.33685">
        <ele>97</ele>
        <time>2011-09-04T08:37:15Z</time>
      </trkpt>
      <trkpt lat="47.49465" lon="-0.33677">
        <ele>97</ele>
        <time>2011-09-04T08:37:17Z</time>
      </trkpt>
      <trkpt lat="47.49467" lon="-0.33669">
        <ele>97</ele>
        <time>2011-09-04T08:37:19Z</time>
      </trkpt>
      <trkpt lat="47.49467" lon="-0.33657">
        <ele>98</ele>
        <time>2011-09-04T08:37:21Z</time>
      </trkpt>
      <trkpt lat="47.49472" lon="-0.3365">
        <ele>97</ele>
        <time>2011-09-04T08:37:24Z</time>
      </trkpt>
      <trkpt lat="47.49475" lon="-0.33642">
        <ele>97</ele>
        <time>2011-09-04T08:37:26Z</time>
      </trkpt>
      <trkpt lat="47.49478" lon="-0.33633">
        <ele>98</ele>
        <time>2011-09-04T08:37:28Z</time>
      </trkpt>
      <trkpt lat="47.49481" lon="-0.33625">
        <ele>98</ele>
        <time>2011-09-04T08:37:30Z</time>
      </trkpt>
      <trkpt lat="47.49483" lon="-0.33615">
        <ele>98</ele>
        <time>2011-09-04T08:37:32Z</time>
      </trkpt>
      <trkpt lat="47.49484" lon="-0.33604">
        <ele>98</ele>
        <time>2011-09-04T08:37:34Z</time>
      </trkpt>
      <trkpt lat="47.49486" lon="-0.33594">
        <ele>98</ele>
        <time>2011-09-04T08:37:36Z</time>
      </trkpt>
      <trkpt lat="47.49484" lon="-0.33582">
        <ele>97</ele>
        <time>2011-09-04T08:37:38Z</time>
      </trkpt>
      <trkpt lat="47.49484" lon="-0.33572">
        <ele>98</ele>
        <time>2011-09-04T08:37:40Z</time>
      </trkpt>
      <trkpt lat="47.49488" lon="-0.33565">
        <ele>98</ele>
        <time>2011-09-04T08:37:42Z</time>
      </trkpt>
      <trkpt lat="47.49492" lon="-0.33558">
        <ele>99</ele>
        <time>2011-09-04T08:37:44Z</time>
      </trkpt>
      <trkpt lat="47.49493" lon="-0.3355">
        <ele>98</ele>
        <time>2011-09-04T08:37:46Z</time>
      </trkpt>
      <trkpt lat="47.49493" lon="-0.33538">
        <ele>99</ele>
        <time>2011-09-04T08:37:48Z</time>
      </trkpt>
      <trkpt lat="47.49494" lon="-0.33526">
        <ele>99</ele>
        <time>2011-09-04T08:37:50Z</time>
      </trkpt>
      <trkpt lat="47.49495" lon="-0.33516">
        <ele>99</ele>
        <time>2011-09-04T08:37:52Z</time>
      </trkpt>
      <trkpt lat="47.49497" lon="-0.33506">
        <ele>100</ele>
        <time>2011-09-04T08:37:54Z</time>
      </trkpt>
      <trkpt lat="47.49501" lon="-0.33496">
        <ele>100</ele>
        <time>2011-09-04T08:37:56Z</time>
      </trkpt>
      <trkpt lat="47.49502" lon="-0.33488">
        <ele>100</ele>
        <time>2011-09-04T08:37:58Z</time>
      </trkpt>
      <trkpt lat="47.49503" lon="-0.33478">
        <ele>101</ele>
        <time>2011-09-04T08:38:00Z</time>
      </trkpt>
      <trkpt lat="47.49504" lon="-0.33471">
        <ele>102</ele>
        <time>2011-09-04T08:38:02Z</time>
      </trkpt>
      <trkpt lat="47.49506" lon="-0.33461">
        <ele>103</ele>
        <time>2011-09-04T08:38:04Z</time>
      </trkpt>
      <trkpt lat="47.49509" lon="-0.33451">
        <ele>103</ele>
        <time>2011-09-04T08:38:06Z</time>
      </trkpt>
      <trkpt lat="47.4951" lon="-0.33444">
        <ele>102</ele>
        <time>2011-09-04T08:38:07Z</time>
      </trkpt>
      <trkpt lat="47.49511" lon="-0.33437">
        <ele>102</ele>
        <time>2011-09-04T08:38:08Z</time>
      </trkpt>
      <trkpt lat="47.49511" lon="-0.33426">
        <ele>102</ele>
        <time>2011-09-04T08:38:10Z</time>
      </trkpt>
      <trkpt lat="47.49515" lon="-0.33415">
        <ele>101</ele>
        <time>2011-09-04T08:38:12Z</time>
      </trkpt>
      <trkpt lat="47.49516" lon="-0.33406">
        <ele>101</ele>
        <time>2011-09-04T08:38:14Z</time>
      </trkpt>
      <trkpt lat="47.49519" lon="-0.33396">
        <ele>101</ele>
        <time>2011-09-04T08:38:16Z</time>
      </trkpt>
      <trkpt lat="47.49521" lon="-0.33384">
        <ele>100</ele>
        <time>2011-09-04T08:38:18Z</time>
      </trkpt>
      <trkpt lat="47.49521" lon="-0.33377">
        <ele>99</ele>
        <time>2011-09-04T08:38:19Z</time>
      </trkpt>
      <trkpt lat="47.49524" lon="-0.33369">
        <ele>98</ele>
        <time>2011-09-04T08:38:20Z</time>
      </trkpt>
      <trkpt lat="47.49525" lon="-0.33362">
        <ele>98</ele>
        <time>2011-09-04T08:38:21Z</time>
      </trkpt>
      <trkpt lat="47.49527" lon="-0.33356">
        <ele>97</ele>
        <time>2011-09-04T08:38:22Z</time>
      </trkpt>
      <trkpt lat="47.4953" lon="-0.33345">
        <ele>95</ele>
        <time>2011-09-04T08:38:24Z</time>
      </trkpt>
      <trkpt lat="47.49532" lon="-0.33333">
        <ele>94</ele>
        <time>2011-09-04T08:38:26Z</time>
      </trkpt>
      <trkpt lat="47.49532" lon="-0.33323">
        <ele>94</ele>
        <time>2011-09-04T08:38:28Z</time>
      </trkpt>
      <trkpt lat="47.49532" lon="-0.33312">
        <ele>95</ele>
        <time>2011-09-04T08:38:30Z</time>
      </trkpt>
      <trkpt lat="47.4953" lon="-0.33303">
        <ele>95</ele>
        <time>2011-09-04T08:38:32Z</time>
      </trkpt>
      <trkpt lat="47.49528" lon="-0.33295">
        <ele>95</ele>
        <time>2011-09-04T08:38:34Z</time>
      </trkpt>
      <trkpt lat="47.49527" lon="-0.33288">
        <ele>94</ele>
        <time>2011-09-04T08:38:36Z</time>
      </trkpt>
      <trkpt lat="47.49526" lon="-0.33281">
        <ele>94</ele>
        <time>2011-09-04T08:38:38Z</time>
      </trkpt>
      <trkpt lat="47.49525" lon="-0.33272">
        <ele>94</ele>
        <time>2011-09-04T08:38:40Z</time>
      </trkpt>
      <trkpt lat="47.49524" lon="-0.33263">
        <ele>94</ele>
        <time>2011-09-04T08:38:42Z</time>
      </trkpt>
      <trkpt lat="47.49524" lon="-0.33253">
        <ele>94</ele>
        <time>2011-09-04T08:38:44Z</time>
      </trkpt>
      <trkpt lat="47.49523" lon="-0.33244">
        <ele>94</ele>
        <time>2011-09-04T08:38:46Z</time>
      </trkpt>
      <trkpt lat="47.49522" lon="-0.33234">
        <ele>94</ele>
        <time>2011-09-04T08:38:48Z</time>
      </trkpt>
      <trkpt lat="47.49522" lon="-0.33224">
        <ele>93</ele>
        <time>2011-09-04T08:38:50Z</time>
      </trkpt>
      <trkpt lat="47.49522" lon="-0.33213">
        <ele>93</ele>
        <time>2011-09-04T08:38:52Z</time>
      </trkpt>
      <trkpt lat="47.49522" lon="-0.33201">
        <ele>93</ele>
        <time>2011-09-04T08:38:54Z</time>
      </trkpt>
      <trkpt lat="47.49523" lon="-0.33184">
        <ele>94</ele>
        <time>2011-09-04T08:38:57Z</time>
      </trkpt>
      <trkpt lat="47.49523" lon="-0.33174">
        <ele>94</ele>
        <time>2011-09-04T08:38:59Z</time>
      </trkpt>
      <trkpt lat="47.49524" lon="-0.33163">
        <ele>94</ele>
        <time>2011-09-04T08:39:01Z</time>
      </trkpt>
      <trkpt lat="47.49524" lon="-0.33153">
        <ele>94</ele>
        <time>2011-09-04T08:39:03Z</time>
      </trkpt>
      <trkpt lat="47.49525" lon="-0.33141">
        <ele>94</ele>
        <time>2011-09-04T08:39:05Z</time>
      </trkpt>
      <trkpt lat="47.49526" lon="-0.33129">
        <ele>94</ele>
        <time>2011-09-04T08:39:07Z</time>
      </trkpt>
      <trkpt lat="47.49527" lon="-0.33118">
        <ele>94</ele>
        <time>2011-09-04T08:39:09Z</time>
      </trkpt>
      <trkpt lat="47.49527" lon="-0.33108">
        <ele>94</ele>
        <time>2011-09-04T08:39:11Z</time>
      </trkpt>
      <trkpt lat="47.49528" lon="-0.33097">
        <ele>94</ele>
        <time>2011-09-04T08:39:13Z</time>
      </trkpt>
      <trkpt lat="47.49528" lon="-0.33086">
        <ele>93</ele>
        <time>2011-09-04T08:39:15Z</time>
      </trkpt>
      <trkpt lat="47.49529" lon="-0.33073">
        <ele>93</ele>
        <time>2011-09-04T08:39:17Z</time>
      </trkpt>
      <trkpt lat="47.4953" lon="-0.33062">
        <ele>93</ele>
        <time>2011-09-04T08:39:19Z</time>
      </trkpt>
      <trkpt lat="47.4953" lon="-0.33051">
        <ele>93</ele>
        <time>2011-09-04T08:39:21Z</time>
      </trkpt>
      <trkpt lat="47.49531" lon="-0.3304">
        <ele>93</ele>
        <time>2011-09-04T08:39:23Z</time>
      </trkpt>
      <trkpt lat="47.49531" lon="-0.3303">
        <ele>93</ele>
        <time>2011-09-04T08:39:25Z</time>
      </trkpt>
      <trkpt lat="47.49532" lon="-0.33018">
        <ele>93</ele>
        <time>2011-09-04T08:39:27Z</time>
      </trkpt>
      <trkpt lat="47.49531" lon="-0.33011">
        <ele>93</ele>
        <time>2011-09-04T08:39:28Z</time>
      </trkpt>
      <trkpt lat="47.49532" lon="-0.33004">
        <ele>93</ele>
        <time>2011-09-04T08:39:29Z</time>
      </trkpt>
      <trkpt lat="47.49532" lon="-0.32991">
        <ele>92</ele>
        <time>2011-09-04T08:39:31Z</time>
      </trkpt>
      <trkpt lat="47.49532" lon="-0.32984">
        <ele>92</ele>
        <time>2011-09-04T08:39:32Z</time>
      </trkpt>
      <trkpt lat="47.49532" lon="-0.32971">
        <ele>91</ele>
        <time>2011-09-04T08:39:34Z</time>
      </trkpt>
      <trkpt lat="47.49532" lon="-0.32958">
        <ele>91</ele>
        <time>2011-09-04T08:39:36Z</time>
      </trkpt>
      <trkpt lat="47.49532" lon="-0.32951">
        <ele>90</ele>
        <time>2011-09-04T08:39:37Z</time>
      </trkpt>
      <trkpt lat="47.49532" lon="-0.32937">
        <ele>90</ele>
        <time>2011-09-04T08:39:39Z</time>
      </trkpt>
      <trkpt lat="47.49533" lon="-0.3293">
        <ele>90</ele>
        <time>2011-09-04T08:39:40Z</time>
      </trkpt>
      <trkpt lat="47.49533" lon="-0.32918">
        <ele>90</ele>
        <time>2011-09-04T08:39:42Z</time>
      </trkpt>
      <trkpt lat="47.49533" lon="-0.32907">
        <ele>90</ele>
        <time>2011-09-04T08:39:44Z</time>
      </trkpt>
      <trkpt lat="47.49534" lon="-0.32896">
        <ele>90</ele>
        <time>2011-09-04T08:39:46Z</time>
      </trkpt>
      <trkpt lat="47.49535" lon="-0.32886">
        <ele>91</ele>
        <time>2011-09-04T08:39:48Z</time>
      </trkpt>
      <trkpt lat="47.49536" lon="-0.32876">
        <ele>91</ele>
        <time>2011-09-04T08:39:50Z</time>
      </trkpt>
      <trkpt lat="47.49538" lon="-0.32866">
        <ele>91</ele>
        <time>2011-09-04T08:39:52Z</time>
      </trkpt>
      <trkpt lat="47.49538" lon="-0.32855">
        <ele>91</ele>
        <time>2011-09-04T08:39:54Z</time>
      </trkpt>
      <trkpt lat="47.49539" lon="-0.32838">
        <ele>91</ele>
        <time>2011-09-04T08:39:57Z</time>
      </trkpt>
      <trkpt lat="47.4954" lon="-0.32826">
        <ele>92</ele>
        <time>2011-09-04T08:39:59Z</time>
      </trkpt>
      <trkpt lat="47.49541" lon="-0.32815">
        <ele>92</ele>
        <time>2011-09-04T08:40:01Z</time>
      </trkpt>
      <trkpt lat="47.49541" lon="-0.32803">
        <ele>92</ele>
        <time>2011-09-04T08:40:03Z</time>
      </trkpt>
      <trkpt lat="47.4954" lon="-0.32792">
        <ele>91</ele>
        <time>2011-09-04T08:40:05Z</time>
      </trkpt>
      <trkpt lat="47.49539" lon="-0.32781">
        <ele>91</ele>
        <time>2011-09-04T08:40:07Z</time>
      </trkpt>
      <trkpt lat="47.49539" lon="-0.32771">
        <ele>91</ele>
        <time>2011-09-04T08:40:09Z</time>
      </trkpt>
      <trkpt lat="47.49539" lon="-0.3276">
        <ele>92</ele>
        <time>2011-09-04T08:40:11Z</time>
      </trkpt>
      <trkpt lat="47.49538" lon="-0.3275">
        <ele>91</ele>
        <time>2011-09-04T08:40:13Z</time>
      </trkpt>
      <trkpt lat="47.49537" lon="-0.3274">
        <ele>91</ele>
        <time>2011-09-04T08:40:15Z</time>
      </trkpt>
      <trkpt lat="47.49536" lon="-0.32729">
        <ele>91</ele>
        <time>2011-09-04T08:40:17Z</time>
      </trkpt>
      <trkpt lat="47.49536" lon="-0.32719">
        <ele>92</ele>
        <time>2011-09-04T08:40:19Z</time>
      </trkpt>
      <trkpt lat="47.49535" lon="-0.32709">
        <ele>91</ele>
        <time>2011-09-04T08:40:21Z</time>
      </trkpt>
      <trkpt lat="47.49535" lon="-0.32699">
        <ele>92</ele>
        <time>2011-09-04T08:40:23Z</time>
      </trkpt>
      <trkpt lat="47.49534" lon="-0.32689">
        <ele>92</ele>
        <time>2011-09-04T08:40:25Z</time>
      </trkpt>
      <trkpt lat="47.49534" lon="-0.32679">
        <ele>92</ele>
        <time>2011-09-04T08:40:27Z</time>
      </trkpt>
      <trkpt lat="47.49534" lon="-0.32669">
        <ele>92</ele>
        <time>2011-09-04T08:40:29Z</time>
      </trkpt>
      <trkpt lat="47.49534" lon="-0.32659">
        <ele>93</ele>
        <time>2011-09-04T08:40:31Z</time>
      </trkpt>
      <trkpt lat="47.49533" lon="-0.32649">
        <ele>93</ele>
        <time>2011-09-04T08:40:33Z</time>
      </trkpt>
      <trkpt lat="47.49533" lon="-0.32638">
        <ele>93</ele>
        <time>2011-09-04T08:40:35Z</time>
      </trkpt>
      <trkpt lat="47.49532" lon="-0.32628">
        <ele>93</ele>
        <time>2011-09-04T08:40:37Z</time>
      </trkpt>
      <trkpt lat="47.49532" lon="-0.32617">
        <ele>93</ele>
        <time>2011-09-04T08:40:39Z</time>
      </trkpt>
      <trkpt lat="47.49532" lon="-0.32606">
        <ele>93</ele>
        <time>2011-09-04T08:40:41Z</time>
      </trkpt>
      <trkpt lat="47.49531" lon="-0.32596">
        <ele>93</ele>
        <time>2011-09-04T08:40:43Z</time>
      </trkpt>
      <trkpt lat="47.4953" lon="-0.32584">
        <ele>93</ele>
        <time>2011-09-04T08:40:45Z</time>
      </trkpt>
      <trkpt lat="47.4953" lon="-0.32573">
        <ele>93</ele>
        <time>2011-09-04T08:40:47Z</time>
      </trkpt>
      <trkpt lat="47.4953" lon="-0.32563">
        <ele>93</ele>
        <time>2011-09-04T08:40:49Z</time>
      </trkpt>
      <trkpt lat="47.49531" lon="-0.32552">
        <ele>93</ele>
        <time>2011-09-04T08:40:51Z</time>
      </trkpt>
      <trkpt lat="47.49533" lon="-0.32543">
        <ele>92</ele>
        <time>2011-09-04T08:40:53Z</time>
      </trkpt>
      <trkpt lat="47.49538" lon="-0.32535">
        <ele>92</ele>
        <time>2011-09-04T08:40:55Z</time>
      </trkpt>
      <trkpt lat="47.49546" lon="-0.3253">
        <ele>92</ele>
        <time>2011-09-04T08:40:57Z</time>
      </trkpt>
      <trkpt lat="47.49551" lon="-0.32529">
        <ele>91</ele>
        <time>2011-09-04T08:40:58Z</time>
      </trkpt>
      <trkpt lat="47.4956" lon="-0.32526">
        <ele>91</ele>
        <time>2011-09-04T08:41:00Z</time>
      </trkpt>
      <trkpt lat="47.49569" lon="-0.32523">
        <ele>90</ele>
        <time>2011-09-04T08:41:02Z</time>
      </trkpt>
      <trkpt lat="47.49577" lon="-0.3252">
        <ele>90</ele>
        <time>2011-09-04T08:41:04Z</time>
      </trkpt>
      <trkpt lat="47.49582" lon="-0.32518">
        <ele>89</ele>
        <time>2011-09-04T08:41:05Z</time>
      </trkpt>
      <trkpt lat="47.49587" lon="-0.32517">
        <ele>89</ele>
        <time>2011-09-04T08:41:06Z</time>
      </trkpt>
      <trkpt lat="47.49592" lon="-0.32516">
        <ele>89</ele>
        <time>2011-09-04T08:41:07Z</time>
      </trkpt>
      <trkpt lat="47.49597" lon="-0.32516">
        <ele>89</ele>
        <time>2011-09-04T08:41:08Z</time>
      </trkpt>
      <trkpt lat="47.49603" lon="-0.32515">
        <ele>89</ele>
        <time>2011-09-04T08:41:09Z</time>
      </trkpt>
      <trkpt lat="47.49608" lon="-0.32515">
        <ele>88</ele>
        <time>2011-09-04T08:41:10Z</time>
      </trkpt>
      <trkpt lat="47.49613" lon="-0.32515">
        <ele>88</ele>
        <time>2011-09-04T08:41:11Z</time>
      </trkpt>
      <trkpt lat="47.49619" lon="-0.32514">
        <ele>88</ele>
        <time>2011-09-04T08:41:12Z</time>
      </trkpt>
      <trkpt lat="47.49625" lon="-0.32513">
        <ele>88</ele>
        <time>2011-09-04T08:41:13Z</time>
      </trkpt>
      <trkpt lat="47.4963" lon="-0.32512">
        <ele>87</ele>
        <time>2011-09-04T08:41:14Z</time>
      </trkpt>
      <trkpt lat="47.49636" lon="-0.3251">
        <ele>87</ele>
        <time>2011-09-04T08:41:15Z</time>
      </trkpt>
      <trkpt lat="47.49641" lon="-0.32509">
        <ele>87</ele>
        <time>2011-09-04T08:41:16Z</time>
      </trkpt>
      <trkpt lat="47.49647" lon="-0.32507">
        <ele>87</ele>
        <time>2011-09-04T08:41:17Z</time>
      </trkpt>
      <trkpt lat="47.49652" lon="-0.32506">
        <ele>86</ele>
        <time>2011-09-04T08:41:18Z</time>
      </trkpt>
      <trkpt lat="47.49658" lon="-0.32505">
        <ele>86</ele>
        <time>2011-09-04T08:41:19Z</time>
      </trkpt>
      <trkpt lat="47.49665" lon="-0.32504">
        <ele>86</ele>
        <time>2011-09-04T08:41:20Z</time>
      </trkpt>
      <trkpt lat="47.49671" lon="-0.32503">
        <ele>85</ele>
        <time>2011-09-04T08:41:21Z</time>
      </trkpt>
      <trkpt lat="47.49677" lon="-0.32501">
        <ele>85</ele>
        <time>2011-09-04T08:41:22Z</time>
      </trkpt>
      <trkpt lat="47.49684" lon="-0.325">
        <ele>84</ele>
        <time>2011-09-04T08:41:23Z</time>
      </trkpt>
      <trkpt lat="47.4969" lon="-0.32499">
        <ele>84</ele>
        <time>2011-09-04T08:41:24Z</time>
      </trkpt>
      <trkpt lat="47.49697" lon="-0.32498">
        <ele>84</ele>
        <time>2011-09-04T08:41:25Z</time>
      </trkpt>
      <trkpt lat="47.49703" lon="-0.32496">
        <ele>83</ele>
        <time>2011-09-04T08:41:26Z</time>
      </trkpt>
      <trkpt lat="47.4971" lon="-0.32495">
        <ele>83</ele>
        <time>2011-09-04T08:41:27Z</time>
      </trkpt>
      <trkpt lat="47.49717" lon="-0.32494">
        <ele>83</ele>
        <time>2011-09-04T08:41:28Z</time>
      </trkpt>
      <trkpt lat="47.49724" lon="-0.32493">
        <ele>82</ele>
        <time>2011-09-04T08:41:29Z</time>
      </trkpt>
      <trkpt lat="47.49731" lon="-0.32491">
        <ele>82</ele>
        <time>2011-09-04T08:41:30Z</time>
      </trkpt>
      <trkpt lat="47.49737" lon="-0.3249">
        <ele>82</ele>
        <time>2011-09-04T08:41:31Z</time>
      </trkpt>
      <trkpt lat="47.49744" lon="-0.32488">
        <ele>81</ele>
        <time>2011-09-04T08:41:32Z</time>
      </trkpt>
      <trkpt lat="47.49751" lon="-0.32487">
        <ele>81</ele>
        <time>2011-09-04T08:41:33Z</time>
      </trkpt>
      <trkpt lat="47.49757" lon="-0.32486">
        <ele>81</ele>
        <time>2011-09-04T08:41:34Z</time>
      </trkpt>
      <trkpt lat="47.49763" lon="-0.32485">
        <ele>80</ele>
        <time>2011-09-04T08:41:35Z</time>
      </trkpt>
      <trkpt lat="47.49769" lon="-0.32484">
        <ele>81</ele>
        <time>2011-09-04T08:41:36Z</time>
      </trkpt>
      <trkpt lat="47.49775" lon="-0.32483">
        <ele>80</ele>
        <time>2011-09-04T08:41:37Z</time>
      </trkpt>
      <trkpt lat="47.49781" lon="-0.32483">
        <ele>80</ele>
        <time>2011-09-04T08:41:38Z</time>
      </trkpt>
      <trkpt lat="47.49787" lon="-0.32483">
        <ele>80</ele>
        <time>2011-09-04T08:41:39Z</time>
      </trkpt>
      <trkpt lat="47.49792" lon="-0.32482">
        <ele>80</ele>
        <time>2011-09-04T08:41:40Z</time>
      </trkpt>
      <trkpt lat="47.49798" lon="-0.32482">
        <ele>80</ele>
        <time>2011-09-04T08:41:41Z</time>
      </trkpt>
      <trkpt lat="47.49804" lon="-0.32482">
        <ele>80</ele>
        <time>2011-09-04T08:41:42Z</time>
      </trkpt>
      <trkpt lat="47.4981" lon="-0.32482">
        <ele>80</ele>
        <time>2011-09-04T08:41:43Z</time>
      </trkpt>
      <trkpt lat="47.49815" lon="-0.32483">
        <ele>81</ele>
        <time>2011-09-04T08:41:44Z</time>
      </trkpt>
      <trkpt lat="47.49821" lon="-0.32483">
        <ele>81</ele>
        <time>2011-09-04T08:41:45Z</time>
      </trkpt>
      <trkpt lat="47.49826" lon="-0.32484">
        <ele>81</ele>
        <time>2011-09-04T08:41:46Z</time>
      </trkpt>
      <trkpt lat="47.49831" lon="-0.32484">
        <ele>81</ele>
        <time>2011-09-04T08:41:47Z</time>
      </trkpt>
      <trkpt lat="47.49836" lon="-0.32484">
        <ele>81</ele>
        <time>2011-09-04T08:41:48Z</time>
      </trkpt>
      <trkpt lat="47.49841" lon="-0.32484">
        <ele>82</ele>
        <time>2011-09-04T08:41:49Z</time>
      </trkpt>
      <trkpt lat="47.49846" lon="-0.32485">
        <ele>82</ele>
        <time>2011-09-04T08:41:50Z</time>
      </trkpt>
      <trkpt lat="47.49855" lon="-0.32486">
        <ele>82</ele>
        <time>2011-09-04T08:41:52Z</time>
      </trkpt>
      <trkpt lat="47.49863" lon="-0.32487">
        <ele>83</ele>
        <time>2011-09-04T08:41:54Z</time>
      </trkpt>
      <trkpt lat="47.49871" lon="-0.32488">
        <ele>83</ele>
        <time>2011-09-04T08:41:56Z</time>
      </trkpt>
      <trkpt lat="47.49876" lon="-0.32487">
        <ele>84</ele>
        <time>2011-09-04T08:41:58Z</time>
      </trkpt>
      <trkpt lat="47.49882" lon="-0.32485">
        <ele>84</ele>
        <time>2011-09-04T08:42:01Z</time>
      </trkpt>
      <trkpt lat="47.49886" lon="-0.32482">
        <ele>84</ele>
        <time>2011-09-04T08:42:09Z</time>
      </trkpt>
      <trkpt lat="47.49892" lon="-0.32481">
        <ele>84</ele>
        <time>2011-09-04T08:42:12Z</time>
      </trkpt>
      <trkpt lat="47.49896" lon="-0.32483">
        <ele>85</ele>
        <time>2011-09-04T08:42:14Z</time>
      </trkpt>
      <trkpt lat="47.49901" lon="-0.32483">
        <ele>85</ele>
        <time>2011-09-04T08:42:16Z</time>
      </trkpt>
      <trkpt lat="47.49907" lon="-0.32482">
        <ele>85</ele>
        <time>2011-09-04T08:42:18Z</time>
      </trkpt>
      <trkpt lat="47.49913" lon="-0.3248">
        <ele>85</ele>
        <time>2011-09-04T08:42:20Z</time>
      </trkpt>
      <trkpt lat="47.49918" lon="-0.32481">
        <ele>84</ele>
        <time>2011-09-04T08:42:21Z</time>
      </trkpt>
      <trkpt lat="47.49926" lon="-0.32481">
        <ele>84</ele>
        <time>2011-09-04T08:42:23Z</time>
      </trkpt>
      <trkpt lat="47.49935" lon="-0.32482">
        <ele>85</ele>
        <time>2011-09-04T08:42:25Z</time>
      </trkpt>
      <trkpt lat="47.49943" lon="-0.32482">
        <ele>85</ele>
        <time>2011-09-04T08:42:27Z</time>
      </trkpt>
      <trkpt lat="47.4995" lon="-0.32482">
        <ele>85</ele>
        <time>2011-09-04T08:42:29Z</time>
      </trkpt>
      <trkpt lat="47.49958" lon="-0.32482">
        <ele>85</ele>
        <time>2011-09-04T08:42:31Z</time>
      </trkpt>
      <trkpt lat="47.49965" lon="-0.32482">
        <ele>85</ele>
        <time>2011-09-04T08:42:33Z</time>
      </trkpt>
      <trkpt lat="47.49972" lon="-0.32481">
        <ele>86</ele>
        <time>2011-09-04T08:42:35Z</time>
      </trkpt>
      <trkpt lat="47.49979" lon="-0.3248">
        <ele>86</ele>
        <time>2011-09-04T08:42:37Z</time>
      </trkpt>
      <trkpt lat="47.49986" lon="-0.3248">
        <ele>87</ele>
        <time>2011-09-04T08:42:39Z</time>
      </trkpt>
      <trkpt lat="47.49993" lon="-0.32482">
        <ele>87</ele>
        <time>2011-09-04T08:42:41Z</time>
      </trkpt>
      <trkpt lat="47.49999" lon="-0.32482">
        <ele>87</ele>
        <time>2011-09-04T08:42:43Z</time>
      </trkpt>
      <trkpt lat="47.50006" lon="-0.32482">
        <ele>88</ele>
        <time>2011-09-04T08:42:45Z</time>
      </trkpt>
      <trkpt lat="47.50012" lon="-0.32482">
        <ele>88</ele>
        <time>2011-09-04T08:42:47Z</time>
      </trkpt>
      <trkpt lat="47.5002" lon="-0.32482">
        <ele>88</ele>
        <time>2011-09-04T08:42:49Z</time>
      </trkpt>
      <trkpt lat="47.50026" lon="-0.32481">
        <ele>88</ele>
        <time>2011-09-04T08:42:51Z</time>
      </trkpt>
      <trkpt lat="47.50033" lon="-0.32481">
        <ele>89</ele>
        <time>2011-09-04T08:42:53Z</time>
      </trkpt>
      <trkpt lat="47.5004" lon="-0.3248">
        <ele>89</ele>
        <time>2011-09-04T08:42:55Z</time>
      </trkpt>
      <trkpt lat="47.50048" lon="-0.3248">
        <ele>90</ele>
        <time>2011-09-04T08:42:57Z</time>
      </trkpt>
      <trkpt lat="47.50055" lon="-0.32479">
        <ele>90</ele>
        <time>2011-09-04T08:42:59Z</time>
      </trkpt>
      <trkpt lat="47.50063" lon="-0.3248">
        <ele>90</ele>
        <time>2011-09-04T08:43:01Z</time>
      </trkpt>
      <trkpt lat="47.5007" lon="-0.3248">
        <ele>90</ele>
        <time>2011-09-04T08:43:03Z</time>
      </trkpt>
      <trkpt lat="47.50078" lon="-0.3248">
        <ele>90</ele>
        <time>2011-09-04T08:43:05Z</time>
      </trkpt>
      <trkpt lat="47.50085" lon="-0.32479">
        <ele>90</ele>
        <time>2011-09-04T08:43:07Z</time>
      </trkpt>
      <trkpt lat="47.50092" lon="-0.32479">
        <ele>91</ele>
        <time>2011-09-04T08:43:09Z</time>
      </trkpt>
      <trkpt lat="47.50099" lon="-0.32479">
        <ele>91</ele>
        <time>2011-09-04T08:43:11Z</time>
      </trkpt>
      <trkpt lat="47.50106" lon="-0.3248">
        <ele>92</ele>
        <time>2011-09-04T08:43:13Z</time>
      </trkpt>
      <trkpt lat="47.50113" lon="-0.3248">
        <ele>92</ele>
        <time>2011-09-04T08:43:15Z</time>
      </trkpt>
      <trkpt lat="47.5012" lon="-0.3248">
        <ele>92</ele>
        <time>2011-09-04T08:43:17Z</time>
      </trkpt>
      <trkpt lat="47.50126" lon="-0.32481">
        <ele>93</ele>
        <time>2011-09-04T08:43:19Z</time>
      </trkpt>
      <trkpt lat="47.50132" lon="-0.32481">
        <ele>94</ele>
        <time>2011-09-04T08:43:21Z</time>
      </trkpt>
      <trkpt lat="47.50138" lon="-0.32481">
        <ele>94</ele>
        <time>2011-09-04T08:43:23Z</time>
      </trkpt>
      <trkpt lat="47.50145" lon="-0.32481">
        <ele>94</ele>
        <time>2011-09-04T08:43:25Z</time>
      </trkpt>
      <trkpt lat="47.50152" lon="-0.3248">
        <ele>94</ele>
        <time>2011-09-04T08:43:27Z</time>
      </trkpt>
      <trkpt lat="47.50158" lon="-0.3248">
        <ele>94</ele>
        <time>2011-09-04T08:43:29Z</time>
      </trkpt>
      <trkpt lat="47.50165" lon="-0.3248">
        <ele>94</ele>
        <time>2011-09-04T08:43:31Z</time>
      </trkpt>
      <trkpt lat="47.50172" lon="-0.3248">
        <ele>94</ele>
        <time>2011-09-04T08:43:33Z</time>
      </trkpt>
      <trkpt lat="47.50177" lon="-0.32482">
        <ele>95</ele>
        <time>2011-09-04T08:43:35Z</time>
      </trkpt>
      <trkpt lat="47.50182" lon="-0.32483">
        <ele>95</ele>
        <time>2011-09-04T08:43:37Z</time>
      </trkpt>
      <trkpt lat="47.50187" lon="-0.32485">
        <ele>95</ele>
        <time>2011-09-04T08:43:39Z</time>
      </trkpt>
      <trkpt lat="47.50192" lon="-0.32482">
        <ele>95</ele>
        <time>2011-09-04T08:43:42Z</time>
      </trkpt>
      <trkpt lat="47.50196" lon="-0.32471">
        <ele>95</ele>
        <time>2011-09-04T08:43:45Z</time>
      </trkpt>
      <trkpt lat="47.50196" lon="-0.32458">
        <ele>96</ele>
        <time>2011-09-04T08:43:47Z</time>
      </trkpt>
      <trkpt lat="47.50196" lon="-0.3245">
        <ele>96</ele>
        <time>2011-09-04T08:43:48Z</time>
      </trkpt>
      <trkpt lat="47.50194" lon="-0.32442">
        <ele>96</ele>
        <time>2011-09-04T08:43:49Z</time>
      </trkpt>
      <trkpt lat="47.50194" lon="-0.32432">
        <ele>95</ele>
        <time>2011-09-04T08:43:50Z</time>
      </trkpt>
      <trkpt lat="47.50193" lon="-0.32423">
        <ele>94</ele>
        <time>2011-09-04T08:43:51Z</time>
      </trkpt>
      <trkpt lat="47.50193" lon="-0.32413">
        <ele>94</ele>
        <time>2011-09-04T08:43:52Z</time>
      </trkpt>
      <trkpt lat="47.50192" lon="-0.32404">
        <ele>94</ele>
        <time>2011-09-04T08:43:53Z</time>
      </trkpt>
      <trkpt lat="47.50192" lon="-0.32395">
        <ele>94</ele>
        <time>2011-09-04T08:43:54Z</time>
      </trkpt>
      <trkpt lat="47.50192" lon="-0.32384">
        <ele>93</ele>
        <time>2011-09-04T08:43:55Z</time>
      </trkpt>
      <trkpt lat="47.5019" lon="-0.32363">
        <ele>93</ele>
        <time>2011-09-04T08:43:57Z</time>
      </trkpt>
      <trkpt lat="47.5019" lon="-0.32353">
        <ele>92</ele>
        <time>2011-09-04T08:43:58Z</time>
      </trkpt>
      <trkpt lat="47.50189" lon="-0.32343">
        <ele>92</ele>
        <time>2011-09-04T08:43:59Z</time>
      </trkpt>
      <trkpt lat="47.50188" lon="-0.32333">
        <ele>92</ele>
        <time>2011-09-04T08:44:00Z</time>
      </trkpt>
      <trkpt lat="47.50187" lon="-0.32325">
        <ele>92</ele>
        <time>2011-09-04T08:44:01Z</time>
      </trkpt>
      <trkpt lat="47.50185" lon="-0.32317">
        <ele>92</ele>
        <time>2011-09-04T08:44:02Z</time>
      </trkpt>
      <trkpt lat="47.50184" lon="-0.32311">
        <ele>91</ele>
        <time>2011-09-04T08:44:03Z</time>
      </trkpt>
      <trkpt lat="47.50181" lon="-0.32298">
        <ele>91</ele>
        <time>2011-09-04T08:44:05Z</time>
      </trkpt>
      <trkpt lat="47.50178" lon="-0.32287">
        <ele>90</ele>
        <time>2011-09-04T08:44:07Z</time>
      </trkpt>
      <trkpt lat="47.50177" lon="-0.32276">
        <ele>90</ele>
        <time>2011-09-04T08:44:09Z</time>
      </trkpt>
      <trkpt lat="47.50178" lon="-0.32264">
        <ele>89</ele>
        <time>2011-09-04T08:44:11Z</time>
      </trkpt>
      <trkpt lat="47.5018" lon="-0.32255">
        <ele>89</ele>
        <time>2011-09-04T08:44:13Z</time>
      </trkpt>
      <trkpt lat="47.50186" lon="-0.3225">
        <ele>89</ele>
        <time>2011-09-04T08:44:15Z</time>
      </trkpt>
      <trkpt lat="47.50198" lon="-0.3225">
        <ele>89</ele>
        <time>2011-09-04T08:44:17Z</time>
      </trkpt>
      <trkpt lat="47.50203" lon="-0.32249">
        <ele>89</ele>
        <time>2011-09-04T08:44:18Z</time>
      </trkpt>
      <trkpt lat="47.50212" lon="-0.32247">
        <ele>89</ele>
        <time>2011-09-04T08:44:20Z</time>
      </trkpt>
      <trkpt lat="47.50217" lon="-0.32246">
        <ele>89</ele>
        <time>2011-09-04T08:44:21Z</time>
      </trkpt>
      <trkpt lat="47.50222" lon="-0.32246">
        <ele>89</ele>
        <time>2011-09-04T08:44:22Z</time>
      </trkpt>
      <trkpt lat="47.50227" lon="-0.32245">
        <ele>89</ele>
        <time>2011-09-04T08:44:23Z</time>
      </trkpt>
      <trkpt lat="47.50236" lon="-0.32245">
        <ele>89</ele>
        <time>2011-09-04T08:44:25Z</time>
      </trkpt>
      <trkpt lat="47.50241" lon="-0.32245">
        <ele>88</ele>
        <time>2011-09-04T08:44:26Z</time>
      </trkpt>
      <trkpt lat="47.50246" lon="-0.32246">
        <ele>88</ele>
        <time>2011-09-04T08:44:27Z</time>
      </trkpt>
      <trkpt lat="47.50251" lon="-0.32246">
        <ele>88</ele>
        <time>2011-09-04T08:44:28Z</time>
      </trkpt>
      <trkpt lat="47.5026" lon="-0.32247">
        <ele>88</ele>
        <time>2011-09-04T08:44:30Z</time>
      </trkpt>
      <trkpt lat="47.50269" lon="-0.32249">
        <ele>88</ele>
        <time>2011-09-04T08:44:32Z</time>
      </trkpt>
      <trkpt lat="47.50278" lon="-0.32251">
        <ele>87</ele>
        <time>2011-09-04T08:44:34Z</time>
      </trkpt>
      <trkpt lat="47.50288" lon="-0.32252">
        <ele>87</ele>
        <time>2011-09-04T08:44:36Z</time>
      </trkpt>
      <trkpt lat="47.50293" lon="-0.32253">
        <ele>87</ele>
        <time>2011-09-04T08:44:37Z</time>
      </trkpt>
      <trkpt lat="47.50298" lon="-0.32255">
        <ele>87</ele>
        <time>2011-09-04T08:44:38Z</time>
      </trkpt>
      <trkpt lat="47.50304" lon="-0.32257">
        <ele>87</ele>
        <time>2011-09-04T08:44:39Z</time>
      </trkpt>
      <trkpt lat="47.5031" lon="-0.32258">
        <ele>87</ele>
        <time>2011-09-04T08:44:40Z</time>
      </trkpt>
      <trkpt lat="47.50316" lon="-0.3226">
        <ele>87</ele>
        <time>2011-09-04T08:44:41Z</time>
      </trkpt>
      <trkpt lat="47.50321" lon="-0.32262">
        <ele>87</ele>
        <time>2011-09-04T08:44:42Z</time>
      </trkpt>
      <trkpt lat="47.50327" lon="-0.32264">
        <ele>87</ele>
        <time>2011-09-04T08:44:43Z</time>
      </trkpt>
      <trkpt lat="47.50333" lon="-0.32267">
        <ele>87</ele>
        <time>2011-09-04T08:44:44Z</time>
      </trkpt>
      <trkpt lat="47.50339" lon="-0.32269">
        <ele>87</ele>
        <time>2011-09-04T08:44:45Z</time>
      </trkpt>
      <trkpt lat="47.50346" lon="-0.32272">
        <ele>87</ele>
        <time>2011-09-04T08:44:46Z</time>
      </trkpt>
      <trkpt lat="47.50351" lon="-0.32274">
        <ele>87</ele>
        <time>2011-09-04T08:44:47Z</time>
      </trkpt>
      <trkpt lat="47.50357" lon="-0.32276">
        <ele>87</ele>
        <time>2011-09-04T08:44:48Z</time>
      </trkpt>
      <trkpt lat="47.50363" lon="-0.32278">
        <ele>87</ele>
        <time>2011-09-04T08:44:49Z</time>
      </trkpt>
      <trkpt lat="47.50369" lon="-0.3228">
        <ele>87</ele>
        <time>2011-09-04T08:44:50Z</time>
      </trkpt>
      <trkpt lat="47.50374" lon="-0.32281">
        <ele>87</ele>
        <time>2011-09-04T08:44:51Z</time>
      </trkpt>
      <trkpt lat="47.5038" lon="-0.32284">
        <ele>87</ele>
        <time>2011-09-04T08:44:52Z</time>
      </trkpt>
      <trkpt lat="47.50386" lon="-0.32286">
        <ele>88</ele>
        <time>2011-09-04T08:44:53Z</time>
      </trkpt>
      <trkpt lat="47.50393" lon="-0.32288">
        <ele>88</ele>
        <time>2011-09-04T08:44:54Z</time>
      </trkpt>
      <trkpt lat="47.50399" lon="-0.3229">
        <ele>88</ele>
        <time>2011-09-04T08:44:55Z</time>
      </trkpt>
      <trkpt lat="47.50412" lon="-0.32294">
        <ele>88</ele>
        <time>2011-09-04T08:44:57Z</time>
      </trkpt>
      <trkpt lat="47.50417" lon="-0.32296">
        <ele>88</ele>
        <time>2011-09-04T08:44:58Z</time>
      </trkpt>
      <trkpt lat="47.50423" lon="-0.32299">
        <ele>88</ele>
        <time>2011-09-04T08:44:59Z</time>
      </trkpt>
      <trkpt lat="47.50429" lon="-0.32302">
        <ele>88</ele>
        <time>2011-09-04T08:45:00Z</time>
      </trkpt>
      <trkpt lat="47.50435" lon="-0.32304">
        <ele>87</ele>
        <time>2011-09-04T08:45:01Z</time>
      </trkpt>
      <trkpt lat="47.50441" lon="-0.32306">
        <ele>87</ele>
        <time>2011-09-04T08:45:02Z</time>
      </trkpt>
      <trkpt lat="47.50446" lon="-0.32309">
        <ele>87</ele>
        <time>2011-09-04T08:45:03Z</time>
      </trkpt>
      <trkpt lat="47.50452" lon="-0.32311">
        <ele>87</ele>
        <time>2011-09-04T08:45:04Z</time>
      </trkpt>
      <trkpt lat="47.50458" lon="-0.32314">
        <ele>87</ele>
        <time>2011-09-04T08:45:05Z</time>
      </trkpt>
      <trkpt lat="47.50464" lon="-0.32317">
        <ele>87</ele>
        <time>2011-09-04T08:45:06Z</time>
      </trkpt>
      <trkpt lat="47.5047" lon="-0.32321">
        <ele>87</ele>
        <time>2011-09-04T08:45:07Z</time>
      </trkpt>
      <trkpt lat="47.50475" lon="-0.32324">
        <ele>87</ele>
        <time>2011-09-04T08:45:08Z</time>
      </trkpt>
      <trkpt lat="47.50481" lon="-0.32328">
        <ele>87</ele>
        <time>2011-09-04T08:45:09Z</time>
      </trkpt>
      <trkpt lat="47.50487" lon="-0.32331">
        <ele>87</ele>
        <time>2011-09-04T08:45:10Z</time>
      </trkpt>
      <trkpt lat="47.50492" lon="-0.32335">
        <ele>87</ele>
        <time>2011-09-04T08:45:11Z</time>
      </trkpt>
      <trkpt lat="47.50499" lon="-0.32338">
        <ele>87</ele>
        <time>2011-09-04T08:45:12Z</time>
      </trkpt>
      <trkpt lat="47.50505" lon="-0.32342">
        <ele>87</ele>
        <time>2011-09-04T08:45:13Z</time>
      </trkpt>
      <trkpt lat="47.5051" lon="-0.32345">
        <ele>87</ele>
        <time>2011-09-04T08:45:14Z</time>
      </trkpt>
      <trkpt lat="47.50516" lon="-0.32348">
        <ele>86</ele>
        <time>2011-09-04T08:45:15Z</time>
      </trkpt>
      <trkpt lat="47.50522" lon="-0.32352">
        <ele>86</ele>
        <time>2011-09-04T08:45:16Z</time>
      </trkpt>
      <trkpt lat="47.50527" lon="-0.32356">
        <ele>86</ele>
        <time>2011-09-04T08:45:17Z</time>
      </trkpt>
      <trkpt lat="47.50533" lon="-0.3236">
        <ele>86</ele>
        <time>2011-09-04T08:45:18Z</time>
      </trkpt>
      <trkpt lat="47.50539" lon="-0.32365">
        <ele>85</ele>
        <time>2011-09-04T08:45:19Z</time>
      </trkpt>
      <trkpt lat="47.50545" lon="-0.32369">
        <ele>85</ele>
        <time>2011-09-04T08:45:20Z</time>
      </trkpt>
      <trkpt lat="47.5055" lon="-0.32373">
        <ele>85</ele>
        <time>2011-09-04T08:45:21Z</time>
      </trkpt>
      <trkpt lat="47.50556" lon="-0.32376">
        <ele>85</ele>
        <time>2011-09-04T08:45:22Z</time>
      </trkpt>
      <trkpt lat="47.50562" lon="-0.32379">
        <ele>85</ele>
        <time>2011-09-04T08:45:23Z</time>
      </trkpt>
      <trkpt lat="47.50567" lon="-0.32382">
        <ele>85</ele>
        <time>2011-09-04T08:45:24Z</time>
      </trkpt>
      <trkpt lat="47.50573" lon="-0.32386">
        <ele>86</ele>
        <time>2011-09-04T08:45:25Z</time>
      </trkpt>
      <trkpt lat="47.50579" lon="-0.32389">
        <ele>86</ele>
        <time>2011-09-04T08:45:26Z</time>
      </trkpt>
      <trkpt lat="47.50585" lon="-0.32392">
        <ele>86</ele>
        <time>2011-09-04T08:45:27Z</time>
      </trkpt>
      <trkpt lat="47.50591" lon="-0.32396">
        <ele>86</ele>
        <time>2011-09-04T08:45:28Z</time>
      </trkpt>
      <trkpt lat="47.50597" lon="-0.32398">
        <ele>85</ele>
        <time>2011-09-04T08:45:29Z</time>
      </trkpt>
      <trkpt lat="47.50604" lon="-0.32401">
        <ele>85</ele>
        <time>2011-09-04T08:45:30Z</time>
      </trkpt>
      <trkpt lat="47.5061" lon="-0.32403">
        <ele>84</ele>
        <time>2011-09-04T08:45:31Z</time>
      </trkpt>
      <trkpt lat="47.50616" lon="-0.32405">
        <ele>84</ele>
        <time>2011-09-04T08:45:32Z</time>
      </trkpt>
      <trkpt lat="47.50623" lon="-0.32408">
        <ele>84</ele>
        <time>2011-09-04T08:45:33Z</time>
      </trkpt>
      <trkpt lat="47.5063" lon="-0.32409">
        <ele>84</ele>
        <time>2011-09-04T08:45:34Z</time>
      </trkpt>
      <trkpt lat="47.50637" lon="-0.32411">
        <ele>83</ele>
        <time>2011-09-04T08:45:35Z</time>
      </trkpt>
      <trkpt lat="47.50645" lon="-0.32412">
        <ele>83</ele>
        <time>2011-09-04T08:45:36Z</time>
      </trkpt>
      <trkpt lat="47.50652" lon="-0.32413">
        <ele>83</ele>
        <time>2011-09-04T08:45:37Z</time>
      </trkpt>
      <trkpt lat="47.50659" lon="-0.32413">
        <ele>82</ele>
        <time>2011-09-04T08:45:38Z</time>
      </trkpt>
      <trkpt lat="47.50666" lon="-0.32413">
        <ele>82</ele>
        <time>2011-09-04T08:45:39Z</time>
      </trkpt>
      <trkpt lat="47.50674" lon="-0.32413">
        <ele>82</ele>
        <time>2011-09-04T08:45:40Z</time>
      </trkpt>
      <trkpt lat="47.50681" lon="-0.32413">
        <ele>82</ele>
        <time>2011-09-04T08:45:41Z</time>
      </trkpt>
      <trkpt lat="47.50688" lon="-0.32412">
        <ele>81</ele>
        <time>2011-09-04T08:45:42Z</time>
      </trkpt>
      <trkpt lat="47.50696" lon="-0.32411">
        <ele>81</ele>
        <time>2011-09-04T08:45:43Z</time>
      </trkpt>
      <trkpt lat="47.50703" lon="-0.32409">
        <ele>81</ele>
        <time>2011-09-04T08:45:44Z</time>
      </trkpt>
      <trkpt lat="47.50711" lon="-0.32408">
        <ele>81</ele>
        <time>2011-09-04T08:45:45Z</time>
      </trkpt>
      <trkpt lat="47.50719" lon="-0.32406">
        <ele>80</ele>
        <time>2011-09-04T08:45:46Z</time>
      </trkpt>
      <trkpt lat="47.50726" lon="-0.32404">
        <ele>80</ele>
        <time>2011-09-04T08:45:47Z</time>
      </trkpt>
      <trkpt lat="47.50734" lon="-0.32403">
        <ele>80</ele>
        <time>2011-09-04T08:45:48Z</time>
      </trkpt>
      <trkpt lat="47.50742" lon="-0.32402">
        <ele>80</ele>
        <time>2011-09-04T08:45:49Z</time>
      </trkpt>
      <trkpt lat="47.5075" lon="-0.324">
        <ele>80</ele>
        <time>2011-09-04T08:45:50Z</time>
      </trkpt>
      <trkpt lat="47.50758" lon="-0.32399">
        <ele>80</ele>
        <time>2011-09-04T08:45:51Z</time>
      </trkpt>
      <trkpt lat="47.50766" lon="-0.324">
        <ele>79</ele>
        <time>2011-09-04T08:45:52Z</time>
      </trkpt>
      <trkpt lat="47.50773" lon="-0.32401">
        <ele>79</ele>
        <time>2011-09-04T08:45:53Z</time>
      </trkpt>
      <trkpt lat="47.5078" lon="-0.32402">
        <ele>79</ele>
        <time>2011-09-04T08:45:54Z</time>
      </trkpt>
      <trkpt lat="47.50786" lon="-0.32403">
        <ele>79</ele>
        <time>2011-09-04T08:45:55Z</time>
      </trkpt>
      <trkpt lat="47.50799" lon="-0.32402">
        <ele>79</ele>
        <time>2011-09-04T08:45:57Z</time>
      </trkpt>
      <trkpt lat="47.50805" lon="-0.32398">
        <ele>79</ele>
        <time>2011-09-04T08:45:58Z</time>
      </trkpt>
      <trkpt lat="47.50808" lon="-0.32392">
        <ele>80</ele>
        <time>2011-09-04T08:45:59Z</time>
      </trkpt>
      <trkpt lat="47.50809" lon="-0.32384">
        <ele>80</ele>
        <time>2011-09-04T08:46:00Z</time>
      </trkpt>
      <trkpt lat="47.50806" lon="-0.32373">
        <ele>80</ele>
        <time>2011-09-04T08:46:01Z</time>
      </trkpt>
      <trkpt lat="47.50806" lon="-0.32365">
        <ele>80</ele>
        <time>2011-09-04T08:46:02Z</time>
      </trkpt>
      <trkpt lat="47.50806" lon="-0.32356">
        <ele>80</ele>
        <time>2011-09-04T08:46:03Z</time>
      </trkpt>
      <trkpt lat="47.50807" lon="-0.32348">
        <ele>80</ele>
        <time>2011-09-04T08:46:04Z</time>
      </trkpt>
      <trkpt lat="47.50809" lon="-0.32341">
        <ele>80</ele>
        <time>2011-09-04T08:46:05Z</time>
      </trkpt>
      <trkpt lat="47.50811" lon="-0.32333">
        <ele>81</ele>
        <time>2011-09-04T08:46:06Z</time>
      </trkpt>
      <trkpt lat="47.50812" lon="-0.32326">
        <ele>81</ele>
        <time>2011-09-04T08:46:07Z</time>
      </trkpt>
      <trkpt lat="47.50813" lon="-0.32318">
        <ele>81</ele>
        <time>2011-09-04T08:46:08Z</time>
      </trkpt>
      <trkpt lat="47.50814" lon="-0.32311">
        <ele>81</ele>
        <time>2011-09-04T08:46:09Z</time>
      </trkpt>
      <trkpt lat="47.50816" lon="-0.32303">
        <ele>81</ele>
        <time>2011-09-04T08:46:10Z</time>
      </trkpt>
      <trkpt lat="47.50816" lon="-0.32295">
        <ele>81</ele>
        <time>2011-09-04T08:46:11Z</time>
      </trkpt>
      <trkpt lat="47.50818" lon="-0.32288">
        <ele>81</ele>
        <time>2011-09-04T08:46:12Z</time>
      </trkpt>
      <trkpt lat="47.50819" lon="-0.3228">
        <ele>81</ele>
        <time>2011-09-04T08:46:13Z</time>
      </trkpt>
      <trkpt lat="47.50821" lon="-0.32272">
        <ele>82</ele>
        <time>2011-09-04T08:46:14Z</time>
      </trkpt>
      <trkpt lat="47.50822" lon="-0.32264">
        <ele>82</ele>
        <time>2011-09-04T08:46:15Z</time>
      </trkpt>
      <trkpt lat="47.50823" lon="-0.32256">
        <ele>82</ele>
        <time>2011-09-04T08:46:16Z</time>
      </trkpt>
      <trkpt lat="47.50825" lon="-0.32248">
        <ele>82</ele>
        <time>2011-09-04T08:46:17Z</time>
      </trkpt>
      <trkpt lat="47.50826" lon="-0.3224">
        <ele>82</ele>
        <time>2011-09-04T08:46:18Z</time>
      </trkpt>
      <trkpt lat="47.50827" lon="-0.32231">
        <ele>82</ele>
        <time>2011-09-04T08:46:19Z</time>
      </trkpt>
      <trkpt lat="47.50829" lon="-0.32223">
        <ele>81</ele>
        <time>2011-09-04T08:46:20Z</time>
      </trkpt>
      <trkpt lat="47.5083" lon="-0.32215">
        <ele>81</ele>
        <time>2011-09-04T08:46:21Z</time>
      </trkpt>
      <trkpt lat="47.50832" lon="-0.32206">
        <ele>81</ele>
        <time>2011-09-04T08:46:22Z</time>
      </trkpt>
      <trkpt lat="47.50833" lon="-0.32197">
        <ele>81</ele>
        <time>2011-09-04T08:46:23Z</time>
      </trkpt>
      <trkpt lat="47.50835" lon="-0.32188">
        <ele>81</ele>
        <time>2011-09-04T08:46:24Z</time>
      </trkpt>
      <trkpt lat="47.50836" lon="-0.3218">
        <ele>81</ele>
        <time>2011-09-04T08:46:25Z</time>
      </trkpt>
      <trkpt lat="47.50838" lon="-0.32171">
        <ele>81</ele>
        <time>2011-09-04T08:46:26Z</time>
      </trkpt>
      <trkpt lat="47.5084" lon="-0.32162">
        <ele>81</ele>
        <time>2011-09-04T08:46:27Z</time>
      </trkpt>
      <trkpt lat="47.50841" lon="-0.32154">
        <ele>81</ele>
        <time>2011-09-04T08:46:28Z</time>
      </trkpt>
      <trkpt lat="47.50842" lon="-0.32146">
        <ele>81</ele>
        <time>2011-09-04T08:46:29Z</time>
      </trkpt>
      <trkpt lat="47.50843" lon="-0.32138">
        <ele>81</ele>
        <time>2011-09-04T08:46:30Z</time>
      </trkpt>
      <trkpt lat="47.50844" lon="-0.3213">
        <ele>81</ele>
        <time>2011-09-04T08:46:31Z</time>
      </trkpt>
      <trkpt lat="47.50845" lon="-0.32122">
        <ele>81</ele>
        <time>2011-09-04T08:46:32Z</time>
      </trkpt>
      <trkpt lat="47.50846" lon="-0.32114">
        <ele>81</ele>
        <time>2011-09-04T08:46:33Z</time>
      </trkpt>
      <trkpt lat="47.50846" lon="-0.32106">
        <ele>81</ele>
        <time>2011-09-04T08:46:34Z</time>
      </trkpt>
      <trkpt lat="47.50847" lon="-0.32098">
        <ele>81</ele>
        <time>2011-09-04T08:46:35Z</time>
      </trkpt>
      <trkpt lat="47.50847" lon="-0.3209">
        <ele>81</ele>
        <time>2011-09-04T08:46:36Z</time>
      </trkpt>
      <trkpt lat="47.50848" lon="-0.32081">
        <ele>81</ele>
        <time>2011-09-04T08:46:37Z</time>
      </trkpt>
      <trkpt lat="47.50848" lon="-0.32073">
        <ele>81</ele>
        <time>2011-09-04T08:46:38Z</time>
      </trkpt>
      <trkpt lat="47.50849" lon="-0.32065">
        <ele>81</ele>
        <time>2011-09-04T08:46:39Z</time>
      </trkpt>
      <trkpt lat="47.50849" lon="-0.32057">
        <ele>81</ele>
        <time>2011-09-04T08:46:40Z</time>
      </trkpt>
      <trkpt lat="47.50848" lon="-0.3205">
        <ele>81</ele>
        <time>2011-09-04T08:46:41Z</time>
      </trkpt>
      <trkpt lat="47.50849" lon="-0.32042">
        <ele>81</ele>
        <time>2011-09-04T08:46:42Z</time>
      </trkpt>
      <trkpt lat="47.50849" lon="-0.32034">
        <ele>81</ele>
        <time>2011-09-04T08:46:43Z</time>
      </trkpt>
      <trkpt lat="47.50849" lon="-0.32026">
        <ele>81</ele>
        <time>2011-09-04T08:46:44Z</time>
      </trkpt>
      <trkpt lat="47.5085" lon="-0.32011">
        <ele>81</ele>
        <time>2011-09-04T08:46:46Z</time>
      </trkpt>
      <trkpt lat="47.50851" lon="-0.32004">
        <ele>81</ele>
        <time>2011-09-04T08:46:47Z</time>
      </trkpt>
      <trkpt lat="47.50852" lon="-0.31996">
        <ele>82</ele>
        <time>2011-09-04T08:46:48Z</time>
      </trkpt>
      <trkpt lat="47.50852" lon="-0.31988">
        <ele>82</ele>
        <time>2011-09-04T08:46:49Z</time>
      </trkpt>
      <trkpt lat="47.50854" lon="-0.3198">
        <ele>81</ele>
        <time>2011-09-04T08:46:50Z</time>
      </trkpt>
      <trkpt lat="47.50856" lon="-0.31971">
        <ele>81</ele>
        <time>2011-09-04T08:46:51Z</time>
      </trkpt>
      <trkpt lat="47.50857" lon="-0.31964">
        <ele>81</ele>
        <time>2011-09-04T08:46:52Z</time>
      </trkpt>
      <trkpt lat="47.50858" lon="-0.31957">
        <ele>80</ele>
        <time>2011-09-04T08:46:53Z</time>
      </trkpt>
      <trkpt lat="47.50859" lon="-0.3195">
        <ele>80</ele>
        <time>2011-09-04T08:46:54Z</time>
      </trkpt>
      <trkpt lat="47.5086" lon="-0.31944">
        <ele>80</ele>
        <time>2011-09-04T08:46:55Z</time>
      </trkpt>
      <trkpt lat="47.50862" lon="-0.31935">
        <ele>80</ele>
        <time>2011-09-04T08:46:56Z</time>
      </trkpt>
      <trkpt lat="47.50863" lon="-0.31927">
        <ele>81</ele>
        <time>2011-09-04T08:46:57Z</time>
      </trkpt>
      <trkpt lat="47.50865" lon="-0.31919">
        <ele>81</ele>
        <time>2011-09-04T08:46:58Z</time>
      </trkpt>
      <trkpt lat="47.50867" lon="-0.31911">
        <ele>81</ele>
        <time>2011-09-04T08:46:59Z</time>
      </trkpt>
      <trkpt lat="47.50869" lon="-0.31905">
        <ele>81</ele>
        <time>2011-09-04T08:47:00Z</time>
      </trkpt>
      <trkpt lat="47.50873" lon="-0.31895">
        <ele>82</ele>
        <time>2011-09-04T08:47:02Z</time>
      </trkpt>
      <trkpt lat="47.50877" lon="-0.31883">
        <ele>82</ele>
        <time>2011-09-04T08:47:04Z</time>
      </trkpt>
      <trkpt lat="47.50879" lon="-0.31876">
        <ele>82</ele>
        <time>2011-09-04T08:47:05Z</time>
      </trkpt>
      <trkpt lat="47.50881" lon="-0.3187">
        <ele>82</ele>
        <time>2011-09-04T08:47:06Z</time>
      </trkpt>
      <trkpt lat="47.50884" lon="-0.31864">
        <ele>82</ele>
        <time>2011-09-04T08:47:07Z</time>
      </trkpt>
      <trkpt lat="47.50887" lon="-0.31856">
        <ele>82</ele>
        <time>2011-09-04T08:47:08Z</time>
      </trkpt>
      <trkpt lat="47.50888" lon="-0.31846">
        <ele>82</ele>
        <time>2011-09-04T08:47:09Z</time>
      </trkpt>
      <trkpt lat="47.5089" lon="-0.31838">
        <ele>82</ele>
        <time>2011-09-04T08:47:10Z</time>
      </trkpt>
      <trkpt lat="47.50891" lon="-0.31831">
        <ele>82</ele>
        <time>2011-09-04T08:47:11Z</time>
      </trkpt>
      <trkpt lat="47.50891" lon="-0.31824">
        <ele>82</ele>
        <time>2011-09-04T08:47:12Z</time>
      </trkpt>
      <trkpt lat="47.50887" lon="-0.31816">
        <ele>82</ele>
        <time>2011-09-04T08:47:13Z</time>
      </trkpt>
      <trkpt lat="47.50886" lon="-0.31809">
        <ele>81</ele>
        <time>2011-09-04T08:47:14Z</time>
      </trkpt>
      <trkpt lat="47.50881" lon="-0.31802">
        <ele>81</ele>
        <time>2011-09-04T08:47:15Z</time>
      </trkpt>
      <trkpt lat="47.50878" lon="-0.31798">
        <ele>81</ele>
        <time>2011-09-04T08:47:16Z</time>
      </trkpt>
      <trkpt lat="47.50873" lon="-0.31794">
        <ele>81</ele>
        <time>2011-09-04T08:47:17Z</time>
      </trkpt>
      <trkpt lat="47.50869" lon="-0.3179">
        <ele>80</ele>
        <time>2011-09-04T08:47:18Z</time>
      </trkpt>
      <trkpt lat="47.50864" lon="-0.31786">
        <ele>79</ele>
        <time>2011-09-04T08:47:19Z</time>
      </trkpt>
      <trkpt lat="47.50859" lon="-0.31783">
        <ele>79</ele>
        <time>2011-09-04T08:47:20Z</time>
      </trkpt>
      <trkpt lat="47.50853" lon="-0.31776">
        <ele>79</ele>
        <time>2011-09-04T08:47:22Z</time>
      </trkpt>
      <trkpt lat="47.50848" lon="-0.31768">
        <ele>80</ele>
        <time>2011-09-04T08:47:24Z</time>
      </trkpt>
      <trkpt lat="47.50841" lon="-0.31762">
        <ele>79</ele>
        <time>2011-09-04T08:47:26Z</time>
      </trkpt>
      <trkpt lat="47.50836" lon="-0.31757">
        <ele>79</ele>
        <time>2011-09-04T08:47:28Z</time>
      </trkpt>
      <trkpt lat="47.50829" lon="-0.31754">
        <ele>79</ele>
        <time>2011-09-04T08:47:30Z</time>
      </trkpt>
      <trkpt lat="47.5082" lon="-0.31749">
        <ele>78</ele>
        <time>2011-09-04T08:47:32Z</time>
      </trkpt>
      <trkpt lat="47.50813" lon="-0.31746">
        <ele>78</ele>
        <time>2011-09-04T08:47:34Z</time>
      </trkpt>
      <trkpt lat="47.50806" lon="-0.31743">
        <ele>78</ele>
        <time>2011-09-04T08:47:36Z</time>
      </trkpt>
      <trkpt lat="47.50796" lon="-0.31741">
        <ele>77</ele>
        <time>2011-09-04T08:47:38Z</time>
      </trkpt>
      <trkpt lat="47.5079" lon="-0.31738">
        <ele>77</ele>
        <time>2011-09-04T08:47:40Z</time>
      </trkpt>
      <trkpt lat="47.50784" lon="-0.31736">
        <ele>77</ele>
        <time>2011-09-04T08:47:41Z</time>
      </trkpt>
      <trkpt lat="47.50776" lon="-0.31736">
        <ele>78</ele>
        <time>2011-09-04T08:47:43Z</time>
      </trkpt>
      <trkpt lat="47.50769" lon="-0.31734">
        <ele>78</ele>
        <time>2011-09-04T08:47:45Z</time>
      </trkpt>
      <trkpt lat="47.50764" lon="-0.31734">
        <ele>78</ele>
        <time>2011-09-04T08:47:46Z</time>
      </trkpt>
      <trkpt lat="47.50755" lon="-0.31733">
        <ele>78</ele>
        <time>2011-09-04T08:47:48Z</time>
      </trkpt>
      <trkpt lat="47.50746" lon="-0.31732">
        <ele>77</ele>
        <time>2011-09-04T08:47:50Z</time>
      </trkpt>
      <trkpt lat="47.50738" lon="-0.3173">
        <ele>77</ele>
        <time>2011-09-04T08:47:52Z</time>
      </trkpt>
      <trkpt lat="47.5073" lon="-0.31729">
        <ele>77</ele>
        <time>2011-09-04T08:47:54Z</time>
      </trkpt>
      <trkpt lat="47.50724" lon="-0.31727">
        <ele>77</ele>
        <time>2011-09-04T08:47:56Z</time>
      </trkpt>
      <trkpt lat="47.50717" lon="-0.31725">
        <ele>78</ele>
        <time>2011-09-04T08:47:58Z</time>
      </trkpt>
      <trkpt lat="47.5071" lon="-0.3172">
        <ele>78</ele>
        <time>2011-09-04T08:48:00Z</time>
      </trkpt>
      <trkpt lat="47.50705" lon="-0.31718">
        <ele>78</ele>
        <time>2011-09-04T08:48:01Z</time>
      </trkpt>
      <trkpt lat="47.50697" lon="-0.31716">
        <ele>78</ele>
        <time>2011-09-04T08:48:03Z</time>
      </trkpt>
      <trkpt lat="47.50687" lon="-0.3171">
        <ele>76</ele>
        <time>2011-09-04T08:48:05Z</time>
      </trkpt>
      <trkpt lat="47.50679" lon="-0.31705">
        <ele>77</ele>
        <time>2011-09-04T08:48:07Z</time>
      </trkpt>
      <trkpt lat="47.50672" lon="-0.31702">
        <ele>76</ele>
        <time>2011-09-04T08:48:09Z</time>
      </trkpt>
      <trkpt lat="47.50665" lon="-0.31698">
        <ele>76</ele>
        <time>2011-09-04T08:48:11Z</time>
      </trkpt>
      <trkpt lat="47.50657" lon="-0.31695">
        <ele>76</ele>
        <time>2011-09-04T08:48:13Z</time>
      </trkpt>
      <trkpt lat="47.50652" lon="-0.31694">
        <ele>76</ele>
        <time>2011-09-04T08:48:14Z</time>
      </trkpt>
      <trkpt lat="47.50647" lon="-0.31692">
        <ele>76</ele>
        <time>2011-09-04T08:48:15Z</time>
      </trkpt>
      <trkpt lat="47.50642" lon="-0.31692">
        <ele>77</ele>
        <time>2011-09-04T08:48:16Z</time>
      </trkpt>
      <trkpt lat="47.50634" lon="-0.31691">
        <ele>77</ele>
        <time>2011-09-04T08:48:18Z</time>
      </trkpt>
      <trkpt lat="47.50626" lon="-0.3169">
        <ele>76</ele>
        <time>2011-09-04T08:48:20Z</time>
      </trkpt>
      <trkpt lat="47.50618" lon="-0.3169">
        <ele>76</ele>
        <time>2011-09-04T08:48:22Z</time>
      </trkpt>
      <trkpt lat="47.50611" lon="-0.31689">
        <ele>76</ele>
        <time>2011-09-04T08:48:24Z</time>
      </trkpt>
      <trkpt lat="47.50603" lon="-0.31689">
        <ele>76</ele>
        <time>2011-09-04T08:48:26Z</time>
      </trkpt>
      <trkpt lat="47.50594" lon="-0.31689">
        <ele>75</ele>
        <time>2011-09-04T08:48:28Z</time>
      </trkpt>
      <trkpt lat="47.50585" lon="-0.31688">
        <ele>75</ele>
        <time>2011-09-04T08:48:30Z</time>
      </trkpt>
      <trkpt lat="47.5058" lon="-0.31688">
        <ele>75</ele>
        <time>2011-09-04T08:48:31Z</time>
      </trkpt>
      <trkpt lat="47.50575" lon="-0.31688">
        <ele>75</ele>
        <time>2011-09-04T08:48:32Z</time>
      </trkpt>
      <trkpt lat="47.5057" lon="-0.31688">
        <ele>74</ele>
        <time>2011-09-04T08:48:33Z</time>
      </trkpt>
      <trkpt lat="47.50561" lon="-0.31688">
        <ele>74</ele>
        <time>2011-09-04T08:48:35Z</time>
      </trkpt>
      <trkpt lat="47.50552" lon="-0.31688">
        <ele>74</ele>
        <time>2011-09-04T08:48:37Z</time>
      </trkpt>
      <trkpt lat="47.50547" lon="-0.31689">
        <ele>74</ele>
        <time>2011-09-04T08:48:38Z</time>
      </trkpt>
      <trkpt lat="47.50542" lon="-0.31689">
        <ele>73</ele>
        <time>2011-09-04T08:48:39Z</time>
      </trkpt>
      <trkpt lat="47.50533" lon="-0.31688">
        <ele>73</ele>
        <time>2011-09-04T08:48:41Z</time>
      </trkpt>
      <trkpt lat="47.50528" lon="-0.31688">
        <ele>73</ele>
        <time>2011-09-04T08:48:42Z</time>
      </trkpt>
      <trkpt lat="47.50524" lon="-0.31686">
        <ele>73</ele>
        <time>2011-09-04T08:48:43Z</time>
      </trkpt>
      <trkpt lat="47.50519" lon="-0.31685">
        <ele>73</ele>
        <time>2011-09-04T08:48:44Z</time>
      </trkpt>
      <trkpt lat="47.50514" lon="-0.31684">
        <ele>73</ele>
        <time>2011-09-04T08:48:45Z</time>
      </trkpt>
      <trkpt lat="47.50509" lon="-0.31683">
        <ele>73</ele>
        <time>2011-09-04T08:48:46Z</time>
      </trkpt>
      <trkpt lat="47.50504" lon="-0.31683">
        <ele>73</ele>
        <time>2011-09-04T08:48:47Z</time>
      </trkpt>
      <trkpt lat="47.50495" lon="-0.31681">
        <ele>74</ele>
        <time>2011-09-04T08:48:49Z</time>
      </trkpt>
      <trkpt lat="47.50486" lon="-0.31678">
        <ele>74</ele>
        <time>2011-09-04T08:48:51Z</time>
      </trkpt>
      <trkpt lat="47.50478" lon="-0.31677">
        <ele>74</ele>
        <time>2011-09-04T08:48:53Z</time>
      </trkpt>
      <trkpt lat="47.50469" lon="-0.31675">
        <ele>74</ele>
        <time>2011-09-04T08:48:55Z</time>
      </trkpt>
      <trkpt lat="47.50457" lon="-0.31675">
        <ele>74</ele>
        <time>2011-09-04T08:48:58Z</time>
      </trkpt>
      <trkpt lat="47.5045" lon="-0.31676">
        <ele>74</ele>
        <time>2011-09-04T08:49:00Z</time>
      </trkpt>
      <trkpt lat="47.50442" lon="-0.31676">
        <ele>75</ele>
        <time>2011-09-04T08:49:02Z</time>
      </trkpt>
      <trkpt lat="47.50434" lon="-0.31676">
        <ele>75</ele>
        <time>2011-09-04T08:49:04Z</time>
      </trkpt>
      <trkpt lat="47.50426" lon="-0.31676">
        <ele>75</ele>
        <time>2011-09-04T08:49:06Z</time>
      </trkpt>
      <trkpt lat="47.50418" lon="-0.31677">
        <ele>75</ele>
        <time>2011-09-04T08:49:08Z</time>
      </trkpt>
      <trkpt lat="47.5041" lon="-0.31678">
        <ele>75</ele>
        <time>2011-09-04T08:49:10Z</time>
      </trkpt>
      <trkpt lat="47.50401" lon="-0.3168">
        <ele>75</ele>
        <time>2011-09-04T08:49:12Z</time>
      </trkpt>
      <trkpt lat="47.50393" lon="-0.31681">
        <ele>76</ele>
        <time>2011-09-04T08:49:14Z</time>
      </trkpt>
      <trkpt lat="47.50385" lon="-0.31681">
        <ele>75</ele>
        <time>2011-09-04T08:49:16Z</time>
      </trkpt>
      <trkpt lat="47.50378" lon="-0.31682">
        <ele>76</ele>
        <time>2011-09-04T08:49:18Z</time>
      </trkpt>
      <trkpt lat="47.5037" lon="-0.31682">
        <ele>75</ele>
        <time>2011-09-04T08:49:20Z</time>
      </trkpt>
      <trkpt lat="47.50362" lon="-0.31683">
        <ele>75</ele>
        <time>2011-09-04T08:49:22Z</time>
      </trkpt>
      <trkpt lat="47.50355" lon="-0.31683">
        <ele>76</ele>
        <time>2011-09-04T08:49:24Z</time>
      </trkpt>
      <trkpt lat="47.50347" lon="-0.31683">
        <ele>76</ele>
        <time>2011-09-04T08:49:26Z</time>
      </trkpt>
      <trkpt lat="47.50341" lon="-0.31683">
        <ele>76</ele>
        <time>2011-09-04T08:49:28Z</time>
      </trkpt>
      <trkpt lat="47.50335" lon="-0.31683">
        <ele>76</ele>
        <time>2011-09-04T08:49:30Z</time>
      </trkpt>
      <trkpt lat="47.50329" lon="-0.31684">
        <ele>77</ele>
        <time>2011-09-04T08:49:32Z</time>
      </trkpt>
      <trkpt lat="47.50323" lon="-0.31686">
        <ele>77</ele>
        <time>2011-09-04T08:49:34Z</time>
      </trkpt>
      <trkpt lat="47.50318" lon="-0.31688">
        <ele>77</ele>
        <time>2011-09-04T08:49:36Z</time>
      </trkpt>
      <trkpt lat="47.50312" lon="-0.31689">
        <ele>77</ele>
        <time>2011-09-04T08:49:38Z</time>
      </trkpt>
      <trkpt lat="47.50307" lon="-0.31691">
        <ele>76</ele>
        <time>2011-09-04T08:49:40Z</time>
      </trkpt>
      <trkpt lat="47.50301" lon="-0.31694">
        <ele>76</ele>
        <time>2011-09-04T08:49:42Z</time>
      </trkpt>
      <trkpt lat="47.50295" lon="-0.31696">
        <ele>76</ele>
        <time>2011-09-04T08:49:44Z</time>
      </trkpt>
      <trkpt lat="47.50292" lon="-0.31702">
        <ele>76</ele>
        <time>2011-09-04T08:49:46Z</time>
      </trkpt>
      <trkpt lat="47.5029" lon="-0.31708">
        <ele>76</ele>
        <time>2011-09-04T08:49:48Z</time>
      </trkpt>
      <trkpt lat="47.5029" lon="-0.31715">
        <ele>76</ele>
        <time>2011-09-04T08:49:50Z</time>
      </trkpt>
      <trkpt lat="47.50292" lon="-0.31721">
        <ele>77</ele>
        <time>2011-09-04T08:49:51Z</time>
      </trkpt>
      <trkpt lat="47.50292" lon="-0.31728">
        <ele>77</ele>
        <time>2011-09-04T08:49:53Z</time>
      </trkpt>
      <trkpt lat="47.50292" lon="-0.31738">
        <ele>77</ele>
        <time>2011-09-04T08:49:55Z</time>
      </trkpt>
      <trkpt lat="47.50291" lon="-0.31744">
        <ele>78</ele>
        <time>2011-09-04T08:49:57Z</time>
      </trkpt>
    </trkseg>
  </trk>
</gpx>